GFSSGP_prec_precacc_039.txt.gz
Total_Precipitation_Accumulation
0.00 0.00 0.00 0.00 0.00 0.00 0.00 0.00 0.00 0.00 0.04 0.02 0.05 0.08 0.05 0.02 0.09 0.20 0.08 0.04 0.01 0.01 0.00 0.02 0.14 0.04 0.04 0.06 0.05 0.03 0.02 0.01 0.01 0.00 0.00 0.00 0.00 0.00 0.00 0.01 0.07 0.06 0.03 0.02 0.00 0.00 0.00 0.02 0.02
0.00 0.00 0.00 0.00 0.00 0.00 0.00 0.00 0.00 0.01 0.09 0.11 0.10 0.08 0.06 0.12 0.08 0.13 0.23 0.19 0.08 0.01 0.00 0.00 0.05 0.04 0.00 0.00 0.00 0.00 0.00 0.00 0.00 0.00 0.00 0.00 0.00 0.00 0.01 0.01 0.02 0.00 0.00 0.00 0.00 0.00 0.00 0.00 0.01
0.00 0.00 0.00 0.00 0.00 0.00 0.00 0.00 0.01 0.03 0.03 0.03 0.05 0.01 0.03 0.10 0.25 0.35 0.24 0.16 0.14 0.09 0.02 0.01 0.01 0.01 0.00 0.00 0.00 0.00 0.00 0.00 0.00 0.00 0.00 0.00 0.00 0.00 0.00 0.00 0.00 0.00 0.00 0.00 0.00 0.00 0.00 0.00 0.00
0.00 0.00 0.00 0.00 0.00 0.00 0.00 0.01 0.03 0.03 0.01 0.01 0.03 0.10 0.11 0.12 0.17 0.15 0.08 0.11 0.26 0.36 0.23 0.04 0.08 0.04 0.01 0.01 0.00 0.00 0.00 0.00 0.00 0.00 0.00 0.00 0.00 0.00 0.00 0.00 0.00 0.00 0.00 0.00 0.00 0.00 0.00 0.00 0.00
0.00 0.00 0.00 0.00 0.00 0.00 0.00 0.00 0.03 0.03 0.05 0.02 0.00 0.01 0.06 0.09 0.08 0.04 0.09 0.21 0.24 0.34 0.21 0.08 0.15 0.06 0.01 0.00 0.00 0.00 0.00 0.00 0.00 0.00 0.00 0.00 0.00 0.00 0.00 0.00 0.00 0.00 0.00 0.00 0.00 0.00 0.00 0.00 0.00
0.00 0.00 0.00 0.00 0.00 0.00 0.00 0.01 0.03 0.02 0.00 0.00 0.00 0.01 0.09 0.09 0.11 0.09 0.42 0.74 0.48 0.29 0.22 0.08 0.11 0.02 0.00 0.00 0.00 0.00 0.00 0.00 0.00 0.00 0.00 0.00 0.00 0.00 0.00 0.00 0.00 0.00 0.00 0.00 0.00 0.00 0.00 0.00 0.00
0.00 0.00 0.00 0.00 0.01 0.00 0.00 0.06 0.05 0.04 0.00 0.00 0.00 0.07 0.09 0.11 0.21 0.32 0.71 1.03 0.61 0.21 0.11 0.04 0.02 0.01 0.00 0.00 0.00 0.00 0.00 0.00 0.00 0.00 0.00 0.00 0.00 0.00 0.00 0.00 0.00 0.00 0.00 0.00 0.00 0.00 0.00 0.00 0.00
0.00 0.00 0.00 0.00 0.01 0.02 0.01 0.04 0.03 0.01 0.00 0.00 0.00 0.02 0.04 0.09 0.09 0.17 0.22 0.33 0.31 0.16 0.06 0.00 0.00 0.00 0.00 0.00 0.00 0.00 0.00 0.00 0.00 0.00 0.00 0.00 0.00 0.00 0.00 0.00 0.00 0.00 0.00 0.00 0.00 0.00 0.00 0.00 0.00
0.00 0.00 0.00 0.00 0.01 0.04 0.03 0.01 0.00 0.01 0.00 0.00 0.00 0.00 0.00 0.06 0.04 0.08 0.10 0.12 0.10 0.14 0.01 0.01 0.01 0.00 0.00 0.00 0.00 0.00 0.00 0.00 0.00 0.00 0.00 0.00 0.00 0.00 0.00 0.00 0.00 0.00 0.00 0.00 0.00 0.00 0.00 0.00 0.00
0.00 0.00 0.00 0.00 0.05 0.20 0.01 0.00 0.00 0.00 0.00 0.00 0.00 0.00 0.00 0.02 0.02 0.02 0.01 0.01 0.03 0.02 0.02 0.00 0.00 0.00 0.00 0.00 0.00 0.00 0.00 0.00 0.00 0.00 0.00 0.00 0.00 0.00 0.00 0.00 0.00 0.00 0.00 0.00 0.00 0.00 0.00 0.00 0.00
0.00 0.00 0.00 0.00 0.00 0.00 0.00 0.00 0.00 0.00 0.00 0.00 0.00 0.00 0.01 0.02 0.01 0.01 0.01 0.00 0.00 0.00 0.00 0.00 0.00 0.00 0.00 0.00 0.00 0.00 0.00 0.00 0.00 0.00 0.00 0.00 0.00 0.00 0.00 0.00 0.00 0.00 0.00 0.00 0.00 0.00 0.00 0.00 0.00
0.00 0.00 0.00 0.00 0.00 0.00 0.00 0.00 0.00 0.02 0.04 0.00 0.00 0.00 0.00 0.00 0.00 0.00 0.00 0.00 0.00 0.00 0.00 0.00 0.00 0.00 0.00 0.00 0.00 0.00 0.00 0.00 0.03 0.05 0.03 0.00 0.01 0.01 0.00 0.00 0.00 0.00 0.00 0.00 0.00 0.00 0.00 0.00 0.00
0.00 0.00 0.00 0.00 0.00 0.00 0.00 0.00 0.00 0.00 0.00 0.00 0.00 0.00 0.00 0.00 0.00 0.00 0.00 0.00 0.00 0.00 0.00 0.00 0.00 0.00 0.00 0.00 0.00 0.00 0.00 0.05 0.11 0.12 0.06 0.02 0.00 0.00 0.00 0.00 0.00 0.00 0.00 0.00 0.00 0.00 0.00 0.00 0.00
0.00 0.00 0.00 0.00 0.00 0.00 0.00 0.00 0.00 0.00 0.00 0.00 0.00 0.00 0.00 0.00 0.00 0.00 0.00 0.00 0.00 0.00 0.01 0.01 0.12 0.12 0.02 0.00 0.02 0.05 0.08 0.10 0.10 0.16 0.25 0.12 0.01 0.00 0.00 0.00 0.00 0.00 0.00 0.00 0.00 0.00 0.00 0.00 0.00
0.00 0.00 0.00 0.00 0.00 0.00 0.00 0.00 0.01 0.00 0.00 0.00 0.00 0.00 0.00 0.00 0.00 0.00 0.00 0.00 0.00 0.02 0.05 0.11 0.46 0.47 0.16 0.05 0.06 0.10 0.11 0.05 0.11 0.19 0.18 0.11 0.06 0.04 0.01 0.00 0.00 0.00 0.00 0.00 0.00 0.00 0.00 0.00 0.00
0.00 0.00 0.00 0.00 0.00 0.00 0.00 0.00 0.00 0.00 0.00 0.00 0.00 0.00 0.00 0.00 0.00 0.00 0.00 0.00 0.00 0.01 0.09 0.33 0.46 0.50 0.34 0.15 0.17 0.14 0.11 0.10 0.09 0.11 0.10 0.09 0.03 0.00 0.00 0.00 0.00 0.00 0.00 0.00 0.00 0.00 0.00 0.00 0.00
0.00 0.00 0.00 0.00 0.00 0.00 0.00 0.00 0.00 0.00 0.00 0.00 0.00 0.00 0.00 0.00 0.00 0.00 0.00 0.00 0.01 0.00 0.10 0.49 0.66 0.62 0.59 0.48 0.45 0.53 0.39 0.20 0.03 0.02 0.01 0.00 0.00 0.00 0.00 0.00 0.00 0.00 0.00 0.00 0.00 0.00 0.00 0.00 0.00
0.00 0.00 0.00 0.00 0.00 0.00 0.00 0.00 0.00 0.00 0.00 0.00 0.00 0.00 0.00 0.00 0.00 0.00 0.00 0.02 0.03 0.02 0.21 0.53 0.68 0.85 0.96 0.87 0.65 0.29 0.17 0.04 0.00 0.00 0.00 0.00 0.00 0.00 0.00 0.00 0.00 0.00 0.00 0.00 0.00 0.00 0.00 0.00 0.00
0.00 0.00 0.00 0.00 0.00 0.00 0.00 0.00 0.00 0.00 0.00 0.00 0.00 0.00 0.00 0.00 0.00 0.00 0.01 0.02 0.04 0.08 0.31 0.59 0.69 0.94 0.92 0.40 0.15 0.04 0.01 0.00 0.00 0.00 0.00 0.00 0.00 0.00 0.00 0.00 0.00 0.00 0.00 0.00 0.00 0.00 0.00 0.00 0.00
0.00 0.00 0.00 0.00 0.00 0.00 0.00 0.00 0.00 0.00 0.00 0.00 0.00 0.00 0.00 0.00 0.00 0.01 0.03 0.05 0.12 0.23 0.45 0.48 0.41 0.22 0.03 0.00 0.00 0.00 0.00 0.00 0.00 0.00 0.00 0.00 0.00 0.00 0.00 0.00 0.00 0.00 0.00 0.00 0.00 0.00 0.00 0.00 0.00
0.00 0.00 0.00 0.00 0.00 0.00 0.00 0.00 0.00 0.00 0.00 0.00 0.00 0.00 0.00 0.00 0.00 0.02 0.06 0.13 0.15 0.12 0.05 0.00 0.00 0.00 0.00 0.00 0.00 0.00 0.00 0.00 0.00 0.00 0.00 0.00 0.00 0.00 0.00 0.00 0.00 0.00 0.00 0.00 0.00 0.00 0.00 0.00 0.00
0.00 0.00 0.00 0.00 0.00 0.00 0.00 0.00 0.00 0.00 0.00 0.00 0.00 0.00 0.00 0.00 0.01 0.03 0.02 0.01 0.00 0.00 0.00 0.00 0.00 0.00 0.00 0.00 0.00 0.00 0.00 0.00 0.00 0.00 0.00 0.00 0.00 0.00 0.00 0.00 0.00 0.00 0.00 0.00 0.00 0.00 0.00 0.00 0.00
0.00 0.00 0.00 0.00 0.00 0.00 0.00 0.00 0.00 0.00 0.00 0.00 0.00 0.00 0.00 0.00 0.00 0.00 0.00 0.00 0.00 0.00 0.00 0.00 0.00 0.00 0.00 0.00 0.00 0.00 0.00 0.00 0.00 0.00 0.00 0.00 0.00 0.00 0.00 0.00 0.00 0.00 0.00 0.00 0.00 0.00 0.00 0.00 0.00
0.00 0.00 0.00 0.00 0.00 0.00 0.00 0.02 0.01 0.01 0.00 0.00 0.00 0.00 0.00 0.00 0.00 0.00 0.00 0.00 0.00 0.00 0.00 0.00 0.00 0.00 0.00 0.00 0.00 0.00 0.00 0.00 0.00 0.00 0.00 0.00 0.00 0.00 0.00 0.00 0.00 0.00 0.00 0.00 0.00 0.00 0.01 0.02 0.03
0.00 0.00 0.00 0.02 0.03 0.02 0.03 0.02 0.02 0.00 0.00 0.00 0.00 0.00 0.00 0.00 0.00 0.00 0.00 0.00 0.00 0.00 0.00 0.00 0.00 0.00 0.00 0.00 0.00 0.00 0.00 0.00 0.00 0.00 0.00 0.00 0.00 0.00 0.00 0.00 0.00 0.00 0.00 0.00 0.00 0.01 0.03 0.06 0.07
0.00 0.00 0.00 0.01 0.01 0.01 0.00 0.00 0.00 0.00 0.00 0.00 0.00 0.00 0.00 0.00 0.00 0.00 0.00 0.00 0.00 0.00 0.00 0.00 0.00 0.00 0.00 0.00 0.00 0.00 0.00 0.00 0.00 0.00 0.00 0.00 0.00 0.00 0.00 0.00 0.00 0.00 0.00 0.01 0.02 0.06 0.12 0.20 0.26
0.00 0.00 0.00 0.00 0.00 0.00 0.00 0.00 0.00 0.00 0.00 0.00 0.00 0.00 0.00 0.00 0.00 0.00 0.00 0.00 0.00 0.00 0.00 0.00 0.00 0.00 0.00 0.00 0.00 0.00 0.00 0.00 0.00 0.00 0.00 0.00 0.00 0.00 0.00 0.00 0.00 0.01 0.02 0.08 0.16 0.23 0.30 0.35 0.35
0.00 0.00 0.00 0.00 0.00 0.00 0.00 0.00 0.00 0.00 0.00 0.00 0.00 0.00 0.00 0.00 0.00 0.00 0.00 0.00 0.00 0.00 0.00 0.00 0.00 0.00 0.00 0.00 0.00 0.00 0.00 0.00 0.00 0.00 0.00 0.00 0.00 0.00 0.00 0.01 0.05 0.10 0.11 0.09 0.09 0.09 0.08 0.10 0.11
0.00 0.00 0.00 0.00 0.00 0.00 0.01 0.00 0.00 0.00 0.00 0.00 0.00 0.00 0.00 0.00 0.00 0.00 0.00 0.00 0.00 0.00 0.00 0.00 0.00 0.00 0.00 0.00 0.00 0.00 0.00 0.00 0.00 0.00 0.00 0.00 0.00 0.00 0.00 0.02 0.04 0.04 0.06 0.09 0.09 0.07 0.06 0.04 0.02
0.00 0.00 0.00 0.00 0.00 0.00 0.00 0.00 0.00 0.00 0.00 0.00 0.00 0.00 0.00 0.00 0.00 0.00 0.00 0.00 0.00 0.00 0.00 0.00 0.00 0.00 0.00 0.00 0.00 0.00 0.00 0.00 0.00 0.00 0.00 0.00 0.00 0.01 0.04 0.05 0.06 0.08 0.09 0.07 0.06 0.03 0.02 0.02 0.02

GFSSGP_prec_precacc_042.txt.gz
Total_Precipitation_Accumulation
0.00 0.00 0.00 0.00 0.00 0.00 0.00 0.00 0.00 0.01 0.04 0.02 0.05 0.09 0.10 0.05 0.12 0.31 0.18 0.06 0.02 0.01 0.00 0.02 0.14 0.04 0.04 0.06 0.05 0.03 0.02 0.01 0.01 0.00 0.00 0.00 0.00 0.00 0.00 0.01 0.07 0.06 0.03 0.02 0.00 0.00 0.00 0.02 0.02
0.00 0.00 0.00 0.00 0.00 0.00 0.00 0.01 0.00 0.01 0.11 0.12 0.10 0.09 0.08 0.13 0.08 0.15 0.29 0.22 0.08 0.02 0.00 0.00 0.06 0.05 0.01 0.01 0.00 0.00 0.00 0.00 0.00 0.00 0.00 0.00 0.00 0.00 0.01 0.01 0.02 0.00 0.00 0.00 0.00 0.00 0.00 0.00 0.01
0.00 0.00 0.00 0.00 0.00 0.00 0.00 0.01 0.03 0.03 0.03 0.03 0.05 0.01 0.03 0.12 0.28 0.39 0.33 0.34 0.16 0.10 0.03 0.02 0.06 0.07 0.01 0.00 0.00 0.00 0.00 0.00 0.00 0.00 0.00 0.00 0.00 0.00 0.00 0.00 0.00 0.00 0.00 0.00 0.00 0.00 0.00 0.00 0.00
0.00 0.00 0.00 0.00 0.00 0.00 0.00 0.01 0.03 0.03 0.01 0.01 0.04 0.10 0.12 0.13 0.19 0.17 0.17 0.25 0.37 0.57 0.37 0.15 0.17 0.09 0.03 0.02 0.00 0.00 0.00 0.00 0.00 0.00 0.00 0.00 0.00 0.00 0.00 0.00 0.00 0.00 0.00 0.00 0.00 0.00 0.00 0.00 0.00
0.00 0.00 0.00 0.00 0.00 0.00 0.00 0.00 0.03 0.03 0.05 0.02 0.00 0.01 0.06 0.10 0.09 0.07 0.29 0.49 0.41 0.68 0.44 0.21 0.26 0.13 0.05 0.02 0.00 0.00 0.00 0.00 0.00 0.00 0.00 0.00 0.00 0.00 0.00 0.00 0.00 0.00 0.00 0.00 0.00 0.00 0.00 0.00 0.00
0.00 0.00 0.00 0.00 0.00 0.00 0.00 0.01 0.03 0.04 0.09 0.13 0.00 0.01 0.10 0.09 0.11 0.10 0.51 0.99 0.94 1.07 0.73 0.24 0.24 0.07 0.01 0.00 0.00 0.00 0.00 0.00 0.00 0.00 0.00 0.00 0.00 0.00 0.00 0.00 0.00 0.00 0.00 0.00 0.00 0.00 0.00 0.00 0.00
0.00 0.00 0.00 0.00 0.01 0.00 0.00 0.06 0.12 0.21 0.05 0.02 0.00 0.07 0.16 0.15 0.22 0.36 0.73 1.12 1.53 1.06 0.68 0.31 0.16 0.04 0.00 0.00 0.00 0.00 0.00 0.00 0.00 0.00 0.00 0.00 0.00 0.00 0.00 0.00 0.00 0.00 0.00 0.00 0.00 0.00 0.00 0.00 0.00
0.00 0.00 0.00 0.00 0.01 0.02 0.03 0.05 0.07 0.06 0.01 0.00 0.00 0.02 0.06 0.15 0.15 0.24 0.27 0.42 0.91 0.81 0.52 0.24 0.05 0.00 0.00 0.00 0.00 0.00 0.00 0.00 0.00 0.00 0.00 0.00 0.00 0.00 0.00 0.00 0.00 0.00 0.00 0.00 0.00 0.00 0.00 0.00 0.00
0.00 0.00 0.00 0.00 0.03 0.11 0.13 0.15 0.01 0.01 0.00 0.00 0.00 0.01 0.01 0.08 0.10 0.12 0.29 0.40 0.81 1.15 0.23 0.03 0.01 0.00 0.00 0.00 0.00 0.00 0.00 0.00 0.00 0.00 0.00 0.00 0.00 0.00 0.00 0.00 0.00 0.00 0.00 0.00 0.00 0.00 0.00 0.00 0.00
0.00 0.00 0.00 0.00 0.06 0.33 0.29 0.13 0.01 0.00 0.00 0.00 0.00 0.00 0.01 0.02 0.05 0.07 0.09 0.18 0.50 0.24 0.08 0.00 0.00 0.00 0.00 0.00 0.00 0.00 0.00 0.00 0.00 0.00 0.00 0.00 0.00 0.00 0.00 0.00 0.00 0.00 0.00 0.00 0.00 0.00 0.00 0.00 0.00
0.00 0.00 0.00 0.00 0.00 0.00 0.01 0.01 0.00 0.00 0.00 0.01 0.02 0.00 0.01 0.02 0.02 0.09 0.17 0.16 0.10 0.01 0.00 0.00 0.00 0.00 0.00 0.00 0.00 0.00 0.00 0.00 0.00 0.00 0.02 0.03 0.00 0.01 0.01 0.01 0.00 0.00 0.00 0.00 0.00 0.00 0.00 0.00 0.00
0.00 0.00 0.00 0.00 0.00 0.00 0.00 0.00 0.00 0.04 0.11 0.10 0.10 0.04 0.00 0.01 0.00 0.01 0.03 0.05 0.00 0.00 0.00 0.00 0.00 0.00 0.00 0.00 0.00 0.00 0.00 0.00 0.06 0.10 0.05 0.05 0.03 0.01 0.00 0.00 0.00 0.00 0.00 0.00 0.00 0.00 0.00 0.00 0.00
0.00 0.00 0.00 0.00 0.00 0.00 0.00 0.00 0.00 0.02 0.01 0.05 0.09 0.02 0.00 0.00 0.00 0.00 0.03 0.00 0.00 0.00 0.00 0.00 0.00 0.00 0.00 0.00 0.00 0.01 0.05 0.11 0.24 0.25 0.09 0.07 0.03 0.01 0.00 0.00 0.00 0.00 0.00 0.00 0.00 0.00 0.00 0.00 0.00
0.00 0.00 0.00 0.00 0.00 0.00 0.00 0.01 0.02 0.01 0.00 0.01 0.00 0.00 0.00 0.00 0.00 0.01 0.00 0.00 0.00 0.00 0.01 0.01 0.12 0.12 0.02 0.01 0.04 0.08 0.13 0.20 0.18 0.17 0.25 0.12 0.01 0.00 0.00 0.00 0.00 0.00 0.00 0.00 0.00 0.00 0.00 0.00 0.00
0.00 0.00 0.00 0.00 0.00 0.00 0.00 0.01 0.03 0.00 0.00 0.00 0.00 0.00 0.00 0.00 0.00 0.00 0.00 0.00 0.00 0.02 0.05 0.11 0.46 0.47 0.16 0.05 0.06 0.11 0.12 0.05 0.11 0.19 0.18 0.11 0.06 0.05 0.01 0.00 0.00 0.00 0.00 0.00 0.00 0.00 0.00 0.00 0.00
0.00 0.00 0.00 0.00 0.00 0.00 0.01 0.01 0.00 0.00 0.00 0.00 0.00 0.00 0.00 0.00 0.00 0.00 0.00 0.00 0.00 0.01 0.09 0.33 0.46 0.50 0.34 0.15 0.17 0.14 0.11 0.10 0.09 0.11 0.10 0.10 0.04 0.01 0.00 0.00 0.00 0.00 0.00 0.00 0.00 0.00 0.00 0.00 0.00
0.00 0.00 0.00 0.00 0.00 0.00 0.00 0.00 0.00 0.00 0.00 0.00 0.00 0.00 0.00 0.00 0.00 0.00 0.00 0.00 0.01 0.00 0.10 0.49 0.67 0.65 0.63 0.50 0.46 0.55 0.46 0.29 0.07 0.03 0.01 0.00 0.00 0.00 0.00 0.00 0.00 0.00 0.00 0.00 0.00 0.00 0.00 0.00 0.00
0.00 0.00 0.00 0.00 0.00 0.00 0.00 0.00 0.00 0.00 0.00 0.00 0.00 0.00 0.00 0.00 0.00 0.00 0.00 0.02 0.03 0.02 0.22 0.53 0.69 0.92 1.02 0.91 0.68 0.30 0.19 0.10 0.03 0.00 0.00 0.00 0.00 0.00 0.00 0.00 0.00 0.00 0.00 0.00 0.00 0.00 0.00 0.00 0.00
0.00 0.00 0.00 0.00 0.00 0.00 0.00 0.00 0.00 0.00 0.00 0.00 0.00 0.00 0.00 0.00 0.00 0.00 0.01 0.02 0.04 0.08 0.34 0.61 0.70 0.95 0.93 0.41 0.15 0.04 0.01 0.00 0.00 0.00 0.00 0.00 0.00 0.00 0.00 0.00 0.00 0.00 0.00 0.00 0.00 0.00 0.00 0.00 0.00
0.00 0.00 0.00 0.00 0.00 0.00 0.00 0.00 0.00 0.00 0.00 0.00 0.00 0.00 0.00 0.00 0.00 0.01 0.03 0.05 0.12 0.23 0.45 0.50 0.42 0.25 0.05 0.01 0.00 0.00 0.00 0.00 0.00 0.00 0.00 0.00 0.00 0.00 0.00 0.00 0.00 0.00 0.00 0.00 0.00 0.00 0.00 0.00 0.00
0.00 0.00 0.00 0.00 0.00 0.00 0.00 0.00 0.00 0.00 0.00 0.00 0.00 0.00 0.00 0.00 0.00 0.02 0.06 0.13 0.15 0.13 0.09 0.01 0.01 0.01 0.00 0.00 0.00 0.00 0.00 0.00 0.00 0.00 0.00 0.00 0.00 0.00 0.00 0.00 0.00 0.00 0.00 0.00 0.00 0.00 0.00 0.00 0.00
0.00 0.00 0.00 0.00 0.00 0.00 0.00 0.00 0.00 0.00 0.00 0.00 0.00 0.00 0.00 0.00 0.01 0.03 0.02 0.01 0.00 0.00 0.02 0.01 0.00 0.00 0.00 0.00 0.00 0.00 0.00 0.00 0.00 0.00 0.00 0.00 0.00 0.00 0.00 0.00 0.00 0.00 0.00 0.00 0.00 0.00 0.00 0.00 0.00
0.01 0.00 0.00 0.00 0.00 0.02 0.01 0.00 0.01 0.00 0.00 0.00 0.00 0.00 0.00 0.00 0.00 0.00 0.00 0.00 0.00 0.01 0.00 0.00 0.00 0.00 0.00 0.00 0.00 0.00 0.00 0.00 0.00 0.00 0.00 0.00 0.00 0.00 0.00 0.00 0.00 0.00 0.00 0.00 0.00 0.00 0.00 0.00 0.00
0.00 0.00 0.00 0.00 0.00 0.00 0.00 0.02 0.02 0.01 0.01 0.00 0.00 0.00 0.00 0.00 0.00 0.00 0.01 0.00 0.00 0.00 0.00 0.00 0.00 0.00 0.00 0.00 0.00 0.00 0.00 0.00 0.00 0.00 0.00 0.00 0.00 0.00 0.00 0.00 0.00 0.00 0.00 0.00 0.00 0.00 0.01 0.02 0.03
0.00 0.00 0.00 0.09 0.05 0.02 0.03 0.02 0.02 0.01 0.00 0.00 0.00 0.00 0.00 0.00 0.00 0.00 0.00 0.00 0.00 0.00 0.00 0.00 0.00 0.00 0.00 0.00 0.00 0.00 0.00 0.00 0.00 0.00 0.00 0.00 0.00 0.00 0.00 0.00 0.00 0.00 0.00 0.00 0.00 0.01 0.03 0.06 0.08
0.00 0.00 0.01 0.04 0.03 0.01 0.00 0.00 0.00 0.00 0.00 0.00 0.00 0.00 0.00 0.00 0.00 0.00 0.00 0.00 0.00 0.00 0.00 0.00 0.00 0.00 0.00 0.00 0.00 0.00 0.00 0.00 0.00 0.00 0.00 0.00 0.00 0.00 0.00 0.00 0.00 0.00 0.00 0.01 0.02 0.06 0.12 0.20 0.28
0.00 0.00 0.00 0.00 0.00 0.00 0.00 0.00 0.00 0.00 0.00 0.00 0.00 0.00 0.00 0.00 0.00 0.00 0.00 0.00 0.00 0.00 0.00 0.00 0.00 0.00 0.00 0.00 0.00 0.00 0.00 0.00 0.00 0.00 0.00 0.00 0.00 0.00 0.00 0.00 0.00 0.01 0.02 0.08 0.16 0.23 0.30 0.35 0.37
0.00 0.00 0.00 0.00 0.00 0.00 0.00 0.00 0.00 0.01 0.00 0.00 0.00 0.00 0.00 0.00 0.00 0.00 0.00 0.00 0.00 0.00 0.00 0.00 0.00 0.00 0.00 0.00 0.00 0.00 0.00 0.00 0.00 0.00 0.00 0.00 0.00 0.00 0.00 0.01 0.05 0.10 0.11 0.09 0.09 0.09 0.08 0.10 0.12
0.00 0.00 0.00 0.00 0.00 0.00 0.01 0.00 0.00 0.00 0.00 0.00 0.00 0.00 0.00 0.00 0.00 0.00 0.00 0.00 0.00 0.00 0.00 0.00 0.00 0.00 0.00 0.00 0.00 0.00 0.00 0.00 0.00 0.00 0.00 0.00 0.00 0.00 0.00 0.02 0.04 0.04 0.06 0.09 0.09 0.07 0.06 0.05 0.02
0.00 0.00 0.00 0.00 0.00 0.00 0.00 0.00 0.00 0.00 0.00 0.00 0.00 0.00 0.00 0.00 0.00 0.00 0.00 0.00 0.00 0.00 0.00 0.00 0.00 0.00 0.00 0.00 0.00 0.00 0.00 0.00 0.00 0.00 0.00 0.00 0.00 0.01 0.04 0.05 0.06 0.08 0.09 0.07 0.06 0.03 0.02 0.02 0.02

GFSSGP_prec_precacc_045.txt.gz
Total_Precipitation_Accumulation
0.00 0.00 0.00 0.00 0.00 0.00 0.00 0.00 0.00 0.03 0.05 0.04 0.05 0.09 0.10 0.05 0.15 0.34 0.23 0.22 0.19 0.03 0.00 0.02 0.14 0.04 0.05 0.06 0.05 0.03 0.02 0.01 0.01 0.00 0.00 0.00 0.00 0.00 0.00 0.01 0.07 0.06 0.03 0.02 0.00 0.00 0.00 0.02 0.02
0.00 0.00 0.00 0.00 0.00 0.00 0.00 0.01 0.00 0.02 0.13 0.16 0.13 0.09 0.08 0.13 0.09 0.16 0.34 0.37 0.16 0.02 0.00 0.00 0.06 0.05 0.01 0.01 0.01 0.00 0.00 0.00 0.00 0.00 0.00 0.00 0.00 0.00 0.01 0.01 0.02 0.00 0.00 0.00 0.00 0.00 0.00 0.00 0.01
0.00 0.00 0.00 0.00 0.00 0.00 0.00 0.01 0.03 0.03 0.04 0.04 0.06 0.01 0.03 0.15 0.30 0.41 0.45 0.49 0.23 0.11 0.03 0.02 0.06 0.08 0.02 0.01 0.00 0.00 0.00 0.00 0.00 0.00 0.00 0.00 0.00 0.00 0.00 0.00 0.00 0.00 0.00 0.00 0.00 0.00 0.00 0.00 0.00
0.00 0.00 0.00 0.00 0.00 0.00 0.00 0.02 0.05 0.05 0.03 0.01 0.04 0.10 0.12 0.13 0.22 0.18 0.32 0.53 0.50 0.61 0.39 0.16 0.20 0.17 0.06 0.03 0.00 0.00 0.00 0.00 0.00 0.00 0.00 0.00 0.00 0.00 0.00 0.00 0.00 0.00 0.00 0.00 0.00 0.00 0.00 0.00 0.00
0.00 0.00 0.00 0.00 0.00 0.00 0.00 0.01 0.05 0.06 0.05 0.02 0.00 0.01 0.06 0.10 0.13 0.17 0.54 0.83 0.80 0.90 0.49 0.26 0.39 0.23 0.07 0.02 0.00 0.00 0.00 0.00 0.00 0.00 0.00 0.00 0.00 0.00 0.00 0.00 0.00 0.00 0.00 0.00 0.00 0.00 0.00 0.00 0.00
0.00 0.00 0.00 0.00 0.00 0.00 0.01 0.09 0.08 0.07 0.11 0.15 0.01 0.02 0.10 0.09 0.13 0.23 0.73 1.46 1.66 1.38 0.91 0.51 0.56 0.28 0.05 0.00 0.00 0.00 0.00 0.00 0.00 0.00 0.00 0.00 0.00 0.00 0.00 0.00 0.00 0.00 0.00 0.00 0.00 0.00 0.00 0.00 0.00
0.00 0.00 0.00 0.00 0.01 0.00 0.01 0.14 0.25 0.32 0.13 0.03 0.00 0.09 0.22 0.15 0.22 0.37 0.84 1.31 2.21 1.80 1.03 0.84 0.59 0.26 0.02 0.00 0.00 0.00 0.00 0.00 0.00 0.00 0.00 0.00 0.00 0.00 0.00 0.00 0.00 0.00 0.00 0.00 0.00 0.00 0.00 0.00 0.00
0.00 0.00 0.00 0.00 0.01 0.02 0.05 0.13 0.18 0.10 0.02 0.00 0.00 0.03 0.08 0.17 0.16 0.24 0.27 0.44 1.00 1.07 1.08 0.69 0.44 0.09 0.00 0.00 0.00 0.00 0.00 0.00 0.00 0.00 0.00 0.00 0.00 0.00 0.00 0.00 0.00 0.00 0.00 0.00 0.00 0.00 0.00 0.00 0.00
0.00 0.00 0.00 0.00 0.03 0.11 0.15 0.28 0.33 0.19 0.03 0.01 0.01 0.01 0.03 0.12 0.13 0.13 0.29 0.45 1.07 1.58 0.64 0.35 0.15 0.00 0.00 0.00 0.00 0.00 0.00 0.00 0.00 0.00 0.00 0.00 0.00 0.00 0.00 0.00 0.00 0.00 0.00 0.00 0.00 0.00 0.00 0.00 0.00
0.00 0.00 0.00 0.00 0.06 0.33 0.29 0.15 0.03 0.01 0.00 0.04 0.09 0.14 0.08 0.06 0.07 0.07 0.11 0.46 0.94 0.72 0.38 0.08 0.01 0.00 0.00 0.00 0.00 0.00 0.00 0.00 0.00 0.00 0.00 0.00 0.00 0.00 0.00 0.00 0.00 0.00 0.00 0.00 0.00 0.00 0.00 0.00 0.00
0.00 0.00 0.00 0.00 0.00 0.00 0.01 0.01 0.00 0.00 0.00 0.01 0.24 0.26 0.11 0.03 0.03 0.17 0.32 0.29 0.34 0.18 0.06 0.03 0.00 0.00 0.00 0.00 0.00 0.00 0.00 0.00 0.00 0.00 0.03 0.04 0.01 0.01 0.03 0.01 0.00 0.00 0.00 0.00 0.00 0.00 0.00 0.00 0.00
0.00 0.00 0.00 0.00 0.00 0.00 0.00 0.00 0.01 0.04 0.11 0.11 0.19 0.54 0.20 0.06 0.11 0.19 0.18 0.11 0.03 0.04 0.02 0.00 0.00 0.00 0.00 0.00 0.00 0.00 0.00 0.01 0.06 0.11 0.06 0.06 0.03 0.04 0.01 0.00 0.00 0.00 0.00 0.00 0.00 0.00 0.00 0.00 0.00
0.00 0.00 0.00 0.00 0.00 0.00 0.00 0.00 0.01 0.02 0.01 0.10 0.18 0.22 0.16 0.09 0.16 0.28 0.23 0.01 0.00 0.00 0.00 0.00 0.00 0.00 0.00 0.00 0.00 0.01 0.06 0.11 0.24 0.26 0.12 0.11 0.04 0.05 0.00 0.00 0.00 0.00 0.00 0.00 0.00 0.00 0.00 0.00 0.00
0.00 0.00 0.00 0.00 0.00 0.00 0.00 0.02 0.08 0.01 0.02 0.12 0.10 0.05 0.04 0.07 0.08 0.09 0.07 0.00 0.00 0.00 0.01 0.01 0.12 0.12 0.02 0.01 0.04 0.08 0.13 0.20 0.18 0.17 0.26 0.13 0.01 0.00 0.00 0.00 0.00 0.00 0.00 0.00 0.00 0.00 0.00 0.00 0.00
0.00 0.00 0.00 0.00 0.00 0.00 0.00 0.01 0.04 0.01 0.02 0.03 0.03 0.04 0.02 0.03 0.01 0.00 0.00 0.00 0.00 0.02 0.05 0.11 0.46 0.47 0.16 0.05 0.06 0.11 0.12 0.05 0.11 0.19 0.18 0.11 0.06 0.05 0.01 0.00 0.00 0.00 0.00 0.00 0.00 0.00 0.00 0.00 0.00
0.00 0.00 0.00 0.00 0.00 0.00 0.01 0.01 0.00 0.01 0.00 0.00 0.00 0.00 0.01 0.02 0.00 0.00 0.00 0.00 0.00 0.01 0.09 0.33 0.46 0.50 0.34 0.15 0.17 0.14 0.11 0.10 0.09 0.11 0.10 0.10 0.04 0.01 0.00 0.00 0.00 0.00 0.00 0.00 0.00 0.00 0.00 0.00 0.00
0.00 0.00 0.00 0.00 0.00 0.00 0.00 0.00 0.00 0.00 0.00 0.00 0.00 0.00 0.00 0.00 0.00 0.00 0.00 0.00 0.01 0.00 0.10 0.49 0.67 0.65 0.63 0.50 0.46 0.55 0.46 0.29 0.07 0.03 0.01 0.00 0.00 0.00 0.00 0.00 0.00 0.00 0.00 0.00 0.00 0.00 0.00 0.00 0.00
0.00 0.00 0.00 0.00 0.00 0.00 0.00 0.00 0.00 0.00 0.00 0.00 0.00 0.00 0.00 0.00 0.00 0.00 0.00 0.02 0.03 0.02 0.22 0.53 0.69 0.93 1.03 0.92 0.70 0.31 0.19 0.10 0.03 0.00 0.00 0.00 0.00 0.00 0.00 0.00 0.00 0.00 0.00 0.00 0.00 0.00 0.00 0.00 0.00
0.00 0.00 0.00 0.00 0.00 0.00 0.00 0.00 0.00 0.00 0.00 0.00 0.00 0.00 0.00 0.00 0.00 0.00 0.01 0.02 0.04 0.09 0.38 0.64 0.70 0.95 0.93 0.42 0.16 0.05 0.01 0.00 0.00 0.00 0.00 0.00 0.00 0.00 0.00 0.00 0.00 0.00 0.00 0.00 0.00 0.00 0.00 0.00 0.00
0.00 0.00 0.00 0.00 0.00 0.00 0.00 0.00 0.00 0.00 0.00 0.00 0.00 0.00 0.00 0.00 0.00 0.01 0.03 0.05 0.12 0.23 0.49 0.57 0.43 0.26 0.06 0.01 0.00 0.00 0.00 0.00 0.00 0.00 0.00 0.00 0.00 0.00 0.00 0.00 0.00 0.00 0.00 0.00 0.00 0.00 0.00 0.00 0.00
0.00 0.00 0.00 0.00 0.00 0.00 0.00 0.00 0.00 0.00 0.00 0.00 0.00 0.00 0.00 0.00 0.00 0.02 0.06 0.13 0.17 0.14 0.13 0.05 0.01 0.02 0.01 0.00 0.00 0.00 0.00 0.00 0.00 0.00 0.00 0.00 0.00 0.00 0.00 0.00 0.00 0.00 0.00 0.00 0.00 0.00 0.00 0.00 0.00
0.00 0.00 0.00 0.00 0.00 0.00 0.00 0.00 0.00 0.00 0.00 0.00 0.00 0.00 0.00 0.02 0.02 0.03 0.02 0.01 0.00 0.01 0.08 0.02 0.00 0.01 0.00 0.00 0.00 0.00 0.00 0.00 0.00 0.00 0.00 0.00 0.00 0.00 0.00 0.00 0.00 0.00 0.00 0.00 0.00 0.00 0.00 0.00 0.00
0.01 0.00 0.00 0.00 0.00 0.02 0.01 0.00 0.01 0.00 0.00 0.00 0.00 0.00 0.00 0.00 0.00 0.00 0.00 0.00 0.01 0.02 0.04 0.00 0.00 0.00 0.00 0.00 0.00 0.00 0.00 0.00 0.00 0.00 0.00 0.00 0.00 0.00 0.00 0.00 0.00 0.00 0.00 0.00 0.00 0.00 0.00 0.00 0.00
0.00 0.00 0.00 0.00 0.00 0.00 0.00 0.03 0.02 0.01 0.01 0.01 0.01 0.00 0.00 0.00 0.00 0.00 0.01 0.01 0.00 0.01 0.01 0.00 0.00 0.00 0.00 0.00 0.00 0.00 0.00 0.00 0.00 0.00 0.00 0.00 0.00 0.00 0.00 0.00 0.00 0.00 0.00 0.00 0.00 0.00 0.01 0.02 0.03
0.00 0.00 0.00 0.10 0.07 0.02 0.03 0.02 0.02 0.01 0.00 0.00 0.00 0.00 0.00 0.00 0.00 0.00 0.00 0.00 0.00 0.00 0.00 0.00 0.01 0.00 0.00 0.00 0.00 0.00 0.00 0.00 0.00 0.00 0.00 0.00 0.00 0.00 0.00 0.00 0.00 0.00 0.00 0.00 0.00 0.01 0.03 0.06 0.08
0.00 0.00 0.01 0.04 0.05 0.02 0.01 0.02 0.00 0.00 0.00 0.00 0.00 0.00 0.00 0.00 0.00 0.00 0.00 0.00 0.00 0.00 0.00 0.00 0.00 0.00 0.00 0.00 0.00 0.00 0.00 0.00 0.00 0.00 0.00 0.00 0.00 0.00 0.00 0.00 0.00 0.00 0.00 0.01 0.02 0.06 0.12 0.20 0.28
0.01 0.00 0.01 0.00 0.01 0.00 0.00 0.01 0.00 0.01 0.00 0.00 0.00 0.00 0.00 0.00 0.00 0.00 0.00 0.00 0.00 0.00 0.00 0.00 0.00 0.00 0.00 0.00 0.00 0.00 0.00 0.00 0.00 0.00 0.00 0.00 0.00 0.00 0.00 0.00 0.00 0.01 0.02 0.08 0.16 0.23 0.30 0.35 0.37
0.00 0.00 0.00 0.00 0.00 0.00 0.00 0.00 0.01 0.01 0.01 0.00 0.00 0.00 0.00 0.00 0.00 0.00 0.00 0.00 0.00 0.00 0.00 0.00 0.00 0.00 0.00 0.00 0.00 0.00 0.00 0.00 0.00 0.00 0.00 0.00 0.00 0.00 0.00 0.01 0.05 0.10 0.11 0.09 0.09 0.09 0.08 0.10 0.12
0.00 0.00 0.00 0.00 0.00 0.00 0.01 0.00 0.00 0.00 0.00 0.00 0.00 0.00 0.00 0.00 0.00 0.00 0.00 0.00 0.00 0.00 0.00 0.00 0.00 0.00 0.00 0.00 0.00 0.00 0.00 0.00 0.00 0.00 0.00 0.00 0.00 0.00 0.00 0.02 0.04 0.04 0.06 0.09 0.09 0.07 0.06 0.05 0.02
0.00 0.00 0.01 0.00 0.00 0.00 0.00 0.00 0.00 0.00 0.00 0.00 0.00 0.00 0.00 0.00 0.00 0.00 0.00 0.00 0.00 0.00 0.00 0.00 0.00 0.00 0.00 0.00 0.00 0.00 0.00 0.00 0.00 0.00 0.00 0.00 0.00 0.01 0.04 0.05 0.06 0.08 0.09 0.07 0.06 0.03 0.02 0.02 0.02

GFSSGP_prec_precacc_048.txt.gz
Total_Precipitation_Accumulation
0.00 0.00 0.00 0.00 0.00 0.00 0.00 0.00 0.00 0.03 0.05 0.04 0.05 0.09 0.10 0.05 0.16 0.35 0.24 0.22 0.21 0.03 0.00 0.02 0.14 0.04 0.05 0.06 0.05 0.03 0.02 0.01 0.01 0.00 0.00 0.00 0.00 0.00 0.00 0.01 0.07 0.06 0.03 0.02 0.00 0.00 0.00 0.02 0.02
0.00 0.00 0.00 0.00 0.00 0.00 0.00 0.01 0.00 0.02 0.13 0.16 0.13 0.09 0.08 0.13 0.09 0.16 0.36 0.38 0.17 0.03 0.00 0.00 0.06 0.05 0.01 0.01 0.01 0.00 0.00 0.00 0.00 0.00 0.00 0.00 0.00 0.00 0.01 0.01 0.02 0.00 0.00 0.00 0.00 0.00 0.00 0.00 0.01
0.00 0.00 0.00 0.00 0.00 0.00 0.00 0.01 0.03 0.03 0.04 0.04 0.06 0.01 0.03 0.15 0.31 0.42 0.45 0.51 0.24 0.11 0.04 0.02 0.06 0.08 0.02 0.02 0.00 0.00 0.00 0.00 0.00 0.00 0.00 0.00 0.00 0.00 0.00 0.00 0.00 0.00 0.00 0.00 0.00 0.00 0.00 0.00 0.00
0.00 0.00 0.00 0.00 0.00 0.00 0.00 0.02 0.06 0.06 0.03 0.01 0.04 0.10 0.12 0.13 0.22 0.18 0.33 0.58 0.56 0.62 0.39 0.16 0.22 0.18 0.07 0.04 0.00 0.00 0.00 0.00 0.00 0.00 0.00 0.00 0.00 0.00 0.00 0.00 0.00 0.00 0.00 0.00 0.00 0.00 0.00 0.00 0.00
0.00 0.00 0.00 0.00 0.00 0.00 0.00 0.01 0.07 0.09 0.06 0.02 0.00 0.01 0.06 0.11 0.14 0.19 0.63 1.03 0.96 1.01 0.58 0.32 0.47 0.33 0.09 0.02 0.00 0.00 0.00 0.00 0.00 0.00 0.00 0.00 0.00 0.00 0.00 0.00 0.00 0.00 0.00 0.00 0.00 0.00 0.00 0.00 0.00
0.00 0.00 0.00 0.00 0.00 0.01 0.03 0.13 0.20 0.21 0.16 0.16 0.01 0.02 0.10 0.10 0.16 0.35 0.97 2.42 3.33 2.53 1.53 0.86 0.87 0.59 0.14 0.00 0.00 0.00 0.00 0.00 0.00 0.00 0.00 0.00 0.00 0.00 0.00 0.00 0.00 0.00 0.00 0.00 0.00 0.00 0.00 0.00 0.00
0.00 0.00 0.00 0.00 0.01 0.00 0.02 0.15 0.34 0.48 0.28 0.05 0.04 0.11 0.22 0.16 0.26 0.43 1.03 1.86 3.73 2.88 1.84 1.64 0.95 0.49 0.08 0.00 0.00 0.00 0.00 0.00 0.00 0.00 0.00 0.00 0.00 0.00 0.00 0.00 0.00 0.00 0.00 0.00 0.00 0.00 0.00 0.00 0.00
0.00 0.00 0.00 0.00 0.01 0.02 0.06 0.15 0.21 0.13 0.05 0.02 0.03 0.04 0.08 0.19 0.17 0.25 0.28 0.53 1.29 1.36 1.33 1.04 0.80 0.23 0.01 0.00 0.00 0.00 0.00 0.00 0.00 0.00 0.00 0.00 0.00 0.00 0.00 0.00 0.00 0.00 0.00 0.00 0.00 0.00 0.00 0.00 0.00
0.00 0.00 0.00 0.00 0.03 0.11 0.15 0.28 0.33 0.20 0.06 0.06 0.06 0.01 0.03 0.12 0.13 0.13 0.30 0.46 1.14 1.74 0.76 0.50 0.30 0.05 0.00 0.00 0.00 0.00 0.00 0.00 0.00 0.00 0.00 0.00 0.00 0.00 0.00 0.00 0.00 0.00 0.00 0.00 0.00 0.00 0.00 0.00 0.00
0.00 0.00 0.00 0.00 0.06 0.33 0.29 0.15 0.03 0.01 0.00 0.14 0.23 0.27 0.16 0.10 0.07 0.07 0.12 0.47 0.97 0.81 0.47 0.13 0.04 0.01 0.00 0.00 0.00 0.00 0.00 0.00 0.00 0.00 0.00 0.00 0.00 0.00 0.00 0.00 0.00 0.00 0.00 0.00 0.00 0.00 0.00 0.00 0.00
0.00 0.00 0.00 0.00 0.00 0.00 0.01 0.01 0.00 0.00 0.00 0.04 0.28 0.31 0.23 0.10 0.04 0.18 0.33 0.30 0.43 0.22 0.09 0.06 0.00 0.00 0.00 0.00 0.00 0.00 0.00 0.00 0.00 0.00 0.03 0.04 0.01 0.01 0.03 0.01 0.00 0.00 0.00 0.00 0.00 0.00 0.00 0.00 0.00
0.00 0.00 0.00 0.00 0.00 0.00 0.00 0.00 0.01 0.04 0.11 0.11 0.19 0.58 0.39 0.21 0.16 0.26 0.22 0.13 0.04 0.06 0.03 0.00 0.00 0.00 0.00 0.00 0.00 0.00 0.00 0.01 0.06 0.11 0.06 0.06 0.03 0.04 0.01 0.00 0.00 0.00 0.00 0.00 0.00 0.00 0.00 0.00 0.00
0.00 0.00 0.00 0.00 0.00 0.00 0.00 0.00 0.01 0.02 0.01 0.10 0.18 0.23 0.26 0.32 0.29 0.43 0.27 0.02 0.00 0.00 0.00 0.01 0.00 0.00 0.00 0.00 0.00 0.01 0.06 0.11 0.24 0.26 0.12 0.11 0.04 0.05 0.00 0.00 0.00 0.00 0.00 0.00 0.00 0.00 0.00 0.00 0.00
0.00 0.00 0.00 0.00 0.00 0.00 0.00 0.02 0.08 0.01 0.02 0.12 0.10 0.05 0.11 0.15 0.15 0.12 0.07 0.00 0.00 0.00 0.01 0.01 0.12 0.12 0.02 0.01 0.04 0.08 0.13 0.20 0.18 0.17 0.26 0.13 0.01 0.00 0.00 0.00 0.00 0.00 0.00 0.00 0.00 0.00 0.00 0.00 0.00
0.00 0.00 0.00 0.00 0.00 0.00 0.00 0.01 0.05 0.02 0.02 0.03 0.03 0.04 0.05 0.08 0.07 0.01 0.00 0.00 0.00 0.02 0.05 0.11 0.46 0.47 0.16 0.05 0.06 0.11 0.12 0.05 0.11 0.19 0.18 0.11 0.06 0.05 0.01 0.00 0.00 0.00 0.00 0.00 0.00 0.00 0.00 0.00 0.00
0.00 0.00 0.00 0.00 0.00 0.00 0.01 0.01 0.00 0.01 0.01 0.00 0.00 0.00 0.02 0.02 0.00 0.00 0.00 0.00 0.00 0.01 0.09 0.33 0.46 0.50 0.34 0.15 0.17 0.14 0.11 0.10 0.09 0.11 0.10 0.10 0.04 0.01 0.00 0.00 0.00 0.00 0.00 0.00 0.00 0.00 0.00 0.00 0.00
0.00 0.00 0.00 0.00 0.00 0.00 0.00 0.00 0.00 0.02 0.01 0.00 0.00 0.00 0.00 0.00 0.00 0.00 0.00 0.00 0.01 0.00 0.10 0.49 0.67 0.65 0.63 0.50 0.46 0.55 0.46 0.30 0.07 0.03 0.01 0.00 0.00 0.00 0.00 0.00 0.00 0.00 0.00 0.00 0.00 0.00 0.00 0.00 0.00
0.00 0.00 0.00 0.00 0.00 0.00 0.00 0.00 0.00 0.00 0.00 0.00 0.00 0.00 0.02 0.01 0.00 0.00 0.00 0.02 0.03 0.02 0.22 0.53 0.69 0.93 1.03 0.92 0.70 0.31 0.19 0.10 0.03 0.00 0.00 0.00 0.00 0.00 0.00 0.00 0.00 0.00 0.00 0.00 0.00 0.00 0.00 0.00 0.00
0.00 0.00 0.00 0.00 0.00 0.00 0.00 0.00 0.00 0.00 0.00 0.00 0.00 0.00 0.00 0.00 0.00 0.00 0.01 0.02 0.04 0.09 0.38 0.64 0.70 0.95 0.93 0.42 0.16 0.05 0.02 0.00 0.00 0.00 0.00 0.00 0.00 0.00 0.00 0.00 0.00 0.00 0.00 0.00 0.00 0.00 0.00 0.00 0.00
0.00 0.00 0.00 0.00 0.00 0.00 0.00 0.00 0.00 0.00 0.00 0.00 0.00 0.00 0.00 0.00 0.00 0.01 0.03 0.05 0.12 0.23 0.49 0.57 0.44 0.26 0.06 0.02 0.00 0.00 0.00 0.00 0.00 0.00 0.00 0.00 0.00 0.00 0.00 0.00 0.00 0.00 0.00 0.00 0.00 0.00 0.00 0.00 0.00
0.00 0.00 0.00 0.00 0.00 0.00 0.00 0.00 0.00 0.00 0.00 0.00 0.00 0.00 0.00 0.00 0.00 0.02 0.06 0.13 0.17 0.14 0.13 0.05 0.03 0.04 0.02 0.00 0.00 0.00 0.00 0.00 0.00 0.00 0.00 0.00 0.00 0.00 0.00 0.00 0.00 0.00 0.00 0.00 0.00 0.00 0.00 0.00 0.00
0.00 0.00 0.00 0.00 0.00 0.00 0.00 0.00 0.00 0.00 0.00 0.00 0.00 0.00 0.00 0.02 0.02 0.03 0.02 0.01 0.00 0.01 0.08 0.05 0.01 0.02 0.03 0.00 0.00 0.00 0.00 0.00 0.00 0.00 0.00 0.00 0.00 0.00 0.00 0.00 0.00 0.00 0.00 0.00 0.00 0.00 0.00 0.00 0.00
0.01 0.00 0.00 0.00 0.00 0.02 0.01 0.00 0.01 0.00 0.00 0.00 0.00 0.00 0.00 0.00 0.00 0.00 0.00 0.00 0.01 0.02 0.07 0.06 0.02 0.03 0.02 0.00 0.00 0.00 0.00 0.00 0.00 0.00 0.00 0.00 0.00 0.00 0.00 0.00 0.00 0.00 0.00 0.00 0.00 0.00 0.00 0.00 0.00
0.00 0.00 0.00 0.00 0.00 0.00 0.00 0.03 0.02 0.01 0.01 0.01 0.01 0.00 0.00 0.01 0.02 0.00 0.01 0.01 0.00 0.02 0.04 0.03 0.01 0.01 0.02 0.01 0.00 0.00 0.00 0.00 0.00 0.00 0.00 0.00 0.00 0.00 0.00 0.00 0.00 0.00 0.00 0.00 0.00 0.00 0.01 0.02 0.03
0.00 0.00 0.00 0.10 0.07 0.02 0.03 0.02 0.02 0.01 0.00 0.00 0.00 0.00 0.01 0.00 0.00 0.00 0.00 0.00 0.00 0.00 0.01 0.03 0.03 0.00 0.00 0.00 0.00 0.00 0.00 0.00 0.00 0.00 0.00 0.00 0.00 0.00 0.00 0.00 0.00 0.00 0.00 0.00 0.00 0.01 0.03 0.06 0.08
0.00 0.00 0.01 0.04 0.05 0.02 0.01 0.02 0.00 0.00 0.00 0.00 0.00 0.00 0.00 0.00 0.00 0.00 0.00 0.00 0.01 0.01 0.01 0.05 0.01 0.00 0.00 0.00 0.00 0.00 0.00 0.00 0.00 0.00 0.00 0.00 0.00 0.00 0.00 0.00 0.00 0.00 0.00 0.01 0.02 0.06 0.12 0.20 0.28
0.01 0.00 0.01 0.00 0.01 0.00 0.00 0.01 0.00 0.01 0.00 0.00 0.00 0.00 0.00 0.00 0.00 0.00 0.00 0.00 0.04 0.02 0.03 0.02 0.00 0.00 0.00 0.00 0.00 0.00 0.00 0.00 0.00 0.00 0.00 0.00 0.00 0.00 0.00 0.00 0.00 0.01 0.02 0.08 0.16 0.23 0.30 0.35 0.37
0.00 0.00 0.00 0.00 0.00 0.00 0.00 0.00 0.01 0.01 0.01 0.00 0.00 0.00 0.00 0.00 0.00 0.00 0.00 0.00 0.01 0.03 0.03 0.00 0.00 0.00 0.01 0.00 0.00 0.00 0.00 0.00 0.00 0.00 0.00 0.00 0.00 0.00 0.00 0.01 0.05 0.10 0.11 0.09 0.09 0.09 0.08 0.10 0.12
0.00 0.00 0.00 0.00 0.00 0.00 0.01 0.00 0.00 0.00 0.00 0.00 0.00 0.00 0.00 0.00 0.00 0.00 0.00 0.00 0.00 0.00 0.00 0.00 0.00 0.00 0.00 0.00 0.00 0.00 0.00 0.00 0.00 0.00 0.00 0.00 0.00 0.01 0.01 0.02 0.04 0.04 0.06 0.09 0.09 0.07 0.06 0.05 0.02
0.00 0.00 0.01 0.00 0.00 0.00 0.00 0.00 0.00 0.00 0.00 0.00 0.00 0.00 0.00 0.00 0.00 0.00 0.00 0.00 0.00 0.00 0.00 0.00 0.00 0.00 0.00 0.00 0.00 0.00 0.01 0.01 0.01 0.01 0.01 0.00 0.00 0.01 0.04 0.05 0.06 0.08 0.09 0.07 0.06 0.03 0.02 0.02 0.02

GFSSGP_prec_precacc_051.txt.gz
Total_Precipitation_Accumulation
0.00 0.00 0.00 0.00 0.00 0.00 0.00 0.00 0.00 0.03 0.05 0.04 0.05 0.09 0.10 0.05 0.16 0.37 0.24 0.22 0.21 0.04 0.00 0.02 0.14 0.04 0.05 0.06 0.05 0.03 0.02 0.01 0.01 0.00 0.00 0.00 0.00 0.00 0.00 0.01 0.07 0.06 0.03 0.02 0.00 0.00 0.00 0.02 0.02
0.00 0.00 0.00 0.00 0.00 0.00 0.00 0.01 0.00 0.02 0.13 0.16 0.13 0.09 0.08 0.13 0.09 0.16 0.37 0.38 0.17 0.03 0.02 0.02 0.08 0.05 0.01 0.01 0.01 0.00 0.00 0.00 0.00 0.00 0.00 0.00 0.00 0.00 0.01 0.01 0.02 0.00 0.00 0.00 0.00 0.00 0.00 0.00 0.01
0.00 0.00 0.00 0.00 0.00 0.00 0.00 0.01 0.04 0.04 0.07 0.07 0.06 0.01 0.04 0.16 0.32 0.42 0.45 0.53 0.28 0.13 0.05 0.06 0.17 0.09 0.02 0.02 0.00 0.00 0.00 0.00 0.00 0.00 0.00 0.00 0.00 0.00 0.00 0.00 0.00 0.00 0.00 0.00 0.00 0.00 0.00 0.00 0.00
0.00 0.00 0.00 0.00 0.00 0.00 0.00 0.02 0.07 0.09 0.09 0.05 0.07 0.11 0.15 0.16 0.26 0.20 0.34 0.64 0.63 0.65 0.39 0.22 0.40 0.20 0.07 0.04 0.00 0.00 0.00 0.00 0.00 0.00 0.00 0.00 0.00 0.00 0.00 0.00 0.00 0.00 0.00 0.00 0.00 0.00 0.00 0.00 0.00
0.00 0.00 0.00 0.00 0.00 0.00 0.00 0.01 0.08 0.11 0.08 0.06 0.03 0.01 0.08 0.17 0.16 0.22 0.75 1.15 1.16 1.30 0.73 0.54 0.71 0.41 0.10 0.02 0.00 0.00 0.00 0.00 0.00 0.00 0.00 0.00 0.00 0.00 0.00 0.00 0.00 0.00 0.00 0.00 0.00 0.00 0.00 0.00 0.00
0.00 0.00 0.00 0.00 0.00 0.01 0.03 0.13 0.22 0.27 0.26 0.23 0.03 0.02 0.12 0.21 0.21 0.46 1.11 2.59 3.64 3.96 2.66 1.33 1.29 0.95 0.30 0.00 0.00 0.00 0.00 0.00 0.00 0.00 0.00 0.00 0.00 0.00 0.00 0.00 0.00 0.00 0.00 0.00 0.00 0.00 0.00 0.00 0.00
0.00 0.00 0.00 0.00 0.01 0.00 0.02 0.15 0.35 0.51 0.36 0.11 0.07 0.14 0.24 0.23 0.33 0.51 1.18 2.21 4.34 4.27 3.62 2.77 1.73 0.80 0.16 0.00 0.00 0.00 0.00 0.00 0.00 0.00 0.00 0.00 0.00 0.00 0.00 0.00 0.00 0.00 0.00 0.00 0.00 0.00 0.00 0.00 0.00
0.00 0.00 0.00 0.00 0.01 0.02 0.06 0.15 0.21 0.13 0.06 0.03 0.07 0.12 0.10 0.25 0.23 0.27 0.29 0.56 1.73 1.92 1.92 1.43 1.01 0.30 0.02 0.00 0.00 0.00 0.00 0.00 0.00 0.00 0.00 0.00 0.00 0.00 0.00 0.00 0.00 0.00 0.00 0.00 0.00 0.00 0.00 0.00 0.00
0.00 0.00 0.00 0.00 0.03 0.11 0.15 0.28 0.33 0.20 0.06 0.09 0.11 0.06 0.07 0.16 0.16 0.15 0.32 0.49 1.19 1.96 1.03 0.60 0.34 0.07 0.01 0.00 0.00 0.00 0.00 0.00 0.00 0.00 0.00 0.00 0.00 0.00 0.00 0.00 0.00 0.00 0.00 0.00 0.00 0.00 0.00 0.00 0.00
0.00 0.00 0.00 0.00 0.06 0.33 0.29 0.15 0.03 0.01 0.00 0.16 0.31 0.34 0.19 0.12 0.08 0.08 0.13 0.51 0.99 0.83 0.51 0.18 0.10 0.04 0.00 0.00 0.00 0.00 0.00 0.00 0.00 0.00 0.00 0.00 0.00 0.00 0.00 0.00 0.00 0.00 0.00 0.00 0.00 0.00 0.00 0.00 0.00
0.00 0.00 0.00 0.00 0.00 0.00 0.01 0.01 0.00 0.00 0.00 0.05 0.31 0.34 0.25 0.11 0.05 0.19 0.35 0.31 0.44 0.23 0.10 0.07 0.01 0.00 0.00 0.00 0.00 0.00 0.00 0.00 0.00 0.00 0.03 0.04 0.01 0.01 0.03 0.01 0.00 0.00 0.00 0.00 0.00 0.00 0.00 0.00 0.00
0.00 0.00 0.00 0.00 0.00 0.00 0.00 0.00 0.01 0.04 0.11 0.11 0.20 0.60 0.40 0.23 0.17 0.27 0.23 0.13 0.04 0.06 0.03 0.01 0.00 0.00 0.00 0.00 0.00 0.00 0.00 0.01 0.06 0.11 0.06 0.06 0.03 0.04 0.01 0.00 0.00 0.00 0.00 0.00 0.00 0.00 0.00 0.00 0.00
0.00 0.00 0.00 0.00 0.00 0.00 0.00 0.00 0.01 0.02 0.01 0.11 0.18 0.24 0.27 0.32 0.31 0.46 0.27 0.02 0.00 0.00 0.00 0.01 0.00 0.00 0.00 0.00 0.00 0.01 0.06 0.11 0.24 0.26 0.12 0.11 0.04 0.05 0.00 0.00 0.00 0.00 0.00 0.00 0.00 0.00 0.00 0.00 0.00
0.00 0.00 0.00 0.00 0.00 0.00 0.00 0.02 0.08 0.01 0.02 0.12 0.10 0.05 0.11 0.16 0.18 0.13 0.07 0.00 0.00 0.00 0.01 0.01 0.12 0.12 0.02 0.01 0.04 0.08 0.13 0.20 0.18 0.17 0.26 0.13 0.02 0.00 0.00 0.00 0.00 0.00 0.00 0.00 0.00 0.00 0.00 0.00 0.00
0.00 0.00 0.00 0.00 0.00 0.00 0.00 0.01 0.05 0.02 0.02 0.03 0.03 0.04 0.05 0.09 0.11 0.02 0.00 0.00 0.00 0.02 0.05 0.11 0.46 0.47 0.16 0.05 0.06 0.11 0.12 0.05 0.11 0.19 0.18 0.11 0.07 0.05 0.01 0.00 0.00 0.00 0.00 0.00 0.00 0.00 0.00 0.00 0.00
0.00 0.00 0.00 0.00 0.00 0.00 0.01 0.01 0.00 0.02 0.01 0.00 0.00 0.00 0.02 0.03 0.00 0.00 0.00 0.00 0.00 0.01 0.09 0.33 0.46 0.50 0.34 0.15 0.17 0.14 0.11 0.10 0.10 0.11 0.10 0.10 0.04 0.01 0.00 0.00 0.00 0.00 0.00 0.00 0.00 0.00 0.00 0.00 0.00
0.00 0.00 0.00 0.00 0.00 0.00 0.00 0.00 0.00 0.02 0.01 0.00 0.00 0.00 0.00 0.01 0.00 0.00 0.00 0.00 0.01 0.00 0.10 0.49 0.67 0.65 0.63 0.50 0.46 0.55 0.46 0.30 0.08 0.03 0.01 0.00 0.00 0.00 0.00 0.00 0.00 0.00 0.00 0.00 0.00 0.00 0.00 0.00 0.00
0.00 0.00 0.00 0.00 0.00 0.00 0.00 0.00 0.00 0.00 0.00 0.00 0.00 0.00 0.02 0.01 0.00 0.00 0.00 0.02 0.03 0.02 0.22 0.53 0.69 0.93 1.03 0.92 0.70 0.31 0.19 0.10 0.03 0.00 0.00 0.00 0.00 0.00 0.00 0.00 0.00 0.00 0.00 0.00 0.00 0.00 0.00 0.00 0.00
0.00 0.00 0.00 0.00 0.00 0.00 0.00 0.00 0.00 0.00 0.00 0.00 0.00 0.00 0.00 0.00 0.00 0.00 0.01 0.02 0.04 0.09 0.38 0.64 0.70 0.95 0.93 0.42 0.16 0.05 0.02 0.00 0.00 0.00 0.00 0.00 0.00 0.00 0.00 0.00 0.00 0.00 0.00 0.00 0.00 0.00 0.00 0.00 0.00
0.00 0.00 0.00 0.00 0.00 0.00 0.00 0.00 0.00 0.00 0.00 0.00 0.00 0.00 0.00 0.00 0.00 0.01 0.03 0.05 0.12 0.23 0.50 0.59 0.44 0.26 0.06 0.02 0.00 0.00 0.00 0.00 0.00 0.00 0.00 0.00 0.00 0.00 0.00 0.00 0.00 0.00 0.00 0.00 0.00 0.00 0.00 0.00 0.00
0.00 0.00 0.00 0.00 0.00 0.00 0.00 0.00 0.00 0.00 0.00 0.00 0.00 0.00 0.00 0.00 0.00 0.02 0.06 0.13 0.17 0.14 0.13 0.07 0.06 0.04 0.02 0.00 0.00 0.00 0.00 0.00 0.00 0.00 0.00 0.00 0.00 0.00 0.00 0.00 0.00 0.00 0.00 0.00 0.00 0.00 0.00 0.00 0.00
0.00 0.00 0.00 0.00 0.00 0.00 0.00 0.00 0.00 0.00 0.00 0.00 0.00 0.00 0.00 0.02 0.02 0.03 0.02 0.01 0.00 0.01 0.08 0.05 0.04 0.04 0.03 0.00 0.00 0.00 0.00 0.00 0.00 0.00 0.00 0.00 0.00 0.00 0.00 0.00 0.00 0.00 0.00 0.00 0.00 0.00 0.00 0.00 0.00
0.01 0.00 0.00 0.00 0.00 0.02 0.01 0.00 0.01 0.00 0.00 0.00 0.00 0.00 0.00 0.00 0.00 0.00 0.00 0.00 0.01 0.02 0.07 0.07 0.08 0.09 0.04 0.01 0.01 0.01 0.01 0.00 0.00 0.00 0.00 0.00 0.00 0.00 0.00 0.00 0.00 0.00 0.00 0.00 0.00 0.00 0.00 0.00 0.00
0.00 0.00 0.00 0.00 0.00 0.00 0.00 0.03 0.02 0.01 0.01 0.01 0.01 0.00 0.00 0.01 0.02 0.00 0.01 0.01 0.00 0.03 0.05 0.04 0.10 0.06 0.05 0.05 0.04 0.02 0.00 0.00 0.00 0.00 0.00 0.00 0.00 0.00 0.00 0.00 0.00 0.00 0.00 0.00 0.00 0.00 0.01 0.02 0.03
0.00 0.00 0.00 0.10 0.07 0.02 0.03 0.02 0.02 0.01 0.00 0.00 0.00 0.00 0.01 0.00 0.00 0.00 0.00 0.00 0.00 0.01 0.02 0.06 0.13 0.11 0.08 0.08 0.04 0.01 0.00 0.00 0.00 0.00 0.00 0.00 0.00 0.00 0.00 0.00 0.01 0.00 0.00 0.00 0.00 0.01 0.03 0.06 0.08
0.00 0.00 0.01 0.04 0.05 0.02 0.01 0.02 0.00 0.00 0.00 0.00 0.00 0.00 0.00 0.00 0.00 0.00 0.00 0.00 0.01 0.02 0.01 0.08 0.09 0.11 0.07 0.04 0.01 0.00 0.00 0.00 0.00 0.00 0.00 0.00 0.00 0.00 0.01 0.02 0.01 0.00 0.00 0.01 0.02 0.06 0.12 0.20 0.28
0.01 0.00 0.01 0.00 0.01 0.00 0.00 0.01 0.00 0.01 0.00 0.00 0.00 0.00 0.00 0.00 0.00 0.00 0.00 0.00 0.04 0.02 0.04 0.10 0.11 0.04 0.01 0.00 0.00 0.00 0.00 0.00 0.00 0.00 0.00 0.00 0.00 0.01 0.03 0.02 0.02 0.02 0.03 0.08 0.16 0.23 0.30 0.35 0.37
0.00 0.00 0.00 0.00 0.00 0.00 0.00 0.00 0.01 0.01 0.01 0.00 0.00 0.00 0.00 0.00 0.00 0.00 0.00 0.00 0.01 0.03 0.07 0.07 0.03 0.02 0.01 0.00 0.00 0.00 0.00 0.01 0.00 0.00 0.01 0.01 0.02 0.05 0.05 0.03 0.06 0.10 0.11 0.09 0.09 0.09 0.08 0.10 0.12
0.00 0.00 0.00 0.00 0.00 0.00 0.01 0.00 0.00 0.00 0.00 0.00 0.00 0.00 0.00 0.00 0.00 0.00 0.00 0.00 0.00 0.01 0.02 0.02 0.01 0.00 0.00 0.01 0.02 0.01 0.01 0.01 0.01 0.01 0.01 0.01 0.03 0.06 0.03 0.03 0.04 0.04 0.06 0.09 0.09 0.07 0.06 0.05 0.02
0.00 0.00 0.01 0.00 0.00 0.00 0.00 0.00 0.00 0.00 0.00 0.00 0.00 0.00 0.00 0.00 0.00 0.00 0.00 0.00 0.00 0.00 0.00 0.00 0.00 0.00 0.01 0.03 0.02 0.01 0.01 0.02 0.01 0.02 0.04 0.09 0.10 0.03 0.04 0.06 0.06 0.08 0.09 0.07 0.06 0.03 0.02 0.02 0.02

GFSSGP_prec_precacc_054.txt.gz
Total_Precipitation_Accumulation
0.00 0.00 0.00 0.00 0.00 0.00 0.00 0.00 0.00 0.03 0.08 0.10 0.15 0.15 0.12 0.06 0.19 0.39 0.24 0.22 0.21 0.04 0.01 0.03 0.14 0.04 0.05 0.06 0.05 0.03 0.02 0.01 0.01 0.00 0.00 0.00 0.00 0.00 0.00 0.01 0.07 0.06 0.03 0.02 0.00 0.00 0.00 0.02 0.02
0.00 0.00 0.00 0.00 0.00 0.00 0.00 0.01 0.01 0.03 0.16 0.19 0.18 0.15 0.25 0.22 0.11 0.20 0.41 0.41 0.18 0.04 0.03 0.03 0.10 0.06 0.01 0.01 0.01 0.00 0.00 0.00 0.00 0.00 0.00 0.00 0.00 0.00 0.01 0.01 0.02 0.00 0.00 0.00 0.00 0.00 0.00 0.00 0.01
0.00 0.00 0.00 0.00 0.00 0.00 0.00 0.01 0.05 0.08 0.14 0.13 0.07 0.02 0.15 0.25 0.37 0.47 0.50 0.57 0.32 0.16 0.08 0.11 0.24 0.10 0.02 0.02 0.00 0.00 0.00 0.00 0.00 0.00 0.00 0.00 0.00 0.00 0.00 0.00 0.00 0.00 0.00 0.00 0.00 0.00 0.00 0.00 0.00
0.00 0.00 0.00 0.00 0.00 0.00 0.00 0.02 0.07 0.10 0.10 0.06 0.08 0.12 0.18 0.19 0.29 0.23 0.37 0.67 0.73 0.71 0.44 0.31 0.55 0.21 0.07 0.04 0.00 0.00 0.00 0.00 0.00 0.00 0.00 0.00 0.00 0.00 0.00 0.00 0.00 0.00 0.00 0.00 0.00 0.00 0.00 0.00 0.00
0.00 0.00 0.00 0.00 0.00 0.00 0.00 0.01 0.08 0.11 0.09 0.07 0.06 0.02 0.11 0.26 0.18 0.29 0.88 1.48 1.41 1.57 0.93 0.76 0.96 0.46 0.16 0.02 0.00 0.00 0.00 0.00 0.00 0.00 0.00 0.00 0.00 0.00 0.00 0.00 0.00 0.00 0.00 0.00 0.00 0.00 0.00 0.00 0.00
0.00 0.00 0.00 0.00 0.00 0.01 0.03 0.13 0.22 0.28 0.27 0.29 0.09 0.07 0.17 0.26 0.25 0.52 1.18 2.66 3.72 4.15 3.95 2.33 1.96 1.31 0.45 0.02 0.00 0.00 0.00 0.00 0.00 0.00 0.00 0.00 0.00 0.00 0.00 0.00 0.00 0.00 0.00 0.00 0.00 0.00 0.00 0.00 0.00
0.00 0.00 0.00 0.00 0.01 0.00 0.02 0.15 0.35 0.51 0.39 0.14 0.10 0.16 0.27 0.25 0.37 0.54 1.20 2.30 4.40 4.41 5.22 5.32 3.12 1.32 0.30 0.00 0.00 0.00 0.00 0.00 0.00 0.00 0.00 0.00 0.00 0.00 0.00 0.00 0.00 0.00 0.00 0.00 0.00 0.00 0.00 0.00 0.00
0.00 0.00 0.00 0.00 0.01 0.02 0.06 0.15 0.21 0.13 0.07 0.05 0.07 0.12 0.13 0.28 0.25 0.29 0.31 0.60 1.78 2.07 2.69 2.66 1.79 0.59 0.09 0.00 0.00 0.00 0.00 0.00 0.00 0.00 0.00 0.00 0.00 0.00 0.00 0.00 0.00 0.00 0.00 0.00 0.00 0.00 0.00 0.00 0.00
0.00 0.00 0.00 0.00 0.03 0.11 0.15 0.28 0.33 0.20 0.06 0.09 0.11 0.06 0.07 0.18 0.16 0.16 0.34 0.50 1.20 1.98 1.26 1.09 0.62 0.17 0.03 0.00 0.00 0.00 0.00 0.00 0.00 0.00 0.00 0.00 0.00 0.00 0.00 0.00 0.00 0.00 0.00 0.00 0.00 0.00 0.00 0.00 0.00
0.00 0.00 0.00 0.00 0.06 0.33 0.29 0.15 0.03 0.01 0.00 0.16 0.31 0.35 0.22 0.14 0.09 0.09 0.14 0.51 0.99 0.83 0.51 0.21 0.13 0.05 0.00 0.00 0.00 0.00 0.00 0.00 0.00 0.00 0.00 0.00 0.00 0.00 0.00 0.00 0.00 0.00 0.00 0.00 0.00 0.00 0.00 0.00 0.00
0.00 0.00 0.00 0.00 0.00 0.00 0.01 0.01 0.00 0.00 0.00 0.06 0.31 0.36 0.29 0.15 0.09 0.20 0.35 0.31 0.45 0.23 0.10 0.07 0.01 0.00 0.00 0.00 0.00 0.00 0.00 0.00 0.00 0.00 0.03 0.04 0.01 0.01 0.03 0.01 0.00 0.00 0.00 0.00 0.00 0.00 0.00 0.00 0.00
0.00 0.00 0.00 0.00 0.00 0.00 0.00 0.00 0.01 0.04 0.11 0.11 0.20 0.62 0.49 0.34 0.26 0.29 0.23 0.15 0.06 0.07 0.03 0.01 0.00 0.00 0.00 0.00 0.00 0.00 0.00 0.01 0.06 0.11 0.06 0.06 0.03 0.04 0.01 0.00 0.00 0.00 0.00 0.00 0.00 0.00 0.00 0.00 0.00
0.00 0.00 0.00 0.00 0.00 0.00 0.00 0.00 0.01 0.02 0.01 0.11 0.18 0.26 0.33 0.38 0.34 0.47 0.27 0.02 0.01 0.00 0.00 0.01 0.00 0.00 0.00 0.00 0.00 0.01 0.06 0.11 0.24 0.26 0.12 0.11 0.04 0.05 0.00 0.00 0.00 0.00 0.00 0.00 0.00 0.00 0.00 0.00 0.00
0.00 0.00 0.00 0.00 0.00 0.00 0.00 0.02 0.08 0.01 0.02 0.12 0.10 0.05 0.13 0.17 0.18 0.13 0.07 0.00 0.00 0.00 0.01 0.01 0.12 0.12 0.02 0.01 0.04 0.08 0.13 0.20 0.18 0.17 0.26 0.13 0.02 0.01 0.00 0.00 0.00 0.00 0.00 0.00 0.00 0.00 0.00 0.00 0.00
0.00 0.00 0.00 0.00 0.00 0.00 0.00 0.01 0.05 0.02 0.02 0.03 0.03 0.04 0.05 0.09 0.11 0.02 0.00 0.00 0.00 0.02 0.05 0.11 0.46 0.47 0.16 0.05 0.06 0.11 0.12 0.05 0.11 0.19 0.18 0.11 0.08 0.07 0.02 0.00 0.00 0.00 0.00 0.00 0.00 0.00 0.00 0.00 0.00
0.00 0.00 0.00 0.00 0.00 0.00 0.01 0.01 0.00 0.02 0.01 0.00 0.00 0.00 0.02 0.03 0.00 0.00 0.00 0.00 0.00 0.01 0.09 0.33 0.46 0.50 0.34 0.15 0.17 0.14 0.11 0.10 0.11 0.12 0.10 0.11 0.07 0.04 0.01 0.00 0.00 0.00 0.00 0.00 0.00 0.00 0.00 0.00 0.00
0.00 0.00 0.00 0.00 0.00 0.00 0.00 0.00 0.00 0.02 0.01 0.00 0.00 0.00 0.00 0.02 0.01 0.00 0.00 0.00 0.01 0.00 0.10 0.49 0.67 0.65 0.63 0.50 0.46 0.55 0.46 0.31 0.10 0.06 0.05 0.01 0.00 0.00 0.00 0.00 0.00 0.00 0.00 0.00 0.00 0.00 0.00 0.00 0.00
0.00 0.00 0.00 0.00 0.00 0.00 0.00 0.00 0.00 0.00 0.00 0.00 0.00 0.00 0.02 0.01 0.00 0.00 0.00 0.02 0.03 0.02 0.22 0.53 0.69 0.93 1.03 0.92 0.70 0.31 0.20 0.13 0.07 0.04 0.02 0.00 0.00 0.00 0.00 0.00 0.00 0.00 0.00 0.00 0.00 0.00 0.00 0.00 0.00
0.00 0.00 0.00 0.00 0.00 0.00 0.00 0.00 0.00 0.00 0.00 0.00 0.00 0.00 0.00 0.00 0.00 0.00 0.01 0.02 0.04 0.09 0.38 0.64 0.70 0.95 0.93 0.42 0.16 0.05 0.03 0.03 0.03 0.04 0.02 0.00 0.00 0.00 0.00 0.00 0.00 0.00 0.00 0.00 0.00 0.00 0.00 0.00 0.00
0.00 0.00 0.00 0.00 0.00 0.00 0.00 0.00 0.00 0.00 0.00 0.00 0.00 0.00 0.00 0.00 0.00 0.01 0.03 0.05 0.12 0.23 0.50 0.59 0.44 0.26 0.06 0.02 0.00 0.00 0.00 0.04 0.03 0.03 0.00 0.00 0.00 0.00 0.00 0.00 0.00 0.00 0.00 0.00 0.00 0.00 0.00 0.00 0.00
0.00 0.00 0.00 0.00 0.00 0.00 0.00 0.00 0.00 0.00 0.00 0.00 0.00 0.00 0.00 0.00 0.00 0.02 0.06 0.13 0.17 0.14 0.13 0.07 0.06 0.04 0.02 0.00 0.00 0.00 0.02 0.04 0.02 0.00 0.00 0.00 0.00 0.00 0.00 0.00 0.00 0.00 0.00 0.00 0.00 0.00 0.00 0.00 0.00
0.00 0.00 0.00 0.00 0.00 0.00 0.00 0.00 0.00 0.00 0.00 0.00 0.00 0.00 0.00 0.02 0.02 0.03 0.02 0.01 0.00 0.01 0.08 0.06 0.05 0.04 0.03 0.00 0.00 0.00 0.01 0.02 0.01 0.00 0.00 0.00 0.00 0.00 0.00 0.00 0.00 0.00 0.00 0.00 0.00 0.00 0.00 0.00 0.00
0.01 0.00 0.00 0.00 0.00 0.02 0.01 0.00 0.01 0.00 0.00 0.00 0.00 0.00 0.00 0.00 0.00 0.00 0.00 0.00 0.01 0.02 0.07 0.08 0.09 0.09 0.05 0.02 0.04 0.07 0.10 0.09 0.05 0.02 0.00 0.00 0.00 0.00 0.00 0.00 0.00 0.00 0.00 0.00 0.00 0.00 0.00 0.00 0.00
0.00 0.00 0.00 0.00 0.00 0.00 0.00 0.03 0.02 0.01 0.01 0.01 0.01 0.00 0.00 0.01 0.02 0.00 0.01 0.01 0.00 0.03 0.05 0.04 0.11 0.07 0.13 0.07 0.09 0.10 0.11 0.10 0.05 0.01 0.00 0.00 0.00 0.00 0.00 0.00 0.00 0.00 0.00 0.00 0.00 0.00 0.01 0.02 0.03
0.00 0.00 0.00 0.10 0.07 0.02 0.03 0.02 0.02 0.01 0.00 0.00 0.00 0.00 0.01 0.00 0.00 0.00 0.00 0.00 0.00 0.01 0.02 0.06 0.13 0.15 0.16 0.20 0.13 0.09 0.08 0.04 0.02 0.00 0.00 0.00 0.00 0.00 0.00 0.00 0.01 0.00 0.01 0.01 0.00 0.01 0.03 0.06 0.08
0.00 0.00 0.01 0.04 0.05 0.02 0.01 0.02 0.00 0.00 0.00 0.00 0.00 0.00 0.00 0.00 0.00 0.00 0.00 0.00 0.01 0.03 0.02 0.09 0.09 0.17 0.17 0.20 0.14 0.08 0.06 0.01 0.00 0.00 0.00 0.00 0.00 0.00 0.01 0.02 0.02 0.02 0.01 0.01 0.02 0.06 0.12 0.20 0.28
0.01 0.00 0.01 0.00 0.01 0.00 0.00 0.01 0.00 0.01 0.00 0.00 0.00 0.00 0.00 0.00 0.00 0.00 0.00 0.00 0.04 0.02 0.04 0.10 0.13 0.16 0.16 0.15 0.07 0.05 0.03 0.01 0.00 0.00 0.00 0.00 0.00 0.01 0.03 0.03 0.04 0.10 0.08 0.10 0.16 0.23 0.30 0.35 0.37
0.00 0.00 0.00 0.00 0.00 0.00 0.00 0.00 0.01 0.01 0.01 0.00 0.00 0.00 0.00 0.00 0.00 0.00 0.00 0.00 0.01 0.03 0.07 0.07 0.05 0.09 0.09 0.06 0.05 0.03 0.01 0.01 0.00 0.00 0.01 0.01 0.02 0.06 0.08 0.11 0.17 0.16 0.12 0.10 0.09 0.09 0.08 0.10 0.12
0.00 0.00 0.00 0.00 0.00 0.00 0.01 0.00 0.00 0.00 0.00 0.00 0.00 0.00 0.00 0.00 0.00 0.00 0.00 0.00 0.00 0.01 0.03 0.02 0.02 0.02 0.03 0.04 0.04 0.03 0.02 0.02 0.02 0.01 0.01 0.01 0.04 0.09 0.14 0.12 0.06 0.04 0.06 0.10 0.09 0.07 0.06 0.05 0.02
0.00 0.00 0.01 0.00 0.00 0.00 0.00 0.00 0.00 0.00 0.00 0.00 0.00 0.00 0.00 0.00 0.00 0.00 0.00 0.00 0.00 0.00 0.00 0.00 0.02 0.04 0.09 0.09 0.08 0.06 0.07 0.09 0.08 0.05 0.06 0.10 0.12 0.09 0.07 0.07 0.07 0.08 0.09 0.07 0.06 0.03 0.02 0.02 0.02

GFSSGP_prec_precacc_057.txt.gz
Total_Precipitation_Accumulation
0.00 0.00 0.00 0.00 0.00 0.00 0.00 0.00 0.00 0.03 0.09 0.13 0.17 0.20 0.22 0.13 0.26 0.42 0.25 0.27 0.23 0.06 0.02 0.03 0.15 0.04 0.05 0.06 0.05 0.03 0.02 0.01 0.01 0.00 0.00 0.00 0.00 0.00 0.00 0.01 0.07 0.06 0.03 0.02 0.00 0.00 0.00 0.02 0.02
0.00 0.00 0.00 0.00 0.00 0.00 0.00 0.01 0.01 0.03 0.17 0.22 0.23 0.33 0.42 0.32 0.14 0.37 0.48 0.46 0.21 0.07 0.05 0.05 0.11 0.06 0.01 0.01 0.01 0.00 0.00 0.00 0.00 0.00 0.00 0.00 0.00 0.00 0.01 0.01 0.02 0.00 0.00 0.00 0.00 0.00 0.00 0.00 0.01
0.00 0.00 0.00 0.00 0.00 0.00 0.00 0.01 0.05 0.08 0.16 0.14 0.11 0.19 0.39 0.45 0.43 0.54 0.59 0.64 0.38 0.28 0.14 0.17 0.37 0.11 0.02 0.02 0.00 0.00 0.00 0.00 0.00 0.00 0.00 0.00 0.00 0.00 0.00 0.00 0.00 0.00 0.00 0.00 0.00 0.00 0.00 0.00 0.00
0.00 0.00 0.00 0.00 0.00 0.00 0.00 0.02 0.07 0.10 0.11 0.06 0.09 0.16 0.27 0.21 0.30 0.28 0.46 1.04 1.04 0.91 0.56 0.43 0.72 0.22 0.07 0.04 0.00 0.00 0.00 0.00 0.00 0.00 0.00 0.00 0.00 0.00 0.00 0.00 0.00 0.00 0.00 0.00 0.00 0.00 0.00 0.00 0.00
0.00 0.00 0.00 0.00 0.00 0.00 0.00 0.01 0.08 0.11 0.09 0.07 0.06 0.05 0.17 0.30 0.22 0.34 0.99 1.74 1.85 2.05 1.31 0.91 1.25 0.52 0.17 0.02 0.00 0.00 0.00 0.00 0.00 0.00 0.00 0.00 0.00 0.00 0.00 0.00 0.00 0.00 0.00 0.00 0.00 0.00 0.00 0.00 0.00
0.00 0.00 0.00 0.00 0.00 0.01 0.03 0.13 0.22 0.28 0.27 0.29 0.09 0.08 0.20 0.28 0.27 0.58 1.35 2.79 3.81 4.25 4.22 2.83 2.83 2.21 0.99 0.07 0.00 0.00 0.00 0.00 0.00 0.00 0.00 0.00 0.00 0.00 0.00 0.00 0.00 0.00 0.00 0.00 0.00 0.00 0.00 0.00 0.00
0.00 0.00 0.00 0.00 0.01 0.00 0.02 0.15 0.35 0.52 0.41 0.14 0.10 0.16 0.28 0.28 0.39 0.56 1.24 2.35 4.56 4.67 5.51 7.80 5.52 2.95 1.23 0.24 0.01 0.00 0.00 0.00 0.00 0.00 0.00 0.00 0.00 0.00 0.00 0.00 0.00 0.00 0.00 0.00 0.00 0.00 0.00 0.00 0.00
0.00 0.00 0.00 0.00 0.01 0.02 0.06 0.15 0.21 0.15 0.09 0.06 0.07 0.12 0.13 0.29 0.26 0.31 0.32 0.60 1.79 2.14 2.78 3.08 2.71 1.38 0.53 0.21 0.03 0.00 0.00 0.00 0.00 0.00 0.00 0.00 0.00 0.00 0.00 0.00 0.00 0.00 0.00 0.00 0.00 0.00 0.00 0.00 0.00
0.00 0.00 0.00 0.00 0.03 0.11 0.15 0.28 0.33 0.20 0.06 0.09 0.11 0.06 0.07 0.19 0.16 0.16 0.35 0.50 1.20 1.99 1.27 1.11 0.71 0.29 0.17 0.09 0.05 0.04 0.01 0.00 0.00 0.00 0.00 0.00 0.00 0.00 0.00 0.00 0.00 0.00 0.00 0.00 0.00 0.00 0.00 0.00 0.00
0.00 0.00 0.00 0.00 0.06 0.33 0.29 0.15 0.03 0.01 0.00 0.16 0.32 0.36 0.22 0.14 0.10 0.09 0.15 0.51 1.00 0.83 0.51 0.21 0.13 0.05 0.01 0.02 0.05 0.06 0.01 0.00 0.00 0.00 0.00 0.00 0.00 0.00 0.00 0.00 0.00 0.00 0.00 0.00 0.00 0.00 0.00 0.00 0.00
0.00 0.00 0.00 0.00 0.00 0.00 0.01 0.01 0.00 0.00 0.00 0.06 0.31 0.37 0.29 0.16 0.10 0.20 0.36 0.32 0.45 0.23 0.10 0.07 0.01 0.00 0.00 0.00 0.00 0.00 0.00 0.00 0.00 0.00 0.03 0.04 0.01 0.01 0.03 0.01 0.00 0.00 0.00 0.00 0.00 0.00 0.00 0.00 0.00
0.00 0.00 0.00 0.00 0.00 0.00 0.00 0.00 0.01 0.04 0.11 0.11 0.20 0.63 0.53 0.36 0.26 0.30 0.23 0.15 0.06 0.07 0.03 0.01 0.01 0.00 0.00 0.00 0.00 0.00 0.00 0.01 0.06 0.11 0.06 0.06 0.03 0.04 0.01 0.00 0.00 0.00 0.00 0.00 0.00 0.00 0.00 0.00 0.00
0.00 0.00 0.00 0.00 0.00 0.00 0.00 0.01 0.02 0.02 0.01 0.11 0.18 0.27 0.38 0.44 0.35 0.47 0.29 0.06 0.05 0.01 0.00 0.01 0.00 0.00 0.00 0.00 0.00 0.01 0.06 0.11 0.24 0.26 0.12 0.11 0.04 0.05 0.00 0.00 0.00 0.00 0.00 0.00 0.00 0.00 0.00 0.00 0.00
0.00 0.00 0.00 0.00 0.00 0.00 0.00 0.03 0.09 0.01 0.02 0.12 0.10 0.05 0.14 0.19 0.20 0.13 0.07 0.01 0.00 0.00 0.01 0.01 0.12 0.12 0.02 0.01 0.04 0.08 0.13 0.20 0.18 0.17 0.26 0.13 0.02 0.01 0.00 0.00 0.00 0.00 0.00 0.00 0.00 0.00 0.00 0.00 0.00
0.00 0.00 0.00 0.00 0.00 0.00 0.01 0.02 0.05 0.02 0.03 0.03 0.03 0.04 0.05 0.09 0.11 0.02 0.00 0.00 0.00 0.02 0.05 0.11 0.46 0.47 0.16 0.05 0.06 0.11 0.12 0.05 0.11 0.19 0.19 0.12 0.08 0.08 0.04 0.01 0.00 0.00 0.00 0.00 0.00 0.00 0.00 0.00 0.00
0.00 0.00 0.00 0.00 0.00 0.00 0.02 0.02 0.00 0.02 0.01 0.00 0.00 0.00 0.02 0.03 0.00 0.00 0.00 0.00 0.00 0.01 0.09 0.33 0.46 0.50 0.34 0.15 0.17 0.14 0.11 0.10 0.11 0.12 0.14 0.20 0.12 0.10 0.04 0.01 0.00 0.00 0.00 0.00 0.00 0.00 0.00 0.00 0.00
0.00 0.00 0.00 0.00 0.00 0.00 0.01 0.00 0.00 0.02 0.01 0.00 0.00 0.00 0.00 0.02 0.01 0.00 0.00 0.00 0.01 0.00 0.10 0.49 0.67 0.65 0.63 0.50 0.46 0.55 0.46 0.31 0.10 0.06 0.07 0.08 0.06 0.05 0.02 0.01 0.00 0.00 0.00 0.00 0.00 0.00 0.00 0.00 0.00
0.00 0.00 0.00 0.00 0.00 0.00 0.00 0.00 0.00 0.00 0.00 0.00 0.00 0.00 0.02 0.01 0.00 0.00 0.00 0.02 0.03 0.02 0.22 0.53 0.69 0.93 1.03 0.92 0.70 0.31 0.20 0.13 0.07 0.05 0.07 0.05 0.02 0.01 0.00 0.00 0.00 0.00 0.00 0.00 0.00 0.00 0.00 0.00 0.00
0.00 0.00 0.00 0.00 0.00 0.00 0.00 0.00 0.00 0.00 0.00 0.00 0.00 0.00 0.00 0.00 0.00 0.00 0.01 0.02 0.04 0.09 0.38 0.64 0.70 0.95 0.93 0.42 0.16 0.05 0.03 0.03 0.06 0.11 0.10 0.04 0.02 0.00 0.00 0.00 0.00 0.00 0.00 0.00 0.00 0.00 0.00 0.00 0.00
0.00 0.00 0.00 0.00 0.00 0.00 0.00 0.00 0.00 0.00 0.00 0.00 0.00 0.00 0.00 0.00 0.00 0.01 0.03 0.05 0.12 0.23 0.50 0.59 0.44 0.26 0.06 0.02 0.00 0.00 0.00 0.04 0.04 0.10 0.07 0.03 0.00 0.00 0.00 0.00 0.00 0.00 0.00 0.00 0.00 0.00 0.00 0.00 0.00
0.00 0.00 0.00 0.00 0.00 0.00 0.00 0.00 0.00 0.00 0.00 0.00 0.00 0.00 0.00 0.00 0.00 0.02 0.06 0.13 0.17 0.14 0.13 0.07 0.06 0.04 0.02 0.00 0.00 0.00 0.02 0.05 0.04 0.05 0.05 0.01 0.00 0.00 0.00 0.00 0.00 0.00 0.00 0.00 0.00 0.00 0.00 0.00 0.00
0.00 0.00 0.00 0.00 0.00 0.00 0.00 0.00 0.00 0.00 0.00 0.00 0.00 0.00 0.00 0.02 0.02 0.03 0.02 0.01 0.00 0.01 0.08 0.06 0.05 0.04 0.03 0.00 0.00 0.00 0.02 0.04 0.07 0.08 0.04 0.01 0.00 0.00 0.00 0.00 0.00 0.00 0.00 0.00 0.00 0.00 0.00 0.00 0.00
0.01 0.00 0.00 0.00 0.00 0.02 0.01 0.00 0.01 0.00 0.00 0.00 0.00 0.00 0.00 0.00 0.00 0.00 0.00 0.00 0.01 0.02 0.07 0.08 0.09 0.09 0.05 0.02 0.04 0.07 0.11 0.13 0.11 0.08 0.04 0.02 0.00 0.00 0.00 0.00 0.00 0.00 0.00 0.00 0.00 0.00 0.00 0.00 0.00
0.00 0.00 0.00 0.00 0.00 0.00 0.00 0.03 0.02 0.01 0.01 0.01 0.01 0.00 0.00 0.01 0.02 0.00 0.01 0.01 0.00 0.03 0.05 0.04 0.11 0.07 0.13 0.08 0.11 0.13 0.13 0.12 0.09 0.07 0.03 0.01 0.00 0.00 0.00 0.00 0.00 0.00 0.00 0.00 0.00 0.01 0.01 0.02 0.03
0.00 0.00 0.00 0.10 0.07 0.02 0.03 0.02 0.02 0.01 0.00 0.00 0.00 0.00 0.01 0.00 0.00 0.00 0.00 0.00 0.00 0.01 0.02 0.06 0.13 0.15 0.16 0.23 0.16 0.14 0.11 0.07 0.03 0.01 0.01 0.01 0.02 0.01 0.00 0.00 0.01 0.00 0.01 0.01 0.01 0.02 0.04 0.06 0.08
0.00 0.00 0.01 0.04 0.05 0.02 0.01 0.02 0.00 0.00 0.00 0.00 0.00 0.00 0.00 0.00 0.00 0.00 0.00 0.00 0.01 0.03 0.02 0.09 0.09 0.17 0.17 0.23 0.21 0.14 0.11 0.03 0.01 0.01 0.02 0.02 0.01 0.00 0.01 0.02 0.02 0.02 0.02 0.06 0.09 0.10 0.13 0.20 0.28
0.01 0.00 0.01 0.00 0.01 0.00 0.00 0.01 0.00 0.01 0.00 0.00 0.00 0.00 0.00 0.00 0.00 0.00 0.00 0.00 0.04 0.02 0.04 0.10 0.13 0.16 0.17 0.17 0.18 0.20 0.13 0.06 0.03 0.03 0.02 0.01 0.00 0.01 0.03 0.03 0.04 0.11 0.15 0.16 0.17 0.24 0.30 0.35 0.37
0.00 0.00 0.00 0.00 0.00 0.00 0.00 0.00 0.01 0.01 0.01 0.00 0.00 0.00 0.00 0.00 0.00 0.00 0.00 0.00 0.01 0.03 0.07 0.07 0.05 0.09 0.09 0.10 0.13 0.14 0.10 0.07 0.03 0.02 0.01 0.01 0.02 0.07 0.08 0.11 0.18 0.19 0.15 0.10 0.10 0.09 0.08 0.10 0.12
0.00 0.00 0.00 0.00 0.00 0.00 0.01 0.00 0.00 0.00 0.00 0.00 0.00 0.00 0.00 0.00 0.00 0.00 0.00 0.00 0.00 0.01 0.03 0.02 0.02 0.02 0.04 0.08 0.11 0.10 0.10 0.06 0.05 0.05 0.03 0.02 0.06 0.12 0.15 0.14 0.09 0.06 0.06 0.10 0.09 0.07 0.06 0.05 0.02
0.00 0.00 0.01 0.00 0.00 0.00 0.00 0.00 0.00 0.00 0.00 0.00 0.00 0.00 0.00 0.00 0.00 0.00 0.00 0.00 0.00 0.00 0.00 0.00 0.02 0.04 0.11 0.15 0.17 0.17 0.18 0.20 0.20 0.15 0.11 0.15 0.17 0.14 0.08 0.09 0.11 0.14 0.13 0.08 0.07 0.03 0.02 0.02 0.02

GFSSGP_prec_precacc_063.txt.gz
Total_Precipitation_Accumulation
0.00 0.00 0.00 0.00 0.00 0.00 0.00 0.00 0.00 0.03 0.09 0.13 0.17 0.21 0.23 0.16 0.47 0.99 0.60 0.29 0.25 0.11 0.07 0.04 0.17 0.10 0.09 0.07 0.05 0.03 0.02 0.01 0.01 0.00 0.00 0.00 0.00 0.00 0.00 0.01 0.07 0.07 0.03 0.02 0.00 0.00 0.00 0.02 0.02
0.00 0.00 0.00 0.00 0.00 0.00 0.00 0.01 0.01 0.03 0.17 0.23 0.23 0.33 0.43 0.35 0.16 0.48 0.63 0.47 0.24 0.17 0.15 0.08 0.15 0.10 0.03 0.01 0.01 0.00 0.00 0.00 0.00 0.00 0.00 0.00 0.00 0.00 0.01 0.01 0.02 0.01 0.01 0.00 0.00 0.00 0.00 0.00 0.01
0.00 0.00 0.00 0.00 0.00 0.00 0.00 0.01 0.05 0.08 0.16 0.14 0.11 0.20 0.41 0.53 0.44 0.55 0.59 0.69 0.56 0.68 0.40 0.32 0.43 0.11 0.03 0.02 0.00 0.00 0.00 0.00 0.00 0.00 0.00 0.00 0.00 0.00 0.00 0.00 0.00 0.01 0.00 0.00 0.00 0.00 0.00 0.00 0.00
0.00 0.00 0.00 0.00 0.00 0.00 0.00 0.02 0.07 0.10 0.11 0.07 0.09 0.19 0.33 0.25 0.31 0.30 0.47 1.10 1.41 1.63 0.95 0.68 0.87 0.24 0.07 0.04 0.00 0.00 0.00 0.00 0.00 0.00 0.00 0.00 0.00 0.00 0.00 0.00 0.00 0.01 0.00 0.00 0.00 0.00 0.00 0.00 0.00
0.00 0.00 0.00 0.00 0.00 0.00 0.00 0.02 0.08 0.11 0.09 0.07 0.06 0.07 0.18 0.31 0.25 0.36 1.01 1.96 2.97 3.97 3.06 1.64 1.62 0.72 0.23 0.05 0.01 0.00 0.00 0.00 0.00 0.00 0.00 0.00 0.00 0.00 0.00 0.00 0.00 0.00 0.00 0.00 0.00 0.00 0.00 0.00 0.00
0.00 0.00 0.00 0.00 0.00 0.01 0.03 0.13 0.22 0.28 0.28 0.29 0.10 0.11 0.24 0.29 0.30 0.64 1.41 3.30 4.56 5.95 7.93 6.78 4.75 3.28 1.46 0.45 0.18 0.09 0.01 0.00 0.00 0.00 0.00 0.00 0.00 0.00 0.00 0.00 0.00 0.00 0.00 0.00 0.00 0.00 0.00 0.00 0.00
0.00 0.00 0.00 0.00 0.01 0.00 0.02 0.15 0.35 0.52 0.42 0.16 0.11 0.19 0.33 0.33 0.44 0.63 1.32 2.52 4.94 5.10 6.45 9.88 7.82 4.62 1.84 0.74 0.28 0.23 0.11 0.04 0.00 0.00 0.00 0.00 0.00 0.00 0.00 0.00 0.00 0.00 0.00 0.00 0.00 0.00 0.00 0.00 0.00
0.00 0.00 0.00 0.00 0.01 0.02 0.06 0.15 0.21 0.15 0.09 0.07 0.07 0.13 0.21 0.42 0.34 0.35 0.41 0.74 2.00 2.35 3.09 3.56 3.43 2.28 1.47 1.13 0.74 0.32 0.09 0.03 0.00 0.00 0.00 0.00 0.00 0.00 0.00 0.00 0.00 0.00 0.00 0.00 0.00 0.00 0.00 0.00 0.00
0.00 0.00 0.00 0.00 0.03 0.11 0.15 0.28 0.33 0.20 0.06 0.09 0.11 0.09 0.18 0.34 0.22 0.25 0.48 0.64 1.25 2.13 1.39 1.30 0.99 0.57 0.48 0.56 0.55 0.40 0.20 0.03 0.00 0.00 0.00 0.00 0.00 0.00 0.00 0.00 0.00 0.00 0.00 0.00 0.00 0.00 0.00 0.00 0.00
0.00 0.00 0.00 0.00 0.06 0.33 0.29 0.15 0.03 0.01 0.01 0.16 0.33 0.39 0.27 0.30 0.18 0.12 0.17 0.55 1.02 0.86 0.63 0.34 0.22 0.11 0.03 0.03 0.07 0.11 0.09 0.03 0.00 0.00 0.00 0.00 0.00 0.00 0.00 0.00 0.00 0.00 0.00 0.00 0.00 0.00 0.00 0.00 0.00
0.00 0.00 0.00 0.00 0.00 0.00 0.01 0.01 0.00 0.00 0.07 0.14 0.33 0.40 0.38 0.31 0.22 0.23 0.41 0.36 0.47 0.27 0.14 0.13 0.06 0.03 0.01 0.01 0.01 0.03 0.04 0.00 0.00 0.00 0.03 0.04 0.01 0.01 0.03 0.01 0.00 0.00 0.00 0.00 0.00 0.00 0.00 0.00 0.00
0.00 0.00 0.00 0.00 0.00 0.00 0.00 0.00 0.01 0.04 0.12 0.11 0.21 0.64 0.58 0.45 0.36 0.32 0.28 0.19 0.08 0.10 0.07 0.05 0.04 0.06 0.02 0.01 0.01 0.00 0.01 0.01 0.06 0.11 0.06 0.06 0.03 0.04 0.01 0.00 0.00 0.00 0.00 0.00 0.00 0.00 0.00 0.00 0.00
0.00 0.00 0.00 0.00 0.00 0.00 0.00 0.01 0.02 0.02 0.01 0.11 0.19 0.29 0.43 0.48 0.43 0.50 0.30 0.09 0.07 0.02 0.03 0.08 0.05 0.11 0.04 0.00 0.00 0.01 0.06 0.11 0.24 0.26 0.12 0.11 0.04 0.05 0.00 0.00 0.00 0.00 0.00 0.00 0.00 0.00 0.00 0.00 0.00
0.00 0.00 0.00 0.00 0.00 0.00 0.00 0.03 0.09 0.01 0.02 0.12 0.11 0.08 0.17 0.25 0.27 0.20 0.12 0.07 0.04 0.03 0.05 0.04 0.13 0.15 0.03 0.02 0.06 0.09 0.13 0.20 0.18 0.17 0.26 0.13 0.02 0.01 0.00 0.00 0.00 0.00 0.00 0.00 0.00 0.00 0.00 0.00 0.00
0.00 0.00 0.00 0.00 0.00 0.00 0.01 0.03 0.08 0.02 0.03 0.03 0.04 0.04 0.06 0.11 0.16 0.06 0.08 0.12 0.04 0.03 0.08 0.15 0.46 0.48 0.17 0.07 0.08 0.11 0.12 0.05 0.11 0.19 0.19 0.12 0.08 0.08 0.04 0.02 0.01 0.00 0.00 0.00 0.00 0.00 0.00 0.00 0.00
0.00 0.00 0.00 0.00 0.00 0.00 0.02 0.17 0.16 0.03 0.01 0.00 0.00 0.00 0.02 0.03 0.01 0.00 0.00 0.00 0.00 0.01 0.09 0.33 0.46 0.51 0.35 0.15 0.17 0.14 0.11 0.10 0.11 0.12 0.14 0.22 0.16 0.12 0.07 0.03 0.02 0.00 0.00 0.00 0.00 0.00 0.00 0.00 0.00
0.00 0.00 0.00 0.00 0.00 0.00 0.01 0.02 0.03 0.02 0.01 0.00 0.00 0.00 0.00 0.02 0.01 0.00 0.00 0.00 0.01 0.00 0.10 0.49 0.67 0.65 0.63 0.50 0.46 0.55 0.46 0.31 0.10 0.06 0.08 0.14 0.13 0.11 0.05 0.03 0.01 0.00 0.00 0.00 0.00 0.00 0.00 0.00 0.00
0.00 0.00 0.00 0.00 0.00 0.00 0.00 0.00 0.00 0.00 0.00 0.00 0.00 0.00 0.02 0.01 0.00 0.00 0.00 0.02 0.03 0.02 0.22 0.53 0.69 0.93 1.04 0.92 0.70 0.31 0.20 0.13 0.07 0.05 0.10 0.15 0.14 0.08 0.04 0.02 0.00 0.00 0.00 0.00 0.00 0.00 0.00 0.00 0.00
0.00 0.00 0.00 0.00 0.00 0.00 0.00 0.00 0.00 0.00 0.00 0.00 0.00 0.00 0.00 0.00 0.00 0.00 0.01 0.02 0.04 0.09 0.38 0.64 0.70 0.95 0.93 0.42 0.16 0.05 0.03 0.03 0.06 0.11 0.14 0.14 0.10 0.07 0.03 0.01 0.00 0.00 0.00 0.00 0.00 0.00 0.00 0.00 0.00
0.00 0.00 0.00 0.00 0.00 0.00 0.00 0.00 0.00 0.00 0.00 0.00 0.00 0.00 0.00 0.00 0.00 0.01 0.03 0.05 0.12 0.23 0.50 0.59 0.44 0.26 0.06 0.02 0.00 0.00 0.00 0.04 0.04 0.10 0.10 0.08 0.09 0.07 0.04 0.01 0.00 0.00 0.00 0.00 0.00 0.00 0.00 0.00 0.00
0.00 0.00 0.00 0.00 0.00 0.00 0.00 0.00 0.00 0.00 0.00 0.00 0.00 0.00 0.00 0.00 0.00 0.02 0.06 0.13 0.17 0.14 0.13 0.07 0.06 0.04 0.02 0.00 0.00 0.00 0.02 0.05 0.04 0.08 0.14 0.10 0.06 0.03 0.01 0.00 0.01 0.00 0.00 0.00 0.00 0.00 0.00 0.00 0.00
0.00 0.00 0.00 0.00 0.00 0.00 0.00 0.00 0.00 0.00 0.00 0.00 0.00 0.00 0.00 0.02 0.02 0.03 0.02 0.01 0.00 0.01 0.08 0.06 0.05 0.04 0.03 0.00 0.00 0.00 0.02 0.04 0.07 0.10 0.08 0.03 0.02 0.01 0.01 0.01 0.02 0.01 0.00 0.00 0.00 0.00 0.00 0.00 0.00
0.01 0.00 0.00 0.00 0.00 0.02 0.01 0.00 0.01 0.00 0.00 0.00 0.00 0.00 0.00 0.00 0.00 0.00 0.00 0.00 0.01 0.02 0.07 0.08 0.09 0.09 0.05 0.02 0.04 0.07 0.11 0.13 0.12 0.09 0.05 0.03 0.04 0.04 0.03 0.02 0.02 0.00 0.00 0.00 0.00 0.00 0.00 0.00 0.00
0.00 0.00 0.00 0.00 0.00 0.00 0.01 0.03 0.02 0.01 0.01 0.01 0.01 0.00 0.00 0.01 0.02 0.00 0.01 0.01 0.00 0.03 0.05 0.04 0.11 0.07 0.13 0.08 0.11 0.13 0.15 0.13 0.10 0.07 0.04 0.03 0.02 0.03 0.03 0.03 0.03 0.02 0.01 0.01 0.00 0.01 0.01 0.02 0.04
0.00 0.00 0.01 0.13 0.08 0.02 0.04 0.02 0.02 0.01 0.00 0.00 0.00 0.00 0.01 0.00 0.00 0.00 0.00 0.00 0.00 0.01 0.02 0.06 0.13 0.15 0.16 0.23 0.16 0.15 0.16 0.10 0.04 0.02 0.02 0.02 0.03 0.03 0.03 0.03 0.03 0.03 0.04 0.02 0.01 0.03 0.06 0.08 0.09
0.00 0.00 0.02 0.08 0.06 0.03 0.01 0.02 0.00 0.00 0.00 0.00 0.00 0.00 0.00 0.00 0.00 0.00 0.00 0.00 0.01 0.03 0.02 0.09 0.09 0.17 0.17 0.23 0.21 0.22 0.19 0.06 0.04 0.04 0.09 0.08 0.05 0.03 0.05 0.06 0.05 0.05 0.05 0.08 0.10 0.11 0.15 0.20 0.29
0.01 0.00 0.01 0.00 0.01 0.00 0.00 0.01 0.00 0.01 0.00 0.00 0.00 0.00 0.00 0.00 0.00 0.00 0.00 0.00 0.04 0.02 0.04 0.10 0.13 0.16 0.17 0.17 0.19 0.28 0.24 0.11 0.07 0.07 0.06 0.06 0.05 0.06 0.07 0.08 0.13 0.23 0.28 0.18 0.20 0.27 0.33 0.39 0.40
0.00 0.00 0.00 0.00 0.01 0.00 0.00 0.00 0.01 0.01 0.01 0.00 0.00 0.00 0.00 0.00 0.00 0.00 0.00 0.00 0.01 0.03 0.07 0.07 0.06 0.09 0.09 0.10 0.14 0.20 0.22 0.19 0.10 0.07 0.07 0.07 0.07 0.10 0.12 0.16 0.24 0.23 0.18 0.16 0.17 0.15 0.13 0.13 0.14
0.00 0.00 0.00 0.00 0.00 0.00 0.01 0.00 0.00 0.00 0.00 0.00 0.00 0.00 0.00 0.00 0.00 0.00 0.00 0.00 0.00 0.01 0.03 0.02 0.02 0.02 0.04 0.08 0.11 0.12 0.18 0.16 0.15 0.16 0.13 0.09 0.11 0.17 0.22 0.17 0.17 0.24 0.26 0.23 0.16 0.13 0.14 0.12 0.06
0.00 0.00 0.01 0.00 0.00 0.00 0.00 0.00 0.00 0.00 0.00 0.00 0.00 0.00 0.00 0.00 0.00 0.00 0.00 0.00 0.00 0.00 0.00 0.00 0.02 0.04 0.11 0.15 0.18 0.20 0.23 0.26 0.27 0.23 0.17 0.19 0.20 0.18 0.22 0.42 0.54 0.38 0.27 0.20 0.18 0.13 0.08 0.06 0.04

GFSSGP_prec_precacc_066.txt.gz
Total_Precipitation_Accumulation
0.00 0.00 0.00 0.00 0.00 0.00 0.00 0.00 0.00 0.03 0.09 0.13 0.18 0.22 0.24 0.16 0.47 1.00 0.93 1.13 1.73 1.09 0.24 0.06 0.18 0.12 0.10 0.08 0.06 0.03 0.02 0.01 0.01 0.00 0.00 0.00 0.00 0.00 0.00 0.01 0.07 0.07 0.03 0.02 0.00 0.00 0.00 0.02 0.02
0.00 0.00 0.00 0.00 0.00 0.00 0.00 0.01 0.01 0.03 0.17 0.23 0.32 0.35 0.43 0.35 0.16 0.49 0.68 0.59 0.56 0.93 0.35 0.13 0.22 0.18 0.05 0.01 0.01 0.00 0.00 0.00 0.00 0.00 0.00 0.00 0.00 0.00 0.01 0.01 0.03 0.01 0.01 0.00 0.00 0.00 0.00 0.00 0.01
0.00 0.00 0.00 0.00 0.00 0.00 0.00 0.01 0.05 0.08 0.16 0.14 0.11 0.20 0.41 0.53 0.44 0.56 0.61 0.69 0.60 0.78 0.51 0.36 0.45 0.13 0.03 0.02 0.00 0.00 0.00 0.00 0.00 0.00 0.00 0.00 0.00 0.00 0.00 0.00 0.00 0.01 0.00 0.00 0.00 0.00 0.00 0.00 0.00
0.00 0.00 0.00 0.00 0.00 0.00 0.00 0.02 0.07 0.10 0.11 0.09 0.10 0.20 0.36 0.26 0.33 0.31 0.50 1.11 1.68 1.83 1.15 0.94 1.04 0.42 0.11 0.04 0.00 0.00 0.00 0.00 0.00 0.00 0.00 0.00 0.00 0.00 0.01 0.00 0.00 0.01 0.00 0.00 0.00 0.00 0.00 0.00 0.00
0.00 0.00 0.00 0.00 0.00 0.00 0.00 0.02 0.08 0.11 0.11 0.42 0.18 0.11 0.59 0.56 0.28 0.37 1.03 2.01 3.21 4.24 3.34 2.70 2.56 1.45 0.42 0.09 0.02 0.01 0.00 0.00 0.00 0.00 0.00 0.00 0.00 0.00 0.01 0.00 0.00 0.00 0.00 0.00 0.00 0.00 0.00 0.00 0.00
0.00 0.00 0.00 0.00 0.00 0.01 0.03 0.13 0.22 0.37 0.35 0.43 0.25 0.35 0.82 0.45 0.37 0.67 1.44 3.41 4.93 6.27 8.16 8.10 6.55 5.54 2.82 1.27 0.41 0.16 0.03 0.01 0.00 0.00 0.00 0.00 0.00 0.00 0.00 0.00 0.00 0.00 0.00 0.00 0.00 0.00 0.00 0.00 0.00
0.00 0.00 0.00 0.00 0.01 0.00 0.02 0.15 0.35 0.52 0.42 0.19 0.36 0.37 0.83 0.65 0.56 0.70 1.39 2.64 5.06 5.29 6.60 10.18 8.86 6.17 3.00 1.71 0.68 0.32 0.14 0.06 0.01 0.00 0.00 0.00 0.00 0.00 0.00 0.00 0.00 0.00 0.00 0.00 0.00 0.00 0.00 0.00 0.00
0.00 0.00 0.00 0.00 0.01 0.02 0.06 0.15 0.21 0.15 0.09 0.07 0.08 0.16 0.71 0.68 0.48 0.43 0.49 0.82 2.09 2.45 3.13 3.58 3.57 2.70 2.10 1.71 1.14 0.46 0.12 0.03 0.00 0.00 0.00 0.00 0.00 0.00 0.00 0.00 0.00 0.00 0.00 0.00 0.00 0.00 0.00 0.00 0.00
0.00 0.00 0.00 0.00 0.03 0.11 0.16 0.28 0.33 0.20 0.06 0.11 0.20 0.10 0.26 0.43 0.32 0.28 0.50 0.66 1.30 2.21 1.45 1.34 1.00 0.65 0.58 0.79 0.84 0.73 0.35 0.08 0.00 0.00 0.00 0.00 0.00 0.00 0.00 0.00 0.00 0.00 0.00 0.00 0.00 0.00 0.00 0.00 0.00
0.00 0.00 0.00 0.00 0.06 0.33 0.29 0.15 0.03 0.01 0.01 0.20 0.53 0.52 0.32 0.32 0.23 0.18 0.21 0.57 1.02 0.87 0.69 0.41 0.30 0.18 0.03 0.04 0.08 0.15 0.12 0.06 0.00 0.00 0.00 0.00 0.00 0.00 0.00 0.00 0.00 0.00 0.00 0.00 0.00 0.00 0.00 0.00 0.00
0.00 0.00 0.00 0.00 0.00 0.00 0.01 0.01 0.00 0.00 0.19 0.52 0.66 0.49 0.40 0.32 0.23 0.26 0.44 0.38 0.48 0.27 0.17 0.23 0.42 0.37 0.05 0.02 0.01 0.04 0.05 0.02 0.00 0.00 0.03 0.04 0.01 0.01 0.03 0.01 0.00 0.00 0.00 0.00 0.00 0.00 0.00 0.00 0.00
0.00 0.00 0.00 0.00 0.00 0.00 0.00 0.00 0.01 0.04 0.26 0.21 0.26 0.67 0.60 0.47 0.38 0.32 0.29 0.21 0.08 0.10 0.10 0.08 0.10 0.13 0.09 0.08 0.05 0.02 0.03 0.01 0.06 0.11 0.06 0.06 0.03 0.04 0.01 0.00 0.00 0.00 0.00 0.00 0.00 0.00 0.00 0.00 0.00
0.00 0.00 0.00 0.00 0.00 0.00 0.00 0.01 0.02 0.06 0.09 0.13 0.20 0.30 0.43 0.49 0.43 0.50 0.30 0.09 0.08 0.05 0.06 0.11 0.17 0.24 0.25 0.16 0.06 0.03 0.07 0.11 0.24 0.26 0.12 0.11 0.04 0.05 0.00 0.00 0.00 0.00 0.00 0.00 0.00 0.00 0.00 0.00 0.00
0.00 0.00 0.00 0.00 0.00 0.00 0.00 0.03 0.09 0.17 0.40 0.12 0.11 0.08 0.17 0.25 0.28 0.23 0.12 0.08 0.04 0.06 0.13 0.13 0.21 0.29 0.15 0.15 0.13 0.10 0.13 0.20 0.18 0.17 0.26 0.13 0.02 0.01 0.00 0.00 0.00 0.00 0.00 0.00 0.00 0.00 0.00 0.00 0.00
0.00 0.00 0.00 0.00 0.00 0.00 0.01 0.03 0.13 0.21 0.34 0.07 0.05 0.04 0.06 0.11 0.16 0.10 0.11 0.22 0.14 0.15 0.16 0.30 0.50 0.50 0.18 0.08 0.09 0.11 0.12 0.05 0.11 0.19 0.19 0.12 0.09 0.08 0.04 0.02 0.01 0.00 0.00 0.00 0.00 0.00 0.00 0.00 0.00
0.00 0.00 0.00 0.00 0.00 0.00 0.02 0.17 0.29 0.13 0.08 0.04 0.00 0.00 0.02 0.03 0.01 0.00 0.02 0.01 0.01 0.02 0.10 0.34 0.47 0.51 0.38 0.16 0.17 0.14 0.11 0.10 0.11 0.12 0.14 0.22 0.16 0.12 0.07 0.03 0.02 0.00 0.00 0.00 0.00 0.00 0.00 0.00 0.00
0.00 0.00 0.00 0.00 0.00 0.00 0.01 0.03 0.15 0.07 0.09 0.05 0.00 0.00 0.00 0.02 0.01 0.00 0.00 0.00 0.01 0.00 0.10 0.49 0.67 0.66 0.65 0.50 0.46 0.55 0.46 0.31 0.10 0.06 0.08 0.14 0.13 0.11 0.05 0.03 0.01 0.00 0.00 0.00 0.00 0.00 0.00 0.00 0.00
0.00 0.00 0.00 0.00 0.00 0.00 0.00 0.00 0.09 0.05 0.03 0.03 0.00 0.00 0.02 0.01 0.00 0.00 0.00 0.02 0.03 0.02 0.22 0.53 0.69 0.93 1.04 0.92 0.70 0.31 0.20 0.13 0.07 0.05 0.10 0.15 0.16 0.09 0.04 0.03 0.00 0.00 0.00 0.00 0.00 0.00 0.00 0.00 0.00
0.00 0.00 0.00 0.00 0.00 0.00 0.00 0.00 0.00 0.01 0.00 0.01 0.00 0.00 0.00 0.00 0.00 0.00 0.01 0.02 0.04 0.09 0.38 0.64 0.70 0.95 0.93 0.42 0.16 0.05 0.03 0.03 0.06 0.11 0.14 0.17 0.15 0.10 0.04 0.02 0.00 0.00 0.00 0.00 0.00 0.00 0.00 0.00 0.00
0.00 0.00 0.00 0.00 0.00 0.00 0.00 0.00 0.00 0.00 0.00 0.00 0.00 0.00 0.00 0.00 0.00 0.01 0.03 0.05 0.12 0.23 0.50 0.59 0.44 0.26 0.06 0.02 0.00 0.00 0.00 0.04 0.04 0.10 0.10 0.09 0.13 0.09 0.04 0.02 0.01 0.01 0.00 0.00 0.00 0.00 0.00 0.00 0.00
0.00 0.00 0.00 0.00 0.00 0.00 0.00 0.00 0.00 0.00 0.00 0.00 0.00 0.00 0.00 0.00 0.00 0.02 0.06 0.13 0.17 0.14 0.13 0.07 0.06 0.04 0.02 0.00 0.00 0.00 0.02 0.05 0.04 0.08 0.14 0.11 0.07 0.04 0.01 0.01 0.01 0.00 0.01 0.00 0.00 0.00 0.00 0.00 0.00
0.00 0.00 0.00 0.00 0.00 0.00 0.00 0.01 0.00 0.00 0.00 0.00 0.00 0.00 0.00 0.02 0.02 0.03 0.02 0.01 0.00 0.01 0.08 0.06 0.05 0.04 0.03 0.00 0.00 0.00 0.02 0.04 0.07 0.10 0.08 0.03 0.02 0.01 0.01 0.01 0.02 0.02 0.02 0.01 0.01 0.00 0.00 0.00 0.00
0.01 0.00 0.00 0.00 0.00 0.02 0.02 0.01 0.01 0.00 0.00 0.00 0.00 0.00 0.00 0.00 0.00 0.00 0.00 0.00 0.01 0.02 0.07 0.08 0.09 0.09 0.05 0.02 0.04 0.07 0.11 0.13 0.12 0.09 0.05 0.03 0.05 0.04 0.03 0.02 0.02 0.02 0.03 0.03 0.02 0.00 0.00 0.00 0.00
0.00 0.00 0.00 0.00 0.00 0.00 0.01 0.03 0.02 0.02 0.01 0.01 0.01 0.00 0.00 0.01 0.02 0.00 0.01 0.01 0.00 0.03 0.05 0.04 0.11 0.07 0.13 0.08 0.11 0.13 0.15 0.14 0.10 0.07 0.04 0.03 0.02 0.03 0.03 0.04 0.05 0.05 0.05 0.05 0.04 0.06 0.10 0.15 0.11
0.00 0.00 0.01 0.15 0.09 0.02 0.04 0.02 0.02 0.01 0.00 0.00 0.00 0.00 0.01 0.00 0.00 0.00 0.00 0.00 0.00 0.01 0.02 0.06 0.13 0.15 0.16 0.23 0.16 0.15 0.16 0.12 0.05 0.02 0.02 0.05 0.09 0.11 0.08 0.05 0.04 0.04 0.06 0.05 0.07 0.13 0.16 0.15 0.16
0.00 0.00 0.03 0.14 0.09 0.06 0.04 0.02 0.00 0.00 0.00 0.00 0.00 0.00 0.00 0.00 0.00 0.00 0.00 0.00 0.01 0.03 0.02 0.09 0.09 0.17 0.17 0.23 0.21 0.22 0.19 0.06 0.05 0.04 0.09 0.14 0.12 0.08 0.06 0.06 0.06 0.07 0.10 0.19 0.24 0.29 0.31 0.36 0.37
0.01 0.00 0.01 0.03 0.03 0.03 0.02 0.01 0.00 0.01 0.00 0.00 0.00 0.00 0.00 0.00 0.00 0.00 0.00 0.00 0.04 0.02 0.04 0.10 0.13 0.16 0.17 0.17 0.19 0.28 0.24 0.11 0.07 0.07 0.12 0.14 0.09 0.07 0.07 0.09 0.15 0.27 0.34 0.33 0.31 0.38 0.44 0.46 0.43
0.00 0.00 0.00 0.00 0.04 0.01 0.00 0.00 0.01 0.01 0.01 0.00 0.00 0.00 0.00 0.00 0.00 0.00 0.00 0.00 0.01 0.03 0.07 0.07 0.06 0.09 0.09 0.10 0.14 0.20 0.22 0.23 0.14 0.15 0.23 0.20 0.13 0.14 0.14 0.18 0.27 0.25 0.21 0.22 0.30 0.30 0.21 0.16 0.16
0.00 0.00 0.00 0.00 0.00 0.01 0.01 0.00 0.00 0.00 0.00 0.00 0.00 0.00 0.00 0.00 0.00 0.00 0.00 0.00 0.00 0.01 0.03 0.02 0.02 0.02 0.04 0.08 0.11 0.13 0.23 0.23 0.35 0.50 0.28 0.16 0.19 0.25 0.27 0.20 0.18 0.27 0.37 0.37 0.28 0.21 0.20 0.16 0.10
0.00 0.00 0.01 0.01 0.00 0.00 0.00 0.00 0.00 0.00 0.00 0.00 0.00 0.00 0.00 0.00 0.00 0.00 0.00 0.00 0.00 0.00 0.00 0.00 0.02 0.04 0.11 0.16 0.36 0.35 0.58 0.51 0.33 0.37 0.29 0.28 0.28 0.25 0.24 0.44 0.55 0.43 0.31 0.25 0.23 0.16 0.10 0.08 0.06

GFSSGP_prec_precacc_069.txt.gz
Total_Precipitation_Accumulation
0.00 0.00 0.00 0.00 0.00 0.00 0.00 0.00 0.00 0.03 0.09 0.13 0.18 0.22 0.24 0.16 0.47 1.01 0.94 1.15 1.76 1.31 0.86 1.33 0.93 0.23 0.10 0.09 0.06 0.03 0.02 0.01 0.01 0.00 0.00 0.00 0.00 0.00 0.00 0.01 0.07 0.07 0.03 0.02 0.00 0.00 0.00 0.02 0.02
0.00 0.00 0.00 0.00 0.00 0.00 0.00 0.01 0.01 0.03 0.17 0.23 0.32 0.35 0.43 0.36 0.16 0.57 0.76 0.62 0.56 1.04 0.91 0.82 1.58 0.70 0.07 0.01 0.01 0.00 0.00 0.00 0.00 0.00 0.00 0.00 0.00 0.00 0.01 0.01 0.03 0.01 0.01 0.00 0.00 0.00 0.00 0.00 0.01
0.00 0.00 0.00 0.00 0.00 0.00 0.00 0.01 0.05 0.08 0.16 0.14 0.11 0.20 0.44 0.63 0.60 0.68 0.73 0.75 0.62 0.79 0.59 0.58 0.89 0.70 0.06 0.02 0.00 0.00 0.00 0.00 0.00 0.00 0.00 0.00 0.00 0.00 0.01 0.00 0.00 0.01 0.00 0.00 0.00 0.00 0.00 0.00 0.00
0.00 0.00 0.00 0.00 0.00 0.00 0.00 0.02 0.07 0.10 0.11 0.09 0.10 0.21 0.49 0.57 0.48 0.42 0.66 1.20 1.70 1.85 1.20 1.30 1.64 0.88 0.17 0.05 0.00 0.00 0.00 0.00 0.00 0.00 0.00 0.00 0.01 0.01 0.01 0.00 0.00 0.01 0.00 0.00 0.00 0.00 0.00 0.00 0.00
0.00 0.00 0.00 0.00 0.00 0.00 0.00 0.02 0.08 0.11 0.11 0.42 0.18 0.11 0.66 0.80 0.31 0.42 1.15 2.22 3.28 4.38 3.41 2.89 3.22 3.26 1.26 0.25 0.04 0.01 0.00 0.00 0.00 0.00 0.00 0.01 0.01 0.01 0.01 0.00 0.00 0.00 0.00 0.00 0.00 0.00 0.00 0.00 0.00
0.00 0.00 0.00 0.00 0.00 0.01 0.03 0.13 0.22 0.37 0.35 0.46 0.35 0.42 0.86 0.47 0.38 0.75 1.58 3.56 5.02 6.43 8.39 8.37 6.83 7.05 5.83 3.05 0.63 0.26 0.04 0.01 0.00 0.00 0.00 0.00 0.00 0.00 0.00 0.00 0.00 0.00 0.00 0.00 0.00 0.00 0.00 0.00 0.00
0.00 0.00 0.00 0.00 0.01 0.00 0.02 0.15 0.35 0.53 0.42 0.20 0.38 0.40 0.93 0.95 0.77 0.88 1.54 2.71 5.08 5.40 6.68 10.22 8.90 6.46 5.26 5.30 2.36 1.16 0.46 0.08 0.01 0.00 0.00 0.00 0.00 0.00 0.00 0.00 0.00 0.00 0.00 0.00 0.00 0.00 0.00 0.00 0.00
0.00 0.00 0.00 0.00 0.01 0.02 0.06 0.15 0.21 0.15 0.09 0.07 0.15 0.45 1.00 0.74 0.52 0.47 0.56 0.83 2.10 2.46 3.17 3.59 3.57 2.72 2.61 3.01 2.43 1.52 0.63 0.11 0.01 0.00 0.00 0.00 0.00 0.00 0.00 0.00 0.00 0.00 0.00 0.00 0.00 0.00 0.00 0.00 0.00
0.00 0.00 0.00 0.00 0.03 0.11 0.16 0.28 0.33 0.20 0.06 0.11 0.26 0.18 0.28 0.46 0.33 0.33 0.59 0.68 1.30 2.22 1.48 1.34 1.00 0.65 0.63 1.03 1.35 1.30 0.64 0.16 0.06 0.04 0.02 0.00 0.00 0.00 0.00 0.00 0.00 0.00 0.00 0.00 0.00 0.00 0.00 0.00 0.00
0.00 0.00 0.00 0.00 0.06 0.33 0.29 0.15 0.03 0.01 0.01 0.20 0.53 0.52 0.32 0.33 0.24 0.20 0.25 0.59 1.02 0.88 0.69 0.41 0.30 0.18 0.03 0.05 0.15 0.37 0.36 0.12 0.04 0.03 0.01 0.01 0.00 0.00 0.00 0.00 0.00 0.00 0.00 0.00 0.00 0.00 0.00 0.00 0.00
0.00 0.00 0.00 0.00 0.00 0.00 0.01 0.01 0.00 0.00 0.19 0.52 0.67 0.49 0.41 0.34 0.24 0.26 0.44 0.38 0.48 0.28 0.18 0.23 0.42 0.40 0.06 0.02 0.01 0.04 0.08 0.04 0.00 0.01 0.03 0.04 0.01 0.01 0.03 0.01 0.00 0.00 0.00 0.00 0.00 0.00 0.00 0.00 0.00
0.00 0.00 0.00 0.00 0.00 0.00 0.00 0.00 0.01 0.04 0.27 0.22 0.26 0.68 0.61 0.49 0.39 0.32 0.29 0.21 0.09 0.11 0.11 0.09 0.10 0.14 0.11 0.13 0.06 0.02 0.03 0.02 0.06 0.11 0.06 0.06 0.03 0.04 0.01 0.00 0.00 0.00 0.00 0.00 0.00 0.00 0.00 0.00 0.00
0.00 0.00 0.00 0.00 0.00 0.00 0.00 0.01 0.02 0.08 0.45 0.51 0.27 0.32 0.45 0.50 0.43 0.51 0.30 0.10 0.08 0.05 0.08 0.15 0.18 0.25 0.26 0.24 0.10 0.04 0.09 0.11 0.24 0.26 0.12 0.11 0.04 0.05 0.00 0.00 0.00 0.00 0.00 0.00 0.00 0.00 0.00 0.00 0.00
0.00 0.00 0.00 0.00 0.00 0.00 0.00 0.03 0.09 0.18 0.77 0.30 0.15 0.08 0.17 0.26 0.28 0.23 0.12 0.08 0.06 0.08 0.14 0.16 0.25 0.42 0.20 0.20 0.17 0.11 0.14 0.20 0.18 0.17 0.26 0.13 0.02 0.01 0.00 0.00 0.00 0.00 0.00 0.00 0.00 0.00 0.00 0.00 0.00
0.00 0.00 0.00 0.00 0.00 0.00 0.01 0.03 0.13 0.21 0.39 0.13 0.05 0.05 0.06 0.11 0.16 0.10 0.11 0.22 0.14 0.18 0.18 0.32 0.52 0.51 0.19 0.09 0.10 0.12 0.12 0.06 0.12 0.19 0.19 0.12 0.09 0.08 0.04 0.02 0.01 0.00 0.00 0.00 0.00 0.00 0.00 0.00 0.00
0.00 0.00 0.00 0.00 0.00 0.00 0.02 0.17 0.29 0.13 0.09 0.07 0.04 0.01 0.02 0.03 0.01 0.00 0.02 0.01 0.01 0.04 0.10 0.35 0.48 0.52 0.38 0.16 0.17 0.14 0.11 0.10 0.11 0.12 0.14 0.22 0.16 0.12 0.07 0.03 0.02 0.00 0.00 0.00 0.00 0.00 0.00 0.00 0.00
0.00 0.00 0.00 0.00 0.00 0.00 0.01 0.03 0.15 0.07 0.09 0.12 0.07 0.04 0.00 0.02 0.01 0.00 0.00 0.00 0.01 0.00 0.10 0.50 0.67 0.66 0.65 0.50 0.46 0.55 0.46 0.31 0.10 0.06 0.08 0.14 0.13 0.11 0.05 0.03 0.01 0.00 0.00 0.00 0.00 0.00 0.00 0.00 0.00
0.00 0.00 0.00 0.00 0.00 0.00 0.00 0.00 0.09 0.05 0.03 0.09 0.15 0.10 0.02 0.01 0.00 0.00 0.00 0.02 0.03 0.02 0.22 0.53 0.69 0.93 1.04 0.92 0.72 0.32 0.20 0.13 0.07 0.05 0.10 0.15 0.16 0.09 0.04 0.03 0.00 0.00 0.00 0.00 0.00 0.00 0.00 0.00 0.00
0.00 0.00 0.00 0.00 0.00 0.00 0.00 0.00 0.00 0.01 0.11 0.10 0.14 0.06 0.01 0.00 0.00 0.00 0.01 0.02 0.04 0.09 0.38 0.64 0.70 0.95 0.94 0.42 0.16 0.05 0.03 0.03 0.06 0.11 0.14 0.17 0.15 0.10 0.04 0.03 0.00 0.00 0.00 0.00 0.00 0.00 0.00 0.00 0.00
0.00 0.00 0.00 0.00 0.00 0.00 0.00 0.00 0.00 0.00 0.00 0.01 0.02 0.03 0.02 0.00 0.00 0.01 0.03 0.05 0.12 0.23 0.50 0.59 0.44 0.26 0.06 0.02 0.00 0.00 0.00 0.04 0.04 0.10 0.10 0.09 0.14 0.09 0.04 0.05 0.01 0.02 0.01 0.00 0.00 0.00 0.00 0.00 0.00
0.00 0.00 0.00 0.00 0.00 0.00 0.00 0.00 0.00 0.00 0.01 0.01 0.01 0.00 0.00 0.01 0.00 0.02 0.06 0.13 0.17 0.14 0.13 0.07 0.06 0.04 0.02 0.00 0.00 0.00 0.02 0.05 0.04 0.08 0.14 0.11 0.07 0.05 0.02 0.08 0.03 0.01 0.02 0.00 0.00 0.00 0.00 0.00 0.00
0.00 0.00 0.00 0.00 0.00 0.00 0.00 0.01 0.00 0.00 0.00 0.00 0.00 0.00 0.00 0.03 0.02 0.03 0.02 0.01 0.00 0.01 0.08 0.06 0.05 0.04 0.03 0.00 0.00 0.00 0.02 0.04 0.07 0.10 0.08 0.04 0.02 0.02 0.01 0.03 0.02 0.02 0.03 0.02 0.02 0.02 0.02 0.01 0.01
0.01 0.00 0.00 0.00 0.00 0.02 0.02 0.01 0.02 0.00 0.00 0.00 0.00 0.00 0.00 0.00 0.00 0.00 0.00 0.00 0.01 0.02 0.07 0.08 0.09 0.09 0.05 0.02 0.04 0.07 0.11 0.13 0.12 0.09 0.05 0.03 0.05 0.04 0.03 0.02 0.02 0.02 0.03 0.03 0.03 0.03 0.07 0.18 0.24
0.00 0.00 0.00 0.00 0.00 0.00 0.01 0.05 0.03 0.02 0.01 0.01 0.01 0.00 0.00 0.01 0.02 0.00 0.01 0.01 0.00 0.03 0.05 0.04 0.11 0.07 0.13 0.08 0.11 0.13 0.16 0.15 0.10 0.07 0.04 0.03 0.02 0.03 0.03 0.04 0.05 0.05 0.06 0.07 0.07 0.10 0.17 0.25 0.30
0.00 0.00 0.01 0.15 0.09 0.02 0.04 0.02 0.02 0.01 0.00 0.00 0.00 0.00 0.01 0.00 0.00 0.00 0.00 0.00 0.00 0.01 0.02 0.06 0.13 0.15 0.16 0.23 0.17 0.18 0.16 0.17 0.06 0.02 0.02 0.05 0.09 0.11 0.08 0.05 0.04 0.04 0.06 0.05 0.07 0.15 0.22 0.25 0.32
0.00 0.00 0.03 0.14 0.09 0.07 0.04 0.02 0.00 0.00 0.00 0.00 0.00 0.00 0.00 0.00 0.00 0.00 0.00 0.00 0.01 0.03 0.02 0.09 0.09 0.17 0.17 0.23 0.21 0.23 0.19 0.07 0.13 0.05 0.09 0.14 0.12 0.08 0.07 0.06 0.06 0.07 0.10 0.19 0.27 0.34 0.38 0.45 0.53
0.01 0.00 0.01 0.03 0.04 0.06 0.02 0.01 0.00 0.01 0.00 0.00 0.00 0.00 0.00 0.00 0.00 0.00 0.00 0.00 0.04 0.02 0.04 0.10 0.13 0.16 0.17 0.17 0.19 0.28 0.24 0.11 0.08 0.08 0.13 0.16 0.13 0.09 0.12 0.14 0.17 0.27 0.34 0.33 0.32 0.39 0.47 0.54 0.53
0.00 0.00 0.00 0.01 0.05 0.04 0.00 0.00 0.01 0.02 0.01 0.00 0.00 0.00 0.00 0.00 0.00 0.00 0.00 0.00 0.01 0.03 0.07 0.07 0.06 0.09 0.09 0.10 0.14 0.20 0.22 0.26 0.18 0.17 0.31 0.40 0.39 0.31 0.28 0.31 0.33 0.27 0.22 0.23 0.30 0.32 0.27 0.22 0.19
0.00 0.00 0.00 0.00 0.00 0.01 0.02 0.01 0.00 0.00 0.00 0.00 0.00 0.00 0.00 0.00 0.00 0.00 0.00 0.00 0.01 0.01 0.03 0.02 0.02 0.02 0.04 0.09 0.12 0.13 0.23 0.27 0.54 0.82 0.80 0.58 0.54 0.44 0.37 0.28 0.22 0.29 0.39 0.38 0.28 0.22 0.21 0.17 0.10
0.00 0.00 0.01 0.01 0.00 0.00 0.01 0.00 0.00 0.00 0.00 0.00 0.00 0.00 0.00 0.00 0.00 0.00 0.00 0.01 0.03 0.01 0.00 0.00 0.02 0.04 0.12 0.19 0.46 0.51 0.81 0.91 0.88 1.13 0.88 0.39 0.31 0.28 0.31 0.47 0.56 0.44 0.32 0.26 0.24 0.19 0.11 0.08 0.07

GFSSGP_prec_precacc_072.txt.gz
Total_Precipitation_Accumulation
0.00 0.00 0.00 0.00 0.00 0.00 0.00 0.00 0.00 0.03 0.09 0.13 0.18 0.22 0.24 0.16 0.47 1.03 0.96 1.23 1.81 1.35 0.94 1.37 1.18 0.55 0.20 0.12 0.06 0.03 0.02 0.01 0.01 0.00 0.00 0.00 0.00 0.00 0.00 0.01 0.07 0.07 0.03 0.02 0.00 0.00 0.00 0.02 0.02
0.00 0.00 0.00 0.00 0.00 0.00 0.00 0.01 0.01 0.03 0.17 0.23 0.32 0.35 0.43 0.37 0.17 0.64 0.86 0.71 0.62 1.31 1.27 0.97 1.81 1.16 0.63 0.26 0.06 0.00 0.00 0.00 0.00 0.00 0.00 0.00 0.00 0.00 0.01 0.01 0.03 0.01 0.01 0.00 0.00 0.00 0.00 0.00 0.01
0.00 0.00 0.00 0.00 0.00 0.00 0.00 0.01 0.05 0.08 0.16 0.14 0.11 0.20 0.44 0.64 0.60 0.70 0.78 0.90 0.78 0.88 0.66 0.63 0.90 0.83 0.64 0.58 0.16 0.01 0.00 0.00 0.00 0.01 0.01 0.01 0.00 0.00 0.01 0.00 0.00 0.01 0.00 0.00 0.00 0.00 0.00 0.00 0.00
0.00 0.00 0.00 0.00 0.00 0.00 0.00 0.02 0.07 0.10 0.11 0.09 0.10 0.21 0.49 0.58 0.48 0.44 0.76 1.28 1.82 1.93 1.26 1.33 1.67 1.04 0.49 0.44 0.28 0.07 0.00 0.00 0.00 0.00 0.01 0.01 0.01 0.01 0.01 0.00 0.00 0.01 0.00 0.00 0.00 0.00 0.00 0.00 0.00
0.00 0.00 0.00 0.00 0.00 0.00 0.00 0.02 0.08 0.11 0.11 0.42 0.18 0.11 0.66 0.80 0.31 0.42 1.15 2.27 3.40 4.49 3.53 3.12 3.53 4.93 2.71 2.28 1.33 0.36 0.02 0.00 0.00 0.00 0.01 0.01 0.01 0.01 0.01 0.00 0.00 0.00 0.00 0.00 0.00 0.00 0.00 0.00 0.00
0.00 0.00 0.00 0.00 0.00 0.01 0.03 0.13 0.22 0.37 0.35 0.46 0.35 0.42 0.86 0.47 0.38 0.75 1.59 3.59 5.07 6.52 8.58 8.75 7.29 7.83 7.34 4.43 2.60 0.99 0.16 0.01 0.00 0.00 0.01 0.01 0.00 0.00 0.00 0.00 0.00 0.00 0.00 0.00 0.00 0.00 0.00 0.00 0.00
0.00 0.00 0.00 0.00 0.01 0.00 0.02 0.15 0.35 0.53 0.42 0.20 0.38 0.40 0.95 0.96 0.77 0.88 1.55 2.75 5.13 5.46 6.81 10.43 9.12 6.62 5.54 6.54 5.51 2.62 1.19 0.19 0.02 0.02 0.01 0.00 0.00 0.00 0.00 0.00 0.00 0.00 0.00 0.00 0.00 0.00 0.00 0.00 0.00
0.00 0.00 0.00 0.00 0.01 0.02 0.06 0.15 0.21 0.15 0.09 0.07 0.15 0.46 1.10 0.75 0.52 0.47 0.57 0.84 2.11 2.49 3.25 3.72 3.67 2.75 2.65 3.49 3.82 2.90 1.72 0.56 0.12 0.05 0.04 0.00 0.00 0.00 0.00 0.00 0.00 0.00 0.00 0.00 0.00 0.00 0.00 0.00 0.00
0.00 0.00 0.00 0.00 0.03 0.11 0.16 0.28 0.33 0.20 0.06 0.11 0.26 0.18 0.28 0.46 0.33 0.33 0.60 0.69 1.31 2.23 1.55 1.43 1.05 0.65 0.63 1.11 1.75 1.92 1.40 0.58 0.29 0.12 0.06 0.00 0.00 0.00 0.00 0.00 0.00 0.00 0.00 0.00 0.00 0.00 0.00 0.00 0.00
0.00 0.00 0.00 0.00 0.06 0.33 0.29 0.15 0.03 0.01 0.01 0.20 0.53 0.53 0.32 0.33 0.24 0.20 0.25 0.60 1.05 0.90 0.74 0.44 0.31 0.18 0.03 0.06 0.18 0.48 0.69 0.42 0.17 0.14 0.11 0.04 0.00 0.00 0.00 0.00 0.00 0.00 0.00 0.00 0.00 0.00 0.00 0.00 0.00
0.00 0.00 0.00 0.00 0.00 0.00 0.01 0.01 0.00 0.00 0.19 0.52 0.67 0.50 0.42 0.34 0.24 0.26 0.45 0.39 0.50 0.29 0.19 0.24 0.42 0.40 0.06 0.02 0.01 0.07 0.20 0.16 0.07 0.04 0.05 0.05 0.01 0.01 0.03 0.01 0.00 0.00 0.00 0.00 0.00 0.00 0.00 0.00 0.00
0.00 0.00 0.00 0.00 0.00 0.00 0.00 0.00 0.01 0.04 0.27 0.22 0.26 0.69 0.62 0.49 0.39 0.33 0.29 0.22 0.10 0.13 0.12 0.09 0.10 0.14 0.11 0.13 0.06 0.02 0.05 0.04 0.07 0.11 0.07 0.06 0.03 0.04 0.01 0.00 0.00 0.00 0.00 0.00 0.00 0.00 0.00 0.00 0.00
0.00 0.00 0.00 0.00 0.00 0.00 0.00 0.01 0.02 0.08 0.45 0.51 0.27 0.32 0.45 0.50 0.43 0.51 0.31 0.10 0.09 0.07 0.11 0.16 0.18 0.26 0.26 0.24 0.10 0.04 0.09 0.11 0.24 0.26 0.12 0.11 0.04 0.05 0.00 0.00 0.00 0.00 0.00 0.00 0.00 0.00 0.00 0.00 0.00
0.00 0.00 0.00 0.00 0.00 0.00 0.00 0.03 0.09 0.18 0.77 0.30 0.15 0.08 0.17 0.26 0.28 0.24 0.13 0.09 0.07 0.09 0.16 0.25 0.27 0.43 0.20 0.20 0.18 0.11 0.14 0.20 0.18 0.17 0.26 0.13 0.02 0.01 0.00 0.00 0.00 0.00 0.00 0.00 0.00 0.00 0.00 0.00 0.00
0.00 0.00 0.00 0.00 0.00 0.00 0.01 0.03 0.13 0.21 0.39 0.13 0.05 0.05 0.06 0.11 0.16 0.10 0.11 0.22 0.15 0.20 0.24 0.35 0.55 0.53 0.20 0.09 0.10 0.12 0.12 0.06 0.12 0.19 0.19 0.12 0.09 0.08 0.04 0.02 0.01 0.00 0.00 0.00 0.00 0.00 0.00 0.00 0.00
0.00 0.00 0.00 0.00 0.00 0.00 0.02 0.17 0.29 0.13 0.09 0.07 0.04 0.01 0.02 0.03 0.01 0.00 0.02 0.01 0.02 0.05 0.16 0.36 0.52 0.53 0.38 0.16 0.17 0.14 0.11 0.10 0.11 0.12 0.14 0.22 0.16 0.12 0.07 0.03 0.02 0.00 0.00 0.00 0.00 0.00 0.00 0.00 0.00
0.00 0.00 0.00 0.00 0.00 0.00 0.01 0.03 0.15 0.07 0.09 0.12 0.10 0.04 0.00 0.02 0.01 0.00 0.00 0.00 0.01 0.02 0.16 0.53 0.68 0.66 0.65 0.50 0.46 0.55 0.46 0.31 0.10 0.06 0.08 0.14 0.13 0.11 0.05 0.03 0.01 0.00 0.00 0.00 0.00 0.00 0.00 0.00 0.00
0.00 0.00 0.00 0.00 0.00 0.00 0.00 0.00 0.09 0.05 0.03 0.09 0.15 0.10 0.02 0.01 0.00 0.00 0.00 0.02 0.03 0.02 0.23 0.55 0.70 0.93 1.04 0.92 0.72 0.32 0.20 0.13 0.07 0.05 0.10 0.15 0.16 0.09 0.04 0.03 0.00 0.00 0.00 0.00 0.00 0.00 0.00 0.00 0.00
0.00 0.00 0.00 0.00 0.00 0.00 0.00 0.00 0.00 0.01 0.11 0.10 0.14 0.07 0.01 0.00 0.00 0.00 0.01 0.02 0.04 0.09 0.38 0.64 0.70 0.95 0.94 0.42 0.16 0.05 0.03 0.03 0.06 0.11 0.14 0.17 0.15 0.10 0.04 0.03 0.00 0.00 0.00 0.00 0.00 0.00 0.00 0.00 0.00
0.00 0.00 0.00 0.00 0.00 0.00 0.00 0.00 0.00 0.00 0.00 0.02 0.03 0.03 0.02 0.00 0.00 0.01 0.03 0.05 0.12 0.23 0.50 0.59 0.44 0.26 0.06 0.02 0.00 0.00 0.00 0.04 0.04 0.10 0.10 0.09 0.14 0.09 0.04 0.05 0.01 0.02 0.01 0.00 0.00 0.00 0.00 0.00 0.00
0.00 0.00 0.00 0.00 0.00 0.00 0.00 0.00 0.00 0.00 0.01 0.01 0.01 0.01 0.01 0.01 0.00 0.02 0.06 0.13 0.17 0.14 0.13 0.07 0.06 0.04 0.02 0.00 0.00 0.00 0.02 0.05 0.04 0.08 0.14 0.11 0.07 0.05 0.02 0.08 0.03 0.01 0.02 0.00 0.00 0.00 0.00 0.00 0.00
0.00 0.00 0.00 0.00 0.00 0.00 0.00 0.01 0.00 0.00 0.00 0.00 0.00 0.00 0.01 0.03 0.02 0.03 0.02 0.01 0.00 0.01 0.08 0.06 0.05 0.04 0.03 0.00 0.00 0.00 0.02 0.04 0.07 0.10 0.08 0.04 0.02 0.02 0.01 0.03 0.02 0.02 0.03 0.02 0.03 0.03 0.02 0.02 0.03
0.01 0.00 0.00 0.00 0.00 0.02 0.02 0.01 0.02 0.00 0.00 0.00 0.00 0.00 0.00 0.00 0.00 0.00 0.00 0.00 0.01 0.02 0.07 0.08 0.09 0.09 0.05 0.02 0.04 0.07 0.11 0.13 0.12 0.09 0.05 0.03 0.05 0.04 0.03 0.02 0.02 0.02 0.03 0.04 0.08 0.05 0.08 0.19 0.30
0.00 0.00 0.00 0.00 0.00 0.00 0.01 0.05 0.03 0.02 0.01 0.01 0.01 0.00 0.00 0.01 0.02 0.00 0.01 0.01 0.00 0.03 0.05 0.04 0.11 0.07 0.13 0.08 0.11 0.13 0.16 0.15 0.10 0.07 0.04 0.03 0.02 0.03 0.03 0.04 0.05 0.05 0.07 0.09 0.12 0.12 0.18 0.26 0.31
0.00 0.00 0.01 0.15 0.09 0.02 0.04 0.02 0.02 0.01 0.00 0.00 0.00 0.00 0.01 0.00 0.00 0.00 0.00 0.00 0.00 0.01 0.02 0.06 0.13 0.15 0.16 0.23 0.17 0.18 0.16 0.17 0.06 0.02 0.02 0.05 0.09 0.11 0.08 0.05 0.06 0.10 0.14 0.10 0.09 0.16 0.22 0.25 0.33
0.00 0.00 0.03 0.14 0.09 0.07 0.04 0.02 0.00 0.00 0.00 0.00 0.00 0.00 0.00 0.00 0.00 0.00 0.00 0.00 0.01 0.03 0.02 0.09 0.09 0.17 0.17 0.23 0.21 0.23 0.19 0.07 0.13 0.05 0.10 0.14 0.12 0.08 0.07 0.06 0.12 0.17 0.15 0.20 0.27 0.35 0.39 0.46 0.54
0.01 0.00 0.01 0.03 0.04 0.06 0.02 0.01 0.00 0.01 0.00 0.00 0.00 0.00 0.00 0.00 0.00 0.00 0.00 0.00 0.04 0.02 0.04 0.10 0.13 0.16 0.17 0.17 0.19 0.28 0.27 0.14 0.08 0.11 0.14 0.17 0.13 0.09 0.13 0.20 0.24 0.35 0.39 0.34 0.32 0.40 0.48 0.54 0.53
0.00 0.00 0.00 0.01 0.05 0.04 0.00 0.01 0.01 0.02 0.01 0.00 0.00 0.00 0.00 0.00 0.00 0.00 0.00 0.00 0.01 0.03 0.07 0.07 0.06 0.09 0.10 0.10 0.14 0.20 0.24 0.33 0.23 0.23 0.41 0.45 0.43 0.37 0.41 0.43 0.45 0.40 0.32 0.27 0.31 0.32 0.27 0.22 0.19
0.00 0.00 0.00 0.00 0.00 0.01 0.02 0.01 0.00 0.00 0.00 0.00 0.00 0.00 0.00 0.00 0.00 0.00 0.01 0.01 0.01 0.01 0.03 0.02 0.02 0.02 0.06 0.14 0.16 0.13 0.23 0.27 0.66 0.99 1.04 0.88 0.87 0.93 0.73 0.49 0.38 0.45 0.51 0.42 0.29 0.23 0.22 0.17 0.11
0.00 0.00 0.01 0.01 0.00 0.01 0.01 0.00 0.00 0.00 0.00 0.00 0.00 0.00 0.00 0.00 0.00 0.00 0.00 0.01 0.03 0.01 0.00 0.00 0.02 0.08 0.29 0.51 0.81 0.72 0.93 1.01 1.09 1.44 1.39 1.15 0.89 0.60 0.46 0.63 0.65 0.52 0.38 0.28 0.25 0.19 0.11 0.09 0.07

GFSSGP_prec_precacc_075.txt.gz
Total_Precipitation_Accumulation
0.00 0.00 0.00 0.00 0.00 0.00 0.00 0.00 0.00 0.03 0.09 0.13 0.18 0.22 0.24 0.16 0.47 1.03 0.96 1.23 1.81 1.37 0.98 1.53 1.26 0.56 0.20 0.12 0.06 0.03 0.02 0.01 0.01 0.00 0.00 0.00 0.00 0.00 0.00 0.01 0.07 0.07 0.03 0.02 0.00 0.00 0.00 0.02 0.02
0.00 0.00 0.00 0.00 0.00 0.00 0.00 0.01 0.01 0.03 0.17 0.23 0.32 0.35 0.43 0.37 0.17 0.64 0.86 0.71 0.62 1.34 1.49 1.38 2.19 1.35 0.70 0.28 0.14 0.06 0.01 0.00 0.00 0.00 0.00 0.01 0.00 0.00 0.01 0.01 0.03 0.01 0.01 0.00 0.00 0.00 0.00 0.00 0.01
0.00 0.00 0.00 0.00 0.00 0.00 0.00 0.01 0.05 0.08 0.16 0.14 0.11 0.20 0.44 0.64 0.60 0.70 0.78 0.90 0.78 0.91 0.78 0.99 1.76 1.21 0.73 0.67 0.27 0.24 0.13 0.07 0.01 0.01 0.01 0.01 0.00 0.00 0.01 0.00 0.00 0.01 0.00 0.00 0.00 0.00 0.00 0.00 0.00
0.00 0.00 0.00 0.00 0.00 0.00 0.00 0.02 0.07 0.10 0.11 0.09 0.10 0.21 0.49 0.58 0.48 0.44 0.76 1.28 1.83 1.94 1.31 1.45 1.83 1.19 0.53 0.56 0.49 0.52 0.35 0.17 0.06 0.01 0.01 0.01 0.01 0.01 0.01 0.00 0.00 0.01 0.00 0.00 0.00 0.00 0.00 0.00 0.00
0.00 0.00 0.00 0.00 0.00 0.00 0.00 0.02 0.08 0.11 0.11 0.42 0.18 0.11 0.66 0.80 0.31 0.42 1.15 2.28 3.41 4.50 3.54 3.17 3.59 4.96 2.73 2.33 1.45 0.89 0.72 0.39 0.15 0.00 0.01 0.01 0.01 0.01 0.01 0.00 0.00 0.00 0.00 0.00 0.00 0.00 0.00 0.00 0.00
0.00 0.00 0.00 0.00 0.00 0.01 0.03 0.13 0.22 0.37 0.35 0.46 0.35 0.42 0.86 0.47 0.38 0.75 1.60 3.61 5.12 6.54 8.59 8.81 7.40 7.89 7.44 4.66 2.80 1.62 1.07 0.66 0.27 0.02 0.01 0.01 0.00 0.00 0.00 0.00 0.00 0.00 0.00 0.00 0.00 0.00 0.00 0.00 0.00
0.00 0.00 0.00 0.00 0.01 0.00 0.02 0.15 0.35 0.53 0.42 0.20 0.38 0.40 0.95 0.96 0.77 0.88 1.55 2.78 5.21 5.49 6.90 10.50 9.27 6.85 5.68 6.64 5.82 3.36 2.20 1.03 0.47 0.12 0.02 0.00 0.00 0.00 0.00 0.00 0.00 0.00 0.00 0.00 0.00 0.00 0.00 0.00 0.00
0.00 0.00 0.00 0.00 0.01 0.02 0.06 0.15 0.21 0.15 0.09 0.07 0.15 0.46 1.10 0.76 0.53 0.47 0.58 0.86 2.14 2.55 3.31 3.81 3.82 2.92 2.70 3.51 4.36 4.15 2.66 1.57 0.70 0.20 0.07 0.00 0.00 0.00 0.00 0.00 0.00 0.00 0.00 0.00 0.00 0.00 0.00 0.00 0.00
0.00 0.00 0.00 0.00 0.03 0.11 0.16 0.28 0.33 0.20 0.06 0.11 0.26 0.18 0.28 0.46 0.33 0.33 0.60 0.72 1.36 2.27 1.58 1.55 1.16 0.69 0.66 1.11 1.80 2.52 2.04 1.44 1.04 0.38 0.08 0.00 0.00 0.00 0.00 0.00 0.00 0.00 0.00 0.00 0.00 0.00 0.00 0.00 0.00
0.00 0.00 0.00 0.00 0.06 0.33 0.29 0.15 0.03 0.01 0.01 0.20 0.53 0.53 0.32 0.33 0.24 0.20 0.26 0.62 1.08 0.92 0.75 0.46 0.34 0.19 0.04 0.06 0.18 0.60 1.03 0.94 0.78 0.45 0.14 0.04 0.00 0.00 0.00 0.00 0.00 0.00 0.00 0.00 0.00 0.00 0.00 0.00 0.00
0.00 0.00 0.00 0.00 0.00 0.00 0.01 0.01 0.00 0.00 0.19 0.52 0.67 0.50 0.42 0.34 0.24 0.26 0.45 0.40 0.52 0.31 0.20 0.25 0.43 0.41 0.07 0.02 0.01 0.09 0.32 0.41 0.29 0.18 0.07 0.05 0.01 0.01 0.03 0.01 0.00 0.00 0.00 0.00 0.00 0.00 0.00 0.00 0.00
0.00 0.00 0.00 0.00 0.00 0.00 0.00 0.00 0.01 0.04 0.27 0.22 0.26 0.69 0.62 0.49 0.39 0.33 0.29 0.22 0.10 0.14 0.14 0.10 0.10 0.14 0.11 0.13 0.06 0.02 0.09 0.12 0.16 0.17 0.07 0.06 0.03 0.04 0.01 0.00 0.00 0.00 0.00 0.00 0.00 0.00 0.00 0.00 0.00
0.00 0.00 0.00 0.00 0.00 0.00 0.00 0.01 0.02 0.08 0.45 0.51 0.27 0.32 0.45 0.50 0.43 0.51 0.31 0.11 0.09 0.07 0.13 0.16 0.18 0.26 0.26 0.24 0.10 0.05 0.10 0.13 0.27 0.28 0.13 0.11 0.04 0.05 0.00 0.00 0.00 0.00 0.00 0.00 0.00 0.00 0.00 0.00 0.00
0.00 0.00 0.00 0.00 0.00 0.00 0.00 0.03 0.09 0.18 0.77 0.30 0.15 0.08 0.17 0.26 0.28 0.24 0.13 0.09 0.08 0.10 0.18 0.26 0.27 0.43 0.20 0.20 0.18 0.11 0.14 0.21 0.19 0.18 0.26 0.13 0.02 0.01 0.00 0.00 0.00 0.00 0.00 0.00 0.00 0.00 0.00 0.00 0.00
0.00 0.00 0.00 0.00 0.00 0.00 0.01 0.03 0.13 0.21 0.39 0.13 0.05 0.05 0.06 0.11 0.16 0.10 0.11 0.23 0.16 0.21 0.25 0.41 0.64 0.54 0.22 0.09 0.10 0.12 0.12 0.06 0.12 0.19 0.19 0.12 0.09 0.08 0.04 0.02 0.01 0.00 0.00 0.00 0.00 0.00 0.00 0.00 0.00
0.00 0.00 0.00 0.00 0.00 0.00 0.02 0.17 0.29 0.13 0.09 0.07 0.04 0.01 0.02 0.03 0.01 0.00 0.02 0.01 0.02 0.06 0.17 0.39 0.59 0.57 0.47 0.17 0.17 0.15 0.12 0.10 0.11 0.12 0.14 0.22 0.16 0.12 0.07 0.03 0.02 0.00 0.00 0.00 0.00 0.00 0.00 0.00 0.00
0.00 0.00 0.00 0.00 0.00 0.00 0.01 0.03 0.15 0.07 0.09 0.12 0.10 0.04 0.00 0.02 0.01 0.00 0.00 0.00 0.01 0.02 0.17 0.56 0.74 0.74 0.70 0.54 0.47 0.56 0.46 0.31 0.10 0.06 0.08 0.14 0.13 0.11 0.05 0.03 0.01 0.00 0.00 0.00 0.00 0.00 0.00 0.00 0.00
0.00 0.00 0.00 0.00 0.00 0.00 0.00 0.00 0.09 0.05 0.03 0.09 0.15 0.10 0.02 0.01 0.00 0.00 0.00 0.02 0.03 0.03 0.24 0.60 0.76 0.98 1.08 0.94 0.73 0.33 0.20 0.13 0.07 0.05 0.10 0.15 0.16 0.09 0.04 0.03 0.00 0.00 0.00 0.00 0.00 0.00 0.00 0.00 0.00
0.00 0.00 0.00 0.00 0.00 0.00 0.00 0.00 0.00 0.01 0.11 0.10 0.14 0.07 0.01 0.00 0.00 0.00 0.01 0.02 0.04 0.09 0.38 0.65 0.71 0.96 0.94 0.43 0.17 0.06 0.03 0.03 0.06 0.11 0.14 0.17 0.15 0.10 0.04 0.03 0.00 0.00 0.00 0.00 0.00 0.00 0.00 0.00 0.00
0.00 0.00 0.00 0.00 0.00 0.00 0.00 0.00 0.00 0.00 0.00 0.02 0.03 0.03 0.02 0.00 0.00 0.01 0.03 0.05 0.12 0.23 0.50 0.59 0.44 0.26 0.06 0.02 0.01 0.00 0.00 0.04 0.04 0.10 0.10 0.09 0.14 0.09 0.04 0.05 0.01 0.02 0.01 0.00 0.00 0.00 0.00 0.00 0.00
0.00 0.00 0.00 0.00 0.00 0.00 0.00 0.00 0.00 0.00 0.01 0.01 0.01 0.01 0.01 0.01 0.00 0.02 0.06 0.13 0.17 0.14 0.13 0.07 0.06 0.04 0.02 0.00 0.00 0.00 0.02 0.05 0.04 0.08 0.14 0.11 0.07 0.05 0.02 0.08 0.03 0.01 0.02 0.00 0.00 0.00 0.00 0.00 0.00
0.00 0.00 0.00 0.00 0.00 0.00 0.00 0.01 0.00 0.00 0.00 0.00 0.00 0.00 0.01 0.03 0.02 0.03 0.02 0.01 0.00 0.01 0.08 0.06 0.05 0.04 0.03 0.00 0.00 0.00 0.02 0.04 0.07 0.10 0.08 0.04 0.02 0.02 0.01 0.03 0.02 0.02 0.03 0.02 0.03 0.03 0.02 0.02 0.03
0.01 0.00 0.00 0.00 0.00 0.02 0.02 0.01 0.02 0.00 0.00 0.00 0.00 0.00 0.00 0.00 0.00 0.00 0.00 0.00 0.01 0.02 0.07 0.08 0.09 0.09 0.05 0.02 0.04 0.07 0.11 0.13 0.12 0.09 0.05 0.03 0.05 0.04 0.03 0.02 0.02 0.02 0.03 0.05 0.10 0.07 0.09 0.21 0.31
0.00 0.00 0.00 0.00 0.00 0.00 0.01 0.05 0.03 0.02 0.01 0.01 0.01 0.00 0.00 0.01 0.02 0.00 0.01 0.01 0.00 0.03 0.05 0.04 0.11 0.07 0.13 0.08 0.11 0.13 0.16 0.15 0.10 0.07 0.04 0.03 0.02 0.03 0.03 0.04 0.05 0.05 0.08 0.13 0.21 0.18 0.21 0.29 0.33
0.00 0.00 0.01 0.15 0.09 0.02 0.04 0.02 0.02 0.01 0.00 0.00 0.00 0.00 0.01 0.00 0.00 0.00 0.00 0.00 0.00 0.01 0.02 0.06 0.13 0.15 0.16 0.23 0.17 0.18 0.16 0.17 0.06 0.02 0.02 0.05 0.09 0.11 0.08 0.05 0.06 0.10 0.18 0.20 0.20 0.24 0.25 0.28 0.35
0.00 0.00 0.03 0.14 0.09 0.07 0.04 0.02 0.00 0.00 0.00 0.00 0.00 0.00 0.00 0.00 0.00 0.00 0.00 0.00 0.01 0.03 0.02 0.09 0.09 0.17 0.17 0.23 0.21 0.23 0.19 0.07 0.13 0.05 0.10 0.14 0.12 0.08 0.07 0.06 0.12 0.18 0.20 0.31 0.38 0.44 0.45 0.49 0.55
0.01 0.00 0.01 0.03 0.04 0.06 0.02 0.01 0.00 0.01 0.00 0.00 0.00 0.00 0.00 0.00 0.00 0.00 0.00 0.00 0.04 0.02 0.04 0.10 0.13 0.16 0.17 0.17 0.19 0.28 0.27 0.14 0.08 0.11 0.14 0.17 0.14 0.10 0.13 0.20 0.24 0.39 0.48 0.47 0.46 0.55 0.56 0.58 0.55
0.00 0.00 0.00 0.01 0.05 0.04 0.00 0.01 0.01 0.02 0.01 0.00 0.00 0.00 0.00 0.00 0.00 0.00 0.00 0.00 0.01 0.03 0.07 0.07 0.07 0.10 0.10 0.10 0.14 0.20 0.24 0.33 0.23 0.23 0.41 0.46 0.49 0.42 0.45 0.48 0.53 0.47 0.38 0.35 0.43 0.42 0.31 0.25 0.21
0.00 0.00 0.00 0.00 0.00 0.01 0.02 0.01 0.00 0.00 0.00 0.00 0.00 0.00 0.00 0.00 0.00 0.00 0.01 0.01 0.01 0.01 0.04 0.03 0.02 0.05 0.13 0.25 0.18 0.13 0.23 0.27 0.67 1.03 1.08 0.94 0.97 1.08 0.95 0.76 0.62 0.62 0.61 0.54 0.40 0.31 0.25 0.19 0.13
0.00 0.00 0.01 0.01 0.00 0.01 0.01 0.00 0.00 0.00 0.00 0.00 0.00 0.00 0.00 0.00 0.00 0.00 0.00 0.01 0.03 0.01 0.00 0.01 0.02 0.11 0.52 0.75 0.93 0.77 0.95 1.02 1.14 1.51 1.49 1.26 1.13 0.93 0.81 0.89 0.81 0.59 0.43 0.33 0.28 0.22 0.14 0.11 0.09

GFSSGP_prec_precacc_078.txt.gz
Total_Precipitation_Accumulation
0.00 0.00 0.00 0.00 0.00 0.00 0.00 0.00 0.00 0.03 0.09 0.13 0.18 0.22 0.24 0.16 0.47 1.03 0.96 1.23 1.82 1.42 1.01 1.57 1.29 0.62 0.25 0.20 0.13 0.03 0.02 0.01 0.01 0.00 0.00 0.00 0.01 0.00 0.00 0.01 0.07 0.07 0.03 0.02 0.00 0.00 0.00 0.02 0.02
0.00 0.00 0.00 0.00 0.00 0.00 0.00 0.01 0.01 0.03 0.17 0.23 0.32 0.35 0.43 0.37 0.17 0.64 0.86 0.71 0.62 1.40 1.53 1.43 2.28 1.43 0.95 0.60 0.38 0.23 0.03 0.00 0.00 0.00 0.00 0.01 0.00 0.00 0.01 0.01 0.03 0.01 0.01 0.00 0.01 0.00 0.00 0.00 0.01
0.00 0.00 0.00 0.00 0.00 0.00 0.00 0.01 0.05 0.08 0.16 0.14 0.11 0.20 0.44 0.64 0.60 0.70 0.78 0.90 0.79 0.97 0.87 1.12 1.92 1.56 1.03 1.03 0.70 0.60 0.31 0.12 0.03 0.01 0.02 0.01 0.00 0.00 0.01 0.00 0.00 0.01 0.00 0.00 0.00 0.00 0.00 0.00 0.00
0.00 0.00 0.00 0.00 0.00 0.00 0.00 0.02 0.07 0.10 0.11 0.09 0.10 0.21 0.49 0.58 0.48 0.44 0.76 1.28 1.83 1.99 1.42 1.56 1.96 1.30 0.69 0.85 0.87 0.79 0.55 0.35 0.21 0.06 0.02 0.01 0.01 0.01 0.01 0.00 0.01 0.01 0.00 0.00 0.00 0.00 0.00 0.00 0.00
0.00 0.00 0.00 0.00 0.00 0.00 0.00 0.02 0.08 0.11 0.11 0.42 0.18 0.11 0.66 0.80 0.31 0.42 1.15 2.28 3.41 4.55 3.84 3.27 3.67 5.01 2.76 2.40 1.51 0.99 0.86 0.53 0.35 0.14 0.02 0.01 0.01 0.01 0.01 0.00 0.00 0.00 0.00 0.00 0.00 0.00 0.00 0.00 0.00
0.00 0.00 0.00 0.00 0.00 0.01 0.03 0.13 0.22 0.37 0.35 0.46 0.35 0.42 0.86 0.47 0.38 0.75 1.60 3.61 5.14 6.62 8.69 8.87 7.43 7.92 7.46 4.73 2.87 1.73 1.16 0.79 0.53 0.22 0.03 0.01 0.00 0.00 0.00 0.00 0.00 0.00 0.00 0.00 0.00 0.00 0.00 0.00 0.00
0.00 0.00 0.00 0.00 0.01 0.00 0.02 0.15 0.35 0.53 0.42 0.20 0.38 0.40 0.95 0.96 0.77 0.88 1.55 2.78 5.21 5.53 7.01 10.64 9.32 6.94 5.74 6.67 5.83 3.38 2.28 1.22 0.88 0.37 0.09 0.01 0.00 0.00 0.00 0.00 0.00 0.00 0.00 0.00 0.00 0.00 0.00 0.00 0.00
0.00 0.00 0.00 0.00 0.01 0.02 0.06 0.15 0.21 0.15 0.09 0.07 0.15 0.46 1.10 0.76 0.53 0.47 0.58 0.86 2.14 2.59 3.34 3.90 3.96 2.98 2.74 3.52 4.37 4.16 2.73 2.00 1.33 0.52 0.21 0.01 0.00 0.00 0.00 0.00 0.00 0.00 0.00 0.00 0.00 0.00 0.00 0.00 0.00
0.00 0.00 0.00 0.00 0.03 0.11 0.16 0.28 0.33 0.20 0.06 0.11 0.26 0.18 0.28 0.46 0.33 0.33 0.61 0.72 1.36 2.28 1.62 1.63 1.23 0.70 0.66 1.11 1.81 2.60 2.23 2.07 1.71 0.81 0.23 0.03 0.00 0.00 0.00 0.00 0.00 0.00 0.00 0.00 0.00 0.00 0.00 0.00 0.00
0.00 0.00 0.00 0.00 0.06 0.33 0.29 0.15 0.03 0.01 0.01 0.20 0.53 0.53 0.32 0.33 0.25 0.20 0.26 0.62 1.08 0.93 0.76 0.47 0.36 0.20 0.04 0.06 0.18 0.61 1.27 1.74 1.50 0.91 0.30 0.04 0.00 0.00 0.00 0.00 0.00 0.00 0.00 0.00 0.00 0.00 0.00 0.00 0.00
0.00 0.00 0.00 0.00 0.00 0.00 0.01 0.01 0.00 0.00 0.19 0.52 0.67 0.50 0.42 0.34 0.24 0.26 0.45 0.40 0.52 0.31 0.21 0.25 0.43 0.41 0.07 0.02 0.01 0.09 0.40 0.93 0.73 0.48 0.15 0.05 0.01 0.01 0.03 0.01 0.00 0.00 0.00 0.00 0.00 0.00 0.00 0.00 0.00
0.00 0.00 0.00 0.00 0.00 0.00 0.00 0.00 0.01 0.04 0.27 0.22 0.26 0.69 0.62 0.49 0.39 0.33 0.29 0.22 0.11 0.15 0.15 0.11 0.11 0.14 0.11 0.13 0.06 0.04 0.20 0.41 0.32 0.27 0.09 0.06 0.03 0.04 0.01 0.00 0.00 0.00 0.00 0.00 0.00 0.00 0.00 0.00 0.00
0.00 0.00 0.00 0.00 0.00 0.00 0.00 0.01 0.02 0.08 0.45 0.51 0.27 0.32 0.45 0.50 0.44 0.51 0.31 0.11 0.09 0.07 0.14 0.18 0.19 0.26 0.26 0.24 0.11 0.07 0.23 0.31 0.39 0.32 0.13 0.11 0.04 0.05 0.00 0.00 0.00 0.00 0.00 0.00 0.00 0.00 0.00 0.00 0.00
0.00 0.00 0.00 0.00 0.00 0.00 0.00 0.03 0.09 0.18 0.77 0.30 0.15 0.08 0.17 0.26 0.28 0.24 0.13 0.09 0.08 0.10 0.19 0.27 0.27 0.43 0.20 0.20 0.18 0.11 0.16 0.28 0.28 0.20 0.26 0.13 0.02 0.01 0.00 0.00 0.00 0.00 0.00 0.00 0.00 0.00 0.00 0.00 0.00
0.00 0.00 0.00 0.00 0.00 0.00 0.01 0.03 0.13 0.21 0.39 0.13 0.05 0.05 0.06 0.11 0.16 0.10 0.11 0.23 0.16 0.21 0.25 0.41 0.64 0.54 0.22 0.09 0.10 0.13 0.13 0.08 0.16 0.20 0.19 0.12 0.09 0.08 0.04 0.02 0.01 0.00 0.00 0.00 0.00 0.00 0.00 0.00 0.00
0.00 0.00 0.00 0.00 0.00 0.00 0.02 0.17 0.29 0.13 0.09 0.07 0.04 0.01 0.02 0.03 0.01 0.00 0.02 0.01 0.02 0.06 0.18 0.43 0.60 0.57 0.47 0.17 0.17 0.16 0.13 0.12 0.13 0.13 0.14 0.22 0.16 0.12 0.07 0.03 0.02 0.00 0.00 0.00 0.00 0.00 0.00 0.00 0.00
0.00 0.00 0.00 0.00 0.00 0.00 0.01 0.03 0.15 0.07 0.09 0.12 0.10 0.04 0.00 0.02 0.01 0.00 0.00 0.00 0.01 0.02 0.18 0.61 0.79 0.76 0.72 0.56 0.48 0.61 0.50 0.34 0.11 0.07 0.08 0.14 0.13 0.11 0.05 0.03 0.01 0.00 0.00 0.00 0.00 0.00 0.00 0.00 0.00
0.00 0.00 0.00 0.00 0.00 0.00 0.00 0.00 0.09 0.05 0.03 0.09 0.15 0.10 0.02 0.01 0.00 0.00 0.00 0.02 0.03 0.03 0.25 0.62 0.80 1.04 1.13 1.01 0.79 0.41 0.26 0.17 0.08 0.05 0.10 0.15 0.16 0.09 0.04 0.03 0.00 0.00 0.00 0.00 0.00 0.00 0.00 0.00 0.00
0.00 0.00 0.00 0.00 0.00 0.00 0.00 0.00 0.00 0.01 0.11 0.10 0.14 0.07 0.01 0.00 0.00 0.00 0.01 0.02 0.04 0.09 0.38 0.68 0.74 1.01 1.02 0.47 0.25 0.16 0.10 0.05 0.07 0.12 0.14 0.17 0.15 0.10 0.04 0.03 0.00 0.00 0.00 0.00 0.00 0.00 0.00 0.00 0.00
0.00 0.00 0.00 0.00 0.00 0.00 0.00 0.00 0.00 0.00 0.00 0.02 0.03 0.03 0.02 0.00 0.00 0.01 0.03 0.05 0.12 0.23 0.50 0.59 0.45 0.28 0.07 0.03 0.04 0.06 0.03 0.05 0.05 0.12 0.10 0.09 0.14 0.09 0.04 0.05 0.01 0.02 0.01 0.00 0.00 0.00 0.00 0.00 0.00
0.00 0.00 0.00 0.00 0.00 0.00 0.00 0.00 0.00 0.00 0.01 0.01 0.01 0.01 0.01 0.01 0.00 0.02 0.06 0.13 0.17 0.14 0.14 0.07 0.06 0.04 0.02 0.01 0.03 0.02 0.04 0.07 0.05 0.09 0.15 0.11 0.07 0.05 0.02 0.08 0.03 0.01 0.02 0.00 0.00 0.00 0.00 0.00 0.00
0.00 0.00 0.00 0.00 0.00 0.00 0.00 0.01 0.00 0.00 0.00 0.00 0.00 0.00 0.01 0.03 0.02 0.03 0.02 0.01 0.00 0.01 0.08 0.06 0.05 0.04 0.03 0.00 0.00 0.01 0.02 0.05 0.08 0.10 0.08 0.04 0.02 0.02 0.01 0.03 0.02 0.02 0.03 0.02 0.03 0.03 0.02 0.02 0.04
0.01 0.00 0.00 0.00 0.00 0.02 0.02 0.01 0.02 0.00 0.00 0.00 0.00 0.00 0.00 0.00 0.00 0.00 0.00 0.00 0.01 0.02 0.07 0.08 0.09 0.09 0.05 0.02 0.04 0.07 0.11 0.13 0.12 0.09 0.05 0.03 0.05 0.04 0.03 0.02 0.02 0.02 0.03 0.05 0.10 0.07 0.09 0.21 0.31
0.00 0.00 0.00 0.00 0.00 0.00 0.01 0.05 0.03 0.02 0.01 0.01 0.01 0.00 0.00 0.01 0.02 0.00 0.01 0.01 0.00 0.03 0.05 0.04 0.11 0.07 0.13 0.08 0.11 0.13 0.16 0.15 0.10 0.07 0.04 0.03 0.02 0.03 0.03 0.04 0.05 0.05 0.08 0.13 0.22 0.19 0.22 0.30 0.34
0.00 0.00 0.01 0.15 0.09 0.02 0.04 0.02 0.02 0.01 0.00 0.00 0.00 0.00 0.01 0.00 0.00 0.00 0.00 0.00 0.00 0.01 0.02 0.06 0.13 0.15 0.16 0.23 0.17 0.18 0.16 0.17 0.06 0.02 0.02 0.05 0.09 0.11 0.08 0.05 0.06 0.10 0.18 0.21 0.21 0.27 0.31 0.33 0.40
0.00 0.00 0.03 0.14 0.09 0.07 0.04 0.02 0.00 0.00 0.00 0.00 0.00 0.00 0.00 0.00 0.00 0.00 0.00 0.00 0.01 0.03 0.02 0.09 0.09 0.17 0.17 0.23 0.21 0.23 0.19 0.07 0.13 0.05 0.10 0.14 0.12 0.08 0.07 0.06 0.12 0.18 0.20 0.31 0.41 0.49 0.53 0.60 0.67
0.01 0.00 0.01 0.03 0.04 0.06 0.02 0.01 0.00 0.01 0.00 0.00 0.00 0.00 0.00 0.00 0.00 0.00 0.00 0.00 0.04 0.02 0.04 0.10 0.13 0.16 0.17 0.17 0.19 0.28 0.27 0.14 0.08 0.11 0.14 0.17 0.14 0.10 0.13 0.20 0.24 0.39 0.48 0.47 0.50 0.62 0.75 0.84 0.79
0.00 0.00 0.00 0.01 0.05 0.04 0.00 0.01 0.01 0.02 0.01 0.00 0.00 0.00 0.00 0.00 0.00 0.00 0.00 0.00 0.01 0.03 0.07 0.08 0.07 0.10 0.10 0.10 0.14 0.20 0.24 0.33 0.23 0.23 0.41 0.46 0.49 0.43 0.45 0.49 0.54 0.48 0.40 0.38 0.46 0.45 0.39 0.37 0.34
0.00 0.00 0.00 0.00 0.00 0.01 0.02 0.01 0.00 0.00 0.00 0.00 0.00 0.00 0.00 0.00 0.00 0.00 0.01 0.01 0.01 0.01 0.05 0.05 0.04 0.08 0.19 0.27 0.18 0.13 0.23 0.27 0.67 1.03 1.08 0.94 0.97 1.08 0.97 0.80 0.71 0.72 0.74 0.69 0.53 0.37 0.31 0.28 0.21
0.00 0.00 0.01 0.01 0.00 0.01 0.01 0.00 0.00 0.00 0.00 0.00 0.00 0.00 0.00 0.00 0.00 0.00 0.00 0.01 0.03 0.01 0.00 0.01 0.04 0.15 0.63 0.90 0.99 0.78 0.97 1.03 1.14 1.51 1.49 1.26 1.13 0.93 0.83 0.94 0.85 0.65 0.48 0.36 0.30 0.23 0.16 0.14 0.13

GFSSGP_prec_precacc_081.txt.gz
Total_Precipitation_Accumulation
0.00 0.00 0.00 0.00 0.00 0.00 0.00 0.00 0.00 0.03 0.09 0.13 0.18 0.22 0.24 0.16 0.47 1.03 0.96 1.23 1.83 1.44 1.02 1.57 1.29 0.62 0.25 0.20 0.16 0.04 0.02 0.01 0.01 0.00 0.00 0.00 0.01 0.00 0.00 0.01 0.07 0.07 0.03 0.02 0.00 0.00 0.01 0.03 0.02
0.00 0.00 0.00 0.00 0.00 0.00 0.00 0.01 0.01 0.03 0.17 0.23 0.32 0.35 0.43 0.37 0.17 0.64 0.86 0.71 0.66 1.44 1.55 1.44 2.29 1.43 0.96 0.62 0.43 0.53 0.25 0.11 0.01 0.00 0.00 0.01 0.00 0.00 0.01 0.01 0.03 0.01 0.01 0.00 0.01 0.00 0.00 0.00 0.01
0.00 0.00 0.00 0.00 0.00 0.00 0.00 0.01 0.05 0.08 0.16 0.14 0.11 0.20 0.44 0.64 0.60 0.70 0.78 0.90 0.80 1.04 0.94 1.24 2.03 1.57 1.03 1.04 0.72 0.85 0.94 0.79 0.17 0.01 0.02 0.01 0.00 0.00 0.01 0.00 0.00 0.01 0.00 0.01 0.01 0.00 0.00 0.00 0.00
0.00 0.00 0.00 0.00 0.00 0.00 0.00 0.02 0.07 0.10 0.11 0.09 0.10 0.21 0.49 0.58 0.48 0.44 0.76 1.28 1.83 2.03 1.46 1.69 2.04 1.30 0.69 0.85 0.87 0.89 1.10 1.59 0.62 0.10 0.02 0.01 0.01 0.01 0.01 0.00 0.01 0.01 0.01 0.01 0.01 0.00 0.00 0.00 0.00
0.00 0.00 0.00 0.00 0.00 0.00 0.00 0.02 0.08 0.11 0.11 0.42 0.18 0.11 0.66 0.80 0.31 0.42 1.15 2.28 3.41 4.56 4.04 3.58 3.86 5.05 2.76 2.40 1.51 1.03 1.04 1.28 0.75 0.27 0.03 0.01 0.01 0.01 0.01 0.00 0.00 0.00 0.00 0.00 0.00 0.00 0.00 0.00 0.00
0.00 0.00 0.00 0.00 0.00 0.01 0.03 0.13 0.22 0.37 0.35 0.46 0.35 0.42 0.86 0.47 0.38 0.75 1.60 3.62 5.15 6.62 8.73 8.98 7.59 7.95 7.47 4.73 2.87 1.73 1.19 0.92 0.71 0.37 0.09 0.01 0.00 0.00 0.00 0.00 0.00 0.00 0.00 0.00 0.00 0.00 0.00 0.00 0.00
0.00 0.00 0.00 0.00 0.01 0.00 0.02 0.15 0.35 0.53 0.42 0.20 0.38 0.40 0.95 0.96 0.77 0.88 1.55 2.78 5.21 5.54 7.01 10.65 9.44 7.07 5.79 6.67 5.85 3.39 2.33 1.36 1.13 0.55 0.18 0.02 0.00 0.00 0.00 0.00 0.00 0.00 0.00 0.00 0.00 0.00 0.00 0.00 0.00
0.00 0.00 0.00 0.00 0.01 0.02 0.06 0.15 0.21 0.15 0.09 0.07 0.15 0.46 1.10 0.76 0.53 0.47 0.58 0.86 2.14 2.59 3.35 3.91 4.00 3.15 2.82 3.55 4.40 4.22 2.77 2.06 1.66 0.93 0.37 0.04 0.00 0.00 0.00 0.00 0.00 0.00 0.00 0.00 0.00 0.00 0.00 0.00 0.00
0.00 0.00 0.00 0.00 0.03 0.11 0.16 0.28 0.33 0.20 0.06 0.11 0.26 0.18 0.28 0.46 0.34 0.33 0.61 0.72 1.36 2.28 1.62 1.64 1.25 0.75 0.72 1.18 1.87 2.62 2.37 2.23 2.08 1.47 0.48 0.06 0.00 0.00 0.00 0.00 0.00 0.00 0.00 0.00 0.00 0.00 0.00 0.00 0.00
0.00 0.00 0.00 0.00 0.06 0.33 0.29 0.15 0.03 0.01 0.01 0.20 0.53 0.53 0.32 0.33 0.25 0.20 0.26 0.62 1.08 0.94 0.76 0.49 0.37 0.26 0.13 0.11 0.21 0.63 1.31 1.93 1.88 1.87 0.62 0.09 0.00 0.00 0.00 0.00 0.00 0.00 0.00 0.00 0.00 0.00 0.00 0.00 0.00
0.00 0.00 0.00 0.00 0.00 0.00 0.01 0.01 0.00 0.00 0.19 0.52 0.67 0.50 0.42 0.34 0.24 0.26 0.45 0.40 0.52 0.31 0.21 0.26 0.44 0.43 0.11 0.03 0.03 0.10 0.41 1.10 1.17 0.97 0.31 0.07 0.01 0.01 0.03 0.01 0.00 0.00 0.00 0.00 0.00 0.00 0.00 0.00 0.00
0.00 0.00 0.00 0.00 0.00 0.00 0.00 0.00 0.01 0.04 0.27 0.22 0.26 0.69 0.62 0.49 0.39 0.33 0.29 0.22 0.11 0.15 0.16 0.12 0.11 0.16 0.19 0.18 0.07 0.05 0.26 0.56 0.59 0.43 0.11 0.06 0.03 0.04 0.01 0.00 0.00 0.00 0.00 0.00 0.00 0.00 0.00 0.00 0.00
0.00 0.00 0.00 0.00 0.00 0.00 0.00 0.01 0.02 0.08 0.45 0.51 0.27 0.32 0.45 0.50 0.44 0.51 0.31 0.11 0.09 0.07 0.15 0.19 0.20 0.26 0.27 0.25 0.11 0.13 0.49 0.48 0.53 0.39 0.13 0.11 0.04 0.05 0.00 0.00 0.00 0.00 0.00 0.00 0.00 0.00 0.00 0.00 0.00
0.00 0.00 0.00 0.00 0.00 0.00 0.00 0.03 0.09 0.18 0.77 0.30 0.15 0.08 0.17 0.26 0.28 0.24 0.13 0.10 0.09 0.10 0.19 0.27 0.28 0.43 0.20 0.20 0.22 0.28 0.45 0.43 0.38 0.24 0.26 0.13 0.02 0.01 0.00 0.00 0.00 0.00 0.00 0.00 0.00 0.00 0.00 0.00 0.00
0.00 0.00 0.00 0.00 0.00 0.00 0.01 0.03 0.13 0.21 0.39 0.13 0.05 0.05 0.06 0.11 0.16 0.10 0.11 0.23 0.16 0.22 0.25 0.41 0.64 0.54 0.22 0.09 0.16 0.26 0.32 0.20 0.22 0.21 0.19 0.12 0.09 0.08 0.04 0.02 0.01 0.00 0.00 0.00 0.00 0.00 0.00 0.00 0.00
0.00 0.00 0.00 0.00 0.00 0.00 0.02 0.17 0.29 0.13 0.09 0.07 0.04 0.01 0.02 0.03 0.01 0.00 0.02 0.01 0.03 0.06 0.19 0.43 0.60 0.57 0.47 0.17 0.22 0.26 0.22 0.20 0.17 0.13 0.14 0.22 0.16 0.12 0.07 0.03 0.02 0.00 0.00 0.00 0.00 0.00 0.00 0.00 0.00
0.00 0.00 0.00 0.00 0.00 0.00 0.01 0.03 0.15 0.07 0.09 0.12 0.10 0.04 0.00 0.02 0.01 0.00 0.00 0.01 0.02 0.02 0.18 0.61 0.80 0.77 0.72 0.56 0.49 0.65 0.62 0.41 0.14 0.07 0.08 0.14 0.13 0.11 0.05 0.03 0.01 0.00 0.00 0.00 0.00 0.00 0.00 0.00 0.00
0.00 0.00 0.00 0.00 0.00 0.00 0.00 0.00 0.09 0.05 0.03 0.09 0.15 0.10 0.02 0.01 0.00 0.00 0.00 0.02 0.03 0.03 0.25 0.63 0.83 1.08 1.16 1.02 0.82 0.51 0.44 0.30 0.12 0.06 0.10 0.15 0.16 0.09 0.04 0.03 0.00 0.00 0.00 0.00 0.00 0.00 0.00 0.00 0.00
0.00 0.00 0.00 0.00 0.00 0.00 0.00 0.00 0.00 0.01 0.11 0.10 0.14 0.07 0.01 0.00 0.00 0.00 0.01 0.02 0.04 0.10 0.38 0.69 0.78 1.06 1.04 0.52 0.32 0.28 0.25 0.16 0.14 0.13 0.14 0.17 0.15 0.10 0.04 0.03 0.00 0.00 0.00 0.00 0.01 0.00 0.00 0.00 0.00
0.00 0.00 0.00 0.00 0.00 0.00 0.00 0.00 0.00 0.00 0.00 0.02 0.03 0.03 0.02 0.00 0.00 0.01 0.03 0.06 0.12 0.24 0.51 0.59 0.46 0.29 0.12 0.07 0.10 0.11 0.14 0.17 0.10 0.15 0.11 0.10 0.15 0.09 0.04 0.05 0.01 0.02 0.01 0.00 0.00 0.00 0.00 0.00 0.00
0.00 0.00 0.00 0.00 0.00 0.00 0.00 0.00 0.00 0.00 0.01 0.01 0.01 0.01 0.01 0.01 0.00 0.02 0.06 0.13 0.17 0.15 0.14 0.07 0.06 0.04 0.04 0.07 0.12 0.12 0.16 0.15 0.10 0.13 0.16 0.11 0.07 0.05 0.02 0.08 0.03 0.01 0.02 0.00 0.00 0.00 0.00 0.00 0.00
0.00 0.00 0.00 0.00 0.00 0.00 0.00 0.01 0.00 0.00 0.00 0.00 0.00 0.00 0.01 0.03 0.02 0.03 0.02 0.01 0.00 0.01 0.09 0.06 0.05 0.04 0.03 0.02 0.04 0.04 0.04 0.06 0.08 0.11 0.08 0.04 0.02 0.02 0.01 0.03 0.02 0.02 0.03 0.02 0.03 0.03 0.02 0.02 0.04
0.01 0.00 0.00 0.00 0.00 0.02 0.02 0.01 0.02 0.00 0.00 0.00 0.00 0.00 0.00 0.00 0.00 0.00 0.00 0.00 0.01 0.02 0.07 0.08 0.09 0.09 0.05 0.02 0.04 0.07 0.12 0.13 0.12 0.09 0.05 0.03 0.05 0.04 0.03 0.02 0.02 0.02 0.03 0.05 0.10 0.07 0.09 0.21 0.31
0.00 0.00 0.00 0.00 0.00 0.00 0.01 0.05 0.03 0.02 0.01 0.01 0.01 0.00 0.00 0.01 0.02 0.00 0.01 0.01 0.00 0.03 0.05 0.04 0.11 0.07 0.13 0.08 0.11 0.13 0.16 0.15 0.10 0.07 0.04 0.03 0.02 0.03 0.03 0.04 0.05 0.05 0.08 0.13 0.22 0.19 0.22 0.30 0.34
0.00 0.00 0.01 0.15 0.09 0.02 0.04 0.02 0.02 0.01 0.00 0.00 0.00 0.00 0.01 0.00 0.00 0.00 0.00 0.00 0.00 0.01 0.02 0.06 0.13 0.15 0.16 0.23 0.17 0.18 0.16 0.17 0.06 0.02 0.02 0.05 0.09 0.11 0.08 0.05 0.06 0.10 0.18 0.21 0.21 0.27 0.31 0.34 0.40
0.00 0.00 0.03 0.14 0.09 0.07 0.04 0.02 0.00 0.00 0.00 0.00 0.00 0.00 0.00 0.00 0.00 0.00 0.00 0.00 0.01 0.03 0.02 0.09 0.09 0.17 0.17 0.23 0.21 0.23 0.19 0.07 0.13 0.05 0.10 0.14 0.12 0.08 0.07 0.06 0.12 0.18 0.20 0.31 0.41 0.49 0.53 0.60 0.68
0.01 0.00 0.01 0.03 0.04 0.06 0.02 0.01 0.00 0.01 0.00 0.00 0.00 0.00 0.00 0.00 0.00 0.00 0.00 0.00 0.04 0.02 0.04 0.10 0.13 0.16 0.17 0.17 0.19 0.28 0.27 0.14 0.08 0.11 0.14 0.17 0.14 0.10 0.13 0.20 0.24 0.39 0.48 0.47 0.50 0.62 0.75 0.84 0.80
0.00 0.00 0.00 0.01 0.05 0.04 0.00 0.01 0.01 0.02 0.01 0.00 0.00 0.00 0.00 0.00 0.00 0.00 0.00 0.00 0.01 0.03 0.07 0.08 0.08 0.10 0.10 0.10 0.14 0.20 0.24 0.33 0.23 0.23 0.41 0.46 0.49 0.43 0.45 0.49 0.54 0.48 0.40 0.38 0.46 0.45 0.39 0.37 0.35
0.00 0.00 0.00 0.00 0.00 0.01 0.02 0.01 0.00 0.00 0.00 0.00 0.00 0.00 0.00 0.00 0.00 0.00 0.01 0.01 0.01 0.01 0.05 0.06 0.05 0.08 0.20 0.27 0.18 0.13 0.23 0.27 0.67 1.03 1.08 0.94 0.97 1.08 0.97 0.80 0.71 0.72 0.76 0.72 0.57 0.43 0.38 0.34 0.27
0.00 0.00 0.01 0.01 0.00 0.01 0.01 0.00 0.00 0.00 0.00 0.00 0.00 0.00 0.00 0.00 0.00 0.00 0.00 0.01 0.03 0.01 0.00 0.01 0.05 0.17 0.64 0.93 1.02 0.78 0.97 1.03 1.14 1.51 1.49 1.26 1.13 0.93 0.83 0.94 0.86 0.67 0.52 0.40 0.34 0.29 0.21 0.21 0.24

GFSSGP_prec_precacc_084.txt.gz
Total_Precipitation_Accumulation
0.00 0.00 0.00 0.00 0.00 0.00 0.00 0.00 0.00 0.03 0.09 0.13 0.18 0.22 0.24 0.16 0.47 1.03 0.96 1.23 1.83 1.44 1.03 1.58 1.29 0.62 0.25 0.20 0.16 0.04 0.03 0.01 0.02 0.00 0.00 0.00 0.01 0.00 0.01 0.01 0.07 0.07 0.03 0.03 0.00 0.00 0.01 0.03 0.02
0.00 0.00 0.00 0.00 0.00 0.00 0.00 0.01 0.01 0.03 0.17 0.23 0.32 0.35 0.43 0.37 0.17 0.64 0.86 0.71 0.66 1.44 1.56 1.44 2.29 1.43 0.96 0.63 0.48 0.57 0.31 0.17 0.02 0.00 0.00 0.01 0.01 0.00 0.01 0.01 0.03 0.01 0.01 0.01 0.01 0.01 0.01 0.00 0.01
0.00 0.00 0.00 0.00 0.00 0.00 0.00 0.01 0.05 0.08 0.16 0.14 0.11 0.20 0.44 0.64 0.60 0.70 0.78 0.90 0.80 1.05 0.97 1.27 2.06 1.57 1.03 1.07 0.91 1.30 1.42 1.19 0.56 0.13 0.03 0.02 0.01 0.00 0.01 0.00 0.00 0.01 0.01 0.01 0.01 0.01 0.01 0.00 0.00
0.00 0.00 0.00 0.00 0.00 0.00 0.00 0.02 0.07 0.10 0.11 0.09 0.10 0.21 0.49 0.58 0.48 0.44 0.76 1.28 1.83 2.03 1.47 1.73 2.06 1.30 0.70 0.99 1.16 1.24 1.61 1.98 1.38 1.02 0.29 0.02 0.01 0.01 0.01 0.00 0.01 0.01 0.01 0.01 0.01 0.00 0.00 0.00 0.00
0.00 0.00 0.00 0.00 0.00 0.00 0.00 0.02 0.08 0.11 0.11 0.42 0.18 0.11 0.66 0.80 0.31 0.42 1.15 2.28 3.41 4.56 4.04 3.62 3.89 5.05 2.77 2.46 1.61 1.13 1.22 1.71 1.56 1.06 0.51 0.08 0.01 0.01 0.01 0.00 0.00 0.00 0.00 0.01 0.00 0.00 0.00 0.00 0.00
0.00 0.00 0.00 0.00 0.00 0.01 0.03 0.13 0.22 0.37 0.35 0.46 0.35 0.42 0.86 0.47 0.38 0.75 1.60 3.62 5.15 6.63 8.73 9.00 7.64 7.98 7.50 4.74 2.92 1.76 1.21 0.95 1.12 1.28 0.64 0.12 0.02 0.00 0.00 0.00 0.01 0.01 0.00 0.00 0.00 0.00 0.00 0.00 0.00
0.00 0.00 0.00 0.00 0.01 0.00 0.02 0.15 0.35 0.53 0.42 0.20 0.38 0.40 0.95 0.96 0.77 0.88 1.55 2.78 5.21 5.54 7.02 10.67 9.48 7.10 5.84 6.70 5.86 3.41 2.34 1.37 1.20 1.18 0.70 0.22 0.03 0.02 0.01 0.00 0.00 0.00 0.00 0.00 0.00 0.00 0.00 0.00 0.00
0.00 0.00 0.00 0.00 0.01 0.02 0.06 0.15 0.21 0.15 0.09 0.07 0.15 0.46 1.10 0.76 0.53 0.47 0.58 0.86 2.15 2.59 3.35 3.92 4.05 3.26 2.85 3.55 4.44 4.22 2.77 2.07 1.74 1.16 0.68 0.30 0.17 0.04 0.00 0.00 0.00 0.00 0.00 0.00 0.00 0.00 0.00 0.00 0.00
0.00 0.00 0.00 0.00 0.03 0.11 0.16 0.28 0.33 0.20 0.06 0.11 0.26 0.18 0.28 0.46 0.34 0.34 0.61 0.72 1.36 2.28 1.62 1.65 1.25 0.82 0.79 1.19 1.93 2.68 2.38 2.27 2.19 1.77 0.80 0.31 0.20 0.05 0.00 0.00 0.00 0.00 0.00 0.00 0.00 0.00 0.00 0.00 0.00
0.00 0.00 0.00 0.00 0.06 0.33 0.29 0.15 0.03 0.01 0.01 0.20 0.53 0.53 0.32 0.33 0.25 0.20 0.26 0.62 1.09 0.94 0.77 0.49 0.38 0.27 0.17 0.16 0.28 0.67 1.38 2.05 2.01 2.50 1.00 0.27 0.21 0.03 0.01 0.00 0.00 0.00 0.00 0.00 0.00 0.00 0.00 0.00 0.00
0.00 0.00 0.00 0.00 0.00 0.00 0.01 0.01 0.00 0.00 0.19 0.52 0.67 0.50 0.42 0.34 0.24 0.27 0.45 0.40 0.52 0.32 0.21 0.27 0.47 0.46 0.15 0.08 0.08 0.13 0.47 1.22 1.33 2.33 1.60 0.13 0.10 0.03 0.04 0.02 0.00 0.00 0.00 0.00 0.00 0.00 0.00 0.00 0.00
0.00 0.00 0.00 0.00 0.00 0.00 0.00 0.00 0.01 0.04 0.27 0.22 0.26 0.69 0.62 0.49 0.39 0.33 0.29 0.22 0.11 0.15 0.16 0.12 0.12 0.17 0.20 0.19 0.10 0.07 0.28 0.59 0.74 1.03 1.17 0.20 0.06 0.05 0.01 0.00 0.00 0.00 0.00 0.00 0.00 0.00 0.00 0.00 0.00
0.00 0.00 0.00 0.00 0.00 0.00 0.00 0.01 0.02 0.08 0.45 0.51 0.27 0.32 0.45 0.50 0.44 0.51 0.31 0.11 0.09 0.08 0.15 0.19 0.20 0.26 0.28 0.29 0.15 0.13 0.51 0.56 0.69 0.67 0.42 0.32 0.13 0.06 0.00 0.00 0.00 0.00 0.00 0.00 0.00 0.00 0.00 0.00 0.00
0.00 0.00 0.00 0.00 0.00 0.00 0.00 0.03 0.09 0.18 0.77 0.30 0.15 0.08 0.17 0.26 0.28 0.24 0.13 0.10 0.09 0.10 0.19 0.27 0.28 0.43 0.20 0.21 0.23 0.31 0.58 0.57 0.52 0.49 0.38 0.20 0.10 0.02 0.00 0.00 0.00 0.00 0.00 0.00 0.00 0.00 0.00 0.00 0.00
0.00 0.00 0.00 0.00 0.00 0.00 0.01 0.03 0.13 0.21 0.39 0.13 0.05 0.05 0.06 0.11 0.16 0.10 0.11 0.23 0.16 0.22 0.25 0.41 0.64 0.54 0.22 0.10 0.17 0.31 0.58 0.46 0.41 0.33 0.27 0.14 0.09 0.08 0.04 0.02 0.01 0.00 0.00 0.00 0.00 0.00 0.00 0.00 0.00
0.00 0.00 0.00 0.00 0.00 0.00 0.02 0.17 0.29 0.13 0.09 0.07 0.04 0.01 0.02 0.03 0.01 0.00 0.02 0.01 0.03 0.07 0.19 0.43 0.60 0.57 0.47 0.19 0.25 0.30 0.39 0.49 0.31 0.17 0.16 0.22 0.16 0.12 0.07 0.03 0.02 0.00 0.00 0.00 0.00 0.00 0.00 0.00 0.00
0.00 0.00 0.00 0.00 0.00 0.00 0.01 0.03 0.15 0.07 0.09 0.12 0.10 0.04 0.00 0.02 0.01 0.00 0.00 0.01 0.02 0.02 0.19 0.61 0.80 0.77 0.73 0.59 0.52 0.70 0.71 0.54 0.22 0.09 0.09 0.14 0.13 0.11 0.05 0.03 0.01 0.00 0.00 0.00 0.00 0.00 0.00 0.00 0.00
0.00 0.00 0.00 0.00 0.00 0.00 0.00 0.00 0.09 0.05 0.03 0.09 0.15 0.10 0.02 0.01 0.00 0.00 0.00 0.02 0.03 0.03 0.25 0.63 0.83 1.08 1.16 1.05 0.86 0.56 0.51 0.40 0.17 0.07 0.10 0.15 0.16 0.09 0.04 0.03 0.00 0.00 0.00 0.00 0.00 0.00 0.00 0.00 0.00
0.00 0.00 0.00 0.00 0.00 0.00 0.00 0.00 0.00 0.01 0.11 0.10 0.14 0.07 0.01 0.00 0.00 0.00 0.01 0.02 0.04 0.10 0.40 0.69 0.82 1.08 1.06 0.54 0.36 0.38 0.39 0.25 0.19 0.14 0.14 0.18 0.15 0.10 0.04 0.03 0.00 0.00 0.00 0.00 0.01 0.01 0.00 0.00 0.00
0.00 0.00 0.00 0.00 0.00 0.00 0.00 0.00 0.00 0.00 0.00 0.02 0.03 0.03 0.02 0.00 0.00 0.01 0.03 0.06 0.12 0.24 0.52 0.60 0.47 0.32 0.14 0.08 0.13 0.20 0.25 0.24 0.17 0.17 0.11 0.10 0.15 0.09 0.04 0.05 0.01 0.02 0.01 0.00 0.00 0.00 0.00 0.00 0.00
0.00 0.00 0.00 0.00 0.00 0.00 0.00 0.00 0.00 0.00 0.01 0.01 0.01 0.01 0.01 0.01 0.00 0.02 0.06 0.13 0.17 0.15 0.15 0.08 0.06 0.04 0.05 0.08 0.17 0.22 0.30 0.26 0.20 0.16 0.16 0.11 0.07 0.05 0.02 0.08 0.03 0.01 0.02 0.00 0.00 0.00 0.00 0.00 0.00
0.00 0.00 0.00 0.00 0.00 0.00 0.00 0.01 0.00 0.00 0.00 0.00 0.00 0.00 0.01 0.03 0.02 0.03 0.02 0.01 0.00 0.01 0.09 0.07 0.06 0.04 0.04 0.04 0.10 0.11 0.13 0.12 0.11 0.11 0.08 0.04 0.02 0.02 0.01 0.03 0.02 0.02 0.03 0.02 0.03 0.03 0.02 0.02 0.04
0.01 0.00 0.00 0.00 0.00 0.02 0.02 0.01 0.02 0.00 0.00 0.00 0.00 0.00 0.00 0.00 0.00 0.00 0.00 0.00 0.01 0.02 0.07 0.09 0.10 0.09 0.05 0.02 0.09 0.14 0.16 0.15 0.13 0.09 0.05 0.03 0.05 0.04 0.03 0.02 0.02 0.02 0.03 0.05 0.10 0.07 0.09 0.21 0.31
0.00 0.00 0.00 0.00 0.00 0.00 0.01 0.05 0.03 0.02 0.01 0.01 0.01 0.00 0.00 0.01 0.02 0.00 0.01 0.01 0.00 0.03 0.05 0.04 0.12 0.08 0.13 0.08 0.11 0.15 0.16 0.15 0.10 0.07 0.04 0.03 0.02 0.03 0.03 0.04 0.05 0.05 0.08 0.13 0.22 0.19 0.22 0.30 0.34
0.00 0.00 0.01 0.15 0.09 0.02 0.04 0.02 0.02 0.01 0.00 0.00 0.00 0.00 0.01 0.00 0.00 0.00 0.00 0.00 0.00 0.01 0.02 0.06 0.13 0.15 0.17 0.23 0.18 0.18 0.16 0.17 0.06 0.02 0.02 0.05 0.09 0.12 0.08 0.05 0.06 0.10 0.18 0.21 0.21 0.27 0.31 0.34 0.40
0.00 0.00 0.03 0.14 0.09 0.07 0.04 0.02 0.00 0.00 0.00 0.00 0.00 0.00 0.00 0.00 0.00 0.00 0.00 0.00 0.01 0.03 0.02 0.09 0.09 0.17 0.18 0.23 0.22 0.23 0.19 0.08 0.14 0.06 0.10 0.14 0.12 0.08 0.07 0.06 0.12 0.18 0.20 0.31 0.41 0.49 0.53 0.60 0.68
0.01 0.00 0.01 0.03 0.04 0.06 0.02 0.01 0.00 0.01 0.00 0.00 0.00 0.00 0.00 0.00 0.00 0.00 0.00 0.00 0.04 0.02 0.04 0.10 0.13 0.16 0.17 0.17 0.19 0.28 0.27 0.14 0.08 0.11 0.14 0.17 0.14 0.10 0.13 0.20 0.24 0.39 0.48 0.47 0.50 0.62 0.75 0.84 0.80
0.00 0.00 0.00 0.01 0.05 0.04 0.00 0.01 0.01 0.02 0.01 0.00 0.00 0.00 0.00 0.00 0.00 0.00 0.00 0.00 0.01 0.03 0.07 0.08 0.08 0.10 0.10 0.10 0.14 0.20 0.24 0.33 0.23 0.23 0.41 0.46 0.49 0.43 0.45 0.49 0.54 0.48 0.40 0.38 0.46 0.45 0.39 0.37 0.35
0.00 0.00 0.00 0.00 0.00 0.01 0.02 0.01 0.00 0.00 0.00 0.00 0.00 0.00 0.00 0.00 0.00 0.00 0.01 0.01 0.01 0.01 0.05 0.06 0.05 0.08 0.20 0.27 0.18 0.13 0.23 0.27 0.67 1.03 1.08 0.94 0.97 1.08 0.97 0.80 0.71 0.72 0.76 0.72 0.57 0.43 0.38 0.35 0.28
0.00 0.00 0.01 0.01 0.00 0.01 0.01 0.00 0.00 0.00 0.00 0.00 0.00 0.00 0.00 0.00 0.00 0.00 0.00 0.01 0.03 0.01 0.00 0.01 0.05 0.17 0.64 0.93 1.02 0.78 0.97 1.03 1.14 1.51 1.49 1.26 1.13 0.93 0.83 0.94 0.86 0.67 0.52 0.40 0.34 0.29 0.23 0.24 0.27

GFSSGP_prec_precacc_087.txt.gz
Total_Precipitation_Accumulation
0.00 0.00 0.00 0.00 0.00 0.00 0.00 0.00 0.00 0.03 0.09 0.13 0.18 0.22 0.24 0.16 0.47 1.03 0.97 1.23 1.83 1.44 1.03 1.58 1.29 0.62 0.25 0.22 0.18 0.04 0.03 0.02 0.02 0.00 0.00 0.00 0.01 0.00 0.01 0.02 0.08 0.07 0.03 0.03 0.00 0.00 0.01 0.03 0.02
0.00 0.00 0.00 0.00 0.00 0.00 0.00 0.01 0.01 0.03 0.17 0.23 0.32 0.35 0.43 0.37 0.17 0.64 0.86 0.71 0.66 1.44 1.56 1.44 2.29 1.43 0.96 0.68 0.72 0.79 0.37 0.23 0.03 0.00 0.00 0.01 0.01 0.00 0.02 0.01 0.03 0.01 0.01 0.01 0.01 0.01 0.01 0.01 0.01
0.00 0.00 0.00 0.00 0.00 0.00 0.00 0.01 0.05 0.08 0.16 0.14 0.11 0.20 0.44 0.64 0.60 0.70 0.78 0.90 0.80 1.05 0.97 1.28 2.08 1.57 1.03 1.10 1.07 1.56 1.86 1.56 0.65 0.14 0.05 0.04 0.02 0.02 0.03 0.01 0.00 0.01 0.01 0.01 0.01 0.01 0.01 0.00 0.00
0.00 0.00 0.00 0.00 0.00 0.00 0.00 0.02 0.07 0.10 0.11 0.09 0.10 0.21 0.49 0.58 0.48 0.44 0.76 1.28 1.83 2.03 1.47 1.74 2.10 1.30 0.70 1.08 1.41 1.47 2.08 3.04 2.77 1.48 0.49 0.20 0.10 0.02 0.02 0.00 0.01 0.01 0.01 0.02 0.01 0.01 0.00 0.00 0.00
0.00 0.00 0.00 0.00 0.00 0.00 0.00 0.02 0.08 0.11 0.11 0.42 0.18 0.11 0.66 0.80 0.31 0.42 1.15 2.28 3.41 4.56 4.04 3.63 3.90 5.05 2.78 2.50 1.70 1.30 1.41 2.35 3.53 1.96 0.80 0.44 0.31 0.09 0.02 0.00 0.00 0.00 0.00 0.01 0.01 0.00 0.00 0.00 0.00
0.00 0.00 0.00 0.00 0.00 0.01 0.03 0.13 0.22 0.37 0.35 0.46 0.35 0.42 0.86 0.47 0.38 0.75 1.60 3.62 5.15 6.63 8.73 9.01 7.66 8.03 7.57 4.80 2.97 1.91 1.35 1.13 1.43 1.70 0.85 0.39 0.56 0.25 0.05 0.01 0.02 0.01 0.00 0.00 0.00 0.00 0.00 0.00 0.00
0.00 0.00 0.00 0.00 0.01 0.00 0.02 0.15 0.35 0.53 0.42 0.20 0.38 0.40 0.95 0.96 0.77 0.88 1.55 2.78 5.21 5.54 7.02 10.68 9.48 7.13 5.89 6.72 5.90 3.50 2.55 1.58 1.35 1.29 1.37 0.68 0.60 0.29 0.07 0.01 0.01 0.00 0.00 0.00 0.00 0.00 0.00 0.00 0.00
0.00 0.00 0.00 0.00 0.01 0.02 0.06 0.15 0.21 0.15 0.09 0.07 0.15 0.46 1.10 0.76 0.53 0.47 0.58 0.86 2.15 2.59 3.35 3.93 4.05 3.27 2.86 3.58 4.47 4.27 2.90 2.31 1.97 1.25 1.33 1.28 0.70 0.23 0.03 0.01 0.03 0.00 0.00 0.00 0.00 0.00 0.00 0.00 0.00
0.00 0.00 0.00 0.00 0.03 0.11 0.16 0.28 0.33 0.20 0.06 0.11 0.26 0.18 0.28 0.46 0.34 0.34 0.61 0.72 1.36 2.28 1.62 1.65 1.26 0.83 0.80 1.23 1.96 2.70 2.40 2.39 2.43 1.90 1.05 1.57 0.96 0.26 0.06 0.04 0.02 0.00 0.00 0.00 0.00 0.00 0.00 0.00 0.00
0.00 0.00 0.00 0.00 0.06 0.33 0.29 0.15 0.03 0.01 0.01 0.20 0.53 0.53 0.32 0.33 0.25 0.20 0.26 0.62 1.09 0.94 0.77 0.49 0.38 0.28 0.22 0.19 0.31 0.67 1.43 2.14 2.11 2.57 1.16 0.91 0.78 0.31 0.11 0.07 0.01 0.00 0.00 0.00 0.00 0.00 0.00 0.00 0.00
0.00 0.00 0.00 0.00 0.00 0.00 0.01 0.01 0.00 0.00 0.19 0.52 0.67 0.50 0.42 0.34 0.24 0.27 0.45 0.40 0.52 0.32 0.21 0.27 0.47 0.47 0.17 0.13 0.11 0.16 0.55 1.35 1.42 2.39 1.86 0.52 0.36 0.33 0.16 0.11 0.02 0.00 0.00 0.00 0.00 0.00 0.00 0.00 0.00
0.00 0.00 0.00 0.00 0.00 0.00 0.00 0.00 0.01 0.04 0.27 0.22 0.26 0.69 0.62 0.49 0.39 0.33 0.29 0.22 0.11 0.15 0.16 0.12 0.12 0.20 0.24 0.22 0.15 0.12 0.38 0.73 0.84 1.14 2.14 0.84 0.31 0.21 0.10 0.03 0.01 0.00 0.00 0.00 0.00 0.00 0.00 0.00 0.00
0.00 0.00 0.00 0.00 0.00 0.00 0.00 0.01 0.02 0.08 0.45 0.51 0.27 0.32 0.45 0.50 0.44 0.51 0.31 0.11 0.09 0.08 0.15 0.19 0.20 0.27 0.30 0.32 0.17 0.16 0.59 0.67 0.72 0.75 0.94 0.90 0.55 0.17 0.09 0.01 0.00 0.00 0.00 0.00 0.00 0.00 0.00 0.00 0.00
0.00 0.00 0.00 0.00 0.00 0.00 0.00 0.03 0.09 0.18 0.77 0.30 0.15 0.08 0.17 0.26 0.28 0.24 0.13 0.10 0.09 0.10 0.19 0.28 0.28 0.43 0.20 0.22 0.24 0.32 0.62 0.62 0.53 0.52 0.63 0.38 0.38 0.16 0.06 0.02 0.01 0.00 0.00 0.00 0.00 0.00 0.00 0.00 0.00
0.00 0.00 0.00 0.00 0.00 0.00 0.01 0.03 0.13 0.21 0.39 0.13 0.05 0.05 0.06 0.11 0.16 0.10 0.11 0.23 0.16 0.22 0.25 0.42 0.65 0.54 0.22 0.11 0.17 0.31 0.61 0.51 0.43 0.38 0.39 0.33 0.21 0.17 0.08 0.05 0.03 0.01 0.00 0.00 0.00 0.00 0.00 0.00 0.00
0.00 0.00 0.00 0.00 0.00 0.00 0.02 0.17 0.29 0.13 0.09 0.07 0.04 0.01 0.02 0.03 0.01 0.00 0.02 0.01 0.03 0.07 0.19 0.43 0.60 0.57 0.48 0.20 0.25 0.31 0.44 0.60 0.39 0.26 0.26 0.37 0.24 0.14 0.10 0.05 0.03 0.01 0.00 0.00 0.00 0.00 0.00 0.00 0.00
0.00 0.00 0.00 0.00 0.00 0.00 0.01 0.03 0.15 0.07 0.09 0.12 0.10 0.04 0.00 0.02 0.01 0.00 0.00 0.01 0.02 0.02 0.19 0.61 0.80 0.77 0.73 0.60 0.53 0.72 0.75 0.65 0.32 0.16 0.15 0.18 0.15 0.13 0.06 0.03 0.01 0.00 0.00 0.00 0.00 0.00 0.00 0.00 0.00
0.00 0.00 0.00 0.00 0.00 0.00 0.00 0.00 0.09 0.05 0.03 0.09 0.15 0.10 0.02 0.01 0.00 0.00 0.00 0.02 0.03 0.03 0.26 0.63 0.83 1.09 1.17 1.07 0.88 0.60 0.54 0.44 0.23 0.14 0.15 0.16 0.16 0.09 0.04 0.03 0.00 0.00 0.00 0.00 0.00 0.00 0.00 0.00 0.00
0.00 0.00 0.00 0.00 0.00 0.00 0.00 0.00 0.00 0.01 0.11 0.10 0.14 0.07 0.01 0.00 0.00 0.00 0.01 0.02 0.04 0.10 0.40 0.69 0.82 1.09 1.07 0.57 0.40 0.43 0.42 0.25 0.20 0.16 0.18 0.20 0.16 0.10 0.04 0.03 0.00 0.00 0.00 0.00 0.01 0.01 0.00 0.00 0.00
0.00 0.00 0.00 0.00 0.00 0.00 0.00 0.00 0.00 0.00 0.00 0.02 0.03 0.03 0.02 0.00 0.00 0.01 0.03 0.06 0.12 0.24 0.52 0.60 0.48 0.32 0.15 0.10 0.17 0.23 0.27 0.25 0.18 0.17 0.11 0.10 0.15 0.09 0.04 0.05 0.01 0.02 0.01 0.00 0.00 0.00 0.00 0.00 0.00
0.00 0.00 0.00 0.00 0.00 0.00 0.00 0.00 0.00 0.00 0.01 0.01 0.01 0.01 0.01 0.01 0.00 0.02 0.06 0.13 0.17 0.15 0.15 0.08 0.06 0.05 0.07 0.10 0.25 0.30 0.36 0.28 0.21 0.16 0.16 0.11 0.07 0.05 0.02 0.08 0.03 0.01 0.02 0.00 0.00 0.00 0.00 0.00 0.00
0.00 0.00 0.00 0.00 0.00 0.00 0.00 0.01 0.00 0.00 0.00 0.00 0.00 0.00 0.01 0.03 0.02 0.03 0.02 0.01 0.00 0.01 0.09 0.07 0.06 0.04 0.05 0.05 0.13 0.16 0.17 0.13 0.11 0.11 0.08 0.04 0.02 0.02 0.01 0.03 0.02 0.02 0.03 0.02 0.03 0.03 0.02 0.02 0.04
0.01 0.00 0.00 0.00 0.00 0.02 0.02 0.01 0.02 0.00 0.00 0.00 0.00 0.00 0.00 0.00 0.00 0.00 0.00 0.00 0.01 0.02 0.07 0.09 0.10 0.09 0.05 0.03 0.10 0.19 0.18 0.15 0.14 0.10 0.05 0.04 0.06 0.05 0.03 0.02 0.02 0.02 0.03 0.05 0.10 0.07 0.09 0.21 0.31
0.00 0.00 0.00 0.00 0.00 0.00 0.01 0.05 0.03 0.02 0.01 0.01 0.01 0.00 0.00 0.01 0.02 0.00 0.01 0.01 0.00 0.03 0.05 0.05 0.12 0.08 0.13 0.08 0.12 0.17 0.22 0.17 0.12 0.08 0.04 0.03 0.03 0.04 0.04 0.04 0.05 0.05 0.08 0.14 0.22 0.19 0.22 0.30 0.34
0.00 0.00 0.01 0.15 0.09 0.02 0.04 0.02 0.02 0.01 0.00 0.00 0.00 0.00 0.01 0.00 0.00 0.00 0.00 0.00 0.00 0.01 0.02 0.06 0.13 0.16 0.17 0.23 0.18 0.19 0.18 0.18 0.06 0.03 0.02 0.05 0.09 0.13 0.12 0.09 0.07 0.10 0.18 0.21 0.21 0.27 0.31 0.34 0.40
0.00 0.00 0.03 0.14 0.09 0.07 0.04 0.02 0.00 0.00 0.00 0.00 0.00 0.00 0.00 0.00 0.00 0.00 0.00 0.00 0.01 0.03 0.02 0.09 0.09 0.17 0.18 0.24 0.22 0.23 0.20 0.08 0.14 0.06 0.10 0.14 0.12 0.08 0.07 0.11 0.14 0.18 0.20 0.31 0.41 0.49 0.53 0.61 0.68
0.01 0.00 0.01 0.03 0.04 0.06 0.02 0.01 0.00 0.01 0.00 0.00 0.00 0.00 0.00 0.00 0.00 0.00 0.00 0.00 0.04 0.02 0.04 0.10 0.13 0.16 0.17 0.18 0.19 0.28 0.28 0.15 0.08 0.11 0.14 0.17 0.14 0.10 0.13 0.21 0.29 0.41 0.48 0.48 0.51 0.62 0.75 0.84 0.81
0.00 0.00 0.00 0.01 0.05 0.04 0.00 0.01 0.01 0.02 0.01 0.00 0.00 0.00 0.00 0.00 0.00 0.00 0.00 0.00 0.01 0.03 0.07 0.08 0.08 0.10 0.10 0.10 0.15 0.20 0.24 0.34 0.24 0.23 0.41 0.46 0.49 0.43 0.45 0.49 0.56 0.49 0.41 0.38 0.48 0.46 0.40 0.37 0.37
0.00 0.00 0.00 0.00 0.00 0.01 0.02 0.01 0.00 0.00 0.00 0.00 0.00 0.00 0.00 0.00 0.00 0.00 0.01 0.01 0.01 0.01 0.05 0.06 0.05 0.08 0.20 0.27 0.18 0.14 0.23 0.27 0.67 1.03 1.08 0.94 0.97 1.09 0.97 0.80 0.71 0.73 0.76 0.73 0.58 0.44 0.39 0.36 0.30
0.00 0.00 0.01 0.01 0.00 0.01 0.01 0.00 0.00 0.00 0.00 0.00 0.00 0.00 0.00 0.00 0.00 0.00 0.00 0.01 0.03 0.01 0.00 0.01 0.05 0.17 0.64 0.93 1.02 0.78 0.97 1.03 1.14 1.52 1.49 1.26 1.13 0.93 0.83 0.94 0.86 0.67 0.52 0.40 0.34 0.29 0.23 0.24 0.28

GFSSGP_prec_precacc_090.txt.gz
Total_Precipitation_Accumulation
0.00 0.00 0.00 0.00 0.00 0.00 0.00 0.00 0.00 0.03 0.09 0.13 0.18 0.22 0.24 0.16 0.47 1.04 0.97 1.23 1.83 1.44 1.03 1.58 1.29 0.62 0.25 0.22 0.19 0.04 0.03 0.02 0.02 0.00 0.00 0.00 0.01 0.00 0.01 0.02 0.08 0.08 0.04 0.03 0.01 0.00 0.01 0.03 0.02
0.00 0.00 0.00 0.00 0.00 0.00 0.00 0.01 0.01 0.03 0.17 0.23 0.32 0.35 0.43 0.37 0.17 0.64 0.86 0.71 0.66 1.44 1.56 1.44 2.29 1.43 0.96 0.70 0.77 0.82 0.37 0.24 0.04 0.00 0.00 0.01 0.01 0.00 0.02 0.02 0.04 0.02 0.01 0.01 0.01 0.01 0.01 0.01 0.01
0.00 0.00 0.00 0.00 0.00 0.00 0.00 0.01 0.05 0.08 0.16 0.14 0.11 0.20 0.44 0.64 0.60 0.70 0.78 0.90 0.80 1.05 0.97 1.28 2.08 1.57 1.03 1.12 1.12 1.65 1.98 1.85 0.90 0.19 0.07 0.05 0.03 0.03 0.03 0.01 0.01 0.01 0.01 0.01 0.01 0.01 0.01 0.00 0.00
0.00 0.00 0.00 0.00 0.00 0.00 0.00 0.02 0.07 0.10 0.11 0.09 0.10 0.21 0.49 0.58 0.48 0.44 0.76 1.28 1.83 2.03 1.47 1.74 2.10 1.30 0.70 1.09 1.43 1.49 2.15 3.34 4.03 3.24 1.31 0.44 0.16 0.06 0.04 0.03 0.04 0.02 0.02 0.02 0.01 0.01 0.00 0.00 0.00
0.00 0.00 0.00 0.00 0.00 0.00 0.00 0.02 0.08 0.11 0.11 0.42 0.18 0.11 0.66 0.80 0.31 0.42 1.15 2.28 3.41 4.56 4.04 3.63 3.90 5.05 2.78 2.50 1.70 1.30 1.42 2.42 4.61 4.65 2.94 1.49 0.61 0.40 0.22 0.04 0.01 0.01 0.01 0.02 0.01 0.00 0.00 0.00 0.00
0.00 0.00 0.00 0.00 0.00 0.01 0.03 0.13 0.22 0.37 0.35 0.46 0.35 0.42 0.86 0.47 0.38 0.75 1.60 3.62 5.15 6.63 8.73 9.01 7.66 8.03 7.58 4.80 2.98 1.94 1.35 1.17 1.49 2.06 1.49 1.30 1.05 0.74 0.48 0.19 0.06 0.01 0.01 0.01 0.00 0.00 0.00 0.00 0.00
0.00 0.00 0.00 0.00 0.01 0.00 0.02 0.15 0.35 0.53 0.42 0.20 0.38 0.40 0.95 0.96 0.77 0.88 1.55 2.78 5.21 5.54 7.02 10.68 9.49 7.13 5.89 6.72 5.90 3.50 2.55 1.63 1.37 1.33 1.49 0.84 0.91 0.58 0.41 0.25 0.06 0.00 0.00 0.00 0.00 0.00 0.00 0.00 0.00
0.00 0.00 0.00 0.00 0.01 0.02 0.06 0.15 0.21 0.15 0.09 0.07 0.15 0.46 1.10 0.76 0.53 0.47 0.58 0.86 2.15 2.59 3.35 3.93 4.06 3.27 2.87 3.59 4.47 4.28 2.90 2.36 2.07 1.32 1.40 1.38 1.02 0.58 0.37 0.27 0.12 0.00 0.00 0.00 0.00 0.00 0.00 0.00 0.00
0.00 0.00 0.00 0.00 0.03 0.11 0.16 0.28 0.33 0.20 0.06 0.11 0.26 0.18 0.28 0.46 0.34 0.34 0.61 0.72 1.36 2.28 1.62 1.65 1.26 0.84 0.81 1.25 1.99 2.70 2.40 2.40 2.47 2.01 1.18 1.77 1.76 0.63 0.39 0.22 0.11 0.00 0.00 0.00 0.00 0.00 0.00 0.00 0.00
0.00 0.00 0.00 0.00 0.06 0.33 0.29 0.15 0.03 0.01 0.01 0.20 0.53 0.53 0.32 0.33 0.25 0.20 0.26 0.62 1.09 0.94 0.77 0.49 0.39 0.29 0.23 0.22 0.36 0.70 1.46 2.18 2.19 2.79 1.33 1.22 2.07 0.92 0.46 0.22 0.07 0.00 0.00 0.00 0.00 0.00 0.00 0.00 0.00
0.00 0.00 0.00 0.00 0.00 0.00 0.01 0.01 0.00 0.00 0.19 0.52 0.67 0.50 0.42 0.34 0.24 0.27 0.45 0.40 0.52 0.32 0.21 0.27 0.47 0.47 0.18 0.17 0.16 0.23 0.65 1.44 1.50 2.47 2.00 0.69 1.00 1.04 0.62 0.22 0.06 0.00 0.00 0.00 0.00 0.00 0.00 0.00 0.00
0.00 0.00 0.00 0.00 0.00 0.00 0.00 0.00 0.01 0.04 0.27 0.22 0.26 0.69 0.62 0.49 0.39 0.33 0.29 0.22 0.11 0.15 0.16 0.12 0.12 0.20 0.24 0.23 0.18 0.19 0.47 0.84 0.91 1.20 2.21 0.93 0.70 0.68 0.54 0.13 0.02 0.00 0.00 0.00 0.00 0.00 0.00 0.00 0.00
0.00 0.00 0.00 0.00 0.00 0.00 0.00 0.01 0.02 0.08 0.45 0.51 0.27 0.32 0.45 0.50 0.44 0.51 0.31 0.11 0.09 0.08 0.15 0.19 0.20 0.27 0.30 0.33 0.17 0.17 0.69 0.79 0.79 0.78 1.05 1.01 0.78 0.43 0.34 0.19 0.01 0.00 0.00 0.00 0.00 0.00 0.00 0.00 0.00
0.00 0.00 0.00 0.00 0.00 0.00 0.00 0.03 0.09 0.18 0.77 0.30 0.15 0.08 0.17 0.26 0.28 0.24 0.13 0.10 0.09 0.10 0.19 0.28 0.28 0.43 0.20 0.22 0.25 0.34 0.64 0.72 0.58 0.55 0.67 0.54 0.56 0.32 0.22 0.16 0.01 0.00 0.00 0.00 0.00 0.00 0.00 0.00 0.00
0.00 0.00 0.00 0.00 0.00 0.00 0.01 0.03 0.13 0.21 0.39 0.13 0.05 0.05 0.06 0.11 0.16 0.10 0.11 0.23 0.16 0.22 0.25 0.42 0.65 0.54 0.22 0.11 0.17 0.31 0.64 0.55 0.45 0.39 0.41 0.37 0.30 0.31 0.17 0.09 0.04 0.02 0.00 0.00 0.00 0.00 0.00 0.00 0.00
0.00 0.00 0.00 0.00 0.00 0.00 0.02 0.17 0.29 0.13 0.09 0.07 0.04 0.01 0.02 0.03 0.01 0.00 0.02 0.01 0.03 0.07 0.19 0.43 0.60 0.57 0.48 0.20 0.26 0.31 0.45 0.61 0.39 0.26 0.29 0.42 0.26 0.21 0.15 0.08 0.06 0.05 0.01 0.00 0.00 0.00 0.00 0.00 0.00
0.00 0.00 0.00 0.00 0.00 0.00 0.01 0.03 0.15 0.07 0.09 0.12 0.10 0.04 0.00 0.02 0.01 0.00 0.00 0.01 0.02 0.02 0.19 0.61 0.80 0.77 0.74 0.61 0.53 0.72 0.75 0.66 0.35 0.18 0.18 0.31 0.23 0.19 0.08 0.07 0.05 0.05 0.02 0.00 0.00 0.00 0.00 0.00 0.00
0.00 0.00 0.00 0.00 0.00 0.00 0.00 0.00 0.09 0.05 0.03 0.09 0.15 0.10 0.02 0.01 0.00 0.00 0.00 0.02 0.03 0.03 0.26 0.64 0.84 1.09 1.18 1.08 0.88 0.61 0.55 0.47 0.31 0.21 0.21 0.26 0.25 0.15 0.06 0.05 0.03 0.02 0.01 0.00 0.00 0.00 0.00 0.00 0.00
0.00 0.00 0.00 0.00 0.00 0.00 0.00 0.00 0.00 0.01 0.11 0.10 0.14 0.07 0.01 0.00 0.00 0.00 0.01 0.02 0.04 0.10 0.40 0.69 0.82 1.09 1.07 0.58 0.41 0.43 0.42 0.26 0.25 0.28 0.27 0.26 0.24 0.12 0.05 0.05 0.03 0.01 0.01 0.00 0.01 0.01 0.00 0.00 0.00
0.00 0.00 0.00 0.00 0.00 0.00 0.00 0.00 0.00 0.00 0.00 0.02 0.03 0.03 0.02 0.00 0.00 0.01 0.03 0.06 0.12 0.24 0.52 0.61 0.48 0.32 0.16 0.11 0.17 0.23 0.27 0.25 0.19 0.23 0.22 0.19 0.18 0.12 0.06 0.07 0.02 0.02 0.01 0.00 0.00 0.00 0.00 0.00 0.00
0.00 0.00 0.00 0.00 0.00 0.00 0.00 0.00 0.00 0.00 0.01 0.01 0.01 0.01 0.01 0.01 0.00 0.02 0.06 0.13 0.17 0.15 0.15 0.09 0.06 0.05 0.08 0.11 0.25 0.32 0.37 0.28 0.22 0.17 0.18 0.15 0.10 0.06 0.04 0.09 0.03 0.01 0.02 0.00 0.00 0.00 0.00 0.00 0.00
0.00 0.00 0.00 0.00 0.00 0.00 0.00 0.01 0.00 0.00 0.00 0.00 0.00 0.00 0.01 0.03 0.02 0.03 0.02 0.01 0.00 0.01 0.09 0.07 0.06 0.05 0.06 0.06 0.13 0.17 0.17 0.13 0.12 0.12 0.09 0.05 0.02 0.02 0.01 0.03 0.03 0.02 0.03 0.02 0.03 0.03 0.03 0.02 0.04
0.01 0.00 0.00 0.00 0.00 0.02 0.02 0.01 0.02 0.00 0.00 0.00 0.00 0.00 0.00 0.00 0.00 0.00 0.00 0.00 0.01 0.02 0.07 0.09 0.10 0.10 0.06 0.04 0.11 0.20 0.18 0.16 0.15 0.10 0.05 0.04 0.06 0.05 0.03 0.03 0.03 0.03 0.03 0.05 0.11 0.08 0.11 0.23 0.35
0.00 0.00 0.00 0.00 0.00 0.01 0.01 0.05 0.03 0.02 0.01 0.01 0.01 0.00 0.00 0.01 0.02 0.00 0.01 0.01 0.00 0.03 0.05 0.05 0.13 0.08 0.13 0.09 0.13 0.18 0.23 0.17 0.12 0.08 0.04 0.03 0.03 0.05 0.04 0.04 0.05 0.09 0.11 0.18 0.23 0.23 0.24 0.34 0.37
0.00 0.00 0.02 0.16 0.09 0.03 0.04 0.02 0.02 0.01 0.00 0.00 0.00 0.00 0.01 0.00 0.00 0.00 0.00 0.00 0.00 0.01 0.02 0.06 0.14 0.16 0.17 0.24 0.19 0.19 0.19 0.22 0.07 0.03 0.02 0.05 0.09 0.13 0.12 0.10 0.08 0.13 0.23 0.26 0.23 0.28 0.33 0.36 0.41
0.00 0.00 0.03 0.15 0.11 0.08 0.04 0.02 0.00 0.00 0.00 0.00 0.00 0.00 0.00 0.00 0.00 0.00 0.00 0.00 0.01 0.03 0.02 0.09 0.09 0.17 0.18 0.24 0.22 0.24 0.20 0.09 0.14 0.06 0.10 0.14 0.12 0.08 0.07 0.13 0.18 0.21 0.23 0.32 0.41 0.49 0.53 0.61 0.68
0.01 0.00 0.01 0.03 0.05 0.08 0.03 0.01 0.00 0.01 0.00 0.00 0.00 0.00 0.00 0.00 0.00 0.00 0.00 0.00 0.04 0.02 0.04 0.10 0.13 0.16 0.17 0.18 0.20 0.29 0.29 0.15 0.08 0.12 0.14 0.17 0.14 0.10 0.13 0.22 0.32 0.46 0.51 0.48 0.51 0.63 0.75 0.84 0.81
0.00 0.00 0.00 0.01 0.05 0.05 0.00 0.01 0.01 0.02 0.01 0.00 0.00 0.00 0.00 0.00 0.00 0.00 0.00 0.00 0.01 0.03 0.07 0.08 0.08 0.10 0.10 0.10 0.15 0.20 0.25 0.35 0.24 0.23 0.41 0.46 0.49 0.43 0.45 0.50 0.58 0.53 0.47 0.40 0.49 0.47 0.41 0.38 0.38
0.00 0.00 0.00 0.00 0.00 0.01 0.02 0.01 0.00 0.00 0.00 0.00 0.00 0.00 0.00 0.00 0.00 0.00 0.01 0.01 0.01 0.01 0.05 0.06 0.05 0.08 0.20 0.27 0.19 0.14 0.24 0.28 0.67 1.04 1.08 0.94 0.97 1.09 0.97 0.80 0.72 0.74 0.79 0.78 0.62 0.44 0.40 0.37 0.32
0.00 0.00 0.01 0.01 0.00 0.01 0.01 0.00 0.00 0.00 0.00 0.00 0.00 0.00 0.00 0.00 0.00 0.00 0.00 0.01 0.03 0.01 0.00 0.01 0.05 0.17 0.64 0.93 1.02 0.78 0.97 1.03 1.14 1.52 1.49 1.26 1.13 0.93 0.83 0.94 0.86 0.68 0.53 0.44 0.38 0.32 0.25 0.26 0.31

GFSSGP_prec_precacc_093.txt.gz
Total_Precipitation_Accumulation
0.00 0.00 0.00 0.00 0.00 0.00 0.00 0.00 0.00 0.03 0.09 0.13 0.18 0.22 0.24 0.16 0.47 1.04 0.97 1.23 1.83 1.44 1.03 1.58 1.29 0.62 0.25 0.22 0.19 0.04 0.03 0.02 0.02 0.00 0.00 0.00 0.01 0.00 0.01 0.02 0.08 0.08 0.04 0.03 0.01 0.00 0.01 0.03 0.02
0.00 0.00 0.00 0.00 0.00 0.00 0.00 0.01 0.01 0.03 0.17 0.23 0.32 0.35 0.43 0.37 0.17 0.64 0.86 0.71 0.66 1.44 1.56 1.44 2.29 1.43 0.96 0.70 0.77 0.82 0.37 0.25 0.04 0.00 0.01 0.02 0.01 0.00 0.02 0.02 0.04 0.02 0.02 0.02 0.02 0.01 0.01 0.01 0.01
0.00 0.00 0.00 0.00 0.00 0.00 0.00 0.01 0.05 0.08 0.16 0.14 0.11 0.20 0.44 0.64 0.60 0.70 0.78 0.90 0.80 1.05 0.97 1.28 2.08 1.57 1.03 1.12 1.12 1.65 1.98 1.86 1.00 0.41 0.35 0.30 0.15 0.04 0.03 0.01 0.01 0.02 0.02 0.02 0.02 0.01 0.01 0.00 0.00
0.00 0.00 0.00 0.00 0.00 0.00 0.00 0.02 0.07 0.10 0.11 0.09 0.10 0.21 0.49 0.58 0.48 0.44 0.76 1.28 1.83 2.03 1.47 1.74 2.10 1.30 0.70 1.09 1.43 1.50 2.15 3.34 4.15 3.99 2.27 1.18 0.76 0.25 0.07 0.04 0.04 0.03 0.02 0.03 0.02 0.01 0.00 0.00 0.00
0.00 0.00 0.00 0.00 0.00 0.00 0.00 0.02 0.08 0.11 0.11 0.42 0.18 0.11 0.66 0.80 0.31 0.42 1.15 2.28 3.41 4.56 4.04 3.63 3.90 5.05 2.78 2.50 1.70 1.31 1.43 2.49 4.71 5.00 3.49 2.39 1.72 1.11 0.46 0.19 0.03 0.01 0.01 0.02 0.01 0.00 0.00 0.00 0.00
0.00 0.00 0.00 0.00 0.00 0.01 0.03 0.13 0.22 0.37 0.35 0.46 0.35 0.42 0.86 0.47 0.38 0.75 1.60 3.62 5.15 6.63 8.73 9.01 7.66 8.03 7.58 4.80 2.98 1.94 1.36 1.21 1.53 2.17 1.68 1.84 2.12 1.37 1.06 0.62 0.17 0.03 0.01 0.01 0.00 0.00 0.00 0.00 0.00
0.00 0.00 0.00 0.00 0.01 0.00 0.02 0.15 0.35 0.53 0.42 0.20 0.38 0.40 0.95 0.96 0.77 0.88 1.55 2.78 5.21 5.54 7.02 10.68 9.49 7.13 5.89 6.72 5.90 3.50 2.55 1.65 1.40 1.35 1.52 1.01 1.57 1.18 0.88 0.80 0.25 0.04 0.00 0.00 0.00 0.00 0.00 0.00 0.00
0.00 0.00 0.00 0.00 0.01 0.02 0.06 0.15 0.21 0.15 0.09 0.07 0.15 0.46 1.10 0.76 0.53 0.47 0.58 0.86 2.15 2.59 3.35 3.93 4.06 3.28 2.87 3.59 4.47 4.28 2.90 2.37 2.08 1.32 1.40 1.41 1.21 1.08 0.79 0.58 0.30 0.05 0.00 0.00 0.00 0.00 0.00 0.00 0.00
0.00 0.00 0.00 0.00 0.03 0.11 0.16 0.28 0.33 0.20 0.06 0.11 0.26 0.18 0.28 0.46 0.34 0.34 0.61 0.72 1.36 2.28 1.62 1.65 1.26 0.85 0.82 1.26 1.99 2.70 2.40 2.40 2.48 2.01 1.19 1.78 1.82 0.84 0.78 0.64 0.42 0.12 0.00 0.00 0.00 0.00 0.00 0.00 0.00
0.00 0.00 0.00 0.00 0.06 0.33 0.29 0.15 0.03 0.01 0.01 0.20 0.53 0.53 0.32 0.33 0.25 0.20 0.26 0.62 1.09 0.94 0.77 0.49 0.39 0.30 0.25 0.23 0.36 0.70 1.46 2.18 2.19 2.79 1.41 1.32 2.21 1.08 0.91 0.94 0.31 0.11 0.00 0.00 0.00 0.00 0.00 0.00 0.00
0.00 0.00 0.00 0.00 0.00 0.00 0.01 0.01 0.00 0.00 0.19 0.52 0.67 0.50 0.42 0.34 0.24 0.27 0.45 0.40 0.52 0.32 0.21 0.27 0.47 0.47 0.20 0.19 0.16 0.23 0.65 1.44 1.50 2.48 2.09 0.79 1.08 1.28 1.15 0.73 0.18 0.02 0.00 0.00 0.00 0.00 0.00 0.00 0.00
0.00 0.00 0.00 0.00 0.00 0.00 0.00 0.00 0.01 0.04 0.27 0.22 0.26 0.69 0.62 0.49 0.39 0.33 0.29 0.22 0.11 0.15 0.16 0.12 0.12 0.20 0.24 0.24 0.19 0.20 0.49 0.85 0.92 1.22 2.23 0.98 0.74 0.86 1.07 0.32 0.04 0.00 0.00 0.00 0.00 0.00 0.00 0.00 0.00
0.00 0.00 0.00 0.00 0.00 0.00 0.00 0.01 0.02 0.08 0.45 0.51 0.27 0.32 0.45 0.50 0.44 0.51 0.31 0.11 0.09 0.08 0.15 0.19 0.20 0.27 0.30 0.33 0.18 0.19 0.71 0.83 0.79 0.80 1.11 1.03 0.82 0.57 0.59 0.26 0.03 0.00 0.00 0.00 0.00 0.00 0.00 0.00 0.00
0.00 0.00 0.00 0.00 0.00 0.00 0.00 0.03 0.09 0.18 0.77 0.30 0.15 0.08 0.17 0.26 0.28 0.24 0.13 0.10 0.09 0.10 0.19 0.28 0.28 0.43 0.20 0.22 0.25 0.34 0.65 0.78 0.62 0.60 0.70 0.56 0.60 0.48 0.38 0.24 0.02 0.00 0.00 0.00 0.00 0.00 0.00 0.00 0.00
0.00 0.00 0.00 0.00 0.00 0.00 0.01 0.03 0.13 0.21 0.39 0.13 0.05 0.05 0.06 0.11 0.16 0.10 0.11 0.23 0.16 0.22 0.25 0.42 0.65 0.54 0.22 0.11 0.17 0.31 0.64 0.56 0.51 0.48 0.46 0.38 0.36 0.43 0.28 0.13 0.04 0.02 0.00 0.00 0.00 0.00 0.00 0.00 0.00
0.00 0.00 0.00 0.00 0.00 0.00 0.02 0.17 0.29 0.13 0.09 0.07 0.04 0.01 0.02 0.03 0.01 0.00 0.02 0.01 0.03 0.07 0.19 0.43 0.60 0.57 0.48 0.20 0.26 0.31 0.45 0.62 0.42 0.31 0.33 0.47 0.34 0.33 0.21 0.12 0.06 0.05 0.01 0.00 0.00 0.00 0.00 0.00 0.00
0.00 0.00 0.00 0.00 0.00 0.00 0.01 0.03 0.15 0.07 0.09 0.12 0.10 0.04 0.00 0.02 0.01 0.00 0.00 0.01 0.02 0.02 0.19 0.61 0.80 0.77 0.74 0.61 0.53 0.72 0.75 0.66 0.36 0.20 0.22 0.38 0.31 0.37 0.23 0.12 0.05 0.05 0.02 0.00 0.00 0.00 0.00 0.00 0.00
0.00 0.00 0.00 0.00 0.00 0.00 0.00 0.00 0.09 0.05 0.03 0.09 0.15 0.10 0.02 0.01 0.00 0.00 0.00 0.02 0.03 0.03 0.26 0.64 0.84 1.09 1.18 1.08 0.88 0.61 0.55 0.47 0.32 0.22 0.22 0.29 0.30 0.21 0.21 0.15 0.04 0.02 0.01 0.00 0.00 0.00 0.00 0.00 0.00
0.00 0.00 0.00 0.00 0.00 0.00 0.00 0.00 0.00 0.01 0.11 0.10 0.14 0.07 0.01 0.00 0.00 0.00 0.01 0.02 0.04 0.10 0.40 0.69 0.82 1.10 1.07 0.58 0.41 0.43 0.43 0.27 0.27 0.32 0.31 0.34 0.35 0.18 0.13 0.12 0.07 0.02 0.01 0.00 0.01 0.01 0.00 0.00 0.00
0.00 0.00 0.00 0.00 0.00 0.00 0.00 0.00 0.00 0.00 0.00 0.02 0.03 0.03 0.02 0.00 0.00 0.01 0.03 0.06 0.12 0.24 0.52 0.61 0.48 0.33 0.16 0.11 0.18 0.23 0.27 0.25 0.21 0.28 0.32 0.29 0.31 0.17 0.13 0.12 0.06 0.03 0.01 0.00 0.00 0.00 0.00 0.00 0.00
0.00 0.00 0.00 0.00 0.00 0.00 0.00 0.00 0.00 0.00 0.01 0.01 0.01 0.01 0.01 0.01 0.00 0.02 0.06 0.13 0.17 0.15 0.15 0.09 0.06 0.05 0.09 0.11 0.25 0.32 0.37 0.28 0.23 0.22 0.30 0.31 0.24 0.16 0.08 0.13 0.05 0.02 0.03 0.01 0.00 0.00 0.00 0.00 0.00
0.00 0.00 0.00 0.00 0.00 0.00 0.00 0.01 0.00 0.00 0.00 0.00 0.00 0.00 0.01 0.03 0.02 0.03 0.02 0.01 0.00 0.01 0.09 0.07 0.07 0.05 0.06 0.06 0.13 0.17 0.17 0.13 0.12 0.12 0.12 0.15 0.16 0.13 0.05 0.05 0.04 0.03 0.04 0.03 0.03 0.03 0.03 0.02 0.04
0.01 0.00 0.00 0.00 0.00 0.02 0.02 0.02 0.02 0.00 0.00 0.00 0.00 0.00 0.00 0.00 0.00 0.00 0.00 0.00 0.01 0.02 0.07 0.09 0.10 0.10 0.06 0.04 0.11 0.20 0.18 0.16 0.15 0.10 0.06 0.05 0.11 0.10 0.05 0.04 0.04 0.03 0.03 0.05 0.11 0.08 0.11 0.23 0.35
0.00 0.00 0.00 0.00 0.00 0.04 0.01 0.05 0.03 0.02 0.01 0.01 0.01 0.00 0.00 0.01 0.02 0.00 0.01 0.01 0.00 0.03 0.05 0.05 0.13 0.09 0.13 0.09 0.13 0.18 0.23 0.17 0.12 0.08 0.04 0.03 0.03 0.05 0.04 0.05 0.06 0.09 0.11 0.18 0.23 0.24 0.25 0.36 0.39
0.00 0.00 0.02 0.17 0.09 0.03 0.04 0.03 0.02 0.01 0.00 0.00 0.00 0.00 0.01 0.00 0.00 0.00 0.00 0.00 0.00 0.01 0.02 0.06 0.14 0.17 0.18 0.24 0.19 0.19 0.19 0.22 0.07 0.03 0.02 0.05 0.09 0.13 0.12 0.10 0.09 0.13 0.24 0.28 0.26 0.30 0.35 0.39 0.47
0.00 0.00 0.03 0.15 0.12 0.11 0.05 0.03 0.00 0.00 0.00 0.00 0.00 0.00 0.00 0.00 0.00 0.00 0.00 0.00 0.01 0.03 0.02 0.09 0.09 0.18 0.18 0.24 0.22 0.24 0.20 0.09 0.14 0.06 0.10 0.14 0.12 0.08 0.07 0.13 0.18 0.21 0.25 0.37 0.46 0.51 0.54 0.63 0.69
0.01 0.00 0.01 0.03 0.05 0.09 0.03 0.02 0.01 0.01 0.00 0.00 0.00 0.00 0.00 0.00 0.00 0.00 0.00 0.00 0.04 0.02 0.04 0.10 0.13 0.17 0.17 0.18 0.20 0.29 0.29 0.15 0.08 0.12 0.14 0.17 0.14 0.10 0.13 0.22 0.32 0.46 0.53 0.52 0.55 0.66 0.77 0.85 0.81
0.00 0.00 0.00 0.01 0.06 0.05 0.00 0.01 0.03 0.02 0.01 0.00 0.00 0.00 0.00 0.00 0.00 0.00 0.00 0.00 0.01 0.03 0.07 0.08 0.08 0.10 0.10 0.10 0.15 0.20 0.25 0.35 0.24 0.23 0.41 0.46 0.49 0.43 0.45 0.50 0.58 0.53 0.47 0.43 0.52 0.49 0.43 0.40 0.38
0.00 0.00 0.00 0.01 0.00 0.01 0.02 0.02 0.00 0.01 0.00 0.00 0.00 0.00 0.00 0.00 0.00 0.00 0.01 0.01 0.01 0.01 0.05 0.06 0.05 0.08 0.20 0.27 0.19 0.14 0.24 0.28 0.67 1.04 1.08 0.94 0.97 1.09 0.97 0.80 0.72 0.74 0.79 0.79 0.64 0.46 0.42 0.38 0.33
0.00 0.00 0.01 0.01 0.00 0.01 0.01 0.01 0.00 0.00 0.00 0.00 0.01 0.00 0.00 0.00 0.00 0.00 0.00 0.01 0.03 0.01 0.00 0.01 0.05 0.17 0.64 0.93 1.02 0.78 0.97 1.03 1.14 1.52 1.49 1.26 1.13 0.93 0.83 0.94 0.86 0.68 0.53 0.44 0.39 0.34 0.30 0.29 0.32

GFSSGP_prec_precacc_096.txt.gz
Total_Precipitation_Accumulation
0.00 0.00 0.00 0.00 0.00 0.00 0.00 0.00 0.00 0.03 0.09 0.13 0.18 0.22 0.24 0.16 0.47 1.04 0.97 1.23 1.83 1.44 1.03 1.58 1.29 0.62 0.25 0.22 0.19 0.04 0.03 0.02 0.02 0.00 0.00 0.00 0.01 0.00 0.01 0.02 0.08 0.08 0.04 0.04 0.02 0.02 0.02 0.03 0.02
0.00 0.00 0.00 0.00 0.00 0.00 0.00 0.01 0.01 0.03 0.17 0.23 0.32 0.35 0.43 0.37 0.17 0.64 0.86 0.71 0.66 1.44 1.56 1.44 2.29 1.43 0.96 0.70 0.77 0.82 0.37 0.25 0.04 0.00 0.01 0.03 0.01 0.00 0.02 0.02 0.04 0.02 0.02 0.02 0.02 0.02 0.02 0.01 0.01
0.00 0.00 0.00 0.00 0.00 0.00 0.00 0.01 0.05 0.08 0.16 0.14 0.11 0.20 0.44 0.64 0.60 0.70 0.78 0.90 0.80 1.05 0.97 1.28 2.08 1.57 1.03 1.12 1.12 1.65 1.98 1.87 1.01 0.42 0.36 0.32 0.22 0.13 0.05 0.02 0.01 0.02 0.02 0.02 0.03 0.02 0.02 0.00 0.00
0.00 0.00 0.00 0.00 0.00 0.00 0.00 0.02 0.07 0.10 0.11 0.09 0.10 0.21 0.49 0.58 0.48 0.44 0.76 1.28 1.83 2.03 1.47 1.74 2.10 1.30 0.70 1.09 1.43 1.50 2.15 3.35 4.17 4.04 2.49 1.30 0.83 0.41 0.25 0.14 0.08 0.04 0.02 0.04 0.03 0.02 0.01 0.00 0.00
0.00 0.00 0.00 0.00 0.00 0.00 0.00 0.02 0.08 0.11 0.11 0.42 0.18 0.11 0.66 0.80 0.31 0.42 1.15 2.28 3.41 4.56 4.04 3.63 3.90 5.05 2.78 2.50 1.70 1.31 1.44 2.50 4.84 5.18 3.75 2.50 1.84 1.54 1.00 0.51 0.27 0.09 0.02 0.03 0.02 0.01 0.00 0.00 0.00
0.00 0.00 0.00 0.00 0.00 0.01 0.03 0.13 0.22 0.37 0.35 0.46 0.35 0.42 0.86 0.47 0.38 0.75 1.60 3.62 5.15 6.63 8.73 9.01 7.66 8.03 7.58 4.80 2.99 1.94 1.36 1.21 1.58 2.30 1.87 1.94 2.18 1.51 1.50 1.37 0.69 0.17 0.04 0.01 0.00 0.00 0.00 0.00 0.00
0.00 0.00 0.00 0.00 0.01 0.00 0.02 0.15 0.35 0.53 0.42 0.20 0.38 0.40 0.95 0.96 0.77 0.88 1.55 2.78 5.21 5.54 7.02 10.68 9.49 7.13 5.90 6.72 5.90 3.51 2.56 1.65 1.40 1.37 1.56 1.02 1.57 1.20 0.98 1.25 1.06 0.21 0.02 0.00 0.00 0.00 0.00 0.00 0.00
0.00 0.00 0.00 0.00 0.01 0.02 0.06 0.15 0.21 0.15 0.09 0.07 0.15 0.46 1.10 0.76 0.53 0.47 0.58 0.86 2.15 2.59 3.35 3.93 4.06 3.28 2.87 3.59 4.47 4.28 2.92 2.38 2.08 1.32 1.40 1.41 1.21 1.12 0.99 1.01 1.08 0.28 0.02 0.00 0.00 0.00 0.00 0.00 0.00
0.00 0.00 0.00 0.00 0.03 0.11 0.16 0.28 0.33 0.20 0.06 0.11 0.26 0.18 0.28 0.46 0.34 0.34 0.61 0.72 1.36 2.28 1.62 1.65 1.26 0.85 0.82 1.26 2.00 2.71 2.41 2.41 2.48 2.01 1.19 1.78 1.82 0.89 1.07 1.25 0.87 0.39 0.04 0.00 0.00 0.00 0.00 0.00 0.00
0.00 0.00 0.00 0.00 0.06 0.33 0.29 0.15 0.03 0.01 0.01 0.20 0.53 0.53 0.32 0.33 0.25 0.20 0.26 0.62 1.09 0.94 0.77 0.49 0.39 0.30 0.25 0.23 0.36 0.70 1.46 2.18 2.19 2.79 1.41 1.32 2.22 1.14 1.11 1.52 0.76 0.36 0.06 0.00 0.00 0.00 0.00 0.00 0.00
0.00 0.00 0.00 0.00 0.00 0.00 0.01 0.01 0.00 0.00 0.19 0.52 0.67 0.50 0.42 0.34 0.24 0.27 0.45 0.40 0.52 0.32 0.21 0.27 0.47 0.47 0.20 0.19 0.16 0.23 0.65 1.44 1.50 2.48 2.09 0.80 1.14 1.35 1.38 1.64 0.62 0.15 0.03 0.00 0.00 0.00 0.00 0.00 0.00
0.00 0.00 0.00 0.00 0.00 0.00 0.00 0.00 0.01 0.04 0.27 0.22 0.26 0.69 0.62 0.49 0.39 0.33 0.29 0.22 0.11 0.15 0.16 0.12 0.12 0.20 0.24 0.24 0.19 0.20 0.50 0.86 0.92 1.23 2.24 1.00 0.79 0.93 1.24 1.21 0.36 0.02 0.00 0.00 0.00 0.00 0.00 0.00 0.00
0.00 0.00 0.00 0.00 0.00 0.00 0.00 0.01 0.02 0.08 0.45 0.51 0.27 0.32 0.45 0.50 0.44 0.51 0.31 0.11 0.09 0.08 0.15 0.19 0.20 0.27 0.30 0.33 0.18 0.20 0.72 0.85 0.80 0.81 1.16 1.05 0.85 0.63 0.89 0.59 0.21 0.01 0.00 0.00 0.00 0.00 0.00 0.00 0.00
0.00 0.00 0.00 0.00 0.00 0.00 0.00 0.03 0.09 0.18 0.77 0.30 0.15 0.08 0.17 0.26 0.28 0.24 0.13 0.10 0.09 0.10 0.19 0.28 0.28 0.43 0.20 0.22 0.25 0.34 0.66 0.78 0.62 0.60 0.76 0.65 0.62 0.49 0.59 0.45 0.07 0.01 0.00 0.00 0.00 0.00 0.00 0.00 0.00
0.00 0.00 0.00 0.00 0.00 0.00 0.01 0.03 0.13 0.21 0.39 0.13 0.05 0.05 0.06 0.11 0.16 0.10 0.11 0.23 0.16 0.22 0.25 0.42 0.65 0.54 0.22 0.11 0.17 0.31 0.65 0.57 0.52 0.49 0.50 0.47 0.38 0.44 0.36 0.24 0.08 0.03 0.00 0.00 0.00 0.00 0.00 0.00 0.00
0.00 0.00 0.00 0.00 0.00 0.00 0.02 0.17 0.29 0.13 0.09 0.07 0.04 0.01 0.02 0.03 0.01 0.00 0.02 0.01 0.03 0.07 0.19 0.43 0.60 0.57 0.48 0.20 0.26 0.31 0.45 0.62 0.43 0.32 0.38 0.53 0.40 0.35 0.25 0.15 0.08 0.05 0.01 0.00 0.00 0.00 0.00 0.00 0.00
0.00 0.00 0.00 0.00 0.00 0.00 0.01 0.03 0.15 0.07 0.09 0.12 0.10 0.04 0.00 0.02 0.01 0.00 0.00 0.01 0.02 0.02 0.19 0.61 0.80 0.77 0.74 0.61 0.53 0.72 0.75 0.67 0.38 0.23 0.26 0.39 0.34 0.44 0.27 0.13 0.06 0.05 0.02 0.00 0.00 0.00 0.00 0.00 0.00
0.00 0.00 0.00 0.00 0.00 0.00 0.00 0.00 0.09 0.05 0.03 0.09 0.15 0.10 0.02 0.01 0.00 0.00 0.00 0.02 0.03 0.03 0.26 0.64 0.84 1.09 1.18 1.08 0.88 0.61 0.55 0.48 0.34 0.26 0.27 0.36 0.41 0.32 0.28 0.17 0.04 0.02 0.01 0.00 0.00 0.00 0.00 0.00 0.00
0.00 0.00 0.00 0.00 0.00 0.00 0.00 0.00 0.00 0.01 0.11 0.10 0.14 0.07 0.01 0.00 0.00 0.00 0.01 0.02 0.04 0.10 0.40 0.69 0.82 1.10 1.07 0.58 0.42 0.43 0.43 0.27 0.28 0.35 0.35 0.40 0.42 0.33 0.18 0.15 0.08 0.02 0.01 0.00 0.01 0.01 0.00 0.00 0.00
0.00 0.00 0.00 0.00 0.00 0.00 0.00 0.00 0.00 0.00 0.00 0.02 0.03 0.03 0.02 0.00 0.00 0.01 0.03 0.06 0.12 0.24 0.52 0.61 0.48 0.33 0.16 0.11 0.18 0.24 0.27 0.25 0.21 0.29 0.33 0.31 0.37 0.27 0.20 0.19 0.09 0.03 0.01 0.00 0.00 0.00 0.00 0.00 0.00
0.00 0.00 0.00 0.00 0.00 0.00 0.00 0.00 0.00 0.00 0.01 0.01 0.01 0.01 0.01 0.01 0.00 0.02 0.06 0.13 0.17 0.15 0.15 0.09 0.06 0.05 0.09 0.11 0.26 0.32 0.37 0.29 0.25 0.23 0.31 0.34 0.28 0.22 0.15 0.21 0.09 0.02 0.03 0.01 0.00 0.00 0.00 0.00 0.00
0.00 0.00 0.00 0.00 0.00 0.00 0.00 0.01 0.00 0.00 0.00 0.00 0.00 0.00 0.01 0.03 0.02 0.03 0.02 0.01 0.00 0.01 0.09 0.07 0.07 0.05 0.07 0.06 0.13 0.17 0.17 0.13 0.13 0.13 0.13 0.18 0.25 0.24 0.13 0.14 0.08 0.04 0.04 0.03 0.03 0.03 0.03 0.02 0.04
0.01 0.00 0.00 0.00 0.00 0.02 0.02 0.02 0.02 0.00 0.00 0.00 0.00 0.00 0.00 0.00 0.00 0.00 0.00 0.00 0.01 0.02 0.07 0.09 0.10 0.10 0.06 0.05 0.11 0.20 0.18 0.16 0.15 0.10 0.07 0.10 0.25 0.30 0.20 0.12 0.07 0.04 0.04 0.05 0.11 0.08 0.11 0.23 0.35
0.00 0.00 0.00 0.00 0.00 0.04 0.01 0.05 0.03 0.02 0.01 0.01 0.01 0.00 0.00 0.01 0.02 0.00 0.01 0.01 0.00 0.03 0.05 0.05 0.13 0.09 0.14 0.09 0.13 0.18 0.23 0.17 0.12 0.08 0.05 0.04 0.10 0.24 0.28 0.19 0.12 0.11 0.13 0.19 0.23 0.24 0.25 0.36 0.39
0.00 0.00 0.02 0.17 0.09 0.03 0.04 0.03 0.02 0.01 0.00 0.00 0.00 0.00 0.01 0.00 0.00 0.00 0.00 0.00 0.00 0.01 0.02 0.06 0.14 0.17 0.18 0.24 0.19 0.19 0.19 0.22 0.07 0.03 0.02 0.05 0.10 0.18 0.24 0.26 0.22 0.21 0.27 0.30 0.26 0.30 0.35 0.39 0.47
0.00 0.00 0.03 0.15 0.12 0.11 0.05 0.03 0.00 0.00 0.00 0.00 0.00 0.00 0.00 0.00 0.00 0.00 0.00 0.00 0.01 0.03 0.02 0.09 0.09 0.18 0.19 0.24 0.22 0.24 0.20 0.09 0.14 0.06 0.10 0.14 0.12 0.10 0.10 0.16 0.22 0.25 0.27 0.39 0.46 0.51 0.54 0.63 0.70
0.01 0.00 0.01 0.03 0.05 0.10 0.03 0.02 0.01 0.01 0.01 0.00 0.00 0.00 0.00 0.00 0.00 0.00 0.00 0.00 0.04 0.02 0.04 0.10 0.13 0.17 0.17 0.18 0.20 0.29 0.29 0.15 0.08 0.12 0.14 0.17 0.14 0.10 0.13 0.22 0.32 0.47 0.54 0.53 0.55 0.66 0.77 0.85 0.82
0.00 0.00 0.01 0.01 0.06 0.05 0.00 0.01 0.03 0.03 0.02 0.01 0.00 0.00 0.00 0.00 0.00 0.00 0.00 0.00 0.01 0.03 0.07 0.08 0.08 0.10 0.10 0.10 0.15 0.20 0.25 0.35 0.24 0.23 0.41 0.46 0.49 0.43 0.45 0.50 0.58 0.54 0.47 0.43 0.52 0.50 0.44 0.41 0.39
0.00 0.00 0.00 0.01 0.00 0.01 0.02 0.02 0.02 0.07 0.05 0.03 0.00 0.00 0.00 0.00 0.00 0.00 0.01 0.01 0.01 0.01 0.05 0.06 0.05 0.08 0.20 0.27 0.19 0.14 0.24 0.28 0.67 1.04 1.08 0.94 0.97 1.09 0.97 0.80 0.72 0.75 0.79 0.79 0.65 0.46 0.43 0.41 0.35
0.00 0.00 0.01 0.01 0.01 0.01 0.01 0.01 0.01 0.03 0.05 0.03 0.01 0.00 0.00 0.00 0.00 0.00 0.00 0.01 0.03 0.01 0.00 0.01 0.05 0.17 0.64 0.93 1.03 0.78 0.97 1.03 1.14 1.52 1.49 1.26 1.13 0.93 0.83 0.94 0.86 0.68 0.53 0.44 0.39 0.34 0.30 0.30 0.33

GFSSGP_prec_precacc_099.txt.gz
Total_Precipitation_Accumulation
0.00 0.00 0.00 0.00 0.00 0.00 0.00 0.00 0.00 0.03 0.09 0.13 0.18 0.22 0.24 0.16 0.47 1.04 0.97 1.23 1.83 1.44 1.03 1.58 1.29 0.62 0.25 0.22 0.19 0.04 0.03 0.02 0.02 0.00 0.00 0.00 0.01 0.00 0.01 0.02 0.09 0.08 0.05 0.04 0.02 0.02 0.03 0.05 0.03
0.00 0.00 0.00 0.00 0.00 0.00 0.00 0.01 0.01 0.03 0.17 0.23 0.32 0.35 0.43 0.37 0.17 0.64 0.86 0.71 0.66 1.44 1.56 1.44 2.29 1.43 0.96 0.70 0.77 0.82 0.37 0.25 0.04 0.00 0.01 0.03 0.01 0.00 0.02 0.02 0.04 0.02 0.03 0.02 0.02 0.04 0.04 0.03 0.01
0.00 0.00 0.00 0.00 0.00 0.00 0.00 0.01 0.05 0.08 0.16 0.14 0.11 0.20 0.44 0.64 0.60 0.70 0.78 0.90 0.80 1.05 0.97 1.28 2.08 1.57 1.03 1.12 1.12 1.65 1.98 1.87 1.01 0.42 0.36 0.32 0.22 0.13 0.05 0.02 0.01 0.02 0.02 0.02 0.04 0.04 0.04 0.01 0.00
0.00 0.00 0.00 0.00 0.00 0.00 0.00 0.02 0.07 0.10 0.11 0.09 0.10 0.21 0.49 0.58 0.48 0.44 0.76 1.28 1.83 2.03 1.47 1.74 2.10 1.30 0.70 1.09 1.43 1.50 2.15 3.35 4.17 4.05 2.50 1.31 0.83 0.41 0.26 0.16 0.12 0.06 0.03 0.05 0.06 0.05 0.03 0.00 0.00
0.00 0.00 0.00 0.00 0.00 0.00 0.00 0.02 0.08 0.11 0.11 0.42 0.18 0.11 0.66 0.80 0.31 0.42 1.15 2.28 3.41 4.56 4.04 3.63 3.90 5.05 2.78 2.50 1.70 1.31 1.44 2.50 4.86 5.23 3.84 2.51 1.84 1.55 1.00 0.52 0.36 0.21 0.08 0.06 0.07 0.04 0.03 0.01 0.00
0.00 0.00 0.00 0.00 0.00 0.01 0.03 0.13 0.22 0.37 0.35 0.46 0.35 0.42 0.86 0.47 0.38 0.75 1.60 3.62 5.15 6.63 8.73 9.01 7.66 8.03 7.58 4.81 2.99 1.95 1.38 1.22 1.61 2.33 1.91 1.98 2.20 1.52 1.51 1.38 0.79 0.43 0.19 0.09 0.06 0.03 0.03 0.00 0.00
0.00 0.00 0.00 0.00 0.01 0.00 0.02 0.15 0.35 0.53 0.42 0.20 0.38 0.40 0.95 0.96 0.77 0.88 1.55 2.78 5.21 5.54 7.02 10.68 9.49 7.13 5.90 6.72 5.90 3.53 2.58 1.66 1.42 1.38 1.57 1.04 1.59 1.22 0.99 1.26 1.29 0.46 0.14 0.09 0.04 0.02 0.02 0.00 0.00
0.00 0.00 0.00 0.00 0.01 0.02 0.06 0.15 0.21 0.15 0.09 0.07 0.15 0.46 1.10 0.76 0.53 0.47 0.58 0.86 2.15 2.59 3.35 3.93 4.06 3.28 2.87 3.59 4.47 4.29 2.95 2.40 2.10 1.34 1.40 1.41 1.22 1.13 0.99 1.01 1.20 0.87 0.22 0.11 0.02 0.01 0.01 0.00 0.00
0.00 0.00 0.00 0.00 0.03 0.11 0.16 0.28 0.33 0.20 0.06 0.11 0.26 0.18 0.28 0.46 0.34 0.34 0.61 0.72 1.36 2.28 1.62 1.65 1.26 0.85 0.82 1.26 2.00 2.71 2.43 2.44 2.50 2.02 1.20 1.79 1.82 0.89 1.07 1.25 0.99 0.62 0.20 0.07 0.01 0.01 0.00 0.00 0.00
0.00 0.00 0.00 0.00 0.06 0.33 0.29 0.15 0.03 0.01 0.01 0.20 0.53 0.53 0.32 0.33 0.25 0.20 0.26 0.62 1.09 0.94 0.77 0.49 0.39 0.30 0.25 0.23 0.37 0.71 1.47 2.19 2.21 2.80 1.41 1.33 2.23 1.14 1.12 1.57 0.97 0.62 0.25 0.05 0.01 0.01 0.00 0.00 0.00
0.00 0.00 0.00 0.00 0.00 0.00 0.01 0.01 0.00 0.00 0.19 0.52 0.67 0.50 0.42 0.34 0.24 0.27 0.45 0.40 0.52 0.32 0.21 0.27 0.47 0.47 0.20 0.19 0.16 0.23 0.65 1.44 1.50 2.48 2.09 0.80 1.14 1.35 1.41 1.82 1.11 0.49 0.26 0.05 0.02 0.03 0.00 0.00 0.00
0.00 0.00 0.00 0.00 0.00 0.00 0.00 0.00 0.01 0.04 0.27 0.22 0.26 0.69 0.62 0.49 0.39 0.33 0.29 0.22 0.11 0.15 0.16 0.12 0.12 0.20 0.24 0.24 0.19 0.20 0.50 0.87 0.92 1.23 2.24 1.00 0.80 0.96 1.31 1.40 0.99 0.33 0.15 0.01 0.01 0.01 0.00 0.00 0.00
0.00 0.00 0.00 0.00 0.00 0.00 0.00 0.01 0.02 0.08 0.45 0.51 0.27 0.32 0.45 0.50 0.44 0.51 0.31 0.11 0.09 0.08 0.15 0.19 0.20 0.27 0.30 0.33 0.18 0.20 0.72 0.85 0.81 0.81 1.16 1.05 0.87 0.69 1.06 0.88 0.92 0.31 0.10 0.00 0.01 0.01 0.00 0.00 0.00
0.00 0.00 0.00 0.00 0.00 0.00 0.00 0.03 0.09 0.18 0.77 0.30 0.15 0.08 0.17 0.26 0.28 0.24 0.13 0.10 0.09 0.10 0.19 0.28 0.28 0.43 0.20 0.22 0.25 0.34 0.66 0.79 0.64 0.61 0.76 0.68 0.66 0.55 0.69 0.64 0.58 0.24 0.11 0.00 0.00 0.00 0.00 0.00 0.00
0.00 0.00 0.00 0.00 0.00 0.00 0.01 0.03 0.13 0.21 0.39 0.13 0.05 0.05 0.06 0.11 0.16 0.10 0.11 0.23 0.16 0.22 0.25 0.42 0.65 0.54 0.22 0.11 0.17 0.32 0.65 0.58 0.53 0.49 0.50 0.47 0.44 0.48 0.44 0.39 0.31 0.29 0.11 0.00 0.00 0.00 0.00 0.00 0.00
0.00 0.00 0.00 0.00 0.00 0.00 0.02 0.17 0.29 0.13 0.09 0.07 0.04 0.01 0.02 0.03 0.01 0.00 0.02 0.01 0.03 0.07 0.19 0.43 0.60 0.57 0.48 0.20 0.26 0.31 0.45 0.63 0.44 0.33 0.38 0.54 0.44 0.40 0.30 0.44 0.25 0.24 0.10 0.00 0.00 0.00 0.00 0.00 0.00
0.00 0.00 0.00 0.00 0.00 0.00 0.01 0.03 0.15 0.07 0.09 0.12 0.10 0.04 0.00 0.02 0.01 0.00 0.00 0.01 0.02 0.02 0.19 0.61 0.80 0.77 0.74 0.61 0.53 0.72 0.75 0.68 0.40 0.24 0.27 0.40 0.36 0.50 0.33 0.30 0.26 0.15 0.06 0.00 0.00 0.00 0.00 0.00 0.00
0.00 0.00 0.00 0.00 0.00 0.00 0.00 0.00 0.09 0.05 0.03 0.09 0.15 0.10 0.02 0.01 0.00 0.00 0.00 0.02 0.03 0.03 0.26 0.64 0.84 1.09 1.18 1.08 0.88 0.61 0.55 0.48 0.36 0.29 0.29 0.38 0.42 0.34 0.37 0.29 0.16 0.06 0.02 0.00 0.00 0.00 0.00 0.00 0.00
0.00 0.00 0.00 0.00 0.00 0.00 0.00 0.00 0.00 0.01 0.11 0.10 0.14 0.07 0.01 0.00 0.00 0.00 0.01 0.02 0.04 0.10 0.40 0.69 0.82 1.10 1.07 0.58 0.42 0.43 0.43 0.27 0.29 0.40 0.41 0.46 0.50 0.34 0.21 0.25 0.14 0.03 0.01 0.00 0.01 0.01 0.00 0.00 0.00
0.00 0.00 0.00 0.00 0.00 0.00 0.00 0.00 0.00 0.00 0.00 0.02 0.03 0.03 0.02 0.00 0.00 0.01 0.03 0.06 0.12 0.24 0.52 0.61 0.48 0.33 0.16 0.11 0.18 0.24 0.27 0.25 0.22 0.32 0.42 0.39 0.56 0.46 0.24 0.24 0.13 0.04 0.01 0.00 0.00 0.00 0.00 0.00 0.00
0.00 0.00 0.00 0.00 0.00 0.00 0.00 0.00 0.00 0.00 0.01 0.01 0.01 0.01 0.01 0.01 0.00 0.02 0.06 0.13 0.17 0.15 0.15 0.09 0.06 0.05 0.09 0.11 0.26 0.32 0.38 0.29 0.25 0.24 0.33 0.41 0.41 0.40 0.25 0.27 0.11 0.03 0.03 0.01 0.00 0.00 0.00 0.00 0.00
0.00 0.00 0.00 0.00 0.00 0.00 0.00 0.01 0.00 0.00 0.00 0.00 0.00 0.00 0.01 0.03 0.02 0.03 0.02 0.01 0.00 0.01 0.09 0.07 0.07 0.05 0.07 0.06 0.13 0.17 0.17 0.14 0.13 0.13 0.14 0.18 0.33 0.39 0.21 0.22 0.16 0.06 0.05 0.03 0.03 0.03 0.03 0.02 0.04
0.01 0.00 0.00 0.00 0.00 0.02 0.02 0.02 0.02 0.00 0.00 0.00 0.00 0.00 0.00 0.00 0.00 0.00 0.00 0.00 0.01 0.02 0.07 0.09 0.10 0.10 0.06 0.05 0.11 0.20 0.18 0.16 0.15 0.10 0.08 0.11 0.26 0.39 0.32 0.20 0.28 0.15 0.07 0.06 0.11 0.08 0.11 0.23 0.35
0.00 0.00 0.00 0.00 0.00 0.04 0.01 0.05 0.03 0.02 0.01 0.01 0.01 0.00 0.00 0.01 0.02 0.00 0.01 0.01 0.00 0.03 0.05 0.05 0.13 0.09 0.14 0.09 0.13 0.18 0.23 0.17 0.12 0.08 0.05 0.04 0.11 0.27 0.34 0.31 0.31 0.33 0.25 0.22 0.24 0.25 0.25 0.36 0.39
0.00 0.00 0.02 0.17 0.09 0.03 0.04 0.03 0.02 0.01 0.00 0.00 0.00 0.00 0.01 0.00 0.00 0.00 0.00 0.00 0.00 0.01 0.02 0.06 0.14 0.17 0.18 0.24 0.19 0.19 0.19 0.22 0.07 0.03 0.02 0.05 0.11 0.21 0.32 0.36 0.39 0.39 0.42 0.32 0.27 0.31 0.35 0.40 0.47
0.00 0.00 0.03 0.15 0.12 0.11 0.05 0.03 0.00 0.00 0.00 0.00 0.00 0.00 0.00 0.00 0.00 0.00 0.00 0.00 0.01 0.03 0.02 0.09 0.09 0.18 0.19 0.24 0.22 0.24 0.20 0.09 0.14 0.06 0.10 0.14 0.13 0.13 0.15 0.27 0.41 0.46 0.50 0.54 0.53 0.53 0.54 0.64 0.70
0.01 0.00 0.01 0.03 0.05 0.10 0.03 0.02 0.01 0.01 0.01 0.00 0.00 0.00 0.00 0.00 0.00 0.00 0.00 0.00 0.04 0.02 0.04 0.10 0.13 0.17 0.17 0.18 0.20 0.29 0.29 0.15 0.08 0.12 0.14 0.17 0.14 0.15 0.20 0.27 0.41 0.61 0.72 0.68 0.68 0.75 0.78 0.85 0.82
0.00 0.00 0.01 0.01 0.06 0.05 0.00 0.01 0.03 0.03 0.03 0.03 0.01 0.00 0.00 0.00 0.00 0.00 0.00 0.00 0.01 0.03 0.07 0.08 0.08 0.10 0.10 0.10 0.15 0.20 0.25 0.35 0.24 0.23 0.41 0.46 0.49 0.44 0.49 0.52 0.60 0.57 0.53 0.49 0.58 0.52 0.44 0.41 0.39
0.00 0.00 0.00 0.01 0.00 0.02 0.02 0.02 0.02 0.07 0.07 0.13 0.10 0.03 0.00 0.00 0.00 0.00 0.01 0.01 0.01 0.01 0.05 0.06 0.05 0.08 0.20 0.27 0.19 0.14 0.24 0.28 0.67 1.04 1.08 0.94 0.97 1.09 0.97 0.80 0.72 0.78 0.82 0.80 0.66 0.47 0.43 0.41 0.35
0.00 0.00 0.01 0.01 0.01 0.01 0.01 0.01 0.01 0.04 0.06 0.06 0.14 0.07 0.00 0.00 0.00 0.00 0.00 0.01 0.03 0.01 0.00 0.01 0.05 0.17 0.64 0.93 1.03 0.78 0.97 1.03 1.14 1.52 1.49 1.26 1.13 0.93 0.83 0.94 0.86 0.68 0.55 0.45 0.39 0.35 0.30 0.30 0.33

GFSSGP_prec_precacc_102.txt.gz
Total_Precipitation_Accumulation
0.00 0.00 0.00 0.00 0.00 0.00 0.00 0.00 0.00 0.03 0.09 0.13 0.18 0.22 0.24 0.16 0.47 1.04 0.97 1.23 1.83 1.44 1.03 1.58 1.29 0.62 0.25 0.22 0.19 0.04 0.03 0.02 0.02 0.00 0.00 0.00 0.01 0.00 0.01 0.02 0.09 0.10 0.05 0.04 0.02 0.02 0.03 0.06 0.04
0.00 0.00 0.00 0.00 0.00 0.00 0.00 0.01 0.01 0.03 0.17 0.23 0.32 0.35 0.43 0.37 0.17 0.64 0.86 0.71 0.66 1.44 1.56 1.44 2.29 1.43 0.96 0.70 0.77 0.82 0.37 0.25 0.04 0.00 0.01 0.03 0.01 0.00 0.02 0.02 0.05 0.03 0.03 0.03 0.03 0.04 0.05 0.05 0.05
0.00 0.00 0.00 0.00 0.00 0.00 0.00 0.01 0.05 0.08 0.16 0.14 0.11 0.20 0.44 0.64 0.60 0.70 0.78 0.90 0.80 1.05 0.97 1.28 2.08 1.57 1.03 1.12 1.12 1.65 1.98 1.87 1.01 0.42 0.36 0.32 0.22 0.13 0.06 0.05 0.05 0.04 0.03 0.04 0.05 0.06 0.06 0.03 0.01
0.00 0.00 0.00 0.00 0.00 0.00 0.00 0.02 0.07 0.10 0.11 0.09 0.10 0.21 0.49 0.58 0.48 0.44 0.76 1.28 1.83 2.03 1.47 1.74 2.10 1.30 0.70 1.09 1.43 1.50 2.15 3.35 4.17 4.05 2.50 1.31 0.83 0.41 0.30 0.22 0.19 0.14 0.06 0.08 0.08 0.08 0.05 0.01 0.00
0.00 0.00 0.00 0.00 0.00 0.00 0.00 0.02 0.08 0.11 0.11 0.42 0.18 0.11 0.66 0.80 0.31 0.42 1.15 2.28 3.41 4.56 4.04 3.63 3.90 5.05 2.78 2.50 1.70 1.31 1.44 2.50 4.86 5.23 3.84 2.51 1.85 1.55 1.03 0.56 0.40 0.28 0.15 0.11 0.09 0.05 0.04 0.02 0.00
0.00 0.00 0.00 0.00 0.00 0.01 0.03 0.13 0.22 0.37 0.35 0.46 0.35 0.42 0.86 0.47 0.38 0.75 1.60 3.62 5.15 6.63 8.73 9.01 7.66 8.03 7.58 4.81 2.99 1.95 1.38 1.22 1.62 2.34 1.92 1.98 2.20 1.52 1.51 1.39 0.80 0.47 0.26 0.14 0.09 0.06 0.03 0.01 0.00
0.00 0.00 0.00 0.00 0.01 0.00 0.02 0.15 0.35 0.53 0.42 0.20 0.38 0.40 0.95 0.96 0.77 0.88 1.55 2.78 5.21 5.54 7.02 10.68 9.49 7.13 5.90 6.72 5.91 3.53 2.59 1.66 1.44 1.39 1.58 1.06 1.60 1.24 1.01 1.29 1.33 0.50 0.15 0.12 0.10 0.06 0.03 0.00 0.00
0.00 0.00 0.00 0.00 0.01 0.02 0.06 0.15 0.21 0.15 0.09 0.07 0.15 0.46 1.10 0.76 0.53 0.47 0.58 0.86 2.15 2.59 3.35 3.93 4.06 3.28 2.87 3.59 4.48 4.30 2.96 2.41 2.12 1.35 1.41 1.43 1.24 1.14 1.02 1.04 1.28 1.01 0.32 0.20 0.15 0.08 0.02 0.00 0.00
0.00 0.00 0.00 0.00 0.03 0.11 0.16 0.28 0.33 0.20 0.06 0.11 0.26 0.18 0.28 0.46 0.34 0.34 0.61 0.72 1.36 2.28 1.62 1.65 1.26 0.85 0.82 1.26 2.00 2.72 2.45 2.45 2.51 2.03 1.20 1.79 1.82 0.90 1.07 1.26 1.01 0.70 0.31 0.19 0.15 0.09 0.03 0.00 0.00
0.00 0.00 0.00 0.00 0.06 0.33 0.29 0.15 0.03 0.01 0.01 0.20 0.53 0.53 0.32 0.33 0.25 0.20 0.26 0.62 1.09 0.94 0.77 0.49 0.39 0.30 0.25 0.23 0.37 0.71 1.48 2.21 2.22 2.81 1.41 1.33 2.23 1.15 1.13 1.58 0.98 0.72 0.42 0.17 0.07 0.03 0.00 0.00 0.00
0.00 0.00 0.00 0.00 0.00 0.00 0.01 0.01 0.00 0.00 0.19 0.52 0.67 0.50 0.42 0.34 0.24 0.27 0.45 0.40 0.52 0.32 0.21 0.27 0.47 0.47 0.20 0.19 0.16 0.23 0.66 1.45 1.51 2.50 2.10 0.81 1.15 1.36 1.41 1.83 1.13 0.60 0.44 0.30 0.15 0.04 0.00 0.00 0.00
0.00 0.00 0.00 0.00 0.00 0.00 0.00 0.00 0.01 0.04 0.27 0.22 0.26 0.69 0.62 0.49 0.39 0.33 0.29 0.22 0.11 0.15 0.16 0.12 0.12 0.20 0.24 0.24 0.20 0.20 0.50 0.87 0.92 1.24 2.25 1.01 0.80 0.96 1.31 1.40 1.01 0.47 0.31 0.12 0.07 0.02 0.00 0.00 0.00
0.00 0.00 0.00 0.00 0.00 0.00 0.00 0.01 0.02 0.08 0.45 0.51 0.27 0.32 0.45 0.50 0.44 0.51 0.31 0.11 0.09 0.08 0.15 0.19 0.20 0.27 0.30 0.33 0.18 0.20 0.72 0.85 0.81 0.81 1.16 1.06 0.87 0.70 1.07 0.90 1.12 0.61 0.38 0.07 0.02 0.03 0.00 0.00 0.00
0.00 0.00 0.00 0.00 0.00 0.00 0.00 0.03 0.09 0.18 0.77 0.30 0.15 0.08 0.17 0.26 0.28 0.24 0.13 0.10 0.09 0.10 0.19 0.28 0.28 0.43 0.20 0.22 0.25 0.34 0.66 0.79 0.64 0.61 0.76 0.68 0.66 0.57 0.74 0.75 0.80 0.77 0.59 0.14 0.02 0.02 0.00 0.00 0.00
0.00 0.00 0.00 0.00 0.00 0.00 0.01 0.03 0.13 0.21 0.39 0.13 0.05 0.05 0.06 0.11 0.16 0.10 0.11 0.23 0.16 0.22 0.25 0.42 0.65 0.54 0.22 0.11 0.17 0.32 0.65 0.58 0.53 0.49 0.50 0.47 0.44 0.49 0.50 0.54 0.64 0.56 0.47 0.10 0.03 0.03 0.01 0.00 0.00
0.00 0.00 0.00 0.00 0.00 0.00 0.02 0.17 0.29 0.13 0.09 0.07 0.04 0.01 0.02 0.03 0.01 0.00 0.02 0.01 0.03 0.07 0.19 0.43 0.60 0.57 0.48 0.20 0.26 0.31 0.45 0.63 0.44 0.33 0.39 0.54 0.44 0.41 0.34 0.56 0.44 0.54 0.38 0.12 0.03 0.02 0.00 0.00 0.00
0.00 0.00 0.00 0.00 0.00 0.00 0.01 0.03 0.15 0.07 0.09 0.12 0.10 0.04 0.00 0.02 0.01 0.00 0.00 0.01 0.02 0.02 0.19 0.61 0.80 0.77 0.74 0.61 0.53 0.72 0.75 0.68 0.40 0.25 0.27 0.40 0.37 0.51 0.37 0.42 0.49 0.45 0.37 0.13 0.06 0.02 0.01 0.00 0.00
0.00 0.00 0.00 0.00 0.00 0.00 0.00 0.00 0.09 0.05 0.03 0.09 0.15 0.10 0.02 0.01 0.00 0.00 0.00 0.02 0.03 0.03 0.26 0.64 0.84 1.09 1.18 1.08 0.88 0.61 0.55 0.49 0.37 0.30 0.30 0.38 0.44 0.36 0.40 0.39 0.44 0.48 0.41 0.10 0.07 0.05 0.01 0.00 0.00
0.00 0.00 0.00 0.00 0.00 0.00 0.00 0.00 0.00 0.01 0.11 0.10 0.14 0.07 0.01 0.00 0.00 0.00 0.01 0.02 0.04 0.10 0.40 0.69 0.82 1.10 1.07 0.58 0.42 0.43 0.43 0.28 0.29 0.41 0.43 0.47 0.53 0.38 0.25 0.32 0.31 0.38 0.26 0.06 0.03 0.05 0.02 0.00 0.00
0.00 0.00 0.00 0.00 0.00 0.00 0.00 0.00 0.00 0.00 0.00 0.02 0.03 0.03 0.02 0.00 0.00 0.01 0.03 0.06 0.12 0.24 0.52 0.61 0.48 0.33 0.16 0.11 0.18 0.24 0.28 0.26 0.22 0.32 0.45 0.42 0.61 0.52 0.28 0.30 0.20 0.23 0.16 0.04 0.02 0.02 0.00 0.00 0.00
0.00 0.00 0.00 0.00 0.00 0.00 0.00 0.00 0.00 0.00 0.01 0.01 0.01 0.01 0.01 0.01 0.00 0.02 0.06 0.13 0.17 0.15 0.15 0.09 0.06 0.05 0.09 0.11 0.26 0.32 0.38 0.29 0.25 0.24 0.35 0.46 0.50 0.54 0.49 0.42 0.23 0.10 0.08 0.03 0.01 0.01 0.01 0.00 0.00
0.00 0.00 0.00 0.00 0.00 0.00 0.00 0.01 0.00 0.00 0.00 0.00 0.00 0.00 0.01 0.03 0.02 0.03 0.02 0.01 0.00 0.01 0.09 0.07 0.07 0.05 0.07 0.06 0.13 0.17 0.17 0.14 0.13 0.13 0.14 0.20 0.43 0.60 0.38 0.47 0.38 0.21 0.08 0.04 0.03 0.03 0.03 0.02 0.04
0.01 0.00 0.00 0.00 0.00 0.02 0.02 0.02 0.02 0.00 0.00 0.00 0.00 0.00 0.00 0.00 0.00 0.00 0.00 0.00 0.01 0.02 0.07 0.09 0.10 0.10 0.06 0.05 0.11 0.20 0.18 0.16 0.15 0.10 0.08 0.11 0.28 0.54 0.59 0.28 0.35 0.21 0.08 0.06 0.11 0.08 0.11 0.23 0.35
0.00 0.00 0.00 0.00 0.00 0.04 0.01 0.05 0.03 0.02 0.01 0.01 0.01 0.00 0.00 0.01 0.02 0.00 0.01 0.01 0.00 0.03 0.05 0.05 0.13 0.09 0.14 0.09 0.13 0.18 0.23 0.17 0.12 0.08 0.05 0.04 0.11 0.28 0.42 0.47 0.35 0.38 0.32 0.24 0.24 0.25 0.25 0.36 0.39
0.00 0.00 0.02 0.17 0.09 0.03 0.04 0.03 0.02 0.01 0.00 0.00 0.00 0.00 0.01 0.00 0.00 0.00 0.00 0.00 0.00 0.01 0.02 0.06 0.14 0.17 0.18 0.24 0.19 0.19 0.19 0.22 0.07 0.03 0.02 0.05 0.11 0.21 0.33 0.39 0.51 0.52 0.56 0.45 0.33 0.33 0.36 0.40 0.47
0.00 0.00 0.03 0.15 0.12 0.11 0.05 0.03 0.00 0.00 0.00 0.00 0.00 0.00 0.00 0.00 0.00 0.00 0.00 0.00 0.01 0.03 0.02 0.09 0.09 0.18 0.19 0.24 0.22 0.24 0.20 0.09 0.14 0.06 0.10 0.14 0.13 0.13 0.15 0.30 0.44 0.58 0.75 0.76 0.67 0.59 0.57 0.64 0.70
0.01 0.00 0.01 0.03 0.05 0.10 0.03 0.02 0.01 0.01 0.01 0.00 0.00 0.00 0.00 0.00 0.00 0.00 0.00 0.00 0.04 0.02 0.04 0.10 0.13 0.17 0.17 0.18 0.20 0.29 0.29 0.15 0.08 0.12 0.14 0.17 0.14 0.15 0.20 0.29 0.47 0.74 0.98 0.91 0.85 0.88 0.89 0.91 0.86
0.00 0.00 0.01 0.01 0.06 0.05 0.00 0.01 0.03 0.03 0.03 0.03 0.01 0.00 0.00 0.00 0.00 0.00 0.00 0.00 0.01 0.03 0.07 0.08 0.08 0.10 0.10 0.11 0.15 0.20 0.25 0.35 0.24 0.23 0.41 0.46 0.49 0.45 0.50 0.52 0.62 0.62 0.64 0.63 0.70 0.68 0.62 0.56 0.47
0.00 0.00 0.00 0.01 0.00 0.02 0.02 0.02 0.02 0.07 0.07 0.13 0.10 0.06 0.02 0.00 0.00 0.00 0.01 0.01 0.01 0.01 0.05 0.06 0.05 0.08 0.20 0.28 0.19 0.14 0.24 0.28 0.67 1.04 1.08 0.94 0.97 1.09 0.98 0.81 0.72 0.78 0.85 0.85 0.70 0.50 0.49 0.48 0.38
0.00 0.00 0.01 0.01 0.01 0.01 0.01 0.01 0.01 0.04 0.06 0.06 0.14 0.17 0.12 0.05 0.01 0.00 0.00 0.01 0.03 0.01 0.00 0.01 0.05 0.17 0.65 0.93 1.03 0.78 0.97 1.03 1.14 1.52 1.49 1.26 1.13 0.93 0.83 0.94 0.86 0.69 0.57 0.48 0.42 0.36 0.31 0.31 0.34

GFSSGP_prec_precacc_105.txt.gz
Total_Precipitation_Accumulation
0.00 0.00 0.00 0.00 0.00 0.00 0.00 0.00 0.00 0.03 0.09 0.13 0.18 0.22 0.24 0.16 0.47 1.04 0.97 1.23 1.83 1.44 1.03 1.58 1.29 0.62 0.25 0.22 0.19 0.04 0.03 0.02 0.02 0.00 0.00 0.00 0.01 0.00 0.01 0.02 0.10 0.12 0.05 0.04 0.02 0.02 0.03 0.06 0.04
0.00 0.00 0.00 0.00 0.00 0.00 0.00 0.01 0.01 0.03 0.17 0.23 0.32 0.35 0.43 0.37 0.17 0.64 0.86 0.71 0.66 1.44 1.56 1.44 2.29 1.43 0.96 0.70 0.77 0.82 0.37 0.25 0.04 0.00 0.01 0.03 0.01 0.00 0.02 0.02 0.07 0.06 0.04 0.04 0.03 0.05 0.06 0.07 0.08
0.00 0.00 0.00 0.00 0.00 0.00 0.00 0.01 0.05 0.08 0.16 0.14 0.11 0.20 0.44 0.64 0.60 0.70 0.78 0.90 0.80 1.05 0.97 1.28 2.08 1.57 1.03 1.12 1.12 1.65 1.98 1.87 1.01 0.42 0.36 0.32 0.22 0.13 0.07 0.06 0.08 0.06 0.07 0.07 0.06 0.08 0.08 0.04 0.02
0.00 0.00 0.00 0.00 0.00 0.00 0.00 0.02 0.07 0.10 0.11 0.09 0.10 0.21 0.49 0.58 0.48 0.44 0.76 1.28 1.83 2.03 1.47 1.74 2.10 1.30 0.70 1.09 1.43 1.50 2.15 3.35 4.17 4.05 2.50 1.31 0.83 0.42 0.34 0.24 0.22 0.17 0.14 0.10 0.09 0.10 0.06 0.01 0.00
0.00 0.00 0.00 0.00 0.00 0.00 0.00 0.02 0.08 0.11 0.11 0.42 0.18 0.11 0.66 0.80 0.31 0.42 1.15 2.28 3.41 4.56 4.04 3.63 3.90 5.05 2.78 2.50 1.70 1.31 1.44 2.50 4.86 5.23 3.84 2.51 1.85 1.57 1.13 0.67 0.50 0.41 0.27 0.15 0.10 0.06 0.04 0.02 0.00
0.00 0.00 0.00 0.00 0.00 0.01 0.03 0.13 0.22 0.37 0.35 0.46 0.35 0.42 0.86 0.47 0.38 0.75 1.60 3.62 5.15 6.63 8.73 9.01 7.66 8.03 7.58 4.81 2.99 1.95 1.38 1.22 1.62 2.34 1.93 1.99 2.21 1.54 1.54 1.41 0.82 0.51 0.32 0.18 0.09 0.07 0.04 0.01 0.00
0.00 0.00 0.00 0.00 0.01 0.00 0.02 0.15 0.35 0.53 0.42 0.20 0.38 0.40 0.95 0.96 0.77 0.88 1.55 2.78 5.21 5.54 7.02 10.68 9.49 7.13 5.90 6.72 5.91 3.53 2.59 1.66 1.44 1.39 1.63 1.15 1.74 1.35 1.04 1.30 1.36 0.54 0.20 0.23 0.18 0.06 0.03 0.00 0.00
0.00 0.00 0.00 0.00 0.01 0.02 0.06 0.15 0.21 0.15 0.09 0.07 0.15 0.46 1.10 0.76 0.53 0.47 0.58 0.86 2.15 2.59 3.35 3.93 4.06 3.28 2.87 3.59 4.48 4.30 2.96 2.42 2.12 1.36 1.41 1.45 1.29 1.21 1.12 1.12 1.35 1.03 0.34 0.27 0.23 0.11 0.09 0.03 0.02
0.00 0.00 0.00 0.00 0.03 0.11 0.16 0.28 0.33 0.20 0.06 0.11 0.26 0.18 0.28 0.46 0.34 0.34 0.61 0.72 1.36 2.28 1.62 1.65 1.26 0.85 0.82 1.26 2.01 2.73 2.45 2.46 2.51 2.03 1.21 1.79 1.83 0.90 1.09 1.29 1.05 0.74 0.37 0.28 0.29 0.24 0.27 0.16 0.11
0.00 0.00 0.00 0.00 0.06 0.33 0.29 0.15 0.03 0.01 0.01 0.20 0.53 0.53 0.32 0.33 0.25 0.20 0.26 0.62 1.09 0.94 0.77 0.49 0.39 0.30 0.25 0.23 0.37 0.72 1.49 2.22 2.23 2.81 1.41 1.33 2.23 1.15 1.13 1.58 0.98 0.74 0.49 0.34 0.29 0.23 0.19 0.12 0.10
0.00 0.00 0.00 0.00 0.00 0.00 0.01 0.01 0.00 0.00 0.19 0.52 0.67 0.50 0.42 0.34 0.24 0.27 0.45 0.40 0.52 0.32 0.21 0.27 0.47 0.47 0.20 0.19 0.16 0.23 0.67 1.46 1.52 2.51 2.11 0.81 1.15 1.36 1.41 1.83 1.14 0.61 0.50 0.43 0.34 0.16 0.09 0.02 0.03
0.00 0.00 0.00 0.00 0.00 0.00 0.00 0.00 0.01 0.04 0.27 0.22 0.26 0.69 0.62 0.49 0.39 0.33 0.29 0.22 0.11 0.15 0.16 0.12 0.12 0.20 0.24 0.24 0.20 0.20 0.51 0.88 0.93 1.25 2.26 1.02 0.81 0.96 1.31 1.41 1.03 0.48 0.34 0.21 0.16 0.05 0.02 0.01 0.01
0.00 0.00 0.00 0.00 0.00 0.00 0.00 0.01 0.02 0.08 0.45 0.51 0.27 0.32 0.45 0.50 0.44 0.51 0.31 0.11 0.09 0.08 0.15 0.19 0.20 0.27 0.30 0.33 0.18 0.20 0.73 0.86 0.81 0.81 1.17 1.08 0.89 0.71 1.07 0.92 1.13 0.62 0.40 0.14 0.06 0.05 0.04 0.02 0.00
0.00 0.00 0.00 0.00 0.00 0.00 0.00 0.03 0.09 0.18 0.77 0.30 0.15 0.08 0.17 0.26 0.28 0.24 0.13 0.10 0.09 0.10 0.19 0.28 0.28 0.43 0.20 0.22 0.25 0.34 0.66 0.79 0.64 0.61 0.76 0.69 0.68 0.59 0.75 0.76 0.81 0.83 0.80 0.20 0.07 0.10 0.08 0.05 0.00
0.00 0.00 0.00 0.00 0.00 0.00 0.01 0.03 0.13 0.21 0.39 0.13 0.05 0.05 0.06 0.11 0.16 0.10 0.11 0.23 0.16 0.22 0.25 0.42 0.65 0.54 0.22 0.11 0.17 0.32 0.65 0.58 0.53 0.49 0.50 0.47 0.44 0.50 0.50 0.55 0.66 0.62 1.01 0.52 0.17 0.19 0.16 0.07 0.00
0.00 0.00 0.00 0.00 0.00 0.00 0.02 0.17 0.29 0.13 0.09 0.07 0.04 0.01 0.02 0.03 0.01 0.00 0.02 0.01 0.03 0.07 0.19 0.43 0.60 0.57 0.48 0.20 0.26 0.31 0.45 0.63 0.44 0.33 0.39 0.54 0.44 0.41 0.34 0.56 0.48 0.62 0.58 0.42 0.27 0.23 0.17 0.07 0.01
0.00 0.00 0.00 0.00 0.00 0.00 0.01 0.03 0.15 0.07 0.09 0.12 0.10 0.04 0.00 0.02 0.01 0.00 0.00 0.01 0.02 0.02 0.19 0.61 0.80 0.77 0.74 0.61 0.53 0.72 0.75 0.68 0.40 0.25 0.27 0.40 0.37 0.51 0.37 0.44 0.59 0.60 0.54 0.33 0.23 0.16 0.13 0.04 0.01
0.00 0.00 0.00 0.00 0.00 0.00 0.00 0.00 0.09 0.05 0.03 0.09 0.15 0.10 0.02 0.01 0.00 0.00 0.00 0.02 0.03 0.03 0.26 0.64 0.84 1.09 1.18 1.08 0.88 0.61 0.55 0.49 0.38 0.31 0.30 0.39 0.45 0.36 0.41 0.41 0.50 0.73 0.70 0.33 0.17 0.13 0.12 0.04 0.01
0.00 0.00 0.00 0.00 0.00 0.00 0.00 0.00 0.00 0.01 0.11 0.10 0.14 0.07 0.01 0.00 0.00 0.00 0.01 0.02 0.04 0.10 0.40 0.69 0.82 1.10 1.07 0.58 0.42 0.43 0.43 0.28 0.30 0.42 0.43 0.48 0.54 0.39 0.28 0.37 0.35 0.48 0.50 0.36 0.12 0.13 0.15 0.06 0.00
0.00 0.00 0.00 0.00 0.00 0.00 0.00 0.00 0.00 0.00 0.00 0.02 0.03 0.03 0.02 0.00 0.00 0.01 0.03 0.06 0.12 0.24 0.52 0.61 0.48 0.33 0.16 0.11 0.18 0.24 0.28 0.26 0.23 0.33 0.46 0.44 0.62 0.53 0.32 0.37 0.30 0.31 0.33 0.29 0.19 0.14 0.15 0.09 0.00
0.00 0.00 0.00 0.00 0.00 0.00 0.00 0.00 0.00 0.00 0.01 0.01 0.01 0.01 0.01 0.01 0.00 0.02 0.06 0.13 0.17 0.15 0.15 0.09 0.06 0.05 0.09 0.11 0.26 0.32 0.38 0.29 0.25 0.24 0.36 0.47 0.52 0.57 0.52 0.48 0.32 0.14 0.13 0.16 0.17 0.17 0.11 0.07 0.02
0.00 0.00 0.00 0.00 0.00 0.00 0.00 0.01 0.00 0.00 0.00 0.00 0.00 0.00 0.01 0.03 0.02 0.03 0.02 0.01 0.00 0.01 0.09 0.07 0.07 0.05 0.07 0.06 0.13 0.17 0.17 0.14 0.13 0.13 0.14 0.20 0.45 0.64 0.40 0.56 0.54 0.38 0.15 0.15 0.18 0.16 0.12 0.10 0.09
0.01 0.00 0.00 0.00 0.00 0.02 0.02 0.02 0.02 0.00 0.00 0.00 0.00 0.00 0.00 0.00 0.00 0.00 0.00 0.00 0.01 0.02 0.07 0.09 0.10 0.10 0.06 0.05 0.11 0.20 0.18 0.16 0.15 0.10 0.08 0.12 0.30 0.56 0.64 0.31 0.47 0.40 0.20 0.14 0.19 0.17 0.19 0.27 0.38
0.00 0.00 0.00 0.00 0.00 0.04 0.01 0.05 0.03 0.02 0.01 0.01 0.01 0.00 0.00 0.01 0.02 0.00 0.01 0.01 0.00 0.03 0.05 0.05 0.13 0.10 0.14 0.10 0.13 0.18 0.23 0.17 0.12 0.08 0.05 0.04 0.12 0.31 0.47 0.62 0.45 0.44 0.37 0.26 0.26 0.27 0.27 0.37 0.40
0.00 0.00 0.02 0.17 0.09 0.03 0.04 0.03 0.02 0.01 0.00 0.00 0.00 0.00 0.01 0.00 0.00 0.00 0.00 0.00 0.00 0.01 0.02 0.06 0.14 0.17 0.18 0.24 0.19 0.19 0.19 0.22 0.07 0.03 0.02 0.05 0.11 0.22 0.35 0.44 0.59 0.59 0.61 0.47 0.34 0.34 0.36 0.40 0.47
0.00 0.00 0.03 0.15 0.12 0.11 0.05 0.03 0.00 0.00 0.00 0.00 0.00 0.00 0.00 0.00 0.00 0.00 0.00 0.00 0.01 0.03 0.02 0.09 0.09 0.18 0.19 0.25 0.22 0.24 0.20 0.09 0.14 0.06 0.10 0.14 0.13 0.13 0.16 0.31 0.45 0.60 0.85 0.84 0.71 0.61 0.59 0.66 0.71
0.01 0.00 0.01 0.03 0.05 0.10 0.03 0.02 0.01 0.01 0.01 0.00 0.00 0.00 0.00 0.00 0.00 0.00 0.00 0.00 0.04 0.02 0.04 0.10 0.13 0.17 0.18 0.19 0.20 0.29 0.29 0.15 0.08 0.12 0.14 0.17 0.14 0.15 0.20 0.30 0.47 0.75 1.01 1.04 1.04 1.00 0.92 0.94 0.90
0.00 0.00 0.01 0.01 0.06 0.05 0.00 0.01 0.03 0.03 0.03 0.03 0.01 0.00 0.00 0.00 0.00 0.00 0.00 0.00 0.01 0.03 0.07 0.08 0.08 0.11 0.11 0.11 0.15 0.20 0.25 0.35 0.24 0.23 0.41 0.46 0.49 0.45 0.50 0.53 0.63 0.64 0.68 0.68 0.78 0.79 0.67 0.60 0.52
0.00 0.00 0.00 0.01 0.00 0.02 0.02 0.02 0.02 0.07 0.07 0.13 0.10 0.06 0.02 0.00 0.00 0.00 0.01 0.01 0.01 0.01 0.05 0.06 0.05 0.09 0.20 0.28 0.19 0.14 0.24 0.28 0.67 1.04 1.08 0.94 0.97 1.09 0.98 0.81 0.72 0.79 0.88 0.93 0.79 0.55 0.51 0.52 0.45
0.00 0.00 0.01 0.01 0.01 0.01 0.01 0.01 0.01 0.04 0.06 0.06 0.14 0.17 0.12 0.05 0.02 0.00 0.00 0.01 0.03 0.01 0.00 0.01 0.06 0.17 0.65 0.95 1.04 0.79 0.97 1.03 1.14 1.52 1.49 1.26 1.13 0.93 0.83 0.94 0.86 0.69 0.57 0.49 0.45 0.39 0.34 0.32 0.35

GFSSGP_prec_precacc_108.txt.gz
Total_Precipitation_Accumulation
0.00 0.00 0.00 0.00 0.00 0.00 0.00 0.00 0.00 0.03 0.09 0.13 0.18 0.22 0.24 0.16 0.47 1.04 0.97 1.23 1.83 1.44 1.03 1.58 1.30 0.62 0.25 0.22 0.19 0.04 0.03 0.02 0.02 0.00 0.00 0.00 0.01 0.00 0.01 0.02 0.10 0.12 0.05 0.05 0.02 0.02 0.04 0.06 0.05
0.00 0.00 0.00 0.00 0.00 0.00 0.00 0.01 0.01 0.03 0.17 0.23 0.32 0.35 0.43 0.37 0.17 0.64 0.86 0.71 0.66 1.44 1.56 1.44 2.29 1.43 0.96 0.70 0.77 0.82 0.37 0.25 0.04 0.00 0.01 0.03 0.01 0.00 0.02 0.02 0.08 0.06 0.05 0.04 0.03 0.05 0.06 0.08 0.08
0.00 0.00 0.00 0.00 0.00 0.00 0.00 0.01 0.05 0.08 0.16 0.14 0.11 0.20 0.44 0.64 0.60 0.70 0.78 0.90 0.80 1.05 0.97 1.28 2.08 1.57 1.03 1.12 1.12 1.65 1.98 1.87 1.01 0.42 0.36 0.32 0.22 0.14 0.08 0.08 0.10 0.10 0.13 0.11 0.08 0.11 0.09 0.04 0.02
0.00 0.00 0.00 0.00 0.00 0.00 0.00 0.02 0.07 0.10 0.11 0.09 0.10 0.21 0.49 0.58 0.48 0.44 0.76 1.28 1.83 2.03 1.47 1.74 2.10 1.30 0.70 1.09 1.43 1.50 2.15 3.35 4.17 4.05 2.50 1.31 0.84 0.42 0.37 0.29 0.25 0.25 0.25 0.21 0.15 0.14 0.08 0.01 0.00
0.00 0.00 0.00 0.00 0.00 0.00 0.00 0.02 0.08 0.11 0.11 0.42 0.18 0.11 0.66 0.80 0.31 0.42 1.15 2.28 3.41 4.56 4.04 3.63 3.90 5.05 2.78 2.51 1.70 1.31 1.44 2.50 4.86 5.24 3.84 2.51 1.86 1.63 1.14 0.68 0.50 0.45 0.32 0.20 0.14 0.06 0.05 0.02 0.00
0.00 0.00 0.00 0.00 0.00 0.01 0.03 0.13 0.22 0.37 0.35 0.46 0.35 0.42 0.86 0.47 0.38 0.75 1.60 3.62 5.15 6.63 8.73 9.01 7.66 8.03 7.58 4.81 2.99 1.95 1.38 1.22 1.62 2.34 1.93 1.99 2.23 1.65 1.60 1.43 0.83 0.51 0.34 0.28 0.19 0.07 0.05 0.01 0.00
0.00 0.00 0.00 0.00 0.01 0.00 0.02 0.15 0.35 0.53 0.42 0.20 0.38 0.40 0.95 0.96 0.77 0.88 1.55 2.78 5.21 5.54 7.02 10.68 9.49 7.14 5.90 6.72 5.91 3.53 2.59 1.66 1.44 1.39 1.64 1.22 1.86 1.45 1.11 1.30 1.36 0.55 0.23 0.36 0.32 0.17 0.22 0.01 0.00
0.00 0.00 0.00 0.00 0.01 0.02 0.06 0.15 0.21 0.15 0.09 0.07 0.15 0.46 1.10 0.76 0.53 0.47 0.58 0.86 2.15 2.59 3.35 3.93 4.06 3.28 2.87 3.59 4.48 4.30 2.96 2.42 2.12 1.36 1.42 1.50 1.37 1.27 1.15 1.14 1.37 1.10 0.39 0.33 0.34 0.33 0.28 0.23 0.06
0.00 0.00 0.00 0.00 0.03 0.11 0.16 0.28 0.33 0.20 0.06 0.11 0.26 0.18 0.28 0.46 0.34 0.34 0.61 0.72 1.36 2.28 1.62 1.65 1.26 0.85 0.83 1.26 2.01 2.73 2.46 2.46 2.51 2.03 1.21 1.86 1.93 0.97 1.14 1.34 1.09 0.78 0.42 0.31 0.35 0.32 0.45 0.41 0.32
0.00 0.00 0.00 0.00 0.06 0.33 0.29 0.15 0.03 0.01 0.01 0.20 0.53 0.53 0.32 0.33 0.25 0.20 0.26 0.62 1.09 0.94 0.77 0.49 0.39 0.30 0.25 0.24 0.37 0.73 1.50 2.22 2.24 2.82 1.42 1.35 2.27 1.18 1.15 1.59 0.99 0.76 0.52 0.40 0.37 0.38 0.36 0.32 0.32
0.00 0.00 0.00 0.00 0.00 0.00 0.01 0.01 0.00 0.00 0.19 0.52 0.67 0.50 0.42 0.34 0.24 0.27 0.45 0.40 0.52 0.32 0.21 0.27 0.47 0.47 0.20 0.19 0.16 0.24 0.67 1.47 1.53 2.51 2.12 0.84 1.19 1.39 1.44 1.85 1.14 0.62 0.51 0.47 0.43 0.22 0.18 0.13 0.19
0.00 0.00 0.00 0.00 0.00 0.00 0.00 0.00 0.01 0.04 0.27 0.22 0.26 0.69 0.62 0.49 0.39 0.33 0.29 0.22 0.11 0.15 0.16 0.12 0.12 0.20 0.24 0.24 0.20 0.21 0.51 0.89 0.93 1.25 2.27 1.03 0.82 0.97 1.32 1.42 1.04 0.49 0.37 0.26 0.21 0.09 0.06 0.05 0.10
0.00 0.00 0.00 0.00 0.00 0.00 0.00 0.01 0.02 0.08 0.45 0.51 0.27 0.32 0.45 0.50 0.44 0.51 0.31 0.11 0.09 0.08 0.15 0.19 0.20 0.27 0.30 0.33 0.18 0.20 0.73 0.86 0.81 0.82 1.18 1.09 0.89 0.72 1.08 0.92 1.14 0.64 0.42 0.21 0.16 0.11 0.08 0.04 0.02
0.00 0.00 0.00 0.00 0.00 0.00 0.00 0.03 0.09 0.18 0.77 0.30 0.15 0.08 0.17 0.26 0.28 0.24 0.13 0.10 0.09 0.10 0.19 0.28 0.28 0.43 0.20 0.22 0.25 0.35 0.66 0.80 0.64 0.61 0.77 0.70 0.69 0.62 0.78 0.78 0.82 0.86 0.81 0.25 0.14 0.14 0.12 0.08 0.03
0.00 0.00 0.00 0.00 0.00 0.00 0.01 0.03 0.13 0.21 0.39 0.13 0.05 0.05 0.06 0.11 0.16 0.10 0.11 0.23 0.16 0.22 0.25 0.42 0.65 0.54 0.22 0.11 0.17 0.32 0.65 0.58 0.53 0.50 0.50 0.47 0.45 0.52 0.55 0.59 0.69 0.62 1.02 0.55 0.26 0.27 0.26 0.18 0.06
0.00 0.00 0.00 0.00 0.00 0.00 0.02 0.17 0.29 0.13 0.09 0.07 0.04 0.01 0.02 0.03 0.01 0.00 0.02 0.01 0.03 0.07 0.19 0.43 0.60 0.57 0.48 0.20 0.26 0.31 0.45 0.63 0.44 0.33 0.39 0.54 0.44 0.41 0.35 0.59 0.50 0.62 0.59 0.43 0.33 0.40 0.34 0.30 0.14
0.00 0.00 0.00 0.00 0.00 0.00 0.01 0.03 0.15 0.07 0.09 0.12 0.10 0.04 0.00 0.02 0.01 0.00 0.00 0.01 0.02 0.02 0.19 0.61 0.80 0.77 0.74 0.61 0.53 0.72 0.75 0.68 0.40 0.25 0.27 0.40 0.37 0.51 0.37 0.45 0.60 0.61 0.55 0.37 0.38 0.36 0.42 0.25 0.15
0.00 0.00 0.00 0.00 0.00 0.00 0.00 0.00 0.09 0.05 0.03 0.09 0.15 0.10 0.02 0.01 0.00 0.00 0.00 0.02 0.03 0.03 0.26 0.64 0.84 1.09 1.18 1.08 0.88 0.61 0.55 0.49 0.38 0.31 0.30 0.39 0.45 0.36 0.41 0.42 0.52 0.77 0.82 0.45 0.37 0.43 0.41 0.29 0.14
0.00 0.00 0.00 0.00 0.00 0.00 0.00 0.00 0.00 0.01 0.11 0.10 0.14 0.07 0.01 0.00 0.00 0.00 0.01 0.02 0.04 0.10 0.40 0.69 0.82 1.10 1.07 0.58 0.42 0.44 0.43 0.28 0.30 0.42 0.44 0.48 0.55 0.40 0.29 0.38 0.38 0.58 0.62 0.45 0.20 0.32 0.45 0.28 0.12
0.02 0.02 0.00 0.00 0.00 0.00 0.00 0.00 0.00 0.00 0.00 0.02 0.03 0.03 0.02 0.00 0.00 0.01 0.03 0.06 0.12 0.24 0.52 0.61 0.48 0.33 0.16 0.11 0.18 0.24 0.28 0.26 0.23 0.33 0.46 0.44 0.62 0.54 0.33 0.39 0.34 0.42 0.47 0.43 0.26 0.23 0.32 0.21 0.04
0.01 0.01 0.00 0.00 0.00 0.00 0.00 0.00 0.00 0.00 0.01 0.01 0.01 0.01 0.01 0.01 0.00 0.02 0.06 0.13 0.17 0.15 0.15 0.09 0.06 0.05 0.09 0.11 0.26 0.32 0.38 0.29 0.25 0.25 0.36 0.48 0.53 0.57 0.53 0.49 0.35 0.23 0.21 0.23 0.30 0.29 0.22 0.15 0.05
0.00 0.00 0.00 0.00 0.01 0.00 0.00 0.01 0.00 0.00 0.00 0.00 0.00 0.00 0.01 0.03 0.02 0.03 0.02 0.01 0.00 0.01 0.09 0.07 0.07 0.05 0.07 0.06 0.13 0.17 0.17 0.14 0.13 0.13 0.14 0.21 0.46 0.65 0.41 0.57 0.55 0.45 0.23 0.21 0.29 0.36 0.31 0.22 0.17
0.02 0.00 0.00 0.00 0.00 0.02 0.02 0.02 0.02 0.00 0.00 0.00 0.00 0.00 0.00 0.00 0.00 0.00 0.00 0.00 0.01 0.02 0.07 0.09 0.10 0.10 0.06 0.05 0.11 0.20 0.18 0.16 0.15 0.10 0.08 0.12 0.31 0.58 0.65 0.32 0.48 0.46 0.24 0.16 0.25 0.32 0.37 0.43 0.49
0.00 0.00 0.00 0.00 0.00 0.04 0.01 0.05 0.03 0.02 0.01 0.01 0.01 0.00 0.00 0.01 0.02 0.00 0.01 0.01 0.00 0.03 0.05 0.05 0.13 0.10 0.14 0.10 0.13 0.18 0.23 0.17 0.12 0.08 0.05 0.05 0.13 0.32 0.48 0.64 0.48 0.48 0.39 0.28 0.28 0.34 0.38 0.50 0.49
0.00 0.00 0.02 0.17 0.09 0.03 0.04 0.03 0.02 0.01 0.00 0.00 0.00 0.00 0.01 0.00 0.00 0.00 0.00 0.00 0.00 0.01 0.02 0.06 0.14 0.17 0.19 0.25 0.19 0.19 0.19 0.22 0.07 0.03 0.02 0.05 0.11 0.22 0.37 0.44 0.61 0.62 0.62 0.47 0.34 0.36 0.44 0.47 0.53
0.00 0.00 0.03 0.15 0.12 0.11 0.05 0.03 0.00 0.00 0.00 0.00 0.00 0.00 0.00 0.00 0.00 0.00 0.00 0.00 0.01 0.03 0.02 0.09 0.09 0.18 0.20 0.25 0.23 0.24 0.20 0.09 0.14 0.06 0.10 0.14 0.13 0.13 0.16 0.31 0.45 0.61 0.86 0.87 0.74 0.64 0.62 0.70 0.75
0.01 0.00 0.01 0.03 0.05 0.10 0.03 0.02 0.01 0.01 0.01 0.00 0.00 0.00 0.00 0.00 0.00 0.00 0.00 0.00 0.04 0.02 0.04 0.10 0.13 0.17 0.18 0.19 0.20 0.29 0.29 0.15 0.08 0.12 0.14 0.17 0.14 0.15 0.21 0.31 0.48 0.75 1.02 1.07 1.08 1.04 0.94 0.96 0.92
0.00 0.00 0.01 0.01 0.06 0.05 0.00 0.01 0.03 0.03 0.03 0.03 0.01 0.00 0.00 0.00 0.00 0.00 0.00 0.00 0.01 0.03 0.07 0.08 0.08 0.11 0.11 0.11 0.15 0.20 0.25 0.35 0.24 0.23 0.41 0.46 0.49 0.45 0.51 0.54 0.63 0.64 0.70 0.69 0.81 0.85 0.74 0.66 0.57
0.00 0.00 0.00 0.01 0.00 0.02 0.02 0.02 0.02 0.07 0.07 0.13 0.10 0.06 0.02 0.00 0.00 0.00 0.01 0.01 0.01 0.01 0.05 0.06 0.05 0.09 0.20 0.28 0.20 0.14 0.24 0.28 0.67 1.04 1.08 0.94 0.97 1.09 0.99 0.82 0.73 0.79 0.89 0.95 0.82 0.60 0.57 0.56 0.48
0.00 0.00 0.01 0.01 0.01 0.01 0.01 0.01 0.01 0.04 0.06 0.06 0.14 0.17 0.12 0.05 0.02 0.00 0.00 0.01 0.03 0.01 0.01 0.02 0.06 0.18 0.66 0.95 1.04 0.79 0.97 1.03 1.14 1.52 1.49 1.26 1.13 0.93 0.84 0.94 0.86 0.69 0.58 0.52 0.49 0.44 0.43 0.37 0.37

GFSSGP_prec_precacc_111.txt.gz
Total_Precipitation_Accumulation
0.00 0.00 0.00 0.00 0.00 0.00 0.00 0.00 0.00 0.03 0.09 0.13 0.18 0.22 0.24 0.16 0.47 1.04 0.97 1.23 1.83 1.44 1.03 1.58 1.30 0.62 0.25 0.22 0.19 0.04 0.03 0.02 0.02 0.00 0.00 0.00 0.01 0.00 0.01 0.02 0.10 0.12 0.06 0.05 0.02 0.03 0.04 0.06 0.06
0.00 0.00 0.00 0.00 0.00 0.00 0.00 0.01 0.01 0.03 0.17 0.23 0.32 0.35 0.43 0.37 0.17 0.64 0.86 0.71 0.66 1.44 1.56 1.44 2.29 1.43 0.96 0.70 0.77 0.82 0.37 0.25 0.04 0.00 0.01 0.03 0.01 0.00 0.02 0.02 0.08 0.07 0.05 0.04 0.04 0.06 0.08 0.09 0.09
0.00 0.00 0.00 0.00 0.00 0.00 0.00 0.01 0.05 0.08 0.16 0.14 0.11 0.20 0.44 0.64 0.60 0.70 0.78 0.90 0.80 1.05 0.97 1.28 2.08 1.57 1.03 1.12 1.12 1.65 1.98 1.87 1.01 0.42 0.36 0.32 0.22 0.14 0.08 0.08 0.10 0.10 0.15 0.13 0.08 0.12 0.11 0.04 0.03
0.00 0.00 0.00 0.00 0.00 0.00 0.00 0.02 0.07 0.10 0.11 0.09 0.10 0.21 0.49 0.58 0.48 0.44 0.76 1.28 1.83 2.03 1.47 1.74 2.10 1.30 0.70 1.09 1.43 1.50 2.15 3.35 4.17 4.05 2.50 1.31 0.84 0.42 0.39 0.29 0.25 0.26 0.26 0.27 0.24 0.22 0.16 0.02 0.00
0.00 0.00 0.00 0.00 0.00 0.00 0.00 0.02 0.08 0.11 0.11 0.42 0.18 0.11 0.66 0.80 0.31 0.42 1.15 2.28 3.41 4.56 4.04 3.63 3.90 5.05 2.78 2.51 1.70 1.31 1.44 2.50 4.86 5.24 3.84 2.51 1.86 1.64 1.16 0.68 0.50 0.45 0.34 0.25 0.23 0.18 0.17 0.02 0.00
0.00 0.00 0.00 0.00 0.00 0.01 0.03 0.13 0.22 0.37 0.35 0.46 0.35 0.42 0.86 0.47 0.38 0.75 1.60 3.62 5.15 6.63 8.73 9.01 7.66 8.03 7.58 4.81 2.99 1.95 1.38 1.22 1.62 2.34 1.93 1.99 2.23 1.65 1.60 1.44 0.87 0.56 0.36 0.31 0.22 0.09 0.06 0.03 0.00
0.00 0.00 0.00 0.00 0.01 0.00 0.02 0.15 0.35 0.53 0.42 0.20 0.38 0.40 0.95 0.96 0.77 0.88 1.55 2.78 5.21 5.54 7.02 10.68 9.49 7.14 5.90 6.72 5.91 3.53 2.59 1.66 1.44 1.39 1.69 1.30 1.98 1.51 1.12 1.33 1.42 0.59 0.25 0.37 0.33 0.23 0.40 0.14 0.12
0.00 0.00 0.00 0.00 0.01 0.02 0.06 0.15 0.21 0.15 0.09 0.07 0.15 0.46 1.10 0.76 0.53 0.47 0.58 0.86 2.15 2.59 3.35 3.93 4.06 3.28 2.87 3.59 4.48 4.30 2.96 2.42 2.12 1.36 1.45 1.58 1.49 1.32 1.22 1.20 1.41 1.12 0.41 0.36 0.37 0.50 0.42 0.43 0.27
0.00 0.00 0.00 0.00 0.03 0.11 0.16 0.28 0.33 0.20 0.06 0.11 0.26 0.18 0.28 0.46 0.34 0.34 0.61 0.72 1.36 2.28 1.62 1.65 1.26 0.85 0.83 1.26 2.01 2.73 2.46 2.46 2.51 2.03 1.22 1.93 2.03 1.05 1.20 1.44 1.17 0.80 0.44 0.38 0.39 0.40 0.55 0.54 0.58
0.00 0.00 0.00 0.00 0.06 0.33 0.29 0.15 0.03 0.01 0.01 0.20 0.53 0.53 0.32 0.33 0.25 0.20 0.26 0.62 1.09 0.94 0.77 0.49 0.39 0.30 0.25 0.24 0.37 0.73 1.50 2.23 2.24 2.82 1.43 1.37 2.28 1.22 1.18 1.61 1.01 0.79 0.56 0.46 0.42 0.40 0.41 0.41 0.39
0.00 0.00 0.00 0.00 0.00 0.00 0.01 0.01 0.00 0.00 0.19 0.52 0.67 0.50 0.42 0.34 0.24 0.27 0.45 0.40 0.52 0.32 0.21 0.27 0.47 0.47 0.20 0.19 0.16 0.24 0.68 1.48 1.54 2.52 2.13 0.85 1.24 1.45 1.52 1.94 1.20 0.70 0.54 0.48 0.46 0.23 0.19 0.14 0.20
0.00 0.00 0.00 0.00 0.00 0.00 0.00 0.00 0.01 0.04 0.27 0.22 0.26 0.69 0.62 0.49 0.39 0.33 0.29 0.22 0.11 0.15 0.16 0.12 0.12 0.20 0.24 0.24 0.20 0.21 0.52 0.89 0.94 1.26 2.28 1.06 0.89 1.03 1.38 1.47 1.09 0.52 0.38 0.28 0.27 0.13 0.08 0.06 0.12
0.00 0.00 0.00 0.00 0.00 0.00 0.00 0.01 0.02 0.08 0.45 0.51 0.27 0.32 0.45 0.50 0.44 0.51 0.31 0.11 0.09 0.08 0.15 0.19 0.20 0.27 0.30 0.33 0.18 0.20 0.73 0.86 0.82 0.82 1.19 1.10 0.91 0.75 1.12 0.95 1.17 0.65 0.44 0.27 0.24 0.17 0.11 0.06 0.05
0.00 0.00 0.00 0.00 0.00 0.00 0.00 0.03 0.09 0.18 0.77 0.30 0.15 0.08 0.17 0.26 0.28 0.24 0.13 0.10 0.09 0.10 0.19 0.28 0.28 0.43 0.20 0.22 0.25 0.35 0.66 0.80 0.65 0.62 0.77 0.71 0.71 0.66 0.85 0.83 0.86 0.91 0.87 0.33 0.25 0.22 0.13 0.10 0.08
0.00 0.00 0.00 0.00 0.00 0.00 0.01 0.03 0.13 0.21 0.39 0.13 0.05 0.05 0.06 0.11 0.16 0.10 0.11 0.23 0.16 0.22 0.25 0.42 0.65 0.54 0.22 0.11 0.17 0.32 0.65 0.58 0.53 0.50 0.51 0.48 0.45 0.53 0.58 0.66 0.75 0.67 1.06 0.61 0.36 0.37 0.34 0.24 0.15
0.00 0.00 0.00 0.00 0.00 0.00 0.02 0.17 0.29 0.13 0.09 0.07 0.04 0.01 0.02 0.03 0.01 0.00 0.02 0.01 0.03 0.07 0.19 0.43 0.60 0.57 0.48 0.20 0.26 0.31 0.45 0.63 0.44 0.33 0.39 0.54 0.44 0.41 0.37 0.62 0.56 0.70 0.65 0.48 0.37 0.44 0.42 0.42 0.21
0.00 0.00 0.00 0.00 0.00 0.00 0.01 0.03 0.15 0.07 0.09 0.12 0.10 0.04 0.00 0.02 0.01 0.00 0.00 0.01 0.02 0.02 0.19 0.61 0.80 0.77 0.74 0.61 0.53 0.72 0.75 0.68 0.40 0.25 0.28 0.40 0.37 0.51 0.38 0.46 0.62 0.63 0.59 0.40 0.40 0.38 0.47 0.42 0.36
0.00 0.00 0.00 0.00 0.00 0.00 0.00 0.00 0.09 0.05 0.03 0.09 0.15 0.10 0.02 0.01 0.00 0.00 0.00 0.02 0.03 0.03 0.26 0.64 0.84 1.09 1.18 1.08 0.88 0.61 0.55 0.49 0.38 0.31 0.30 0.39 0.45 0.36 0.42 0.43 0.53 0.78 0.83 0.46 0.43 0.53 0.57 0.49 0.38
0.00 0.00 0.00 0.00 0.00 0.00 0.00 0.00 0.00 0.01 0.11 0.10 0.14 0.07 0.01 0.00 0.00 0.00 0.01 0.02 0.04 0.10 0.40 0.69 0.82 1.10 1.07 0.58 0.42 0.44 0.43 0.28 0.30 0.42 0.44 0.48 0.55 0.40 0.29 0.39 0.39 0.58 0.62 0.47 0.30 0.46 0.59 0.60 0.47
0.02 0.02 0.00 0.00 0.00 0.00 0.00 0.00 0.00 0.00 0.00 0.02 0.03 0.03 0.02 0.00 0.00 0.01 0.03 0.06 0.12 0.24 0.52 0.61 0.48 0.33 0.16 0.11 0.18 0.24 0.28 0.26 0.23 0.33 0.47 0.44 0.62 0.54 0.33 0.40 0.34 0.42 0.47 0.49 0.36 0.32 0.42 0.44 0.37
0.01 0.01 0.00 0.00 0.00 0.00 0.00 0.00 0.00 0.00 0.01 0.01 0.01 0.01 0.01 0.01 0.00 0.02 0.06 0.13 0.17 0.15 0.15 0.09 0.06 0.05 0.09 0.11 0.26 0.32 0.38 0.30 0.26 0.25 0.36 0.48 0.53 0.58 0.53 0.50 0.36 0.24 0.22 0.27 0.37 0.36 0.26 0.23 0.23
0.00 0.00 0.00 0.01 0.02 0.01 0.00 0.01 0.00 0.00 0.00 0.00 0.00 0.00 0.01 0.03 0.02 0.03 0.02 0.01 0.00 0.01 0.09 0.07 0.07 0.05 0.07 0.06 0.13 0.17 0.17 0.14 0.13 0.14 0.15 0.21 0.46 0.65 0.41 0.57 0.56 0.46 0.27 0.24 0.32 0.43 0.37 0.28 0.28
0.02 0.00 0.01 0.00 0.00 0.02 0.02 0.02 0.02 0.00 0.00 0.00 0.00 0.00 0.00 0.00 0.00 0.00 0.00 0.00 0.01 0.02 0.07 0.09 0.10 0.10 0.06 0.05 0.11 0.20 0.18 0.16 0.15 0.10 0.08 0.13 0.31 0.58 0.65 0.32 0.49 0.46 0.26 0.18 0.28 0.38 0.50 0.55 0.61
0.00 0.00 0.00 0.00 0.00 0.04 0.01 0.05 0.03 0.02 0.01 0.01 0.01 0.00 0.00 0.01 0.02 0.00 0.01 0.01 0.00 0.03 0.05 0.05 0.13 0.10 0.14 0.10 0.13 0.18 0.23 0.17 0.12 0.08 0.05 0.05 0.13 0.33 0.49 0.64 0.49 0.48 0.40 0.29 0.29 0.36 0.41 0.60 0.64
0.00 0.00 0.02 0.17 0.10 0.03 0.04 0.03 0.02 0.01 0.00 0.00 0.00 0.00 0.01 0.00 0.00 0.00 0.00 0.00 0.00 0.01 0.02 0.06 0.14 0.17 0.19 0.25 0.19 0.19 0.20 0.23 0.07 0.03 0.02 0.05 0.12 0.23 0.38 0.44 0.61 0.62 0.62 0.48 0.34 0.37 0.45 0.53 0.64
0.00 0.00 0.04 0.16 0.12 0.11 0.05 0.03 0.00 0.00 0.00 0.00 0.00 0.00 0.00 0.00 0.00 0.00 0.00 0.00 0.01 0.03 0.02 0.09 0.09 0.18 0.20 0.25 0.23 0.24 0.20 0.09 0.14 0.06 0.10 0.14 0.13 0.13 0.16 0.32 0.45 0.61 0.86 0.87 0.75 0.65 0.63 0.73 0.81
0.01 0.00 0.01 0.03 0.06 0.10 0.04 0.02 0.01 0.01 0.01 0.00 0.00 0.00 0.00 0.00 0.00 0.00 0.00 0.00 0.04 0.02 0.04 0.10 0.13 0.17 0.18 0.19 0.21 0.29 0.29 0.15 0.08 0.12 0.14 0.17 0.14 0.15 0.21 0.31 0.48 0.75 1.03 1.07 1.08 1.04 0.96 0.98 0.94
0.00 0.00 0.01 0.01 0.06 0.05 0.00 0.01 0.03 0.03 0.03 0.03 0.01 0.00 0.00 0.00 0.00 0.00 0.00 0.00 0.01 0.03 0.07 0.08 0.08 0.11 0.11 0.11 0.16 0.20 0.25 0.35 0.24 0.23 0.41 0.46 0.49 0.45 0.51 0.55 0.63 0.64 0.70 0.71 0.83 0.86 0.75 0.69 0.64
0.00 0.00 0.00 0.01 0.00 0.02 0.02 0.02 0.02 0.07 0.07 0.13 0.10 0.06 0.02 0.00 0.00 0.00 0.01 0.01 0.01 0.01 0.05 0.06 0.05 0.09 0.20 0.28 0.20 0.15 0.24 0.28 0.67 1.04 1.08 0.94 0.97 1.09 0.99 0.83 0.73 0.79 0.90 0.97 0.85 0.62 0.60 0.64 0.65
0.00 0.00 0.01 0.01 0.01 0.01 0.01 0.01 0.01 0.04 0.06 0.06 0.14 0.17 0.12 0.05 0.02 0.00 0.00 0.01 0.03 0.01 0.01 0.02 0.06 0.18 0.66 0.96 1.05 0.79 0.97 1.04 1.14 1.52 1.49 1.26 1.13 0.93 0.84 0.95 0.87 0.69 0.59 0.52 0.50 0.47 0.47 0.42 0.48

GFSSGP_prec_precacc_114.txt.gz
Total_Precipitation_Accumulation
0.00 0.00 0.00 0.00 0.00 0.00 0.00 0.00 0.00 0.03 0.09 0.13 0.18 0.22 0.24 0.16 0.47 1.04 0.97 1.23 1.83 1.44 1.03 1.58 1.30 0.62 0.25 0.22 0.19 0.04 0.03 0.02 0.02 0.00 0.00 0.00 0.01 0.00 0.01 0.02 0.10 0.13 0.07 0.05 0.03 0.03 0.04 0.07 0.07
0.00 0.00 0.00 0.00 0.00 0.00 0.00 0.01 0.01 0.03 0.17 0.23 0.32 0.35 0.43 0.37 0.17 0.64 0.86 0.71 0.66 1.44 1.56 1.44 2.29 1.43 0.96 0.70 0.77 0.82 0.37 0.25 0.04 0.00 0.01 0.03 0.01 0.00 0.02 0.02 0.08 0.07 0.06 0.04 0.04 0.07 0.09 0.10 0.09
0.00 0.00 0.00 0.00 0.00 0.00 0.00 0.01 0.05 0.08 0.16 0.14 0.11 0.20 0.44 0.64 0.60 0.70 0.78 0.90 0.80 1.05 0.97 1.28 2.08 1.57 1.03 1.12 1.12 1.65 1.98 1.87 1.01 0.42 0.36 0.32 0.22 0.14 0.08 0.08 0.10 0.10 0.15 0.13 0.08 0.15 0.16 0.06 0.03
0.00 0.00 0.00 0.00 0.00 0.00 0.00 0.02 0.07 0.10 0.11 0.09 0.10 0.21 0.49 0.58 0.48 0.44 0.76 1.28 1.83 2.03 1.47 1.74 2.10 1.30 0.70 1.09 1.43 1.50 2.15 3.35 4.17 4.05 2.50 1.31 0.84 0.43 0.39 0.29 0.25 0.26 0.29 0.35 0.31 0.41 0.36 0.03 0.00
0.00 0.00 0.00 0.00 0.00 0.00 0.00 0.02 0.08 0.11 0.11 0.42 0.18 0.11 0.66 0.80 0.31 0.42 1.15 2.28 3.41 4.56 4.04 3.63 3.90 5.05 2.78 2.51 1.70 1.31 1.44 2.50 4.86 5.24 3.84 2.51 1.87 1.67 1.16 0.68 0.50 0.50 0.43 0.34 0.33 0.21 0.18 0.02 0.00
0.00 0.00 0.00 0.00 0.00 0.01 0.03 0.13 0.22 0.37 0.35 0.46 0.35 0.42 0.86 0.47 0.38 0.75 1.60 3.62 5.15 6.63 8.73 9.01 7.66 8.03 7.58 4.81 2.99 1.95 1.38 1.22 1.62 2.34 1.93 1.99 2.27 1.74 1.62 1.44 0.88 0.58 0.38 0.33 0.26 0.10 0.07 0.05 0.01
0.00 0.00 0.00 0.00 0.01 0.00 0.02 0.15 0.35 0.53 0.42 0.20 0.38 0.40 0.95 0.96 0.77 0.88 1.55 2.78 5.21 5.54 7.02 10.68 9.49 7.14 5.90 6.72 5.91 3.53 2.59 1.66 1.44 1.39 1.70 1.31 2.08 1.61 1.22 1.38 1.55 0.71 0.30 0.49 0.42 0.30 0.54 0.21 0.20
0.00 0.00 0.00 0.00 0.01 0.02 0.06 0.15 0.21 0.15 0.09 0.07 0.15 0.46 1.10 0.76 0.53 0.47 0.58 0.86 2.15 2.59 3.35 3.93 4.06 3.28 2.87 3.59 4.48 4.30 2.96 2.42 2.12 1.36 1.46 1.58 1.52 1.35 1.28 1.31 1.49 1.19 0.48 0.41 0.39 0.59 0.48 0.56 0.35
0.00 0.00 0.00 0.00 0.03 0.11 0.16 0.28 0.33 0.20 0.06 0.11 0.26 0.18 0.28 0.46 0.34 0.34 0.61 0.72 1.36 2.28 1.62 1.65 1.26 0.85 0.83 1.26 2.01 2.73 2.46 2.46 2.51 2.03 1.22 1.94 2.05 1.06 1.21 1.48 1.20 0.83 0.47 0.43 0.46 0.44 0.56 0.56 0.60
0.00 0.00 0.00 0.00 0.06 0.33 0.29 0.15 0.03 0.01 0.01 0.20 0.53 0.53 0.32 0.33 0.25 0.20 0.26 0.62 1.09 0.94 0.77 0.49 0.39 0.30 0.25 0.24 0.37 0.73 1.50 2.23 2.24 2.82 1.43 1.37 2.29 1.23 1.19 1.62 1.01 0.80 0.57 0.47 0.46 0.40 0.44 0.47 0.41
0.00 0.00 0.00 0.00 0.00 0.00 0.01 0.01 0.00 0.00 0.19 0.52 0.67 0.50 0.42 0.34 0.24 0.27 0.45 0.40 0.52 0.32 0.21 0.27 0.47 0.47 0.20 0.19 0.16 0.24 0.68 1.48 1.54 2.52 2.13 0.86 1.24 1.47 1.54 1.98 1.23 0.75 0.56 0.48 0.46 0.23 0.19 0.15 0.20
0.00 0.00 0.00 0.00 0.00 0.00 0.00 0.00 0.01 0.04 0.27 0.22 0.26 0.69 0.62 0.49 0.39 0.33 0.29 0.22 0.11 0.15 0.16 0.12 0.12 0.20 0.24 0.24 0.20 0.21 0.52 0.89 0.94 1.26 2.29 1.07 0.90 1.05 1.39 1.48 1.10 0.54 0.40 0.29 0.29 0.13 0.08 0.06 0.13
0.00 0.00 0.00 0.00 0.00 0.00 0.00 0.01 0.02 0.08 0.45 0.51 0.27 0.32 0.45 0.50 0.44 0.51 0.31 0.11 0.09 0.08 0.15 0.19 0.20 0.27 0.30 0.33 0.18 0.20 0.73 0.86 0.82 0.82 1.19 1.10 0.91 0.75 1.13 0.96 1.18 0.66 0.45 0.28 0.27 0.19 0.13 0.07 0.07
0.00 0.00 0.00 0.00 0.00 0.00 0.00 0.03 0.09 0.18 0.77 0.30 0.15 0.08 0.17 0.26 0.28 0.24 0.13 0.10 0.09 0.10 0.19 0.28 0.28 0.43 0.20 0.22 0.25 0.35 0.66 0.80 0.65 0.62 0.77 0.71 0.71 0.67 0.86 0.84 0.87 0.93 0.92 0.38 0.28 0.25 0.15 0.12 0.09
0.00 0.00 0.00 0.00 0.00 0.00 0.01 0.03 0.13 0.21 0.39 0.13 0.05 0.05 0.06 0.11 0.16 0.10 0.11 0.23 0.16 0.22 0.25 0.42 0.65 0.54 0.22 0.11 0.17 0.32 0.65 0.58 0.53 0.50 0.51 0.48 0.46 0.53 0.58 0.66 0.77 0.71 1.13 0.66 0.41 0.44 0.42 0.30 0.15
0.00 0.00 0.00 0.00 0.00 0.00 0.02 0.17 0.29 0.13 0.09 0.07 0.04 0.01 0.02 0.03 0.01 0.00 0.02 0.01 0.03 0.07 0.19 0.43 0.60 0.57 0.48 0.20 0.26 0.31 0.45 0.63 0.44 0.33 0.39 0.54 0.44 0.42 0.37 0.63 0.57 0.72 0.71 0.53 0.43 0.49 0.46 0.46 0.22
0.00 0.00 0.00 0.00 0.00 0.00 0.01 0.03 0.15 0.07 0.09 0.12 0.10 0.04 0.00 0.02 0.01 0.00 0.00 0.01 0.02 0.02 0.19 0.61 0.80 0.77 0.74 0.61 0.53 0.72 0.75 0.68 0.40 0.25 0.28 0.40 0.37 0.52 0.38 0.46 0.62 0.64 0.61 0.43 0.44 0.41 0.51 0.46 0.38
0.00 0.00 0.00 0.00 0.00 0.00 0.00 0.00 0.09 0.05 0.03 0.09 0.15 0.10 0.02 0.01 0.00 0.00 0.00 0.02 0.03 0.03 0.26 0.64 0.84 1.09 1.18 1.08 0.88 0.61 0.55 0.49 0.38 0.31 0.30 0.40 0.45 0.36 0.42 0.43 0.54 0.78 0.84 0.47 0.43 0.54 0.58 0.54 0.49
0.00 0.00 0.00 0.00 0.00 0.00 0.00 0.00 0.00 0.01 0.11 0.10 0.14 0.07 0.01 0.00 0.00 0.00 0.01 0.02 0.04 0.10 0.40 0.69 0.82 1.10 1.07 0.58 0.42 0.44 0.43 0.28 0.30 0.42 0.44 0.48 0.55 0.40 0.30 0.39 0.39 0.59 0.62 0.47 0.31 0.46 0.62 0.63 0.52
0.02 0.02 0.00 0.00 0.00 0.00 0.00 0.00 0.00 0.00 0.00 0.02 0.03 0.03 0.02 0.00 0.00 0.01 0.03 0.06 0.12 0.24 0.52 0.61 0.48 0.33 0.16 0.11 0.18 0.24 0.28 0.26 0.23 0.34 0.47 0.44 0.62 0.54 0.34 0.40 0.34 0.42 0.47 0.49 0.36 0.33 0.46 0.48 0.44
0.01 0.01 0.00 0.00 0.00 0.01 0.00 0.00 0.00 0.00 0.01 0.01 0.01 0.01 0.01 0.01 0.00 0.02 0.06 0.13 0.17 0.15 0.15 0.09 0.06 0.05 0.09 0.11 0.26 0.33 0.38 0.30 0.26 0.25 0.37 0.48 0.53 0.58 0.54 0.50 0.36 0.24 0.22 0.28 0.37 0.36 0.26 0.24 0.31
0.00 0.00 0.00 0.01 0.04 0.04 0.00 0.01 0.00 0.00 0.00 0.00 0.00 0.00 0.01 0.03 0.02 0.03 0.02 0.01 0.00 0.01 0.09 0.07 0.07 0.05 0.07 0.06 0.13 0.17 0.17 0.14 0.13 0.14 0.15 0.21 0.46 0.65 0.42 0.58 0.56 0.46 0.27 0.24 0.32 0.43 0.38 0.29 0.32
0.02 0.00 0.01 0.00 0.00 0.02 0.02 0.02 0.02 0.00 0.00 0.00 0.00 0.00 0.00 0.00 0.00 0.00 0.00 0.00 0.01 0.02 0.07 0.09 0.10 0.10 0.06 0.05 0.11 0.20 0.18 0.16 0.16 0.11 0.08 0.13 0.31 0.58 0.66 0.33 0.49 0.46 0.26 0.18 0.28 0.38 0.50 0.55 0.63
0.00 0.00 0.00 0.00 0.00 0.04 0.01 0.05 0.03 0.02 0.01 0.01 0.01 0.00 0.00 0.01 0.02 0.00 0.01 0.01 0.00 0.03 0.05 0.05 0.13 0.10 0.14 0.10 0.13 0.18 0.23 0.18 0.12 0.08 0.05 0.05 0.14 0.33 0.49 0.64 0.49 0.48 0.40 0.29 0.29 0.36 0.42 0.60 0.67
0.00 0.00 0.03 0.18 0.10 0.03 0.04 0.03 0.02 0.01 0.00 0.00 0.00 0.00 0.01 0.00 0.00 0.00 0.00 0.00 0.00 0.01 0.02 0.06 0.14 0.17 0.19 0.25 0.19 0.19 0.20 0.23 0.07 0.03 0.03 0.05 0.12 0.24 0.39 0.45 0.61 0.62 0.63 0.48 0.35 0.37 0.46 0.54 0.66
0.00 0.00 0.04 0.16 0.12 0.11 0.05 0.03 0.00 0.00 0.00 0.00 0.00 0.00 0.00 0.00 0.00 0.00 0.00 0.00 0.01 0.03 0.02 0.09 0.09 0.18 0.20 0.25 0.23 0.24 0.20 0.09 0.14 0.06 0.10 0.14 0.13 0.13 0.17 0.32 0.46 0.61 0.86 0.87 0.75 0.65 0.64 0.74 0.82
0.01 0.00 0.01 0.03 0.06 0.12 0.04 0.02 0.01 0.01 0.01 0.00 0.00 0.00 0.00 0.00 0.00 0.00 0.00 0.00 0.04 0.02 0.04 0.10 0.13 0.17 0.18 0.19 0.21 0.29 0.29 0.15 0.09 0.12 0.14 0.17 0.14 0.15 0.22 0.31 0.48 0.76 1.03 1.07 1.08 1.04 0.96 0.99 0.95
0.00 0.00 0.01 0.01 0.07 0.05 0.02 0.02 0.04 0.03 0.03 0.03 0.01 0.00 0.00 0.00 0.00 0.00 0.00 0.00 0.01 0.03 0.07 0.08 0.08 0.11 0.11 0.11 0.16 0.21 0.25 0.35 0.24 0.24 0.42 0.46 0.49 0.45 0.51 0.55 0.63 0.65 0.70 0.71 0.83 0.86 0.75 0.69 0.65
0.00 0.00 0.00 0.01 0.00 0.02 0.03 0.03 0.02 0.07 0.07 0.14 0.10 0.06 0.02 0.01 0.00 0.00 0.01 0.01 0.01 0.01 0.05 0.06 0.05 0.09 0.20 0.28 0.20 0.15 0.24 0.28 0.68 1.04 1.08 0.94 0.97 1.09 0.99 0.83 0.73 0.79 0.90 0.97 0.85 0.63 0.60 0.65 0.65
0.00 0.00 0.01 0.01 0.01 0.01 0.01 0.02 0.02 0.04 0.06 0.06 0.14 0.18 0.13 0.06 0.02 0.00 0.00 0.01 0.03 0.01 0.01 0.02 0.06 0.18 0.66 0.96 1.05 0.79 0.98 1.04 1.16 1.53 1.49 1.26 1.13 0.93 0.84 0.95 0.87 0.70 0.59 0.52 0.51 0.48 0.49 0.45 0.51

GFSSGP_prec_precacc_117.txt.gz
Total_Precipitation_Accumulation
0.00 0.00 0.00 0.00 0.00 0.00 0.00 0.00 0.00 0.03 0.09 0.13 0.18 0.22 0.24 0.16 0.47 1.04 0.97 1.23 1.83 1.44 1.03 1.58 1.30 0.62 0.25 0.22 0.19 0.04 0.03 0.02 0.02 0.00 0.00 0.00 0.01 0.00 0.01 0.02 0.10 0.13 0.07 0.06 0.03 0.03 0.04 0.07 0.07
0.00 0.00 0.00 0.00 0.00 0.00 0.00 0.01 0.01 0.03 0.17 0.23 0.32 0.35 0.43 0.37 0.17 0.64 0.86 0.71 0.66 1.44 1.56 1.44 2.29 1.43 0.96 0.70 0.77 0.82 0.37 0.25 0.04 0.00 0.01 0.03 0.01 0.00 0.02 0.02 0.08 0.07 0.06 0.05 0.04 0.07 0.09 0.10 0.10
0.00 0.00 0.00 0.00 0.00 0.00 0.00 0.01 0.05 0.08 0.16 0.14 0.11 0.20 0.44 0.64 0.60 0.70 0.78 0.90 0.80 1.05 0.97 1.28 2.08 1.57 1.03 1.12 1.12 1.65 1.98 1.87 1.01 0.42 0.36 0.32 0.22 0.14 0.08 0.08 0.10 0.10 0.15 0.13 0.09 0.15 0.16 0.06 0.03
0.00 0.00 0.00 0.00 0.00 0.00 0.00 0.02 0.07 0.10 0.11 0.09 0.10 0.21 0.49 0.58 0.48 0.44 0.76 1.28 1.83 2.03 1.47 1.74 2.10 1.30 0.70 1.09 1.43 1.50 2.15 3.35 4.17 4.05 2.50 1.31 0.84 0.44 0.39 0.29 0.25 0.26 0.31 0.38 0.36 0.42 0.36 0.03 0.00
0.00 0.00 0.00 0.00 0.00 0.00 0.00 0.02 0.08 0.11 0.11 0.42 0.18 0.11 0.66 0.80 0.31 0.42 1.15 2.28 3.41 4.56 4.04 3.63 3.90 5.05 2.78 2.51 1.70 1.31 1.44 2.50 4.86 5.24 3.84 2.51 1.88 1.68 1.17 0.68 0.50 0.53 0.52 0.40 0.40 0.23 0.18 0.02 0.00
0.00 0.00 0.00 0.00 0.00 0.01 0.03 0.13 0.22 0.37 0.35 0.46 0.35 0.42 0.86 0.47 0.38 0.75 1.60 3.62 5.15 6.63 8.73 9.01 7.66 8.03 7.58 4.81 2.99 1.95 1.38 1.22 1.62 2.34 1.93 1.99 2.27 1.75 1.62 1.44 0.88 0.60 0.42 0.40 0.28 0.12 0.08 0.05 0.02
0.00 0.00 0.00 0.00 0.01 0.00 0.02 0.15 0.35 0.53 0.42 0.20 0.38 0.40 0.95 0.96 0.77 0.88 1.55 2.78 5.21 5.54 7.02 10.68 9.49 7.14 5.90 6.72 5.91 3.53 2.59 1.66 1.44 1.39 1.70 1.31 2.10 1.61 1.23 1.39 1.60 0.77 0.41 0.61 0.47 0.32 0.54 0.21 0.22
0.00 0.00 0.00 0.00 0.01 0.02 0.06 0.15 0.21 0.15 0.09 0.07 0.15 0.46 1.10 0.76 0.53 0.47 0.58 0.86 2.15 2.59 3.35 3.93 4.06 3.28 2.87 3.59 4.48 4.30 2.96 2.42 2.12 1.36 1.46 1.58 1.52 1.35 1.28 1.33 1.50 1.22 0.57 0.47 0.44 0.59 0.48 0.57 0.38
0.00 0.00 0.00 0.00 0.03 0.11 0.16 0.28 0.33 0.20 0.06 0.11 0.26 0.18 0.28 0.46 0.34 0.34 0.61 0.72 1.36 2.28 1.62 1.65 1.26 0.85 0.83 1.26 2.01 2.73 2.46 2.46 2.51 2.03 1.22 1.94 2.05 1.06 1.21 1.48 1.20 0.83 0.52 0.46 0.48 0.44 0.56 0.56 0.62
0.00 0.00 0.00 0.00 0.06 0.33 0.29 0.15 0.03 0.01 0.01 0.20 0.53 0.53 0.32 0.33 0.25 0.20 0.26 0.62 1.09 0.94 0.77 0.49 0.39 0.30 0.25 0.24 0.37 0.73 1.50 2.23 2.24 2.82 1.43 1.37 2.29 1.23 1.19 1.62 1.01 0.80 0.57 0.48 0.46 0.40 0.44 0.47 0.41
0.00 0.00 0.00 0.00 0.00 0.00 0.01 0.01 0.00 0.00 0.19 0.52 0.67 0.50 0.42 0.34 0.24 0.27 0.45 0.40 0.52 0.32 0.21 0.27 0.47 0.47 0.20 0.19 0.16 0.24 0.68 1.48 1.54 2.52 2.13 0.86 1.24 1.47 1.54 1.98 1.23 0.75 0.56 0.48 0.46 0.24 0.19 0.15 0.20
0.00 0.00 0.00 0.00 0.00 0.00 0.00 0.00 0.01 0.04 0.27 0.22 0.26 0.69 0.62 0.49 0.39 0.33 0.29 0.22 0.11 0.15 0.16 0.12 0.12 0.20 0.24 0.24 0.20 0.21 0.52 0.89 0.94 1.26 2.29 1.07 0.90 1.05 1.39 1.48 1.10 0.54 0.40 0.29 0.29 0.15 0.09 0.06 0.13
0.00 0.00 0.00 0.00 0.00 0.00 0.00 0.01 0.02 0.08 0.45 0.51 0.27 0.32 0.45 0.50 0.44 0.51 0.31 0.11 0.09 0.08 0.15 0.19 0.20 0.27 0.30 0.33 0.18 0.20 0.73 0.86 0.82 0.82 1.19 1.10 0.91 0.75 1.13 0.96 1.18 0.66 0.45 0.28 0.27 0.19 0.13 0.07 0.07
0.00 0.00 0.00 0.00 0.00 0.00 0.00 0.03 0.09 0.18 0.77 0.30 0.15 0.08 0.17 0.26 0.28 0.24 0.13 0.10 0.09 0.10 0.19 0.28 0.28 0.43 0.20 0.22 0.25 0.35 0.66 0.80 0.65 0.62 0.77 0.71 0.71 0.67 0.86 0.84 0.87 0.93 0.92 0.38 0.28 0.25 0.15 0.12 0.09
0.00 0.00 0.00 0.00 0.00 0.00 0.01 0.03 0.13 0.21 0.39 0.13 0.05 0.05 0.06 0.11 0.16 0.10 0.11 0.23 0.16 0.22 0.25 0.42 0.65 0.54 0.22 0.11 0.17 0.32 0.65 0.58 0.53 0.50 0.51 0.48 0.46 0.53 0.58 0.66 0.77 0.71 1.13 0.66 0.42 0.44 0.44 0.31 0.16
0.00 0.00 0.00 0.00 0.00 0.00 0.02 0.17 0.29 0.13 0.09 0.07 0.04 0.01 0.02 0.03 0.01 0.00 0.02 0.01 0.03 0.07 0.19 0.43 0.60 0.57 0.48 0.20 0.26 0.31 0.45 0.63 0.44 0.33 0.39 0.54 0.44 0.42 0.37 0.63 0.57 0.72 0.71 0.54 0.45 0.53 0.50 0.48 0.23
0.00 0.00 0.00 0.00 0.00 0.00 0.01 0.03 0.15 0.07 0.09 0.12 0.10 0.04 0.00 0.02 0.01 0.00 0.00 0.01 0.02 0.02 0.19 0.61 0.80 0.77 0.74 0.61 0.53 0.72 0.75 0.68 0.40 0.25 0.28 0.40 0.37 0.52 0.38 0.46 0.62 0.64 0.61 0.43 0.45 0.41 0.55 0.49 0.39
0.00 0.00 0.00 0.00 0.00 0.00 0.00 0.00 0.09 0.05 0.03 0.09 0.15 0.10 0.02 0.01 0.00 0.00 0.00 0.02 0.03 0.03 0.26 0.64 0.84 1.09 1.18 1.08 0.88 0.61 0.55 0.49 0.38 0.31 0.30 0.40 0.45 0.36 0.42 0.43 0.54 0.78 0.84 0.47 0.43 0.54 0.59 0.55 0.50
0.00 0.00 0.00 0.00 0.00 0.00 0.00 0.00 0.00 0.01 0.11 0.10 0.14 0.07 0.01 0.00 0.00 0.00 0.01 0.02 0.04 0.10 0.40 0.69 0.82 1.10 1.07 0.58 0.42 0.44 0.43 0.28 0.32 0.42 0.44 0.48 0.55 0.40 0.30 0.40 0.39 0.59 0.62 0.47 0.31 0.46 0.62 0.64 0.52
0.02 0.02 0.00 0.00 0.00 0.00 0.00 0.00 0.00 0.00 0.00 0.02 0.03 0.03 0.02 0.00 0.00 0.01 0.03 0.06 0.12 0.24 0.52 0.61 0.48 0.33 0.16 0.11 0.18 0.24 0.28 0.26 0.23 0.34 0.47 0.44 0.62 0.54 0.34 0.40 0.35 0.42 0.48 0.49 0.36 0.33 0.46 0.48 0.45
0.01 0.01 0.00 0.00 0.00 0.01 0.00 0.00 0.00 0.00 0.01 0.01 0.01 0.01 0.01 0.01 0.00 0.02 0.06 0.13 0.17 0.15 0.15 0.09 0.06 0.05 0.09 0.11 0.26 0.33 0.38 0.30 0.26 0.25 0.37 0.48 0.53 0.58 0.54 0.50 0.36 0.24 0.22 0.28 0.38 0.36 0.26 0.24 0.31
0.00 0.00 0.00 0.01 0.04 0.06 0.00 0.01 0.00 0.00 0.00 0.00 0.00 0.00 0.01 0.03 0.02 0.03 0.02 0.01 0.00 0.01 0.09 0.07 0.07 0.05 0.07 0.06 0.13 0.17 0.17 0.14 0.13 0.14 0.15 0.21 0.46 0.65 0.42 0.58 0.56 0.46 0.27 0.24 0.32 0.43 0.38 0.29 0.32
0.02 0.00 0.01 0.00 0.01 0.03 0.02 0.02 0.02 0.00 0.00 0.00 0.00 0.00 0.00 0.00 0.00 0.00 0.00 0.00 0.01 0.02 0.07 0.09 0.10 0.10 0.06 0.05 0.11 0.20 0.18 0.16 0.16 0.11 0.08 0.13 0.32 0.59 0.66 0.33 0.49 0.46 0.26 0.18 0.28 0.38 0.50 0.55 0.63
0.00 0.00 0.02 0.02 0.02 0.06 0.01 0.05 0.03 0.02 0.01 0.01 0.01 0.00 0.00 0.01 0.02 0.00 0.01 0.01 0.00 0.03 0.05 0.05 0.13 0.10 0.14 0.10 0.13 0.18 0.23 0.18 0.12 0.08 0.05 0.05 0.14 0.34 0.50 0.65 0.49 0.48 0.40 0.29 0.29 0.36 0.42 0.60 0.67
0.00 0.01 0.09 0.23 0.12 0.04 0.04 0.03 0.02 0.01 0.00 0.00 0.00 0.00 0.01 0.00 0.00 0.00 0.00 0.00 0.00 0.01 0.02 0.06 0.14 0.17 0.19 0.25 0.19 0.19 0.20 0.23 0.07 0.03 0.03 0.05 0.12 0.24 0.39 0.45 0.62 0.63 0.63 0.48 0.35 0.37 0.46 0.54 0.66
0.00 0.01 0.06 0.19 0.12 0.11 0.05 0.03 0.00 0.00 0.00 0.00 0.00 0.00 0.00 0.00 0.00 0.00 0.00 0.00 0.01 0.03 0.02 0.09 0.09 0.18 0.20 0.25 0.23 0.24 0.21 0.10 0.15 0.07 0.11 0.14 0.13 0.13 0.17 0.33 0.46 0.61 0.86 0.87 0.75 0.65 0.64 0.74 0.82
0.01 0.01 0.02 0.05 0.06 0.12 0.05 0.02 0.01 0.01 0.01 0.01 0.00 0.00 0.00 0.00 0.00 0.00 0.00 0.00 0.04 0.02 0.04 0.10 0.13 0.17 0.18 0.19 0.21 0.29 0.29 0.15 0.09 0.13 0.15 0.18 0.15 0.16 0.22 0.32 0.49 0.76 1.03 1.08 1.09 1.05 0.97 1.00 0.95
0.00 0.00 0.03 0.03 0.09 0.10 0.05 0.02 0.04 0.03 0.03 0.05 0.02 0.03 0.03 0.00 0.00 0.00 0.00 0.00 0.01 0.03 0.07 0.08 0.08 0.11 0.11 0.11 0.16 0.21 0.25 0.35 0.24 0.24 0.42 0.47 0.49 0.46 0.51 0.55 0.64 0.66 0.72 0.72 0.83 0.87 0.76 0.70 0.65
0.00 0.00 0.00 0.02 0.00 0.03 0.12 0.12 0.03 0.08 0.08 0.16 0.13 0.14 0.09 0.02 0.01 0.00 0.01 0.01 0.01 0.01 0.05 0.06 0.05 0.09 0.20 0.28 0.20 0.15 0.24 0.28 0.68 1.05 1.09 0.95 0.98 1.09 0.99 0.83 0.74 0.80 0.91 0.98 0.86 0.63 0.61 0.65 0.66
0.01 0.01 0.01 0.02 0.01 0.01 0.03 0.08 0.02 0.05 0.10 0.09 0.20 0.21 0.16 0.06 0.02 0.00 0.00 0.01 0.03 0.01 0.01 0.02 0.06 0.18 0.66 0.96 1.05 0.79 0.98 1.04 1.16 1.53 1.51 1.28 1.14 0.94 0.84 0.95 0.87 0.70 0.60 0.53 0.51 0.48 0.49 0.45 0.52

GFSSGP_prec_precacc_120.txt.gz
Total_Precipitation_Accumulation
0.00 0.00 0.00 0.00 0.00 0.00 0.00 0.00 0.00 0.03 0.09 0.13 0.18 0.22 0.24 0.16 0.47 1.04 0.97 1.23 1.83 1.44 1.03 1.58 1.30 0.62 0.25 0.22 0.19 0.04 0.03 0.02 0.02 0.00 0.00 0.00 0.01 0.00 0.01 0.02 0.10 0.13 0.07 0.06 0.03 0.03 0.04 0.07 0.07
0.00 0.00 0.00 0.00 0.00 0.00 0.00 0.01 0.01 0.03 0.17 0.23 0.32 0.35 0.43 0.37 0.17 0.64 0.86 0.71 0.66 1.44 1.56 1.44 2.29 1.43 0.96 0.70 0.77 0.82 0.37 0.25 0.04 0.00 0.01 0.03 0.01 0.00 0.02 0.02 0.08 0.07 0.06 0.05 0.04 0.07 0.09 0.10 0.10
0.00 0.00 0.00 0.00 0.00 0.00 0.00 0.01 0.05 0.08 0.16 0.14 0.11 0.20 0.44 0.64 0.60 0.70 0.78 0.90 0.80 1.05 0.97 1.28 2.08 1.57 1.03 1.12 1.12 1.65 1.98 1.87 1.01 0.42 0.36 0.32 0.22 0.14 0.08 0.08 0.10 0.10 0.15 0.14 0.09 0.16 0.16 0.06 0.03
0.00 0.00 0.00 0.00 0.00 0.00 0.00 0.02 0.07 0.10 0.11 0.09 0.10 0.21 0.49 0.58 0.48 0.44 0.76 1.28 1.83 2.03 1.47 1.74 2.10 1.30 0.70 1.09 1.43 1.50 2.15 3.35 4.17 4.05 2.50 1.31 0.84 0.44 0.39 0.29 0.25 0.26 0.31 0.38 0.42 0.44 0.36 0.03 0.00
0.00 0.00 0.00 0.00 0.00 0.00 0.00 0.02 0.08 0.11 0.11 0.42 0.18 0.11 0.66 0.80 0.31 0.42 1.15 2.28 3.41 4.56 4.04 3.63 3.90 5.05 2.78 2.51 1.70 1.31 1.44 2.50 4.86 5.24 3.84 2.51 1.88 1.68 1.17 0.68 0.50 0.55 0.52 0.42 0.43 0.25 0.18 0.02 0.00
0.00 0.00 0.00 0.00 0.00 0.01 0.03 0.13 0.22 0.37 0.35 0.46 0.35 0.42 0.86 0.47 0.38 0.75 1.60 3.62 5.15 6.63 8.73 9.01 7.66 8.03 7.58 4.81 2.99 1.95 1.38 1.22 1.62 2.34 1.93 1.99 2.27 1.75 1.62 1.44 0.88 0.60 0.43 0.40 0.28 0.12 0.08 0.05 0.02
0.00 0.00 0.00 0.00 0.01 0.00 0.02 0.15 0.35 0.53 0.42 0.20 0.38 0.40 0.95 0.96 0.77 0.88 1.55 2.78 5.21 5.54 7.02 10.68 9.49 7.14 5.90 6.72 5.91 3.53 2.59 1.66 1.44 1.39 1.70 1.31 2.10 1.61 1.23 1.39 1.60 0.78 0.42 0.61 0.47 0.32 0.54 0.21 0.22
0.00 0.00 0.00 0.00 0.01 0.02 0.06 0.15 0.21 0.15 0.09 0.07 0.15 0.46 1.10 0.76 0.53 0.47 0.58 0.86 2.15 2.59 3.35 3.93 4.06 3.28 2.87 3.59 4.48 4.30 2.96 2.42 2.12 1.36 1.46 1.58 1.52 1.35 1.28 1.33 1.50 1.22 0.57 0.47 0.44 0.59 0.48 0.57 0.38
0.00 0.00 0.00 0.00 0.03 0.11 0.16 0.28 0.33 0.20 0.06 0.11 0.26 0.18 0.28 0.46 0.34 0.34 0.61 0.72 1.36 2.28 1.62 1.65 1.26 0.85 0.83 1.26 2.01 2.73 2.46 2.46 2.51 2.03 1.22 1.94 2.05 1.06 1.21 1.48 1.20 0.83 0.52 0.46 0.48 0.44 0.56 0.56 0.62
0.00 0.00 0.00 0.00 0.06 0.33 0.29 0.15 0.03 0.01 0.01 0.20 0.53 0.53 0.32 0.33 0.25 0.20 0.26 0.62 1.09 0.94 0.77 0.49 0.39 0.30 0.25 0.24 0.37 0.73 1.50 2.23 2.24 2.82 1.43 1.37 2.29 1.23 1.19 1.62 1.01 0.80 0.57 0.48 0.46 0.40 0.44 0.47 0.41
0.00 0.00 0.00 0.00 0.00 0.00 0.01 0.01 0.00 0.00 0.19 0.52 0.67 0.50 0.42 0.34 0.24 0.27 0.45 0.40 0.52 0.32 0.21 0.27 0.47 0.47 0.20 0.19 0.16 0.24 0.68 1.48 1.54 2.52 2.13 0.86 1.24 1.47 1.54 1.98 1.23 0.75 0.56 0.48 0.46 0.24 0.19 0.15 0.20
0.00 0.00 0.00 0.00 0.00 0.00 0.00 0.00 0.01 0.04 0.27 0.22 0.26 0.69 0.62 0.49 0.39 0.33 0.29 0.22 0.11 0.15 0.16 0.12 0.12 0.20 0.24 0.24 0.20 0.21 0.52 0.89 0.94 1.26 2.29 1.07 0.90 1.05 1.39 1.48 1.10 0.54 0.40 0.29 0.29 0.15 0.09 0.06 0.13
0.00 0.00 0.00 0.00 0.00 0.00 0.00 0.01 0.02 0.08 0.45 0.51 0.27 0.32 0.45 0.50 0.44 0.51 0.31 0.11 0.09 0.08 0.15 0.19 0.20 0.27 0.30 0.33 0.18 0.20 0.73 0.86 0.82 0.82 1.19 1.10 0.91 0.75 1.13 0.96 1.18 0.66 0.45 0.28 0.27 0.19 0.13 0.07 0.07
0.00 0.00 0.00 0.00 0.00 0.00 0.00 0.03 0.09 0.18 0.77 0.30 0.15 0.08 0.17 0.26 0.28 0.24 0.13 0.10 0.09 0.10 0.19 0.28 0.28 0.43 0.20 0.22 0.25 0.35 0.66 0.80 0.65 0.62 0.77 0.71 0.71 0.67 0.86 0.84 0.87 0.93 0.92 0.38 0.28 0.25 0.15 0.12 0.09
0.00 0.00 0.00 0.00 0.00 0.00 0.01 0.03 0.13 0.21 0.39 0.13 0.05 0.05 0.06 0.11 0.16 0.10 0.11 0.23 0.16 0.22 0.25 0.42 0.65 0.54 0.22 0.11 0.17 0.32 0.65 0.58 0.53 0.50 0.51 0.48 0.46 0.53 0.58 0.66 0.77 0.71 1.13 0.66 0.42 0.44 0.44 0.31 0.16
0.00 0.00 0.00 0.00 0.00 0.00 0.02 0.17 0.29 0.13 0.09 0.07 0.04 0.01 0.02 0.03 0.01 0.00 0.02 0.01 0.03 0.07 0.19 0.43 0.60 0.57 0.48 0.20 0.26 0.31 0.45 0.63 0.44 0.33 0.39 0.54 0.44 0.42 0.37 0.63 0.57 0.72 0.71 0.54 0.45 0.53 0.50 0.48 0.23
0.00 0.00 0.00 0.00 0.00 0.00 0.01 0.03 0.15 0.07 0.09 0.12 0.10 0.04 0.00 0.02 0.01 0.00 0.00 0.01 0.02 0.02 0.19 0.61 0.80 0.77 0.74 0.61 0.53 0.72 0.75 0.68 0.40 0.25 0.28 0.40 0.37 0.52 0.38 0.46 0.62 0.64 0.61 0.43 0.45 0.41 0.55 0.49 0.39
0.00 0.00 0.00 0.00 0.00 0.00 0.00 0.00 0.09 0.05 0.03 0.09 0.15 0.10 0.02 0.01 0.00 0.00 0.00 0.02 0.03 0.03 0.26 0.64 0.84 1.09 1.18 1.08 0.88 0.61 0.55 0.49 0.38 0.31 0.30 0.40 0.45 0.36 0.42 0.43 0.54 0.78 0.84 0.47 0.43 0.54 0.59 0.55 0.50
0.00 0.00 0.00 0.00 0.00 0.00 0.00 0.00 0.00 0.01 0.11 0.10 0.14 0.07 0.01 0.00 0.00 0.00 0.01 0.02 0.04 0.10 0.40 0.69 0.82 1.10 1.07 0.58 0.42 0.44 0.44 0.28 0.32 0.42 0.44 0.48 0.55 0.40 0.30 0.40 0.40 0.60 0.62 0.47 0.31 0.46 0.62 0.64 0.53
0.02 0.02 0.00 0.00 0.00 0.00 0.00 0.00 0.00 0.00 0.00 0.02 0.03 0.03 0.02 0.00 0.00 0.01 0.03 0.06 0.12 0.24 0.52 0.61 0.48 0.33 0.16 0.11 0.19 0.28 0.35 0.29 0.23 0.35 0.47 0.44 0.62 0.54 0.34 0.40 0.35 0.43 0.49 0.49 0.36 0.33 0.46 0.49 0.46
0.01 0.01 0.00 0.00 0.00 0.02 0.02 0.01 0.00 0.00 0.01 0.01 0.01 0.01 0.01 0.01 0.00 0.02 0.06 0.13 0.17 0.15 0.15 0.09 0.06 0.05 0.09 0.12 0.29 0.39 0.45 0.32 0.26 0.27 0.37 0.49 0.53 0.58 0.54 0.50 0.36 0.24 0.23 0.29 0.38 0.37 0.27 0.24 0.31
0.04 0.00 0.00 0.01 0.04 0.07 0.04 0.03 0.00 0.00 0.00 0.00 0.00 0.00 0.01 0.03 0.02 0.03 0.02 0.01 0.00 0.01 0.09 0.07 0.07 0.07 0.09 0.09 0.16 0.20 0.17 0.14 0.13 0.14 0.16 0.22 0.46 0.65 0.42 0.58 0.56 0.47 0.28 0.25 0.33 0.44 0.38 0.29 0.32
0.06 0.00 0.01 0.01 0.01 0.05 0.06 0.06 0.02 0.00 0.00 0.00 0.00 0.00 0.00 0.00 0.00 0.00 0.00 0.00 0.01 0.02 0.07 0.09 0.10 0.10 0.06 0.05 0.11 0.20 0.18 0.17 0.16 0.11 0.09 0.13 0.32 0.59 0.67 0.33 0.49 0.47 0.26 0.19 0.29 0.39 0.51 0.55 0.63
0.01 0.02 0.02 0.03 0.05 0.13 0.02 0.06 0.03 0.02 0.01 0.01 0.01 0.00 0.00 0.01 0.02 0.00 0.01 0.01 0.00 0.03 0.05 0.05 0.13 0.10 0.14 0.10 0.13 0.18 0.23 0.18 0.12 0.08 0.05 0.06 0.14 0.34 0.51 0.66 0.50 0.49 0.40 0.29 0.30 0.36 0.42 0.60 0.67
0.04 0.03 0.12 0.29 0.20 0.08 0.05 0.05 0.02 0.01 0.00 0.00 0.01 0.00 0.01 0.00 0.00 0.00 0.00 0.00 0.00 0.01 0.02 0.06 0.14 0.17 0.19 0.25 0.19 0.19 0.20 0.23 0.07 0.03 0.03 0.07 0.14 0.25 0.40 0.46 0.62 0.64 0.64 0.48 0.35 0.37 0.46 0.54 0.66
0.03 0.03 0.08 0.32 0.17 0.11 0.06 0.04 0.00 0.00 0.00 0.00 0.01 0.02 0.00 0.00 0.00 0.00 0.00 0.00 0.01 0.03 0.02 0.09 0.09 0.18 0.20 0.25 0.23 0.24 0.21 0.10 0.15 0.07 0.11 0.15 0.13 0.14 0.18 0.34 0.47 0.63 0.88 0.89 0.77 0.66 0.64 0.74 0.82
0.02 0.01 0.03 0.12 0.12 0.14 0.05 0.02 0.01 0.01 0.01 0.01 0.00 0.01 0.01 0.00 0.00 0.00 0.00 0.00 0.04 0.02 0.04 0.10 0.13 0.17 0.18 0.19 0.21 0.29 0.29 0.15 0.09 0.13 0.16 0.19 0.15 0.16 0.22 0.33 0.50 0.78 1.05 1.09 1.10 1.06 0.97 1.00 0.95
0.01 0.00 0.04 0.08 0.13 0.14 0.08 0.03 0.04 0.05 0.04 0.06 0.02 0.03 0.03 0.00 0.00 0.00 0.00 0.00 0.01 0.03 0.07 0.08 0.08 0.11 0.11 0.11 0.16 0.21 0.25 0.35 0.24 0.24 0.43 0.48 0.50 0.46 0.52 0.56 0.65 0.67 0.73 0.73 0.84 0.88 0.76 0.70 0.66
0.03 0.02 0.01 0.05 0.02 0.09 0.22 0.18 0.05 0.13 0.10 0.19 0.13 0.14 0.11 0.02 0.01 0.00 0.01 0.01 0.01 0.01 0.05 0.06 0.05 0.09 0.20 0.28 0.20 0.15 0.24 0.28 0.68 1.05 1.09 0.96 0.99 1.10 1.01 0.85 0.75 0.81 0.92 0.99 0.87 0.64 0.61 0.66 0.66
0.04 0.05 0.03 0.06 0.06 0.04 0.07 0.26 0.18 0.13 0.14 0.15 0.27 0.22 0.20 0.08 0.02 0.00 0.00 0.01 0.03 0.01 0.01 0.02 0.06 0.18 0.66 0.96 1.05 0.79 0.98 1.04 1.16 1.54 1.51 1.28 1.16 0.94 0.85 0.97 0.89 0.71 0.60 0.54 0.53 0.50 0.49 0.46 0.52

GFSSGP_prec_precacc_123.txt.gz
Total_Precipitation_Accumulation
0.00 0.00 0.00 0.00 0.00 0.00 0.00 0.00 0.00 0.03 0.09 0.13 0.18 0.22 0.24 0.16 0.47 1.04 0.97 1.23 1.83 1.44 1.03 1.58 1.30 0.62 0.25 0.22 0.19 0.04 0.03 0.02 0.02 0.00 0.00 0.00 0.01 0.00 0.01 0.02 0.10 0.13 0.07 0.06 0.03 0.03 0.04 0.07 0.07
0.00 0.00 0.00 0.00 0.00 0.00 0.00 0.01 0.01 0.03 0.17 0.23 0.32 0.35 0.43 0.37 0.17 0.64 0.86 0.71 0.66 1.44 1.56 1.44 2.29 1.43 0.96 0.70 0.77 0.82 0.37 0.25 0.04 0.00 0.01 0.03 0.01 0.00 0.02 0.02 0.08 0.07 0.06 0.05 0.04 0.07 0.09 0.10 0.10
0.00 0.00 0.00 0.00 0.00 0.00 0.00 0.01 0.05 0.08 0.16 0.14 0.11 0.20 0.44 0.64 0.60 0.70 0.78 0.90 0.80 1.05 0.97 1.28 2.08 1.57 1.03 1.12 1.12 1.65 1.98 1.87 1.01 0.42 0.36 0.32 0.22 0.14 0.08 0.08 0.10 0.10 0.15 0.14 0.09 0.16 0.16 0.06 0.03
0.00 0.00 0.00 0.00 0.00 0.00 0.00 0.02 0.07 0.10 0.11 0.09 0.10 0.21 0.49 0.58 0.48 0.44 0.76 1.28 1.83 2.03 1.47 1.74 2.10 1.30 0.70 1.09 1.43 1.50 2.15 3.35 4.17 4.05 2.50 1.31 0.84 0.44 0.39 0.29 0.25 0.26 0.31 0.39 0.42 0.44 0.36 0.03 0.00
0.00 0.00 0.00 0.00 0.00 0.00 0.00 0.02 0.08 0.11 0.11 0.42 0.18 0.11 0.66 0.80 0.31 0.42 1.15 2.28 3.41 4.56 4.04 3.63 3.90 5.05 2.78 2.51 1.70 1.31 1.44 2.50 4.86 5.24 3.84 2.51 1.88 1.68 1.17 0.68 0.50 0.55 0.52 0.42 0.43 0.26 0.18 0.02 0.00
0.00 0.00 0.00 0.00 0.00 0.01 0.03 0.13 0.22 0.37 0.35 0.46 0.35 0.42 0.86 0.47 0.38 0.75 1.60 3.62 5.15 6.63 8.73 9.01 7.66 8.03 7.58 4.81 2.99 1.95 1.38 1.22 1.62 2.34 1.93 1.99 2.27 1.75 1.62 1.44 0.88 0.60 0.43 0.40 0.28 0.12 0.08 0.05 0.02
0.00 0.00 0.00 0.00 0.01 0.00 0.02 0.15 0.35 0.53 0.42 0.20 0.38 0.40 0.95 0.96 0.77 0.88 1.55 2.78 5.21 5.54 7.02 10.68 9.49 7.14 5.90 6.72 5.91 3.53 2.59 1.66 1.44 1.39 1.70 1.31 2.10 1.61 1.23 1.39 1.60 0.78 0.42 0.61 0.47 0.32 0.54 0.21 0.23
0.00 0.00 0.00 0.00 0.01 0.02 0.06 0.15 0.21 0.15 0.09 0.07 0.15 0.46 1.10 0.76 0.53 0.47 0.58 0.86 2.15 2.59 3.35 3.93 4.06 3.28 2.87 3.59 4.48 4.30 2.96 2.42 2.12 1.36 1.46 1.58 1.52 1.35 1.28 1.33 1.50 1.22 0.57 0.47 0.44 0.59 0.48 0.57 0.38
0.00 0.00 0.00 0.00 0.03 0.11 0.16 0.28 0.33 0.20 0.06 0.11 0.26 0.18 0.28 0.46 0.34 0.34 0.61 0.72 1.36 2.28 1.62 1.65 1.26 0.85 0.83 1.26 2.01 2.73 2.46 2.46 2.51 2.03 1.22 1.94 2.05 1.06 1.21 1.48 1.20 0.83 0.52 0.46 0.48 0.44 0.56 0.56 0.63
0.00 0.00 0.00 0.00 0.06 0.33 0.29 0.15 0.03 0.01 0.01 0.20 0.53 0.53 0.32 0.33 0.25 0.20 0.26 0.62 1.09 0.94 0.77 0.49 0.39 0.30 0.25 0.24 0.37 0.73 1.50 2.23 2.24 2.82 1.43 1.37 2.29 1.23 1.19 1.62 1.01 0.80 0.57 0.48 0.46 0.40 0.44 0.47 0.44
0.00 0.00 0.00 0.00 0.00 0.00 0.01 0.01 0.00 0.00 0.19 0.52 0.67 0.50 0.42 0.34 0.24 0.27 0.45 0.40 0.52 0.32 0.21 0.27 0.47 0.47 0.20 0.19 0.16 0.24 0.68 1.48 1.54 2.52 2.13 0.86 1.24 1.47 1.54 1.98 1.23 0.75 0.56 0.48 0.46 0.24 0.19 0.15 0.21
0.00 0.00 0.00 0.00 0.00 0.00 0.00 0.00 0.01 0.04 0.27 0.22 0.26 0.69 0.62 0.49 0.39 0.33 0.29 0.22 0.11 0.15 0.16 0.12 0.12 0.20 0.24 0.24 0.20 0.21 0.52 0.90 0.94 1.26 2.29 1.07 0.90 1.05 1.39 1.48 1.10 0.54 0.40 0.29 0.29 0.15 0.09 0.06 0.14
0.00 0.00 0.00 0.00 0.00 0.00 0.00 0.01 0.02 0.08 0.45 0.51 0.27 0.32 0.45 0.50 0.44 0.51 0.31 0.11 0.09 0.08 0.15 0.19 0.20 0.27 0.30 0.33 0.18 0.20 0.73 0.87 0.82 0.82 1.19 1.10 0.91 0.75 1.13 0.96 1.18 0.66 0.45 0.28 0.27 0.19 0.13 0.07 0.07
0.00 0.00 0.00 0.00 0.00 0.00 0.00 0.03 0.09 0.18 0.77 0.30 0.15 0.08 0.17 0.26 0.28 0.24 0.13 0.10 0.09 0.10 0.19 0.28 0.28 0.43 0.20 0.22 0.25 0.35 0.66 0.80 0.65 0.62 0.77 0.71 0.71 0.67 0.86 0.84 0.87 0.93 0.92 0.38 0.28 0.25 0.15 0.12 0.09
0.00 0.00 0.00 0.00 0.00 0.00 0.01 0.03 0.13 0.21 0.39 0.13 0.05 0.05 0.06 0.11 0.16 0.10 0.11 0.23 0.16 0.22 0.25 0.42 0.65 0.54 0.22 0.11 0.17 0.32 0.65 0.58 0.53 0.50 0.51 0.48 0.46 0.53 0.58 0.66 0.77 0.71 1.13 0.66 0.42 0.44 0.44 0.31 0.16
0.00 0.00 0.00 0.00 0.00 0.00 0.02 0.17 0.29 0.13 0.09 0.07 0.04 0.01 0.02 0.03 0.01 0.00 0.02 0.01 0.03 0.07 0.19 0.43 0.60 0.57 0.48 0.20 0.26 0.31 0.45 0.63 0.44 0.33 0.39 0.54 0.44 0.42 0.37 0.63 0.57 0.72 0.71 0.54 0.45 0.53 0.50 0.48 0.23
0.00 0.00 0.00 0.00 0.00 0.00 0.01 0.03 0.15 0.07 0.09 0.12 0.10 0.04 0.00 0.02 0.01 0.00 0.00 0.01 0.02 0.02 0.19 0.61 0.80 0.77 0.74 0.61 0.53 0.72 0.75 0.68 0.40 0.25 0.28 0.40 0.37 0.52 0.38 0.46 0.62 0.64 0.61 0.43 0.45 0.41 0.55 0.49 0.39
0.00 0.00 0.00 0.00 0.00 0.00 0.00 0.00 0.09 0.05 0.03 0.09 0.15 0.10 0.02 0.01 0.00 0.00 0.00 0.02 0.03 0.03 0.26 0.64 0.84 1.09 1.18 1.08 0.88 0.61 0.55 0.49 0.38 0.31 0.30 0.40 0.45 0.36 0.42 0.43 0.54 0.78 0.84 0.47 0.43 0.54 0.59 0.55 0.50
0.00 0.00 0.00 0.00 0.00 0.00 0.00 0.00 0.00 0.01 0.11 0.10 0.14 0.07 0.01 0.00 0.00 0.00 0.01 0.02 0.04 0.10 0.40 0.69 0.82 1.10 1.07 0.58 0.42 0.44 0.44 0.28 0.32 0.42 0.44 0.48 0.55 0.40 0.30 0.40 0.40 0.60 0.62 0.47 0.31 0.46 0.62 0.65 0.53
0.02 0.02 0.00 0.00 0.00 0.00 0.00 0.00 0.00 0.00 0.00 0.02 0.03 0.03 0.02 0.00 0.00 0.01 0.03 0.06 0.12 0.24 0.52 0.61 0.48 0.33 0.16 0.11 0.19 0.28 0.36 0.29 0.24 0.36 0.47 0.44 0.62 0.54 0.34 0.40 0.35 0.44 0.49 0.50 0.37 0.33 0.47 0.50 0.46
0.01 0.01 0.00 0.00 0.00 0.02 0.02 0.01 0.00 0.00 0.01 0.01 0.01 0.01 0.01 0.01 0.00 0.02 0.06 0.13 0.17 0.15 0.15 0.09 0.06 0.05 0.09 0.12 0.29 0.40 0.62 0.47 0.31 0.29 0.37 0.52 0.56 0.59 0.54 0.50 0.36 0.25 0.24 0.30 0.39 0.39 0.28 0.25 0.32
0.06 0.00 0.00 0.01 0.04 0.07 0.04 0.04 0.00 0.00 0.00 0.00 0.00 0.00 0.01 0.03 0.02 0.03 0.02 0.01 0.00 0.01 0.09 0.07 0.07 0.08 0.12 0.14 0.23 0.29 0.28 0.18 0.14 0.15 0.17 0.25 0.47 0.65 0.42 0.58 0.57 0.48 0.29 0.27 0.34 0.47 0.39 0.30 0.33
0.07 0.00 0.01 0.01 0.01 0.06 0.06 0.10 0.02 0.01 0.00 0.00 0.00 0.00 0.00 0.00 0.00 0.00 0.00 0.00 0.01 0.02 0.07 0.09 0.11 0.11 0.09 0.12 0.19 0.32 0.32 0.34 0.23 0.12 0.10 0.14 0.32 0.59 0.67 0.34 0.50 0.48 0.27 0.20 0.30 0.42 0.53 0.57 0.64
0.02 0.02 0.03 0.05 0.08 0.20 0.04 0.09 0.04 0.02 0.01 0.01 0.01 0.00 0.00 0.01 0.02 0.00 0.01 0.01 0.00 0.03 0.05 0.05 0.13 0.10 0.15 0.12 0.16 0.21 0.27 0.25 0.19 0.14 0.06 0.08 0.16 0.35 0.52 0.67 0.51 0.51 0.42 0.30 0.31 0.38 0.44 0.62 0.68
0.04 0.03 0.14 0.31 0.23 0.12 0.06 0.06 0.03 0.02 0.01 0.01 0.02 0.01 0.01 0.00 0.00 0.00 0.00 0.00 0.00 0.01 0.02 0.06 0.15 0.17 0.19 0.25 0.20 0.20 0.21 0.24 0.08 0.04 0.04 0.09 0.18 0.29 0.44 0.50 0.65 0.66 0.66 0.49 0.36 0.38 0.47 0.55 0.66
0.04 0.03 0.08 0.34 0.20 0.16 0.12 0.06 0.02 0.01 0.00 0.01 0.02 0.03 0.01 0.01 0.00 0.00 0.00 0.00 0.01 0.03 0.02 0.09 0.09 0.18 0.20 0.25 0.23 0.24 0.21 0.10 0.15 0.07 0.11 0.15 0.14 0.15 0.20 0.36 0.50 0.64 0.89 0.90 0.78 0.66 0.65 0.75 0.83
0.03 0.02 0.03 0.16 0.20 0.20 0.07 0.05 0.05 0.03 0.01 0.01 0.01 0.01 0.02 0.00 0.01 0.00 0.01 0.00 0.04 0.02 0.04 0.10 0.13 0.17 0.18 0.19 0.21 0.29 0.29 0.15 0.09 0.13 0.16 0.19 0.15 0.16 0.22 0.33 0.51 0.78 1.06 1.11 1.12 1.07 0.99 1.02 0.96
0.03 0.02 0.05 0.12 0.32 0.18 0.13 0.06 0.10 0.09 0.04 0.06 0.02 0.03 0.04 0.01 0.01 0.00 0.00 0.00 0.01 0.03 0.07 0.08 0.08 0.11 0.11 0.11 0.16 0.21 0.25 0.35 0.24 0.24 0.43 0.48 0.50 0.46 0.52 0.56 0.65 0.67 0.74 0.75 0.87 0.90 0.78 0.72 0.67
0.03 0.04 0.05 0.10 0.08 0.14 0.28 0.23 0.17 0.22 0.11 0.19 0.13 0.14 0.11 0.03 0.01 0.00 0.01 0.01 0.01 0.01 0.05 0.06 0.05 0.09 0.20 0.28 0.20 0.15 0.24 0.28 0.68 1.05 1.09 0.96 0.99 1.10 1.01 0.85 0.75 0.82 0.92 1.00 0.88 0.65 0.63 0.67 0.67
0.05 0.07 0.04 0.08 0.09 0.19 0.21 0.56 0.49 0.25 0.16 0.15 0.27 0.22 0.20 0.08 0.02 0.00 0.00 0.01 0.03 0.01 0.01 0.02 0.06 0.18 0.66 0.96 1.05 0.79 0.98 1.04 1.16 1.54 1.51 1.28 1.16 0.95 0.85 0.97 0.89 0.72 0.61 0.54 0.54 0.51 0.51 0.47 0.54

GFSSGP_prec_precacc_126.txt.gz
Total_Precipitation_Accumulation
0.00 0.00 0.00 0.00 0.00 0.00 0.00 0.00 0.00 0.03 0.09 0.13 0.18 0.22 0.24 0.16 0.47 1.04 0.97 1.23 1.83 1.44 1.03 1.58 1.30 0.62 0.25 0.22 0.19 0.04 0.03 0.02 0.02 0.00 0.00 0.00 0.01 0.00 0.01 0.02 0.10 0.13 0.07 0.06 0.03 0.03 0.04 0.07 0.07
0.00 0.00 0.00 0.00 0.00 0.00 0.00 0.01 0.01 0.03 0.17 0.23 0.32 0.35 0.43 0.37 0.17 0.64 0.86 0.71 0.66 1.44 1.56 1.44 2.29 1.43 0.96 0.70 0.77 0.82 0.37 0.25 0.04 0.00 0.01 0.03 0.01 0.00 0.02 0.02 0.08 0.07 0.06 0.05 0.04 0.07 0.09 0.10 0.10
0.00 0.00 0.00 0.00 0.00 0.00 0.00 0.01 0.05 0.08 0.16 0.14 0.11 0.20 0.44 0.64 0.60 0.70 0.78 0.90 0.80 1.05 0.97 1.28 2.08 1.57 1.03 1.12 1.12 1.65 1.98 1.87 1.01 0.42 0.36 0.32 0.22 0.14 0.08 0.08 0.10 0.10 0.15 0.14 0.09 0.16 0.16 0.06 0.03
0.00 0.00 0.00 0.00 0.00 0.00 0.00 0.02 0.07 0.10 0.11 0.09 0.10 0.21 0.49 0.58 0.48 0.44 0.76 1.28 1.83 2.03 1.47 1.74 2.10 1.30 0.70 1.09 1.43 1.50 2.15 3.35 4.17 4.05 2.50 1.31 0.84 0.44 0.39 0.29 0.26 0.26 0.32 0.39 0.42 0.44 0.36 0.03 0.00
0.00 0.00 0.00 0.00 0.00 0.00 0.00 0.02 0.08 0.11 0.11 0.42 0.18 0.11 0.66 0.80 0.31 0.42 1.15 2.28 3.41 4.56 4.04 3.63 3.90 5.05 2.78 2.51 1.70 1.31 1.44 2.50 4.86 5.24 3.84 2.51 1.88 1.68 1.17 0.68 0.51 0.55 0.52 0.42 0.43 0.26 0.18 0.02 0.00
0.00 0.00 0.00 0.00 0.00 0.01 0.03 0.13 0.22 0.37 0.35 0.46 0.35 0.42 0.86 0.47 0.38 0.75 1.60 3.62 5.15 6.63 8.73 9.01 7.66 8.03 7.58 4.81 2.99 1.95 1.38 1.22 1.62 2.34 1.93 1.99 2.27 1.75 1.62 1.44 0.88 0.60 0.43 0.40 0.28 0.12 0.08 0.05 0.02
0.00 0.00 0.00 0.00 0.01 0.00 0.02 0.15 0.35 0.53 0.42 0.20 0.38 0.40 0.95 0.96 0.77 0.88 1.55 2.78 5.21 5.54 7.02 10.68 9.49 7.14 5.90 6.72 5.91 3.53 2.59 1.66 1.44 1.39 1.70 1.31 2.10 1.61 1.23 1.39 1.60 0.78 0.42 0.61 0.47 0.32 0.54 0.21 0.23
0.00 0.00 0.00 0.00 0.01 0.02 0.06 0.15 0.21 0.15 0.09 0.07 0.15 0.46 1.10 0.76 0.53 0.47 0.58 0.86 2.15 2.59 3.35 3.93 4.06 3.28 2.87 3.59 4.48 4.30 2.96 2.42 2.12 1.36 1.46 1.58 1.52 1.35 1.28 1.33 1.50 1.22 0.57 0.47 0.44 0.59 0.48 0.57 0.38
0.00 0.00 0.00 0.00 0.03 0.11 0.16 0.28 0.33 0.20 0.06 0.11 0.26 0.18 0.28 0.46 0.34 0.34 0.61 0.72 1.36 2.28 1.62 1.65 1.26 0.85 0.83 1.26 2.01 2.73 2.46 2.46 2.51 2.03 1.22 1.94 2.05 1.06 1.21 1.48 1.20 0.83 0.52 0.46 0.48 0.44 0.56 0.56 0.63
0.00 0.00 0.00 0.00 0.06 0.33 0.29 0.15 0.03 0.01 0.01 0.20 0.53 0.53 0.32 0.33 0.25 0.20 0.26 0.62 1.09 0.94 0.77 0.49 0.39 0.30 0.25 0.24 0.37 0.73 1.50 2.23 2.24 2.82 1.43 1.37 2.29 1.23 1.19 1.62 1.01 0.80 0.57 0.48 0.46 0.40 0.44 0.47 0.44
0.00 0.00 0.00 0.00 0.00 0.00 0.01 0.01 0.00 0.00 0.19 0.52 0.67 0.50 0.42 0.34 0.24 0.27 0.45 0.40 0.52 0.32 0.21 0.27 0.47 0.47 0.20 0.19 0.16 0.24 0.68 1.48 1.54 2.52 2.13 0.86 1.24 1.47 1.54 1.98 1.23 0.75 0.56 0.48 0.46 0.24 0.19 0.15 0.22
0.00 0.00 0.00 0.00 0.00 0.00 0.00 0.00 0.01 0.04 0.27 0.22 0.26 0.69 0.62 0.49 0.39 0.33 0.29 0.22 0.11 0.15 0.16 0.12 0.12 0.20 0.24 0.24 0.20 0.21 0.52 0.90 0.94 1.26 2.29 1.07 0.90 1.05 1.39 1.48 1.10 0.54 0.40 0.29 0.29 0.15 0.09 0.06 0.14
0.00 0.00 0.00 0.00 0.00 0.00 0.00 0.01 0.02 0.08 0.45 0.51 0.27 0.32 0.45 0.50 0.44 0.51 0.31 0.11 0.09 0.08 0.15 0.19 0.20 0.27 0.30 0.33 0.18 0.20 0.73 0.87 0.82 0.82 1.19 1.10 0.91 0.75 1.13 0.96 1.18 0.66 0.45 0.28 0.27 0.19 0.13 0.07 0.07
0.00 0.00 0.00 0.00 0.00 0.00 0.00 0.03 0.09 0.18 0.77 0.30 0.15 0.08 0.17 0.26 0.28 0.24 0.13 0.10 0.09 0.10 0.19 0.28 0.28 0.43 0.20 0.22 0.25 0.35 0.66 0.80 0.65 0.62 0.77 0.71 0.71 0.67 0.86 0.84 0.87 0.93 0.92 0.38 0.28 0.25 0.15 0.12 0.09
0.00 0.00 0.00 0.00 0.00 0.00 0.01 0.03 0.13 0.21 0.39 0.13 0.05 0.05 0.06 0.11 0.16 0.10 0.11 0.23 0.16 0.22 0.25 0.42 0.65 0.54 0.22 0.11 0.17 0.32 0.65 0.58 0.53 0.50 0.51 0.48 0.46 0.53 0.58 0.66 0.77 0.71 1.13 0.66 0.42 0.44 0.44 0.31 0.16
0.00 0.00 0.00 0.00 0.00 0.00 0.02 0.17 0.29 0.13 0.09 0.07 0.04 0.01 0.02 0.03 0.01 0.00 0.02 0.01 0.03 0.07 0.19 0.43 0.60 0.57 0.48 0.20 0.26 0.31 0.45 0.63 0.44 0.33 0.39 0.54 0.44 0.42 0.37 0.63 0.57 0.72 0.71 0.54 0.45 0.53 0.50 0.48 0.23
0.00 0.00 0.00 0.00 0.00 0.00 0.01 0.03 0.15 0.07 0.09 0.12 0.10 0.04 0.00 0.02 0.01 0.00 0.00 0.01 0.02 0.02 0.19 0.61 0.80 0.77 0.74 0.61 0.53 0.72 0.75 0.68 0.40 0.25 0.28 0.40 0.37 0.52 0.38 0.46 0.62 0.64 0.61 0.43 0.45 0.41 0.55 0.49 0.39
0.00 0.00 0.00 0.00 0.00 0.00 0.00 0.00 0.09 0.05 0.03 0.09 0.15 0.10 0.02 0.01 0.00 0.00 0.00 0.02 0.03 0.03 0.26 0.64 0.84 1.09 1.18 1.08 0.88 0.61 0.55 0.49 0.38 0.31 0.30 0.40 0.45 0.36 0.42 0.43 0.54 0.78 0.84 0.47 0.43 0.54 0.59 0.55 0.50
0.00 0.00 0.00 0.00 0.00 0.00 0.00 0.00 0.00 0.01 0.11 0.10 0.14 0.07 0.01 0.00 0.00 0.00 0.01 0.02 0.04 0.10 0.40 0.69 0.82 1.10 1.07 0.58 0.42 0.44 0.44 0.29 0.32 0.42 0.44 0.48 0.55 0.40 0.30 0.40 0.40 0.60 0.62 0.47 0.31 0.46 0.63 0.65 0.53
0.02 0.02 0.00 0.00 0.00 0.00 0.00 0.00 0.00 0.00 0.00 0.02 0.03 0.03 0.02 0.00 0.00 0.01 0.03 0.06 0.12 0.24 0.52 0.61 0.48 0.33 0.16 0.11 0.19 0.28 0.36 0.29 0.24 0.36 0.47 0.44 0.63 0.55 0.36 0.41 0.35 0.44 0.49 0.50 0.37 0.34 0.48 0.52 0.48
0.01 0.01 0.00 0.00 0.00 0.02 0.02 0.01 0.00 0.00 0.01 0.01 0.01 0.01 0.01 0.01 0.00 0.02 0.06 0.13 0.17 0.15 0.15 0.09 0.06 0.05 0.09 0.12 0.29 0.40 0.63 0.49 0.31 0.29 0.37 0.55 0.58 0.62 0.57 0.53 0.38 0.25 0.24 0.30 0.40 0.40 0.30 0.27 0.34
0.06 0.00 0.00 0.02 0.08 0.09 0.04 0.05 0.00 0.00 0.00 0.00 0.00 0.00 0.01 0.03 0.02 0.03 0.02 0.01 0.00 0.01 0.09 0.07 0.07 0.08 0.12 0.14 0.23 0.30 0.30 0.21 0.16 0.16 0.22 0.34 0.54 0.71 0.43 0.60 0.58 0.51 0.31 0.27 0.35 0.47 0.41 0.31 0.35
0.07 0.00 0.01 0.01 0.02 0.07 0.07 0.12 0.03 0.01 0.00 0.00 0.00 0.00 0.00 0.00 0.00 0.00 0.00 0.00 0.01 0.02 0.07 0.09 0.11 0.11 0.09 0.12 0.19 0.38 0.39 0.39 0.35 0.35 0.39 0.43 0.52 0.68 0.71 0.35 0.52 0.51 0.29 0.22 0.31 0.43 0.55 0.59 0.65
0.02 0.02 0.03 0.05 0.09 0.22 0.04 0.10 0.05 0.02 0.01 0.02 0.06 0.03 0.00 0.01 0.02 0.00 0.01 0.01 0.00 0.03 0.05 0.05 0.13 0.10 0.15 0.14 0.18 0.27 0.33 0.29 0.25 0.27 0.31 0.35 0.38 0.46 0.57 0.71 0.54 0.53 0.44 0.33 0.33 0.41 0.46 0.64 0.70
0.05 0.03 0.14 0.31 0.24 0.12 0.06 0.06 0.03 0.02 0.03 0.03 0.09 0.10 0.03 0.00 0.00 0.00 0.00 0.00 0.00 0.01 0.02 0.06 0.15 0.18 0.20 0.27 0.22 0.24 0.25 0.28 0.13 0.09 0.09 0.19 0.30 0.35 0.45 0.57 0.70 0.72 0.72 0.53 0.40 0.43 0.50 0.57 0.68
0.05 0.04 0.09 0.34 0.22 0.19 0.12 0.07 0.06 0.10 0.06 0.09 0.07 0.08 0.04 0.02 0.00 0.00 0.00 0.00 0.01 0.03 0.03 0.10 0.11 0.20 0.21 0.27 0.24 0.25 0.23 0.11 0.16 0.08 0.12 0.16 0.16 0.17 0.22 0.37 0.52 0.67 0.93 0.95 0.82 0.69 0.67 0.77 0.85
0.04 0.02 0.03 0.16 0.22 0.29 0.08 0.06 0.16 0.10 0.05 0.19 0.07 0.07 0.07 0.05 0.04 0.02 0.02 0.02 0.06 0.04 0.05 0.11 0.13 0.18 0.18 0.19 0.21 0.29 0.29 0.15 0.09 0.13 0.16 0.19 0.15 0.16 0.22 0.33 0.51 0.79 1.07 1.13 1.14 1.09 1.00 1.02 0.98
0.03 0.02 0.06 0.14 0.42 0.35 0.16 0.11 0.28 0.16 0.05 0.08 0.12 0.11 0.10 0.07 0.07 0.05 0.04 0.03 0.04 0.05 0.08 0.08 0.08 0.11 0.11 0.11 0.16 0.21 0.25 0.35 0.24 0.24 0.43 0.48 0.50 0.46 0.52 0.56 0.65 0.67 0.74 0.75 0.87 0.91 0.79 0.73 0.68
0.04 0.05 0.08 0.15 0.18 0.25 0.39 0.35 0.59 0.36 0.16 0.19 0.15 0.20 0.15 0.09 0.07 0.06 0.05 0.03 0.03 0.03 0.05 0.06 0.05 0.09 0.20 0.28 0.20 0.15 0.24 0.28 0.68 1.05 1.09 0.96 0.99 1.10 1.01 0.85 0.75 0.82 0.92 1.00 0.89 0.66 0.63 0.68 0.69
0.05 0.07 0.07 0.17 0.13 0.22 0.31 0.87 0.88 0.46 0.31 0.25 0.32 0.25 0.21 0.10 0.10 0.06 0.05 0.02 0.04 0.02 0.01 0.02 0.06 0.18 0.66 0.96 1.05 0.79 0.98 1.04 1.16 1.54 1.51 1.28 1.16 0.95 0.85 0.97 0.90 0.72 0.61 0.54 0.54 0.52 0.51 0.48 0.55

GFSSGP_prec_precacc_129.txt.gz
Total_Precipitation_Accumulation
0.00 0.00 0.00 0.00 0.00 0.00 0.00 0.00 0.00 0.03 0.09 0.13 0.18 0.22 0.24 0.16 0.47 1.04 0.97 1.23 1.83 1.44 1.03 1.58 1.30 0.62 0.25 0.22 0.19 0.04 0.03 0.02 0.02 0.00 0.00 0.00 0.01 0.00 0.01 0.02 0.10 0.13 0.07 0.06 0.03 0.03 0.04 0.07 0.07
0.00 0.00 0.00 0.00 0.00 0.00 0.00 0.01 0.01 0.03 0.17 0.23 0.32 0.35 0.43 0.37 0.17 0.64 0.86 0.71 0.66 1.44 1.56 1.44 2.29 1.43 0.96 0.70 0.77 0.82 0.37 0.25 0.04 0.00 0.01 0.03 0.01 0.00 0.02 0.02 0.08 0.07 0.06 0.05 0.04 0.07 0.09 0.10 0.10
0.00 0.00 0.00 0.00 0.00 0.00 0.00 0.01 0.05 0.08 0.16 0.14 0.11 0.20 0.44 0.64 0.60 0.70 0.78 0.90 0.80 1.05 0.97 1.28 2.08 1.57 1.03 1.12 1.12 1.65 1.98 1.87 1.01 0.42 0.36 0.32 0.22 0.14 0.08 0.08 0.10 0.10 0.15 0.14 0.09 0.16 0.16 0.06 0.03
0.00 0.00 0.00 0.00 0.00 0.00 0.00 0.02 0.07 0.10 0.11 0.09 0.10 0.21 0.49 0.58 0.48 0.44 0.76 1.28 1.83 2.03 1.47 1.74 2.10 1.30 0.70 1.09 1.43 1.50 2.15 3.35 4.17 4.05 2.50 1.31 0.84 0.44 0.39 0.29 0.26 0.26 0.32 0.39 0.42 0.44 0.36 0.03 0.00
0.00 0.00 0.00 0.00 0.00 0.00 0.00 0.02 0.08 0.11 0.11 0.42 0.18 0.11 0.66 0.80 0.31 0.42 1.15 2.28 3.41 4.56 4.04 3.63 3.90 5.05 2.78 2.51 1.70 1.31 1.44 2.50 4.86 5.24 3.84 2.51 1.88 1.68 1.17 0.68 0.51 0.55 0.52 0.42 0.43 0.26 0.18 0.02 0.00
0.00 0.00 0.00 0.00 0.00 0.01 0.03 0.13 0.22 0.37 0.35 0.46 0.35 0.42 0.86 0.47 0.38 0.75 1.60 3.62 5.15 6.63 8.73 9.01 7.66 8.03 7.58 4.81 2.99 1.95 1.38 1.22 1.62 2.34 1.93 1.99 2.27 1.75 1.62 1.44 0.88 0.60 0.43 0.40 0.28 0.12 0.08 0.05 0.02
0.00 0.00 0.00 0.00 0.01 0.00 0.02 0.15 0.35 0.53 0.42 0.20 0.38 0.40 0.95 0.96 0.77 0.88 1.55 2.78 5.21 5.54 7.02 10.68 9.49 7.14 5.90 6.72 5.91 3.53 2.59 1.66 1.44 1.39 1.70 1.31 2.10 1.61 1.23 1.39 1.60 0.78 0.42 0.61 0.47 0.32 0.54 0.21 0.23
0.00 0.00 0.00 0.00 0.01 0.02 0.06 0.15 0.21 0.15 0.09 0.07 0.15 0.46 1.10 0.76 0.53 0.47 0.58 0.86 2.15 2.59 3.35 3.93 4.06 3.28 2.87 3.59 4.48 4.30 2.96 2.42 2.12 1.36 1.46 1.58 1.52 1.35 1.28 1.33 1.50 1.22 0.57 0.47 0.44 0.59 0.48 0.57 0.38
0.00 0.00 0.00 0.00 0.03 0.11 0.16 0.28 0.33 0.20 0.06 0.11 0.26 0.18 0.28 0.46 0.34 0.34 0.61 0.72 1.36 2.28 1.62 1.65 1.26 0.85 0.83 1.26 2.01 2.73 2.46 2.46 2.51 2.03 1.22 1.94 2.05 1.06 1.21 1.48 1.20 0.83 0.52 0.46 0.48 0.44 0.56 0.56 0.63
0.00 0.00 0.00 0.00 0.06 0.33 0.29 0.15 0.03 0.01 0.01 0.20 0.53 0.53 0.32 0.33 0.25 0.20 0.26 0.62 1.09 0.94 0.77 0.49 0.39 0.30 0.25 0.24 0.37 0.73 1.50 2.23 2.24 2.82 1.43 1.37 2.29 1.23 1.19 1.62 1.01 0.80 0.57 0.48 0.46 0.40 0.44 0.47 0.44
0.00 0.00 0.00 0.00 0.00 0.00 0.01 0.01 0.00 0.00 0.19 0.52 0.67 0.50 0.42 0.34 0.24 0.27 0.45 0.40 0.52 0.32 0.21 0.27 0.47 0.47 0.20 0.19 0.16 0.24 0.68 1.48 1.54 2.52 2.13 0.86 1.24 1.47 1.54 1.98 1.23 0.75 0.56 0.48 0.46 0.24 0.19 0.15 0.22
0.00 0.00 0.00 0.00 0.00 0.00 0.00 0.00 0.01 0.04 0.27 0.22 0.26 0.69 0.62 0.49 0.39 0.33 0.29 0.22 0.11 0.15 0.16 0.12 0.12 0.20 0.24 0.24 0.20 0.21 0.52 0.90 0.95 1.26 2.29 1.07 0.90 1.05 1.39 1.48 1.10 0.54 0.40 0.29 0.29 0.15 0.09 0.06 0.14
0.00 0.00 0.00 0.00 0.00 0.00 0.00 0.01 0.02 0.08 0.45 0.51 0.27 0.32 0.45 0.50 0.44 0.51 0.31 0.11 0.09 0.08 0.15 0.19 0.20 0.27 0.30 0.33 0.18 0.20 0.73 0.87 0.82 0.83 1.19 1.10 0.91 0.75 1.13 0.96 1.18 0.66 0.45 0.28 0.27 0.19 0.13 0.07 0.07
0.00 0.00 0.00 0.00 0.00 0.00 0.00 0.03 0.09 0.18 0.77 0.30 0.15 0.08 0.17 0.26 0.28 0.24 0.13 0.10 0.09 0.10 0.19 0.28 0.28 0.43 0.20 0.22 0.25 0.35 0.66 0.80 0.65 0.62 0.78 0.71 0.71 0.67 0.86 0.84 0.87 0.93 0.92 0.38 0.28 0.25 0.15 0.12 0.09
0.00 0.00 0.00 0.00 0.00 0.00 0.01 0.03 0.13 0.21 0.39 0.13 0.05 0.05 0.06 0.11 0.16 0.10 0.11 0.23 0.16 0.22 0.25 0.42 0.65 0.54 0.22 0.11 0.17 0.32 0.65 0.58 0.53 0.50 0.51 0.49 0.46 0.53 0.59 0.66 0.77 0.71 1.13 0.66 0.42 0.44 0.44 0.31 0.16
0.00 0.00 0.00 0.00 0.00 0.00 0.02 0.17 0.29 0.13 0.09 0.07 0.04 0.01 0.02 0.03 0.01 0.00 0.02 0.01 0.03 0.07 0.19 0.43 0.60 0.57 0.48 0.20 0.26 0.31 0.45 0.63 0.44 0.33 0.39 0.55 0.45 0.42 0.37 0.63 0.57 0.72 0.71 0.54 0.45 0.53 0.50 0.48 0.23
0.00 0.00 0.00 0.00 0.00 0.00 0.01 0.03 0.15 0.07 0.09 0.12 0.10 0.04 0.00 0.02 0.01 0.00 0.00 0.01 0.02 0.02 0.19 0.61 0.80 0.77 0.74 0.61 0.53 0.72 0.75 0.68 0.40 0.25 0.28 0.40 0.38 0.52 0.38 0.46 0.62 0.64 0.61 0.43 0.45 0.41 0.55 0.49 0.39
0.00 0.00 0.00 0.00 0.00 0.00 0.00 0.00 0.09 0.05 0.03 0.09 0.15 0.10 0.02 0.01 0.00 0.00 0.00 0.02 0.03 0.03 0.26 0.64 0.84 1.09 1.18 1.08 0.88 0.61 0.55 0.49 0.38 0.31 0.30 0.40 0.45 0.37 0.42 0.43 0.54 0.78 0.84 0.47 0.43 0.54 0.59 0.55 0.50
0.00 0.00 0.00 0.00 0.00 0.00 0.00 0.00 0.00 0.01 0.11 0.10 0.14 0.07 0.01 0.00 0.00 0.00 0.01 0.02 0.04 0.10 0.40 0.69 0.82 1.10 1.07 0.58 0.42 0.44 0.44 0.29 0.32 0.42 0.44 0.48 0.55 0.40 0.30 0.40 0.40 0.60 0.62 0.47 0.31 0.46 0.63 0.66 0.55
0.02 0.02 0.00 0.00 0.00 0.00 0.00 0.00 0.00 0.00 0.00 0.02 0.03 0.03 0.02 0.00 0.00 0.01 0.03 0.06 0.12 0.24 0.52 0.61 0.48 0.33 0.16 0.11 0.19 0.29 0.37 0.30 0.24 0.36 0.47 0.44 0.63 0.55 0.36 0.41 0.35 0.44 0.49 0.50 0.37 0.34 0.48 0.52 0.49
0.01 0.01 0.00 0.00 0.00 0.02 0.02 0.01 0.00 0.00 0.01 0.01 0.01 0.01 0.01 0.01 0.00 0.02 0.06 0.13 0.17 0.15 0.15 0.09 0.06 0.05 0.09 0.12 0.29 0.40 0.64 0.50 0.32 0.29 0.37 0.55 0.58 0.63 0.57 0.54 0.39 0.25 0.24 0.30 0.40 0.40 0.30 0.27 0.35
0.06 0.00 0.00 0.02 0.08 0.10 0.04 0.06 0.00 0.00 0.00 0.00 0.00 0.00 0.01 0.03 0.02 0.03 0.02 0.01 0.00 0.01 0.09 0.07 0.07 0.08 0.12 0.14 0.23 0.30 0.30 0.21 0.16 0.16 0.23 0.36 0.60 0.81 0.56 0.70 0.68 0.57 0.37 0.27 0.35 0.47 0.41 0.31 0.36
0.07 0.00 0.01 0.01 0.02 0.07 0.07 0.12 0.03 0.01 0.01 0.00 0.00 0.00 0.00 0.00 0.00 0.00 0.00 0.00 0.01 0.02 0.07 0.09 0.11 0.11 0.09 0.12 0.19 0.38 0.40 0.40 0.35 0.37 0.47 0.55 0.76 1.08 1.07 0.69 0.83 0.72 0.43 0.28 0.33 0.45 0.56 0.60 0.66
0.02 0.02 0.03 0.05 0.09 0.22 0.04 0.10 0.05 0.03 0.08 0.05 0.09 0.06 0.01 0.01 0.02 0.00 0.01 0.01 0.00 0.03 0.05 0.05 0.13 0.10 0.15 0.14 0.19 0.28 0.35 0.32 0.30 0.32 0.36 0.45 0.60 1.01 1.23 1.41 1.19 1.00 0.59 0.44 0.46 0.55 0.54 0.67 0.71
0.05 0.04 0.14 0.31 0.24 0.12 0.06 0.06 0.03 0.17 0.18 0.18 0.15 0.20 0.07 0.00 0.00 0.00 0.00 0.00 0.00 0.01 0.02 0.06 0.15 0.18 0.20 0.27 0.23 0.24 0.26 0.30 0.16 0.15 0.14 0.24 0.34 0.39 0.52 0.68 0.82 0.84 0.84 0.63 0.50 0.49 0.55 0.62 0.71
0.05 0.04 0.09 0.35 0.22 0.19 0.12 0.08 0.10 0.40 0.26 0.50 0.15 0.35 0.15 0.03 0.01 0.00 0.00 0.00 0.02 0.04 0.03 0.10 0.11 0.20 0.21 0.27 0.26 0.27 0.25 0.14 0.19 0.13 0.14 0.18 0.18 0.18 0.23 0.39 0.56 0.71 0.99 1.02 0.89 0.76 0.71 0.81 0.89
0.06 0.04 0.03 0.17 0.22 0.30 0.11 0.09 0.27 0.28 0.15 0.53 0.20 0.29 0.42 0.08 0.09 0.08 0.07 0.05 0.08 0.05 0.06 0.11 0.14 0.19 0.19 0.20 0.22 0.30 0.31 0.16 0.10 0.14 0.16 0.20 0.16 0.16 0.22 0.34 0.51 0.80 1.09 1.15 1.17 1.11 1.02 1.05 1.00
0.04 0.03 0.09 0.16 0.44 0.38 0.17 0.18 0.38 0.31 0.18 0.37 0.69 0.29 0.42 0.17 0.13 0.10 0.09 0.08 0.06 0.06 0.09 0.09 0.09 0.12 0.12 0.12 0.16 0.21 0.25 0.35 0.24 0.24 0.43 0.48 0.50 0.46 0.52 0.56 0.65 0.67 0.74 0.76 0.89 0.92 0.79 0.73 0.68
0.04 0.06 0.09 0.18 0.20 0.32 0.43 0.48 0.76 0.54 0.33 0.37 0.42 0.70 0.33 0.19 0.11 0.11 0.08 0.05 0.05 0.04 0.07 0.07 0.06 0.10 0.21 0.28 0.20 0.15 0.24 0.28 0.68 1.05 1.09 0.96 0.99 1.10 1.01 0.85 0.75 0.82 0.93 1.01 0.90 0.67 0.64 0.69 0.69
0.05 0.08 0.08 0.24 0.18 0.24 0.42 1.10 1.02 0.63 0.48 0.48 0.51 0.71 0.74 0.41 0.24 0.12 0.10 0.05 0.07 0.04 0.03 0.04 0.07 0.18 0.66 0.96 1.05 0.79 0.98 1.04 1.16 1.54 1.51 1.28 1.16 0.95 0.85 0.97 0.90 0.72 0.61 0.55 0.55 0.54 0.53 0.49 0.56

GFSSGP_prec_precacc_132.txt.gz
Total_Precipitation_Accumulation
0.00 0.00 0.00 0.00 0.00 0.00 0.00 0.00 0.00 0.03 0.09 0.13 0.18 0.22 0.24 0.16 0.47 1.04 0.97 1.23 1.83 1.44 1.03 1.58 1.30 0.62 0.25 0.22 0.19 0.04 0.03 0.02 0.02 0.00 0.00 0.00 0.01 0.00 0.01 0.02 0.10 0.13 0.07 0.06 0.03 0.03 0.04 0.07 0.07
0.00 0.00 0.00 0.00 0.00 0.00 0.00 0.01 0.01 0.03 0.17 0.23 0.32 0.35 0.43 0.37 0.17 0.64 0.86 0.71 0.66 1.44 1.56 1.44 2.29 1.43 0.96 0.70 0.77 0.82 0.37 0.25 0.04 0.00 0.01 0.03 0.01 0.00 0.02 0.02 0.08 0.07 0.06 0.05 0.04 0.07 0.09 0.10 0.10
0.00 0.00 0.00 0.00 0.00 0.00 0.00 0.01 0.05 0.08 0.16 0.14 0.11 0.20 0.44 0.64 0.60 0.70 0.78 0.90 0.80 1.05 0.97 1.28 2.08 1.57 1.03 1.12 1.12 1.65 1.98 1.87 1.01 0.42 0.36 0.32 0.22 0.14 0.08 0.08 0.10 0.10 0.15 0.14 0.09 0.16 0.16 0.06 0.03
0.00 0.00 0.00 0.00 0.00 0.00 0.00 0.02 0.07 0.10 0.11 0.09 0.10 0.21 0.49 0.58 0.48 0.44 0.76 1.28 1.83 2.03 1.47 1.74 2.10 1.30 0.70 1.09 1.43 1.50 2.15 3.35 4.17 4.05 2.50 1.31 0.84 0.44 0.39 0.29 0.26 0.26 0.32 0.39 0.42 0.44 0.36 0.03 0.00
0.00 0.00 0.00 0.00 0.00 0.00 0.00 0.02 0.08 0.11 0.11 0.42 0.18 0.11 0.66 0.80 0.31 0.42 1.15 2.28 3.41 4.56 4.04 3.63 3.90 5.05 2.78 2.51 1.70 1.31 1.44 2.50 4.86 5.24 3.84 2.51 1.88 1.68 1.17 0.68 0.51 0.55 0.52 0.42 0.43 0.26 0.18 0.02 0.00
0.00 0.00 0.00 0.00 0.00 0.01 0.03 0.13 0.22 0.37 0.35 0.46 0.35 0.42 0.86 0.47 0.38 0.75 1.60 3.62 5.15 6.63 8.73 9.01 7.66 8.03 7.58 4.81 2.99 1.95 1.38 1.22 1.62 2.34 1.93 1.99 2.27 1.75 1.62 1.44 0.88 0.60 0.43 0.40 0.28 0.12 0.08 0.05 0.02
0.00 0.00 0.00 0.00 0.01 0.00 0.02 0.15 0.35 0.53 0.42 0.20 0.38 0.40 0.95 0.96 0.77 0.88 1.55 2.78 5.21 5.54 7.02 10.68 9.49 7.14 5.90 6.72 5.91 3.53 2.59 1.66 1.44 1.39 1.70 1.31 2.10 1.61 1.23 1.39 1.60 0.78 0.42 0.61 0.47 0.32 0.54 0.21 0.23
0.00 0.00 0.00 0.00 0.01 0.02 0.06 0.15 0.21 0.15 0.09 0.07 0.15 0.46 1.10 0.76 0.53 0.47 0.58 0.86 2.15 2.59 3.35 3.93 4.06 3.28 2.87 3.59 4.48 4.30 2.96 2.42 2.12 1.36 1.46 1.58 1.52 1.35 1.28 1.33 1.50 1.22 0.57 0.47 0.44 0.59 0.48 0.57 0.38
0.00 0.00 0.00 0.00 0.03 0.11 0.16 0.28 0.33 0.20 0.06 0.11 0.26 0.18 0.28 0.46 0.34 0.34 0.61 0.72 1.36 2.28 1.62 1.65 1.26 0.85 0.83 1.26 2.01 2.73 2.46 2.46 2.51 2.03 1.22 1.94 2.05 1.06 1.21 1.48 1.20 0.83 0.52 0.46 0.48 0.44 0.56 0.56 0.63
0.00 0.00 0.00 0.00 0.06 0.33 0.29 0.15 0.03 0.01 0.01 0.20 0.53 0.53 0.32 0.33 0.25 0.20 0.26 0.62 1.09 0.94 0.77 0.49 0.39 0.30 0.25 0.24 0.37 0.73 1.50 2.23 2.24 2.82 1.43 1.37 2.29 1.23 1.19 1.62 1.01 0.80 0.57 0.48 0.46 0.40 0.44 0.47 0.44
0.00 0.00 0.00 0.00 0.00 0.00 0.01 0.01 0.00 0.00 0.19 0.52 0.67 0.50 0.42 0.34 0.24 0.27 0.45 0.40 0.52 0.32 0.21 0.27 0.47 0.47 0.20 0.19 0.16 0.24 0.68 1.48 1.54 2.52 2.13 0.86 1.24 1.47 1.54 1.98 1.23 0.75 0.56 0.48 0.46 0.24 0.19 0.15 0.22
0.00 0.00 0.00 0.00 0.00 0.00 0.00 0.00 0.01 0.04 0.27 0.22 0.26 0.69 0.62 0.49 0.39 0.33 0.29 0.22 0.11 0.15 0.16 0.12 0.12 0.20 0.24 0.24 0.20 0.21 0.52 0.90 0.95 1.26 2.29 1.07 0.90 1.05 1.39 1.48 1.10 0.54 0.40 0.29 0.29 0.15 0.09 0.06 0.14
0.00 0.00 0.00 0.00 0.00 0.00 0.00 0.01 0.02 0.08 0.45 0.51 0.27 0.32 0.45 0.50 0.44 0.51 0.31 0.11 0.09 0.08 0.15 0.19 0.20 0.27 0.30 0.33 0.18 0.20 0.73 0.87 0.82 0.83 1.20 1.10 0.91 0.75 1.13 0.96 1.18 0.66 0.45 0.28 0.27 0.19 0.13 0.07 0.07
0.00 0.00 0.00 0.00 0.00 0.00 0.00 0.03 0.09 0.18 0.77 0.30 0.15 0.08 0.17 0.26 0.28 0.24 0.13 0.10 0.09 0.10 0.19 0.28 0.28 0.43 0.20 0.22 0.25 0.35 0.66 0.80 0.65 0.62 0.78 0.71 0.71 0.67 0.86 0.85 0.87 0.93 0.92 0.38 0.28 0.25 0.15 0.12 0.09
0.00 0.00 0.00 0.00 0.00 0.00 0.01 0.03 0.13 0.21 0.39 0.13 0.05 0.05 0.06 0.11 0.16 0.10 0.11 0.23 0.16 0.22 0.25 0.42 0.65 0.54 0.22 0.11 0.17 0.32 0.65 0.58 0.53 0.50 0.51 0.49 0.46 0.53 0.59 0.66 0.77 0.71 1.14 0.66 0.42 0.45 0.44 0.31 0.16
0.00 0.00 0.00 0.00 0.00 0.00 0.02 0.17 0.29 0.13 0.09 0.07 0.04 0.01 0.02 0.03 0.01 0.00 0.02 0.01 0.03 0.07 0.19 0.43 0.60 0.57 0.48 0.20 0.26 0.31 0.45 0.63 0.44 0.33 0.39 0.55 0.45 0.42 0.37 0.63 0.57 0.73 0.72 0.54 0.45 0.53 0.50 0.48 0.23
0.00 0.00 0.00 0.00 0.00 0.00 0.01 0.03 0.15 0.07 0.09 0.12 0.10 0.04 0.00 0.02 0.01 0.00 0.00 0.01 0.02 0.02 0.19 0.61 0.80 0.77 0.74 0.61 0.53 0.72 0.75 0.68 0.40 0.25 0.28 0.41 0.38 0.52 0.38 0.46 0.62 0.64 0.62 0.43 0.45 0.41 0.56 0.49 0.39
0.00 0.00 0.00 0.00 0.00 0.00 0.00 0.00 0.09 0.05 0.03 0.09 0.15 0.10 0.02 0.01 0.00 0.00 0.00 0.02 0.03 0.03 0.26 0.64 0.84 1.09 1.18 1.08 0.89 0.61 0.55 0.49 0.38 0.31 0.30 0.40 0.45 0.37 0.42 0.43 0.54 0.78 0.84 0.47 0.43 0.54 0.60 0.55 0.50
0.00 0.00 0.00 0.00 0.00 0.00 0.00 0.00 0.00 0.01 0.11 0.10 0.14 0.07 0.01 0.00 0.00 0.00 0.01 0.02 0.04 0.10 0.40 0.69 0.82 1.10 1.07 0.58 0.43 0.44 0.45 0.29 0.32 0.42 0.44 0.48 0.55 0.40 0.30 0.40 0.40 0.60 0.62 0.47 0.31 0.46 0.63 0.66 0.55
0.02 0.02 0.00 0.00 0.00 0.00 0.00 0.00 0.00 0.00 0.00 0.02 0.03 0.03 0.02 0.00 0.00 0.01 0.03 0.06 0.12 0.24 0.52 0.61 0.48 0.33 0.16 0.11 0.19 0.29 0.37 0.30 0.24 0.36 0.47 0.44 0.63 0.55 0.36 0.41 0.35 0.44 0.49 0.51 0.37 0.34 0.48 0.53 0.49
0.01 0.01 0.00 0.00 0.00 0.02 0.02 0.01 0.00 0.00 0.01 0.01 0.01 0.01 0.01 0.01 0.00 0.02 0.06 0.13 0.17 0.15 0.15 0.09 0.06 0.05 0.09 0.12 0.29 0.40 0.64 0.50 0.32 0.29 0.37 0.55 0.58 0.63 0.57 0.54 0.39 0.26 0.24 0.30 0.40 0.40 0.31 0.27 0.35
0.06 0.00 0.00 0.02 0.08 0.10 0.05 0.06 0.00 0.00 0.00 0.00 0.00 0.00 0.01 0.03 0.02 0.03 0.02 0.01 0.00 0.01 0.09 0.07 0.07 0.08 0.12 0.14 0.23 0.30 0.30 0.21 0.16 0.16 0.24 0.36 0.60 0.81 0.56 0.70 0.68 0.58 0.37 0.28 0.36 0.49 0.41 0.35 0.37
0.07 0.00 0.01 0.01 0.02 0.08 0.07 0.12 0.03 0.01 0.01 0.00 0.00 0.01 0.00 0.00 0.00 0.00 0.00 0.00 0.01 0.02 0.07 0.09 0.11 0.11 0.09 0.12 0.19 0.38 0.40 0.40 0.35 0.38 0.49 0.56 0.77 1.08 1.07 0.71 0.87 0.88 0.56 0.37 0.48 0.61 0.63 0.63 0.73
0.02 0.02 0.03 0.05 0.09 0.22 0.04 0.10 0.05 0.03 0.11 0.09 0.14 0.08 0.04 0.03 0.02 0.00 0.01 0.01 0.00 0.03 0.05 0.05 0.13 0.10 0.16 0.19 0.20 0.29 0.36 0.36 0.33 0.34 0.39 0.48 0.65 1.03 1.30 1.54 1.33 1.33 1.14 0.77 0.64 0.67 0.68 0.78 0.79
0.05 0.04 0.14 0.31 0.24 0.12 0.06 0.06 0.03 0.18 0.25 0.35 0.32 0.29 0.29 0.09 0.04 0.01 0.01 0.01 0.00 0.01 0.03 0.07 0.15 0.18 0.20 0.28 0.24 0.28 0.33 0.45 0.20 0.17 0.23 0.27 0.37 0.42 0.58 0.77 0.91 0.94 1.01 0.80 0.62 0.61 0.64 0.70 0.74
0.05 0.05 0.10 0.35 0.22 0.19 0.12 0.08 0.11 0.40 0.31 0.65 0.33 0.58 0.42 0.16 0.11 0.05 0.04 0.03 0.03 0.05 0.03 0.10 0.11 0.20 0.22 0.29 0.27 0.30 0.36 0.24 0.22 0.15 0.20 0.24 0.21 0.19 0.24 0.39 0.57 0.72 1.00 1.02 0.90 0.79 0.75 0.84 0.92
0.08 0.06 0.04 0.19 0.23 0.31 0.11 0.09 0.27 0.28 0.15 0.61 0.41 0.50 0.73 0.23 0.22 0.16 0.13 0.11 0.13 0.11 0.08 0.11 0.14 0.19 0.20 0.22 0.25 0.32 0.35 0.18 0.13 0.16 0.17 0.21 0.17 0.16 0.23 0.34 0.52 0.80 1.09 1.15 1.17 1.12 1.04 1.08 1.01
0.04 0.03 0.09 0.19 0.46 0.38 0.17 0.19 0.41 0.33 0.20 0.43 0.93 0.60 0.77 0.39 0.28 0.22 0.19 0.17 0.12 0.17 0.15 0.12 0.11 0.12 0.12 0.12 0.17 0.21 0.26 0.35 0.25 0.25 0.43 0.49 0.50 0.46 0.52 0.56 0.65 0.67 0.75 0.77 0.89 0.92 0.80 0.75 0.69
0.04 0.06 0.10 0.19 0.20 0.35 0.46 0.56 0.83 0.60 0.41 0.47 0.62 1.10 0.60 0.59 0.30 0.31 0.36 0.24 0.11 0.12 0.12 0.09 0.09 0.12 0.21 0.29 0.20 0.15 0.24 0.28 0.68 1.05 1.09 0.96 0.99 1.10 1.01 0.85 0.75 0.82 0.93 1.01 0.91 0.68 0.65 0.71 0.72
0.05 0.08 0.10 0.27 0.22 0.27 0.51 1.25 1.07 0.71 0.58 0.56 0.66 1.10 1.08 0.69 0.51 0.28 0.19 0.14 0.09 0.06 0.05 0.05 0.08 0.22 0.67 0.96 1.05 0.79 0.98 1.04 1.16 1.54 1.51 1.28 1.16 0.95 0.85 0.97 0.90 0.72 0.61 0.55 0.55 0.54 0.53 0.50 0.58

GFSSGP_prec_precacc_135.txt.gz
Total_Precipitation_Accumulation
0.00 0.00 0.00 0.00 0.00 0.00 0.00 0.00 0.00 0.03 0.09 0.13 0.18 0.22 0.24 0.16 0.47 1.04 0.97 1.23 1.83 1.44 1.03 1.58 1.30 0.62 0.25 0.22 0.19 0.04 0.03 0.02 0.02 0.00 0.00 0.00 0.01 0.00 0.01 0.02 0.10 0.13 0.07 0.06 0.03 0.03 0.04 0.07 0.07
0.00 0.00 0.00 0.00 0.00 0.00 0.00 0.01 0.01 0.03 0.17 0.23 0.32 0.35 0.43 0.37 0.17 0.64 0.86 0.71 0.66 1.44 1.56 1.44 2.29 1.43 0.96 0.70 0.77 0.82 0.37 0.25 0.04 0.00 0.01 0.03 0.01 0.00 0.02 0.02 0.08 0.07 0.06 0.05 0.04 0.07 0.09 0.10 0.10
0.00 0.00 0.00 0.00 0.00 0.00 0.00 0.01 0.05 0.08 0.16 0.14 0.11 0.20 0.44 0.64 0.60 0.70 0.78 0.90 0.80 1.05 0.97 1.28 2.08 1.57 1.03 1.12 1.12 1.65 1.98 1.87 1.01 0.42 0.36 0.32 0.22 0.14 0.08 0.08 0.10 0.10 0.15 0.14 0.09 0.16 0.16 0.06 0.03
0.00 0.00 0.00 0.00 0.00 0.00 0.00 0.02 0.07 0.10 0.11 0.09 0.10 0.21 0.49 0.58 0.48 0.44 0.76 1.28 1.83 2.03 1.47 1.74 2.10 1.30 0.70 1.09 1.43 1.50 2.15 3.35 4.17 4.05 2.50 1.31 0.84 0.44 0.39 0.29 0.26 0.26 0.32 0.39 0.42 0.44 0.36 0.03 0.00
0.00 0.00 0.00 0.00 0.00 0.00 0.00 0.02 0.08 0.11 0.11 0.42 0.18 0.11 0.66 0.80 0.31 0.42 1.15 2.28 3.41 4.56 4.04 3.63 3.90 5.05 2.78 2.51 1.70 1.31 1.44 2.50 4.86 5.24 3.84 2.51 1.88 1.68 1.17 0.68 0.51 0.55 0.52 0.42 0.43 0.26 0.18 0.02 0.00
0.00 0.00 0.00 0.00 0.00 0.01 0.03 0.13 0.22 0.37 0.35 0.46 0.35 0.42 0.86 0.47 0.38 0.75 1.60 3.62 5.15 6.63 8.73 9.01 7.66 8.03 7.58 4.81 2.99 1.95 1.38 1.22 1.62 2.34 1.93 1.99 2.27 1.75 1.62 1.44 0.88 0.60 0.43 0.40 0.28 0.12 0.08 0.05 0.02
0.00 0.00 0.00 0.00 0.01 0.00 0.02 0.15 0.35 0.53 0.42 0.20 0.38 0.40 0.95 0.96 0.77 0.88 1.55 2.78 5.21 5.54 7.02 10.68 9.49 7.14 5.90 6.72 5.91 3.53 2.59 1.66 1.44 1.39 1.70 1.31 2.10 1.61 1.23 1.39 1.60 0.78 0.42 0.61 0.47 0.32 0.54 0.21 0.23
0.00 0.00 0.00 0.00 0.01 0.02 0.06 0.15 0.21 0.15 0.09 0.07 0.15 0.46 1.10 0.76 0.53 0.47 0.58 0.86 2.15 2.59 3.35 3.93 4.06 3.28 2.87 3.59 4.48 4.30 2.96 2.42 2.12 1.36 1.46 1.58 1.52 1.35 1.28 1.33 1.50 1.22 0.57 0.47 0.44 0.59 0.48 0.57 0.38
0.00 0.00 0.00 0.00 0.03 0.11 0.16 0.28 0.33 0.20 0.06 0.11 0.26 0.18 0.28 0.46 0.34 0.34 0.61 0.72 1.36 2.28 1.62 1.65 1.26 0.85 0.83 1.26 2.01 2.73 2.46 2.46 2.51 2.03 1.22 1.94 2.05 1.06 1.21 1.48 1.20 0.83 0.52 0.46 0.48 0.44 0.56 0.56 0.63
0.00 0.00 0.00 0.00 0.06 0.33 0.29 0.15 0.03 0.01 0.01 0.20 0.53 0.53 0.32 0.33 0.25 0.20 0.26 0.62 1.09 0.94 0.77 0.49 0.39 0.30 0.25 0.24 0.37 0.73 1.50 2.23 2.24 2.82 1.43 1.37 2.29 1.23 1.19 1.63 1.01 0.80 0.57 0.48 0.46 0.40 0.44 0.47 0.44
0.00 0.00 0.00 0.00 0.00 0.00 0.01 0.01 0.00 0.00 0.19 0.52 0.67 0.50 0.42 0.34 0.24 0.27 0.45 0.40 0.52 0.32 0.21 0.27 0.47 0.47 0.20 0.19 0.16 0.24 0.68 1.48 1.54 2.52 2.13 0.86 1.25 1.51 1.56 2.03 1.23 0.75 0.56 0.48 0.46 0.24 0.19 0.15 0.22
0.00 0.00 0.00 0.00 0.00 0.00 0.00 0.00 0.01 0.04 0.27 0.22 0.26 0.69 0.62 0.49 0.39 0.33 0.29 0.22 0.11 0.15 0.16 0.12 0.12 0.20 0.24 0.24 0.20 0.21 0.52 0.90 0.95 1.26 2.29 1.07 0.91 1.08 1.42 1.52 1.11 0.54 0.40 0.29 0.29 0.15 0.09 0.06 0.14
0.00 0.00 0.00 0.00 0.00 0.00 0.00 0.01 0.02 0.08 0.45 0.51 0.27 0.32 0.45 0.50 0.44 0.51 0.31 0.11 0.09 0.08 0.15 0.19 0.20 0.27 0.30 0.33 0.18 0.20 0.73 0.87 0.82 0.83 1.20 1.10 0.91 0.78 1.16 0.99 1.20 0.66 0.45 0.28 0.27 0.19 0.13 0.07 0.07
0.00 0.00 0.00 0.00 0.00 0.00 0.00 0.03 0.09 0.18 0.77 0.30 0.15 0.08 0.17 0.26 0.28 0.24 0.13 0.10 0.09 0.10 0.19 0.28 0.28 0.43 0.20 0.22 0.25 0.35 0.66 0.80 0.65 0.62 0.78 0.72 0.71 0.69 0.89 0.86 0.88 0.94 0.93 0.38 0.28 0.25 0.15 0.12 0.09
0.00 0.00 0.00 0.00 0.00 0.00 0.01 0.03 0.13 0.21 0.39 0.13 0.05 0.05 0.06 0.11 0.16 0.10 0.11 0.23 0.16 0.22 0.25 0.42 0.65 0.54 0.22 0.11 0.17 0.32 0.65 0.58 0.53 0.50 0.51 0.49 0.46 0.54 0.60 0.67 0.77 0.71 1.14 0.66 0.42 0.45 0.44 0.31 0.16
0.00 0.00 0.00 0.00 0.00 0.00 0.02 0.17 0.29 0.13 0.09 0.07 0.04 0.01 0.02 0.03 0.01 0.00 0.02 0.01 0.03 0.07 0.19 0.43 0.60 0.57 0.48 0.20 0.26 0.31 0.45 0.63 0.44 0.33 0.39 0.55 0.45 0.43 0.38 0.64 0.57 0.73 0.72 0.54 0.45 0.53 0.50 0.48 0.23
0.00 0.00 0.00 0.00 0.00 0.00 0.01 0.03 0.15 0.07 0.09 0.12 0.10 0.04 0.00 0.02 0.01 0.00 0.00 0.01 0.02 0.02 0.19 0.61 0.80 0.77 0.74 0.61 0.53 0.72 0.75 0.68 0.40 0.25 0.28 0.41 0.38 0.52 0.38 0.46 0.62 0.65 0.62 0.44 0.45 0.41 0.56 0.49 0.39
0.00 0.00 0.00 0.00 0.00 0.00 0.00 0.00 0.09 0.05 0.03 0.09 0.15 0.10 0.02 0.01 0.00 0.00 0.00 0.02 0.03 0.03 0.26 0.64 0.84 1.09 1.18 1.08 0.89 0.61 0.55 0.49 0.38 0.31 0.30 0.40 0.45 0.37 0.42 0.43 0.54 0.79 0.84 0.47 0.44 0.54 0.60 0.55 0.50
0.00 0.00 0.00 0.00 0.00 0.00 0.00 0.00 0.00 0.01 0.11 0.10 0.14 0.07 0.01 0.00 0.00 0.00 0.01 0.02 0.04 0.10 0.40 0.69 0.82 1.10 1.07 0.58 0.43 0.44 0.45 0.29 0.32 0.42 0.44 0.48 0.55 0.40 0.30 0.40 0.40 0.60 0.62 0.47 0.31 0.46 0.63 0.67 0.55
0.02 0.02 0.00 0.00 0.00 0.00 0.00 0.00 0.00 0.00 0.00 0.02 0.03 0.03 0.02 0.00 0.00 0.01 0.03 0.06 0.12 0.24 0.52 0.61 0.48 0.33 0.16 0.11 0.19 0.29 0.37 0.30 0.24 0.36 0.47 0.44 0.63 0.55 0.37 0.41 0.35 0.44 0.49 0.51 0.38 0.34 0.48 0.53 0.50
0.01 0.01 0.00 0.00 0.00 0.02 0.02 0.01 0.00 0.00 0.01 0.01 0.01 0.01 0.01 0.01 0.00 0.02 0.06 0.13 0.17 0.15 0.15 0.09 0.06 0.05 0.09 0.12 0.30 0.41 0.64 0.50 0.32 0.29 0.37 0.55 0.58 0.63 0.57 0.54 0.39 0.26 0.24 0.30 0.41 0.40 0.31 0.28 0.35
0.06 0.00 0.00 0.02 0.08 0.10 0.05 0.06 0.00 0.00 0.00 0.00 0.00 0.00 0.01 0.03 0.02 0.03 0.02 0.01 0.00 0.01 0.09 0.07 0.07 0.08 0.12 0.14 0.23 0.33 0.30 0.21 0.16 0.16 0.24 0.36 0.60 0.81 0.56 0.70 0.68 0.58 0.37 0.28 0.36 0.49 0.42 0.40 0.40
0.07 0.00 0.01 0.01 0.02 0.08 0.07 0.12 0.03 0.01 0.01 0.00 0.00 0.01 0.00 0.01 0.00 0.00 0.00 0.00 0.01 0.02 0.07 0.09 0.11 0.11 0.09 0.12 0.19 0.44 0.43 0.40 0.35 0.38 0.49 0.56 0.77 1.08 1.07 0.71 0.88 0.88 0.57 0.38 0.50 0.65 0.71 0.78 0.93
0.02 0.02 0.03 0.05 0.09 0.22 0.04 0.10 0.05 0.03 0.11 0.09 0.14 0.08 0.04 0.04 0.03 0.01 0.02 0.01 0.01 0.04 0.06 0.05 0.13 0.10 0.16 0.21 0.25 0.34 0.40 0.38 0.33 0.34 0.39 0.48 0.65 1.04 1.31 1.54 1.33 1.34 1.17 0.81 0.68 0.71 0.72 0.82 0.88
0.05 0.04 0.14 0.31 0.24 0.12 0.06 0.06 0.03 0.18 0.25 0.35 0.32 0.30 0.30 0.11 0.09 0.06 0.04 0.02 0.01 0.02 0.06 0.14 0.18 0.19 0.21 0.37 0.46 0.44 0.45 0.51 0.21 0.17 0.24 0.28 0.42 0.43 0.59 0.77 0.92 0.96 1.07 1.01 0.83 0.72 0.71 0.73 0.76
0.05 0.05 0.10 0.35 0.22 0.19 0.12 0.10 0.12 0.40 0.31 0.65 0.33 0.59 0.42 0.19 0.18 0.12 0.09 0.08 0.09 0.09 0.05 0.11 0.15 0.26 0.27 0.41 0.56 0.61 0.52 0.57 0.42 0.23 0.36 0.31 0.30 0.21 0.27 0.40 0.59 0.75 1.01 1.04 0.91 0.80 0.75 0.85 0.93
0.08 0.07 0.05 0.20 0.23 0.31 0.11 0.10 0.28 0.28 0.15 0.61 0.41 0.52 0.77 0.28 0.31 0.29 0.25 0.21 0.22 0.19 0.14 0.15 0.18 0.28 0.31 0.36 0.52 0.66 0.72 0.65 0.47 0.40 0.50 0.47 0.32 0.22 0.25 0.36 0.55 0.83 1.10 1.16 1.17 1.12 1.04 1.08 1.02
0.04 0.04 0.10 0.21 0.48 0.40 0.18 0.21 0.42 0.33 0.20 0.43 0.93 0.64 0.84 0.48 0.39 0.41 0.47 0.41 0.25 0.29 0.23 0.21 0.20 0.24 0.24 0.26 0.37 0.47 0.55 0.71 0.63 0.50 0.60 0.60 0.59 0.52 0.56 0.59 0.67 0.68 0.75 0.78 0.90 0.93 0.80 0.75 0.69
0.04 0.07 0.10 0.20 0.21 0.38 0.51 0.62 0.86 0.61 0.43 0.48 0.63 1.16 0.72 0.75 0.50 0.58 0.90 0.80 0.44 0.35 0.29 0.21 0.21 0.26 0.31 0.38 0.32 0.36 0.43 0.43 0.83 1.20 1.27 1.08 1.05 1.13 1.02 0.86 0.77 0.83 0.94 1.02 0.92 0.69 0.65 0.71 0.72
0.05 0.08 0.10 0.29 0.26 0.32 0.58 1.41 1.09 0.73 0.59 0.57 0.68 1.16 1.21 0.88 0.80 0.55 0.46 0.58 0.78 0.50 0.20 0.12 0.15 0.33 0.75 1.02 1.13 0.92 1.13 1.15 1.21 1.57 1.52 1.32 1.19 0.96 0.86 0.97 0.90 0.72 0.61 0.55 0.55 0.54 0.53 0.50 0.58

GFSSGP_prec_precacc_138.txt.gz
Total_Precipitation_Accumulation
0.00 0.00 0.00 0.00 0.00 0.00 0.00 0.00 0.00 0.03 0.09 0.13 0.18 0.22 0.24 0.16 0.47 1.04 0.97 1.23 1.83 1.44 1.03 1.58 1.30 0.62 0.25 0.22 0.19 0.04 0.03 0.02 0.02 0.00 0.00 0.00 0.01 0.00 0.01 0.02 0.10 0.13 0.07 0.06 0.03 0.03 0.04 0.07 0.07
0.00 0.00 0.00 0.00 0.00 0.00 0.00 0.01 0.01 0.03 0.17 0.23 0.32 0.35 0.43 0.37 0.17 0.64 0.86 0.71 0.66 1.44 1.56 1.44 2.29 1.43 0.96 0.70 0.77 0.82 0.37 0.25 0.04 0.00 0.01 0.03 0.01 0.00 0.02 0.02 0.08 0.07 0.06 0.05 0.04 0.07 0.09 0.10 0.10
0.00 0.00 0.00 0.00 0.00 0.00 0.00 0.01 0.05 0.08 0.16 0.14 0.11 0.20 0.44 0.64 0.60 0.70 0.78 0.90 0.80 1.05 0.97 1.28 2.08 1.57 1.03 1.12 1.12 1.65 1.98 1.87 1.01 0.42 0.36 0.32 0.22 0.14 0.08 0.08 0.10 0.10 0.15 0.14 0.09 0.16 0.16 0.06 0.03
0.00 0.00 0.00 0.00 0.00 0.00 0.00 0.02 0.07 0.10 0.11 0.09 0.10 0.21 0.49 0.58 0.48 0.44 0.76 1.28 1.83 2.03 1.47 1.74 2.10 1.30 0.70 1.09 1.43 1.50 2.15 3.35 4.17 4.05 2.50 1.31 0.84 0.44 0.39 0.29 0.26 0.26 0.32 0.39 0.42 0.44 0.36 0.03 0.00
0.00 0.00 0.00 0.00 0.00 0.00 0.00 0.02 0.08 0.11 0.11 0.42 0.18 0.11 0.66 0.80 0.31 0.42 1.15 2.28 3.41 4.56 4.04 3.63 3.90 5.05 2.78 2.51 1.70 1.31 1.44 2.50 4.86 5.24 3.84 2.51 1.88 1.68 1.17 0.68 0.51 0.55 0.52 0.42 0.43 0.26 0.18 0.02 0.00
0.00 0.00 0.00 0.00 0.00 0.01 0.03 0.13 0.22 0.37 0.35 0.46 0.35 0.42 0.86 0.47 0.38 0.75 1.60 3.62 5.15 6.63 8.73 9.01 7.66 8.03 7.58 4.81 2.99 1.95 1.38 1.22 1.62 2.34 1.93 1.99 2.27 1.75 1.62 1.44 0.88 0.60 0.43 0.40 0.28 0.12 0.08 0.05 0.02
0.00 0.00 0.00 0.00 0.01 0.00 0.02 0.15 0.35 0.53 0.42 0.20 0.38 0.40 0.95 0.96 0.77 0.88 1.55 2.78 5.21 5.54 7.03 10.68 9.49 7.14 5.90 6.72 5.91 3.53 2.59 1.66 1.44 1.39 1.70 1.31 2.10 1.61 1.23 1.39 1.60 0.78 0.42 0.61 0.47 0.32 0.54 0.21 0.23
0.00 0.00 0.00 0.00 0.01 0.02 0.06 0.15 0.21 0.15 0.09 0.07 0.15 0.46 1.10 0.76 0.53 0.47 0.58 0.86 2.15 2.59 3.35 3.93 4.06 3.28 2.87 3.59 4.48 4.30 2.96 2.42 2.12 1.36 1.46 1.58 1.52 1.35 1.28 1.33 1.50 1.22 0.57 0.47 0.44 0.59 0.48 0.57 0.38
0.00 0.00 0.00 0.00 0.03 0.11 0.16 0.28 0.33 0.20 0.06 0.11 0.26 0.18 0.28 0.46 0.34 0.34 0.61 0.72 1.36 2.28 1.62 1.65 1.26 0.85 0.83 1.26 2.01 2.73 2.46 2.46 2.51 2.03 1.22 1.94 2.05 1.06 1.21 1.48 1.20 0.83 0.52 0.46 0.48 0.44 0.56 0.56 0.63
0.00 0.00 0.00 0.00 0.06 0.33 0.29 0.15 0.03 0.01 0.01 0.20 0.53 0.53 0.32 0.33 0.25 0.20 0.26 0.62 1.09 0.94 0.77 0.49 0.39 0.30 0.25 0.24 0.37 0.73 1.50 2.23 2.24 2.82 1.43 1.37 2.29 1.23 1.19 1.63 1.01 0.80 0.57 0.48 0.46 0.40 0.44 0.47 0.44
0.00 0.00 0.00 0.00 0.00 0.00 0.01 0.01 0.00 0.00 0.19 0.52 0.67 0.50 0.42 0.34 0.24 0.27 0.45 0.40 0.52 0.32 0.21 0.27 0.47 0.47 0.20 0.19 0.16 0.24 0.68 1.48 1.54 2.52 2.13 0.86 1.26 1.52 1.57 2.04 1.24 0.75 0.56 0.48 0.46 0.24 0.19 0.15 0.22
0.00 0.00 0.00 0.00 0.00 0.00 0.00 0.00 0.01 0.04 0.27 0.22 0.26 0.69 0.62 0.49 0.39 0.33 0.29 0.22 0.11 0.15 0.16 0.12 0.12 0.20 0.24 0.24 0.20 0.21 0.52 0.90 0.95 1.26 2.29 1.07 0.92 1.09 1.44 1.52 1.11 0.54 0.40 0.29 0.29 0.15 0.09 0.06 0.14
0.00 0.00 0.00 0.00 0.00 0.00 0.00 0.01 0.02 0.08 0.45 0.51 0.27 0.32 0.45 0.50 0.44 0.51 0.31 0.11 0.09 0.08 0.15 0.19 0.20 0.27 0.30 0.33 0.18 0.20 0.73 0.87 0.82 0.83 1.20 1.10 0.92 0.79 1.17 1.01 1.21 0.66 0.45 0.28 0.27 0.19 0.13 0.07 0.07
0.00 0.00 0.00 0.00 0.00 0.00 0.00 0.03 0.09 0.18 0.77 0.30 0.15 0.08 0.17 0.26 0.28 0.24 0.13 0.10 0.09 0.10 0.19 0.28 0.28 0.43 0.21 0.24 0.25 0.35 0.66 0.80 0.65 0.62 0.78 0.72 0.73 0.71 0.91 0.88 0.88 0.94 0.93 0.38 0.28 0.25 0.15 0.12 0.09
0.00 0.00 0.00 0.00 0.00 0.00 0.01 0.03 0.13 0.21 0.39 0.13 0.05 0.05 0.06 0.11 0.16 0.10 0.11 0.23 0.16 0.22 0.25 0.42 0.65 0.54 0.22 0.12 0.20 0.32 0.66 0.58 0.53 0.50 0.52 0.49 0.48 0.58 0.61 0.70 0.78 0.72 1.14 0.67 0.42 0.45 0.44 0.31 0.16
0.00 0.00 0.00 0.00 0.00 0.00 0.02 0.17 0.29 0.13 0.09 0.07 0.04 0.01 0.02 0.03 0.01 0.00 0.02 0.01 0.03 0.07 0.19 0.43 0.60 0.57 0.49 0.20 0.28 0.31 0.46 0.63 0.44 0.33 0.40 0.56 0.47 0.47 0.39 0.65 0.59 0.76 0.72 0.54 0.46 0.53 0.50 0.48 0.23
0.00 0.00 0.00 0.00 0.00 0.00 0.01 0.03 0.15 0.07 0.09 0.12 0.10 0.04 0.00 0.02 0.01 0.00 0.00 0.01 0.02 0.02 0.19 0.61 0.80 0.77 0.74 0.64 0.55 0.76 0.76 0.68 0.40 0.25 0.28 0.41 0.38 0.55 0.40 0.47 0.64 0.72 0.65 0.44 0.45 0.42 0.56 0.49 0.39
0.00 0.00 0.00 0.00 0.00 0.00 0.00 0.00 0.09 0.05 0.03 0.09 0.15 0.10 0.02 0.01 0.00 0.00 0.00 0.02 0.03 0.03 0.26 0.64 0.84 1.09 1.18 1.10 0.95 0.68 0.58 0.51 0.40 0.31 0.30 0.40 0.46 0.37 0.45 0.44 0.56 0.81 0.87 0.48 0.44 0.55 0.60 0.55 0.50
0.00 0.00 0.00 0.00 0.00 0.00 0.00 0.00 0.00 0.01 0.11 0.10 0.14 0.07 0.01 0.00 0.00 0.00 0.01 0.02 0.04 0.10 0.40 0.69 0.82 1.10 1.07 0.60 0.50 0.52 0.49 0.35 0.39 0.42 0.44 0.48 0.55 0.40 0.31 0.42 0.42 0.61 0.64 0.48 0.31 0.48 0.66 0.67 0.56
0.02 0.02 0.00 0.00 0.00 0.00 0.00 0.00 0.00 0.00 0.00 0.02 0.03 0.03 0.02 0.00 0.00 0.01 0.03 0.06 0.12 0.24 0.52 0.61 0.48 0.33 0.16 0.11 0.21 0.36 0.47 0.42 0.31 0.39 0.47 0.44 0.63 0.55 0.37 0.41 0.36 0.44 0.50 0.53 0.39 0.34 0.49 0.55 0.52
0.01 0.01 0.00 0.00 0.00 0.02 0.02 0.01 0.00 0.00 0.01 0.01 0.01 0.01 0.01 0.01 0.00 0.02 0.06 0.13 0.17 0.15 0.15 0.09 0.06 0.05 0.09 0.12 0.31 0.53 0.86 0.75 0.53 0.39 0.38 0.55 0.58 0.63 0.57 0.54 0.39 0.26 0.24 0.31 0.43 0.41 0.31 0.28 0.36
0.06 0.00 0.00 0.02 0.08 0.10 0.05 0.06 0.00 0.00 0.00 0.00 0.00 0.00 0.01 0.03 0.02 0.03 0.02 0.01 0.00 0.01 0.09 0.07 0.07 0.08 0.12 0.14 0.24 0.41 0.41 0.30 0.19 0.20 0.25 0.36 0.60 0.81 0.56 0.70 0.68 0.58 0.38 0.28 0.38 0.50 0.43 0.41 0.41
0.07 0.00 0.01 0.01 0.02 0.08 0.07 0.12 0.03 0.01 0.01 0.00 0.00 0.01 0.00 0.01 0.00 0.00 0.00 0.00 0.01 0.02 0.07 0.09 0.11 0.11 0.09 0.12 0.19 0.48 0.55 0.51 0.46 0.51 0.61 0.58 0.77 1.08 1.07 0.72 0.88 0.89 0.58 0.38 0.50 0.65 0.71 0.79 0.98
0.02 0.02 0.03 0.05 0.09 0.22 0.04 0.10 0.05 0.03 0.11 0.09 0.14 0.08 0.04 0.04 0.03 0.01 0.02 0.01 0.01 0.04 0.06 0.05 0.13 0.10 0.16 0.21 0.25 0.36 0.48 0.53 0.53 0.49 0.50 0.54 0.65 1.04 1.31 1.54 1.34 1.34 1.17 0.81 0.68 0.71 0.72 0.83 0.92
0.05 0.04 0.14 0.31 0.24 0.12 0.06 0.07 0.03 0.18 0.25 0.35 0.32 0.30 0.30 0.11 0.09 0.06 0.04 0.02 0.01 0.02 0.06 0.14 0.18 0.19 0.21 0.37 0.46 0.47 0.53 0.67 0.43 0.31 0.31 0.31 0.42 0.43 0.59 0.77 0.92 0.96 1.07 1.02 0.83 0.73 0.71 0.73 0.77
0.05 0.05 0.10 0.36 0.22 0.19 0.12 0.11 0.12 0.40 0.31 0.65 0.33 0.59 0.42 0.19 0.18 0.12 0.10 0.08 0.09 0.09 0.05 0.12 0.15 0.27 0.28 0.41 0.56 0.70 0.64 0.75 0.63 0.45 0.43 0.33 0.30 0.22 0.27 0.40 0.59 0.75 1.02 1.06 0.94 0.82 0.76 0.85 0.93
0.08 0.08 0.05 0.20 0.23 0.31 0.12 0.14 0.28 0.28 0.15 0.61 0.41 0.52 0.77 0.28 0.31 0.30 0.25 0.23 0.23 0.21 0.17 0.20 0.23 0.33 0.38 0.41 0.53 0.84 1.02 0.94 0.86 0.80 0.91 0.75 0.51 0.29 0.26 0.37 0.57 0.84 1.12 1.24 1.21 1.14 1.04 1.08 1.02
0.04 0.04 0.10 0.22 0.49 0.40 0.18 0.23 0.43 0.33 0.21 0.44 0.93 0.64 0.84 0.48 0.39 0.42 0.52 0.49 0.34 0.35 0.30 0.28 0.29 0.32 0.34 0.40 0.42 0.66 0.97 1.15 1.03 1.05 1.04 1.01 0.79 0.68 0.64 0.63 0.76 0.90 0.86 0.82 0.91 0.93 0.80 0.75 0.69
0.04 0.07 0.10 0.20 0.21 0.38 0.53 0.65 0.87 0.62 0.43 0.48 0.63 1.16 0.73 0.76 0.52 0.61 0.96 0.94 0.66 0.60 0.50 0.43 0.40 0.40 0.41 0.48 0.40 0.48 0.88 0.91 1.45 1.86 1.73 1.57 1.34 1.29 1.10 0.92 0.84 1.03 1.34 1.26 0.98 0.71 0.66 0.72 0.73
0.05 0.08 0.10 0.30 0.27 0.36 0.70 1.53 1.10 0.73 0.60 0.57 0.68 1.16 1.22 0.89 0.82 0.60 0.56 0.78 1.14 1.05 0.64 0.44 0.37 0.55 0.92 1.12 1.23 1.05 1.36 1.64 1.79 2.15 1.93 1.54 1.49 1.24 1.05 1.17 1.02 0.80 0.66 0.61 0.59 0.56 0.54 0.51 0.59

GFSSGP_prec_precacc_141.txt.gz
Total_Precipitation_Accumulation
0.00 0.00 0.00 0.00 0.00 0.00 0.00 0.00 0.00 0.03 0.09 0.13 0.18 0.22 0.24 0.16 0.47 1.04 0.98 1.23 1.83 1.44 1.03 1.58 1.30 0.62 0.25 0.22 0.19 0.04 0.03 0.02 0.02 0.00 0.00 0.00 0.01 0.00 0.01 0.02 0.10 0.13 0.07 0.06 0.03 0.03 0.04 0.07 0.07
0.00 0.00 0.00 0.00 0.00 0.00 0.00 0.01 0.01 0.03 0.17 0.23 0.32 0.35 0.43 0.37 0.17 0.64 0.86 0.71 0.66 1.44 1.56 1.44 2.29 1.43 0.96 0.70 0.77 0.82 0.37 0.25 0.04 0.00 0.01 0.03 0.01 0.00 0.02 0.02 0.08 0.07 0.06 0.05 0.04 0.07 0.09 0.10 0.10
0.00 0.00 0.00 0.00 0.00 0.00 0.00 0.01 0.05 0.08 0.16 0.14 0.11 0.20 0.44 0.64 0.60 0.70 0.78 0.90 0.80 1.05 0.97 1.28 2.08 1.57 1.03 1.12 1.12 1.65 1.98 1.87 1.01 0.42 0.36 0.32 0.22 0.14 0.08 0.08 0.10 0.10 0.15 0.14 0.09 0.16 0.16 0.06 0.03
0.00 0.00 0.00 0.00 0.00 0.00 0.00 0.02 0.07 0.10 0.11 0.09 0.10 0.21 0.49 0.58 0.48 0.44 0.76 1.28 1.83 2.03 1.47 1.74 2.10 1.30 0.70 1.09 1.43 1.50 2.15 3.35 4.17 4.05 2.50 1.31 0.84 0.44 0.39 0.29 0.26 0.26 0.32 0.39 0.42 0.44 0.36 0.03 0.00
0.00 0.00 0.00 0.00 0.00 0.00 0.00 0.02 0.08 0.11 0.11 0.42 0.18 0.11 0.66 0.80 0.31 0.42 1.15 2.28 3.41 4.56 4.04 3.63 3.90 5.05 2.78 2.51 1.70 1.31 1.44 2.50 4.86 5.24 3.84 2.51 1.88 1.68 1.17 0.68 0.51 0.55 0.52 0.42 0.43 0.26 0.18 0.02 0.00
0.00 0.00 0.00 0.00 0.00 0.01 0.03 0.13 0.22 0.37 0.35 0.46 0.35 0.42 0.86 0.47 0.38 0.75 1.60 3.62 5.15 6.63 8.73 9.01 7.66 8.03 7.58 4.81 2.99 1.95 1.38 1.22 1.62 2.34 1.93 1.99 2.27 1.75 1.62 1.44 0.88 0.60 0.43 0.40 0.28 0.12 0.08 0.05 0.02
0.00 0.00 0.00 0.00 0.01 0.00 0.02 0.15 0.35 0.53 0.42 0.20 0.38 0.40 0.95 0.96 0.77 0.88 1.55 2.78 5.21 5.54 7.03 10.68 9.49 7.14 5.90 6.72 5.91 3.53 2.59 1.66 1.44 1.39 1.70 1.31 2.10 1.61 1.23 1.39 1.60 0.78 0.42 0.61 0.47 0.32 0.54 0.21 0.23
0.00 0.00 0.00 0.00 0.01 0.02 0.06 0.15 0.21 0.15 0.09 0.07 0.15 0.46 1.10 0.76 0.53 0.47 0.58 0.86 2.15 2.59 3.35 3.93 4.06 3.28 2.87 3.59 4.48 4.30 2.96 2.42 2.12 1.36 1.46 1.58 1.52 1.35 1.28 1.33 1.50 1.22 0.57 0.47 0.44 0.59 0.48 0.57 0.38
0.00 0.00 0.00 0.00 0.03 0.11 0.16 0.28 0.33 0.20 0.06 0.11 0.26 0.18 0.28 0.46 0.34 0.34 0.61 0.72 1.36 2.28 1.62 1.65 1.26 0.85 0.83 1.26 2.01 2.73 2.46 2.46 2.51 2.03 1.22 1.94 2.05 1.06 1.21 1.48 1.20 0.83 0.52 0.46 0.48 0.44 0.56 0.56 0.63
0.00 0.00 0.00 0.00 0.06 0.33 0.29 0.15 0.03 0.01 0.01 0.20 0.53 0.53 0.32 0.33 0.25 0.20 0.26 0.62 1.09 0.94 0.77 0.49 0.39 0.30 0.25 0.24 0.37 0.73 1.50 2.23 2.24 2.82 1.43 1.37 2.29 1.23 1.19 1.63 1.01 0.80 0.57 0.48 0.46 0.40 0.44 0.47 0.44
0.00 0.00 0.00 0.00 0.00 0.00 0.01 0.01 0.00 0.00 0.19 0.52 0.67 0.50 0.42 0.34 0.24 0.27 0.45 0.40 0.52 0.32 0.21 0.27 0.47 0.48 0.20 0.19 0.16 0.24 0.68 1.48 1.54 2.52 2.13 0.86 1.26 1.52 1.57 2.04 1.24 0.75 0.56 0.48 0.46 0.24 0.19 0.15 0.22
0.00 0.00 0.00 0.00 0.00 0.00 0.00 0.00 0.01 0.04 0.27 0.22 0.26 0.69 0.62 0.49 0.39 0.33 0.29 0.22 0.11 0.15 0.16 0.12 0.17 0.24 0.25 0.24 0.20 0.21 0.52 0.90 0.95 1.26 2.29 1.07 0.92 1.09 1.44 1.52 1.11 0.54 0.40 0.29 0.29 0.15 0.09 0.06 0.14
0.00 0.00 0.00 0.00 0.00 0.00 0.00 0.01 0.02 0.08 0.45 0.51 0.27 0.32 0.45 0.50 0.44 0.51 0.31 0.11 0.09 0.08 0.15 0.19 0.20 0.37 0.46 0.45 0.21 0.20 0.73 0.87 0.82 0.83 1.20 1.10 0.92 0.79 1.17 1.01 1.21 0.66 0.45 0.28 0.27 0.19 0.13 0.07 0.07
0.00 0.00 0.00 0.00 0.00 0.00 0.00 0.03 0.09 0.18 0.77 0.30 0.15 0.08 0.17 0.26 0.28 0.24 0.13 0.10 0.09 0.10 0.19 0.28 0.28 0.44 0.34 0.49 0.51 0.53 0.68 0.80 0.65 0.62 0.78 0.72 0.73 0.71 0.91 0.88 0.88 0.94 0.93 0.38 0.28 0.25 0.15 0.12 0.09
0.00 0.00 0.00 0.00 0.00 0.00 0.01 0.03 0.13 0.21 0.39 0.13 0.05 0.05 0.06 0.11 0.16 0.10 0.11 0.23 0.16 0.22 0.25 0.42 0.65 0.54 0.27 0.24 0.29 0.53 0.90 0.69 0.55 0.50 0.52 0.49 0.48 0.58 0.61 0.70 0.78 0.72 1.14 0.67 0.42 0.45 0.44 0.31 0.16
0.00 0.00 0.00 0.00 0.00 0.00 0.02 0.17 0.29 0.13 0.09 0.07 0.04 0.01 0.02 0.03 0.01 0.00 0.02 0.01 0.03 0.07 0.19 0.43 0.60 0.57 0.50 0.32 0.45 0.47 0.75 0.80 0.61 0.38 0.40 0.56 0.47 0.47 0.39 0.65 0.59 0.77 0.73 0.54 0.46 0.53 0.50 0.48 0.23
0.00 0.00 0.00 0.00 0.00 0.00 0.01 0.03 0.15 0.07 0.09 0.12 0.10 0.04 0.00 0.02 0.01 0.00 0.00 0.01 0.02 0.02 0.19 0.61 0.80 0.77 0.74 0.64 0.64 0.90 0.87 0.88 0.52 0.44 0.36 0.42 0.38 0.55 0.40 0.47 0.64 0.72 0.65 0.44 0.45 0.42 0.56 0.49 0.39
0.00 0.00 0.00 0.00 0.00 0.00 0.00 0.00 0.09 0.05 0.03 0.09 0.15 0.10 0.02 0.01 0.00 0.00 0.00 0.02 0.03 0.03 0.26 0.64 0.84 1.09 1.18 1.10 0.96 0.77 0.73 0.66 0.64 0.46 0.42 0.50 0.47 0.37 0.45 0.44 0.56 0.81 0.87 0.48 0.44 0.55 0.61 0.56 0.50
0.00 0.00 0.00 0.00 0.00 0.00 0.00 0.00 0.00 0.01 0.11 0.10 0.14 0.07 0.01 0.00 0.00 0.00 0.01 0.02 0.04 0.10 0.40 0.69 0.82 1.10 1.07 0.60 0.50 0.53 0.52 0.40 0.55 0.56 0.58 0.65 0.68 0.42 0.31 0.42 0.42 0.61 0.64 0.48 0.31 0.48 0.66 0.67 0.56
0.02 0.02 0.00 0.00 0.00 0.00 0.00 0.00 0.00 0.00 0.00 0.02 0.03 0.03 0.02 0.00 0.00 0.01 0.03 0.06 0.12 0.24 0.52 0.61 0.48 0.33 0.16 0.11 0.21 0.36 0.47 0.48 0.46 0.54 0.71 0.63 0.83 0.67 0.38 0.41 0.36 0.44 0.50 0.53 0.39 0.34 0.49 0.55 0.52
0.01 0.01 0.00 0.00 0.00 0.02 0.02 0.01 0.00 0.00 0.01 0.01 0.01 0.01 0.01 0.01 0.00 0.02 0.06 0.13 0.17 0.15 0.15 0.09 0.06 0.05 0.09 0.12 0.31 0.53 0.86 0.80 0.67 0.54 0.57 0.73 0.87 0.86 0.66 0.55 0.40 0.26 0.24 0.31 0.43 0.41 0.31 0.28 0.36
0.06 0.00 0.00 0.02 0.08 0.10 0.05 0.06 0.00 0.00 0.00 0.00 0.00 0.00 0.01 0.03 0.02 0.03 0.02 0.01 0.00 0.01 0.09 0.07 0.07 0.08 0.12 0.14 0.24 0.41 0.41 0.31 0.23 0.23 0.28 0.41 0.75 1.05 0.72 0.74 0.69 0.58 0.38 0.28 0.38 0.50 0.43 0.41 0.41
0.07 0.00 0.01 0.01 0.02 0.08 0.07 0.12 0.03 0.01 0.01 0.00 0.00 0.01 0.00 0.01 0.00 0.00 0.00 0.00 0.01 0.02 0.07 0.09 0.11 0.11 0.09 0.12 0.19 0.48 0.55 0.51 0.49 0.60 0.76 0.89 1.05 1.33 1.21 0.76 0.88 0.89 0.58 0.38 0.50 0.65 0.71 0.79 0.98
0.02 0.02 0.03 0.05 0.09 0.22 0.04 0.10 0.05 0.03 0.11 0.09 0.14 0.08 0.04 0.04 0.03 0.01 0.02 0.01 0.01 0.04 0.06 0.05 0.13 0.10 0.16 0.21 0.25 0.36 0.48 0.53 0.53 0.54 0.63 0.80 1.03 1.36 1.50 1.59 1.34 1.34 1.17 0.82 0.68 0.71 0.72 0.83 0.92
0.05 0.04 0.14 0.31 0.24 0.12 0.06 0.07 0.03 0.18 0.25 0.35 0.32 0.30 0.30 0.11 0.09 0.06 0.04 0.02 0.01 0.02 0.06 0.14 0.18 0.19 0.21 0.37 0.46 0.47 0.53 0.67 0.43 0.32 0.40 0.49 0.70 0.69 0.79 0.87 0.94 0.96 1.07 1.02 0.83 0.73 0.71 0.73 0.77
0.05 0.05 0.10 0.36 0.22 0.19 0.12 0.11 0.12 0.40 0.31 0.65 0.33 0.59 0.42 0.19 0.18 0.12 0.10 0.08 0.10 0.10 0.06 0.12 0.15 0.27 0.28 0.41 0.56 0.70 0.64 0.75 0.63 0.47 0.57 0.47 0.45 0.50 0.69 0.82 0.66 0.76 1.02 1.06 0.95 0.85 0.78 0.85 0.93
0.08 0.08 0.05 0.20 0.23 0.31 0.12 0.14 0.28 0.28 0.15 0.61 0.41 0.52 0.77 0.28 0.31 0.30 0.26 0.23 0.25 0.23 0.18 0.21 0.24 0.33 0.39 0.41 0.54 0.84 1.03 0.94 0.86 0.81 1.21 1.21 0.78 0.63 0.75 1.16 0.91 0.87 1.12 1.24 1.23 1.19 1.07 1.09 1.02
0.04 0.04 0.10 0.22 0.49 0.40 0.18 0.23 0.43 0.33 0.21 0.44 0.93 0.64 0.84 0.48 0.39 0.42 0.52 0.50 0.36 0.39 0.33 0.29 0.30 0.33 0.36 0.42 0.54 0.74 0.98 1.15 1.03 1.06 1.22 1.54 1.56 1.24 1.19 1.29 1.09 0.98 0.89 0.88 0.95 0.97 0.83 0.76 0.69
0.04 0.07 0.10 0.20 0.21 0.38 0.53 0.65 0.87 0.62 0.43 0.48 0.63 1.16 0.73 0.76 0.52 0.61 0.96 0.95 0.68 0.61 0.52 0.45 0.44 0.45 0.47 0.53 0.51 0.63 0.98 0.95 1.46 1.88 1.86 2.00 2.27 2.18 1.84 1.51 1.30 1.19 1.54 1.63 1.21 0.84 0.75 0.77 0.74
0.05 0.08 0.10 0.30 0.27 0.37 0.71 1.55 1.11 0.73 0.60 0.57 0.68 1.16 1.22 0.89 0.82 0.60 0.56 0.78 1.14 1.06 0.70 0.53 0.48 0.67 1.12 1.36 1.42 1.22 1.53 1.74 1.81 2.17 2.11 1.68 2.40 2.47 2.28 2.27 1.68 0.98 0.90 1.01 1.04 0.83 0.81 0.69 0.68

GFSSGP_prec_precacc_144.txt.gz
Total_Precipitation_Accumulation
0.00 0.00 0.00 0.00 0.00 0.00 0.00 0.00 0.00 0.03 0.09 0.13 0.18 0.22 0.24 0.16 0.47 1.04 0.98 1.23 1.83 1.44 1.03 1.58 1.30 0.62 0.25 0.22 0.19 0.04 0.03 0.02 0.02 0.00 0.00 0.00 0.01 0.00 0.01 0.02 0.10 0.13 0.07 0.06 0.03 0.03 0.04 0.07 0.08
0.00 0.00 0.00 0.00 0.00 0.00 0.00 0.01 0.01 0.03 0.17 0.23 0.32 0.35 0.43 0.37 0.17 0.64 0.86 0.71 0.66 1.44 1.56 1.44 2.29 1.43 0.96 0.70 0.77 0.82 0.37 0.25 0.04 0.00 0.01 0.03 0.01 0.00 0.02 0.02 0.08 0.07 0.06 0.05 0.04 0.07 0.09 0.10 0.11
0.00 0.00 0.00 0.00 0.00 0.00 0.00 0.01 0.05 0.08 0.16 0.14 0.11 0.20 0.44 0.64 0.60 0.70 0.78 0.90 0.80 1.05 0.97 1.28 2.08 1.57 1.03 1.12 1.12 1.65 1.98 1.87 1.01 0.42 0.36 0.32 0.22 0.14 0.08 0.08 0.10 0.10 0.15 0.14 0.09 0.16 0.16 0.06 0.03
0.00 0.00 0.00 0.00 0.00 0.00 0.00 0.02 0.07 0.10 0.11 0.09 0.10 0.21 0.49 0.58 0.48 0.44 0.76 1.28 1.83 2.03 1.47 1.74 2.11 1.30 0.70 1.09 1.43 1.50 2.15 3.35 4.17 4.05 2.50 1.31 0.84 0.44 0.39 0.29 0.26 0.26 0.32 0.39 0.42 0.44 0.36 0.03 0.00
0.00 0.00 0.00 0.00 0.00 0.00 0.00 0.02 0.08 0.11 0.11 0.42 0.18 0.11 0.66 0.80 0.31 0.42 1.15 2.28 3.41 4.56 4.04 3.63 3.90 5.05 2.78 2.51 1.70 1.31 1.44 2.50 4.86 5.24 3.84 2.51 1.88 1.68 1.17 0.68 0.51 0.55 0.52 0.42 0.43 0.26 0.18 0.02 0.00
0.00 0.00 0.00 0.00 0.00 0.01 0.03 0.13 0.22 0.37 0.35 0.46 0.35 0.42 0.86 0.47 0.38 0.75 1.60 3.62 5.15 6.63 8.73 9.01 7.66 8.03 7.58 4.81 2.99 1.95 1.38 1.22 1.62 2.34 1.93 1.99 2.27 1.75 1.62 1.44 0.88 0.60 0.43 0.40 0.28 0.12 0.08 0.05 0.02
0.00 0.00 0.00 0.00 0.01 0.00 0.02 0.15 0.35 0.53 0.42 0.20 0.38 0.40 0.95 0.96 0.77 0.88 1.55 2.78 5.21 5.54 7.03 10.68 9.49 7.14 5.90 6.72 5.91 3.53 2.59 1.66 1.44 1.39 1.70 1.31 2.10 1.61 1.23 1.39 1.60 0.78 0.42 0.61 0.47 0.32 0.54 0.21 0.23
0.00 0.00 0.00 0.00 0.01 0.02 0.06 0.15 0.21 0.15 0.09 0.07 0.15 0.46 1.10 0.76 0.53 0.47 0.58 0.86 2.15 2.59 3.35 3.93 4.06 3.28 2.87 3.59 4.48 4.30 2.96 2.42 2.12 1.36 1.46 1.58 1.52 1.35 1.28 1.33 1.50 1.22 0.57 0.47 0.44 0.59 0.48 0.57 0.38
0.00 0.00 0.00 0.00 0.03 0.11 0.16 0.28 0.33 0.20 0.06 0.11 0.26 0.18 0.28 0.46 0.34 0.34 0.61 0.72 1.36 2.28 1.62 1.65 1.26 0.85 0.83 1.26 2.01 2.73 2.46 2.46 2.51 2.03 1.22 1.94 2.05 1.06 1.21 1.48 1.20 0.83 0.52 0.46 0.48 0.44 0.56 0.56 0.63
0.00 0.00 0.00 0.00 0.06 0.33 0.29 0.15 0.03 0.01 0.01 0.20 0.53 0.53 0.32 0.33 0.25 0.20 0.26 0.62 1.09 0.94 0.77 0.49 0.39 0.30 0.25 0.24 0.37 0.73 1.50 2.23 2.24 2.82 1.43 1.37 2.29 1.23 1.19 1.63 1.01 0.80 0.57 0.48 0.46 0.40 0.44 0.47 0.44
0.00 0.00 0.00 0.00 0.00 0.00 0.01 0.01 0.00 0.00 0.19 0.52 0.67 0.50 0.42 0.34 0.24 0.27 0.45 0.40 0.52 0.32 0.21 0.27 0.48 0.48 0.20 0.19 0.16 0.25 0.68 1.48 1.54 2.52 2.13 0.86 1.26 1.52 1.57 2.04 1.24 0.75 0.56 0.48 0.46 0.24 0.19 0.15 0.22
0.00 0.00 0.00 0.00 0.00 0.00 0.00 0.00 0.01 0.04 0.27 0.22 0.26 0.69 0.62 0.49 0.39 0.33 0.29 0.22 0.11 0.15 0.16 0.12 0.17 0.24 0.25 0.25 0.24 0.26 0.52 0.90 0.95 1.26 2.29 1.07 0.92 1.09 1.44 1.52 1.11 0.54 0.40 0.29 0.29 0.15 0.09 0.06 0.14
0.00 0.00 0.00 0.00 0.00 0.00 0.00 0.01 0.02 0.08 0.45 0.51 0.27 0.32 0.45 0.50 0.44 0.51 0.31 0.11 0.09 0.08 0.15 0.19 0.20 0.37 0.46 0.47 0.35 0.26 0.75 0.89 0.82 0.83 1.20 1.10 0.92 0.79 1.17 1.01 1.21 0.66 0.45 0.28 0.27 0.19 0.13 0.07 0.07
0.00 0.00 0.00 0.00 0.00 0.00 0.00 0.03 0.09 0.18 0.77 0.30 0.15 0.08 0.17 0.26 0.28 0.24 0.13 0.10 0.09 0.10 0.19 0.28 0.28 0.44 0.34 0.49 0.56 0.65 0.81 0.94 0.74 0.63 0.78 0.72 0.73 0.71 0.91 0.88 0.88 0.94 0.93 0.38 0.28 0.25 0.15 0.12 0.09
0.00 0.00 0.00 0.00 0.00 0.00 0.01 0.03 0.13 0.21 0.39 0.13 0.05 0.05 0.06 0.11 0.16 0.10 0.11 0.23 0.16 0.22 0.25 0.42 0.65 0.54 0.27 0.24 0.29 0.64 1.06 0.87 0.75 0.62 0.55 0.53 0.49 0.58 0.61 0.70 0.78 0.72 1.14 0.67 0.42 0.45 0.44 0.31 0.16
0.00 0.00 0.00 0.00 0.00 0.00 0.02 0.17 0.29 0.13 0.09 0.07 0.04 0.01 0.02 0.03 0.01 0.00 0.02 0.01 0.03 0.07 0.19 0.43 0.60 0.57 0.50 0.32 0.45 0.47 0.83 1.08 0.90 0.66 0.61 0.74 0.58 0.50 0.39 0.65 0.59 0.77 0.73 0.54 0.46 0.53 0.50 0.48 0.23
0.00 0.00 0.00 0.00 0.00 0.00 0.01 0.03 0.15 0.07 0.09 0.12 0.10 0.04 0.00 0.02 0.01 0.00 0.00 0.01 0.02 0.02 0.19 0.61 0.80 0.77 0.74 0.64 0.64 0.90 0.87 0.92 0.72 0.74 0.65 0.58 0.49 0.62 0.45 0.47 0.64 0.72 0.65 0.44 0.45 0.42 0.56 0.49 0.39
0.00 0.00 0.00 0.00 0.00 0.00 0.00 0.00 0.09 0.05 0.03 0.09 0.15 0.10 0.02 0.01 0.00 0.00 0.00 0.02 0.03 0.03 0.26 0.64 0.84 1.09 1.18 1.10 0.96 0.77 0.73 0.66 0.67 0.60 0.64 0.72 0.72 0.61 0.64 0.48 0.56 0.81 0.87 0.48 0.44 0.55 0.61 0.56 0.50
0.00 0.00 0.00 0.00 0.00 0.00 0.00 0.00 0.00 0.01 0.11 0.10 0.14 0.07 0.01 0.00 0.00 0.00 0.01 0.02 0.04 0.10 0.40 0.69 0.82 1.10 1.07 0.60 0.50 0.53 0.52 0.40 0.55 0.57 0.64 0.81 1.01 0.94 0.72 0.57 0.44 0.61 0.64 0.48 0.31 0.48 0.66 0.67 0.56
0.02 0.02 0.00 0.00 0.00 0.00 0.00 0.00 0.00 0.00 0.00 0.02 0.03 0.03 0.02 0.00 0.00 0.01 0.03 0.06 0.12 0.24 0.52 0.61 0.48 0.33 0.16 0.11 0.21 0.36 0.47 0.48 0.46 0.54 0.71 0.67 0.99 0.99 0.79 0.68 0.43 0.45 0.50 0.53 0.39 0.34 0.49 0.55 0.52
0.01 0.01 0.00 0.00 0.00 0.02 0.02 0.01 0.00 0.00 0.01 0.01 0.01 0.01 0.01 0.01 0.00 0.02 0.06 0.13 0.17 0.15 0.15 0.09 0.06 0.05 0.09 0.12 0.31 0.53 0.86 0.80 0.67 0.54 0.57 0.73 0.91 1.08 0.97 0.83 0.60 0.34 0.27 0.31 0.43 0.41 0.31 0.28 0.36
0.06 0.00 0.00 0.02 0.08 0.10 0.05 0.06 0.00 0.00 0.00 0.00 0.00 0.00 0.01 0.03 0.02 0.03 0.02 0.01 0.00 0.01 0.09 0.07 0.07 0.08 0.12 0.14 0.24 0.41 0.41 0.31 0.23 0.23 0.28 0.41 0.75 1.13 0.93 1.15 1.13 0.91 0.47 0.29 0.38 0.50 0.43 0.41 0.41
0.07 0.00 0.01 0.01 0.02 0.08 0.07 0.12 0.03 0.01 0.01 0.00 0.00 0.01 0.00 0.01 0.00 0.00 0.00 0.00 0.01 0.02 0.07 0.09 0.11 0.11 0.09 0.12 0.19 0.48 0.55 0.52 0.50 0.60 0.76 0.89 1.05 1.37 1.33 1.13 1.54 1.58 0.95 0.44 0.51 0.65 0.71 0.79 0.98
0.02 0.02 0.03 0.05 0.09 0.22 0.04 0.10 0.05 0.03 0.11 0.09 0.14 0.08 0.04 0.04 0.03 0.01 0.02 0.01 0.01 0.04 0.06 0.05 0.13 0.10 0.16 0.21 0.25 0.36 0.49 0.54 0.54 0.55 0.63 0.80 1.03 1.37 1.55 1.75 1.78 2.21 2.00 1.15 0.74 0.74 0.74 0.83 0.92
0.05 0.04 0.14 0.31 0.24 0.12 0.06 0.07 0.03 0.18 0.25 0.35 0.32 0.30 0.30 0.11 0.09 0.06 0.04 0.02 0.01 0.02 0.06 0.14 0.18 0.19 0.21 0.37 0.46 0.47 0.54 0.68 0.44 0.32 0.40 0.49 0.70 0.69 0.81 0.98 1.20 1.43 1.81 1.41 0.97 0.81 0.75 0.76 0.77
0.05 0.05 0.10 0.36 0.22 0.19 0.12 0.11 0.12 0.40 0.31 0.65 0.33 0.59 0.42 0.19 0.18 0.12 0.10 0.08 0.10 0.10 0.06 0.12 0.15 0.27 0.28 0.41 0.56 0.70 0.64 0.76 0.63 0.47 0.57 0.47 0.46 0.50 0.70 0.91 1.12 1.26 1.69 1.83 1.26 0.97 0.83 0.90 0.93
0.08 0.08 0.05 0.20 0.23 0.31 0.12 0.14 0.28 0.28 0.15 0.61 0.41 0.52 0.77 0.28 0.31 0.30 0.26 0.23 0.25 0.23 0.18 0.22 0.25 0.34 0.39 0.42 0.54 0.84 1.03 0.94 0.86 0.81 1.21 1.21 0.78 0.63 0.75 1.22 1.61 1.81 2.21 2.15 2.26 1.59 1.18 1.15 1.04
0.04 0.04 0.10 0.22 0.49 0.40 0.18 0.23 0.43 0.33 0.21 0.44 0.93 0.64 0.84 0.48 0.39 0.42 0.52 0.51 0.36 0.39 0.33 0.30 0.31 0.34 0.37 0.43 0.54 0.74 0.98 1.16 1.04 1.06 1.22 1.54 1.57 1.24 1.19 1.39 1.63 2.03 1.92 2.09 1.98 1.56 1.03 0.85 0.78
0.04 0.07 0.10 0.20 0.21 0.38 0.53 0.65 0.87 0.62 0.43 0.48 0.63 1.16 0.73 0.76 0.52 0.61 0.96 0.95 0.68 0.61 0.52 0.46 0.45 0.47 0.49 0.55 0.53 0.64 1.00 0.98 1.50 1.92 1.88 2.01 2.28 2.18 1.84 1.52 1.66 1.73 1.94 2.12 1.75 1.36 0.93 0.89 0.86
0.05 0.08 0.10 0.30 0.27 0.37 0.71 1.55 1.11 0.73 0.60 0.57 0.68 1.16 1.22 0.89 0.82 0.60 0.56 0.78 1.14 1.06 0.71 0.54 0.49 0.69 1.15 1.41 1.46 1.28 1.65 1.89 1.98 2.32 2.21 1.73 2.43 2.48 2.29 2.28 1.91 2.15 1.88 1.62 1.55 1.37 1.02 0.81 0.79

GFSSGP_prec_precacc_147.txt.gz
Total_Precipitation_Accumulation
0.00 0.00 0.00 0.00 0.00 0.00 0.00 0.00 0.00 0.03 0.09 0.13 0.18 0.22 0.24 0.16 0.47 1.04 0.98 1.23 1.83 1.44 1.03 1.58 1.30 0.62 0.25 0.22 0.19 0.04 0.03 0.02 0.02 0.00 0.00 0.00 0.01 0.00 0.01 0.02 0.10 0.13 0.07 0.06 0.03 0.03 0.04 0.07 0.08
0.00 0.00 0.00 0.00 0.00 0.00 0.00 0.01 0.01 0.03 0.17 0.23 0.32 0.35 0.43 0.37 0.17 0.64 0.86 0.71 0.66 1.44 1.56 1.44 2.29 1.43 0.96 0.70 0.77 0.82 0.37 0.25 0.04 0.00 0.01 0.03 0.01 0.00 0.02 0.02 0.08 0.07 0.06 0.05 0.04 0.07 0.09 0.10 0.11
0.00 0.00 0.00 0.00 0.00 0.00 0.00 0.01 0.05 0.08 0.16 0.14 0.11 0.20 0.44 0.64 0.60 0.70 0.78 0.90 0.80 1.05 0.97 1.28 2.08 1.57 1.03 1.12 1.12 1.65 1.98 1.87 1.01 0.42 0.36 0.32 0.22 0.14 0.08 0.08 0.10 0.10 0.15 0.14 0.09 0.16 0.16 0.06 0.03
0.00 0.00 0.00 0.00 0.00 0.00 0.00 0.02 0.07 0.10 0.11 0.09 0.10 0.21 0.49 0.58 0.48 0.44 0.76 1.28 1.83 2.03 1.47 1.74 2.11 1.30 0.70 1.09 1.43 1.50 2.15 3.35 4.17 4.05 2.50 1.31 0.84 0.44 0.39 0.29 0.26 0.26 0.32 0.39 0.42 0.44 0.36 0.03 0.00
0.00 0.00 0.00 0.00 0.00 0.00 0.00 0.02 0.08 0.11 0.11 0.42 0.18 0.11 0.66 0.80 0.31 0.42 1.15 2.28 3.41 4.56 4.04 3.63 3.91 5.06 2.78 2.51 1.70 1.31 1.44 2.50 4.86 5.24 3.84 2.51 1.88 1.68 1.17 0.68 0.51 0.55 0.52 0.42 0.43 0.26 0.18 0.02 0.00
0.00 0.00 0.00 0.00 0.00 0.01 0.03 0.13 0.22 0.37 0.35 0.46 0.35 0.42 0.86 0.47 0.38 0.75 1.60 3.62 5.15 6.63 8.73 9.01 7.66 8.03 7.58 4.81 2.99 1.95 1.38 1.22 1.62 2.34 1.93 1.99 2.27 1.75 1.62 1.44 0.88 0.60 0.43 0.40 0.28 0.12 0.08 0.05 0.02
0.00 0.00 0.00 0.00 0.01 0.00 0.02 0.15 0.35 0.53 0.42 0.20 0.38 0.40 0.95 0.96 0.77 0.88 1.55 2.78 5.21 5.54 7.03 10.68 9.49 7.14 5.90 6.72 5.91 3.53 2.59 1.66 1.44 1.39 1.70 1.31 2.10 1.61 1.23 1.39 1.60 0.78 0.42 0.61 0.47 0.32 0.54 0.21 0.23
0.00 0.00 0.00 0.00 0.01 0.02 0.06 0.15 0.21 0.15 0.09 0.07 0.15 0.46 1.10 0.76 0.53 0.47 0.58 0.86 2.15 2.59 3.35 3.93 4.06 3.28 2.87 3.59 4.48 4.30 2.96 2.42 2.12 1.36 1.46 1.58 1.52 1.35 1.28 1.33 1.50 1.22 0.57 0.47 0.44 0.59 0.48 0.57 0.38
0.00 0.00 0.00 0.00 0.03 0.11 0.16 0.28 0.33 0.20 0.06 0.11 0.26 0.18 0.28 0.46 0.34 0.34 0.61 0.72 1.36 2.28 1.62 1.65 1.26 0.85 0.83 1.26 2.01 2.73 2.47 2.47 2.51 2.03 1.22 1.94 2.05 1.06 1.21 1.48 1.20 0.83 0.52 0.46 0.48 0.44 0.56 0.56 0.63
0.00 0.00 0.00 0.00 0.06 0.33 0.29 0.15 0.03 0.01 0.01 0.20 0.53 0.53 0.32 0.33 0.25 0.20 0.26 0.62 1.09 0.94 0.77 0.49 0.39 0.30 0.25 0.24 0.39 0.73 1.51 2.24 2.25 2.82 1.43 1.37 2.29 1.23 1.19 1.63 1.01 0.80 0.57 0.48 0.46 0.40 0.44 0.47 0.44
0.00 0.00 0.00 0.00 0.00 0.00 0.01 0.01 0.00 0.00 0.19 0.52 0.67 0.50 0.42 0.34 0.24 0.27 0.45 0.40 0.52 0.32 0.21 0.27 0.48 0.48 0.20 0.19 0.17 0.26 0.69 1.49 1.55 2.54 2.13 0.86 1.26 1.52 1.57 2.04 1.24 0.75 0.56 0.48 0.46 0.24 0.19 0.15 0.22
0.00 0.00 0.00 0.00 0.00 0.00 0.00 0.00 0.01 0.04 0.27 0.22 0.26 0.69 0.62 0.49 0.39 0.33 0.29 0.22 0.11 0.15 0.16 0.12 0.17 0.24 0.25 0.25 0.24 0.27 0.53 0.92 0.96 1.27 2.31 1.09 0.93 1.09 1.44 1.52 1.11 0.54 0.40 0.29 0.29 0.15 0.09 0.06 0.14
0.00 0.00 0.00 0.00 0.00 0.00 0.00 0.01 0.02 0.08 0.45 0.51 0.27 0.32 0.45 0.50 0.44 0.51 0.31 0.11 0.09 0.08 0.15 0.19 0.20 0.37 0.46 0.47 0.35 0.27 0.76 0.91 0.84 0.84 1.22 1.12 0.95 0.81 1.18 1.01 1.21 0.66 0.45 0.28 0.27 0.19 0.13 0.07 0.07
0.00 0.00 0.00 0.00 0.00 0.00 0.00 0.03 0.09 0.18 0.77 0.30 0.15 0.08 0.17 0.26 0.28 0.24 0.13 0.10 0.09 0.10 0.19 0.28 0.28 0.44 0.34 0.49 0.56 0.65 0.81 0.94 0.79 0.70 0.87 0.90 0.90 0.81 0.97 0.89 0.88 0.94 0.93 0.38 0.28 0.25 0.15 0.12 0.09
0.00 0.00 0.00 0.00 0.00 0.00 0.01 0.03 0.13 0.21 0.39 0.13 0.05 0.05 0.06 0.11 0.16 0.10 0.11 0.23 0.16 0.22 0.25 0.42 0.65 0.54 0.27 0.24 0.29 0.64 1.06 0.87 0.77 0.77 0.80 0.82 0.77 0.78 0.73 0.76 0.79 0.72 1.14 0.67 0.42 0.45 0.44 0.31 0.16
0.00 0.00 0.00 0.00 0.00 0.00 0.02 0.17 0.29 0.13 0.09 0.07 0.04 0.01 0.02 0.03 0.01 0.00 0.02 0.01 0.03 0.07 0.19 0.43 0.60 0.57 0.50 0.32 0.45 0.47 0.83 1.08 0.90 0.68 0.72 1.01 0.92 0.78 0.58 0.77 0.64 0.77 0.73 0.54 0.46 0.53 0.50 0.48 0.23
0.00 0.00 0.00 0.00 0.00 0.00 0.01 0.03 0.15 0.07 0.09 0.12 0.10 0.04 0.00 0.02 0.01 0.00 0.00 0.01 0.02 0.02 0.19 0.61 0.80 0.77 0.74 0.64 0.64 0.90 0.87 0.92 0.72 0.74 0.66 0.64 0.64 0.84 0.66 0.63 0.69 0.75 0.65 0.44 0.45 0.42 0.56 0.49 0.39
0.00 0.00 0.00 0.00 0.00 0.00 0.00 0.00 0.09 0.05 0.03 0.09 0.15 0.10 0.02 0.01 0.00 0.00 0.00 0.02 0.03 0.03 0.26 0.64 0.84 1.09 1.18 1.10 0.96 0.77 0.73 0.66 0.67 0.60 0.64 0.73 0.76 0.72 0.83 0.73 0.71 0.85 0.88 0.48 0.45 0.55 0.62 0.56 0.50
0.00 0.00 0.00 0.00 0.00 0.00 0.00 0.00 0.00 0.01 0.11 0.10 0.14 0.07 0.01 0.00 0.00 0.00 0.01 0.02 0.04 0.10 0.40 0.69 0.82 1.10 1.07 0.60 0.50 0.53 0.52 0.40 0.55 0.57 0.64 0.81 1.02 1.01 0.91 0.81 0.79 0.86 0.79 0.54 0.32 0.54 0.73 0.69 0.56
0.02 0.02 0.00 0.00 0.00 0.00 0.00 0.00 0.00 0.00 0.00 0.02 0.03 0.03 0.02 0.00 0.00 0.01 0.03 0.06 0.12 0.24 0.52 0.61 0.48 0.33 0.16 0.11 0.21 0.36 0.47 0.48 0.46 0.54 0.71 0.67 0.99 1.00 0.85 0.85 0.82 0.92 0.97 0.79 0.50 0.42 0.55 0.59 0.54
0.01 0.01 0.00 0.00 0.00 0.02 0.02 0.01 0.00 0.00 0.01 0.01 0.01 0.01 0.01 0.01 0.00 0.02 0.06 0.13 0.17 0.15 0.15 0.09 0.06 0.05 0.09 0.12 0.31 0.53 0.86 0.80 0.67 0.54 0.57 0.73 0.91 1.08 0.98 0.88 0.78 0.76 1.09 1.19 0.72 0.49 0.40 0.35 0.41
0.06 0.00 0.00 0.02 0.08 0.10 0.05 0.06 0.00 0.00 0.00 0.00 0.00 0.00 0.01 0.03 0.02 0.03 0.02 0.01 0.00 0.01 0.09 0.07 0.07 0.08 0.12 0.14 0.24 0.41 0.41 0.31 0.23 0.23 0.28 0.41 0.75 1.13 0.93 1.17 1.23 1.15 0.90 0.96 1.09 0.85 0.58 0.54 0.49
0.07 0.00 0.01 0.01 0.02 0.08 0.07 0.12 0.03 0.01 0.01 0.00 0.00 0.01 0.00 0.01 0.00 0.00 0.00 0.00 0.01 0.02 0.07 0.09 0.11 0.11 0.09 0.12 0.19 0.48 0.55 0.52 0.50 0.61 0.77 0.89 1.05 1.37 1.33 1.13 1.55 1.66 1.57 1.22 1.41 1.49 1.14 0.99 1.09
0.02 0.02 0.03 0.05 0.09 0.22 0.04 0.10 0.05 0.03 0.11 0.09 0.14 0.08 0.04 0.04 0.03 0.01 0.02 0.01 0.01 0.04 0.06 0.05 0.13 0.10 0.16 0.21 0.25 0.36 0.49 0.54 0.55 0.56 0.63 0.80 1.03 1.37 1.55 1.75 1.78 2.23 2.22 2.00 1.69 1.62 1.54 1.20 1.12
0.05 0.04 0.14 0.31 0.24 0.12 0.06 0.07 0.03 0.18 0.25 0.35 0.32 0.30 0.30 0.11 0.09 0.06 0.04 0.02 0.01 0.02 0.06 0.14 0.18 0.19 0.21 0.37 0.46 0.47 0.54 0.68 0.44 0.33 0.40 0.49 0.71 0.69 0.81 0.98 1.21 1.44 1.85 1.69 1.71 1.66 1.46 1.42 1.17
0.05 0.05 0.10 0.36 0.22 0.19 0.12 0.11 0.12 0.40 0.31 0.65 0.33 0.59 0.42 0.19 0.18 0.12 0.10 0.08 0.10 0.10 0.06 0.12 0.15 0.27 0.28 0.41 0.56 0.70 0.64 0.76 0.64 0.48 0.57 0.48 0.47 0.51 0.70 0.91 1.12 1.26 1.70 1.91 1.54 1.41 1.63 1.68 1.50
0.08 0.08 0.05 0.20 0.23 0.31 0.12 0.14 0.28 0.28 0.15 0.61 0.41 0.52 0.77 0.28 0.31 0.30 0.26 0.23 0.25 0.23 0.18 0.22 0.25 0.34 0.39 0.42 0.54 0.84 1.03 0.94 0.87 0.81 1.21 1.21 0.79 0.64 0.75 1.22 1.61 1.81 2.21 2.15 2.39 2.03 1.52 1.87 1.79
0.04 0.04 0.10 0.22 0.49 0.40 0.18 0.23 0.43 0.33 0.21 0.44 0.93 0.64 0.84 0.48 0.39 0.42 0.52 0.51 0.36 0.39 0.33 0.30 0.31 0.34 0.37 0.43 0.54 0.75 0.99 1.16 1.04 1.06 1.22 1.54 1.57 1.25 1.21 1.39 1.63 2.03 1.92 2.09 2.04 2.16 1.53 1.12 1.28
0.04 0.07 0.10 0.20 0.21 0.38 0.53 0.65 0.87 0.62 0.43 0.48 0.63 1.16 0.73 0.76 0.52 0.61 0.96 0.95 0.68 0.61 0.52 0.46 0.45 0.47 0.49 0.56 0.54 0.66 1.01 0.99 1.50 1.92 1.89 2.02 2.29 2.20 1.86 1.53 1.66 1.73 1.94 2.12 1.75 1.54 1.45 1.33 1.14
0.05 0.08 0.10 0.30 0.27 0.37 0.71 1.55 1.11 0.73 0.60 0.57 0.68 1.16 1.22 0.89 0.82 0.60 0.56 0.78 1.14 1.06 0.71 0.54 0.49 0.69 1.15 1.41 1.47 1.29 1.66 1.90 1.99 2.33 2.24 1.77 2.46 2.52 2.31 2.31 1.92 2.16 1.89 1.62 1.55 1.38 1.20 1.31 1.26

GFSSGP_prec_precacc_150.txt.gz
Total_Precipitation_Accumulation
0.00 0.00 0.00 0.00 0.00 0.00 0.00 0.00 0.00 0.03 0.09 0.13 0.18 0.22 0.24 0.16 0.47 1.04 0.98 1.23 1.83 1.44 1.03 1.58 1.30 0.62 0.25 0.22 0.19 0.04 0.03 0.02 0.02 0.00 0.00 0.00 0.01 0.00 0.01 0.02 0.10 0.13 0.07 0.06 0.03 0.03 0.04 0.07 0.08
0.00 0.00 0.00 0.00 0.00 0.00 0.00 0.01 0.01 0.03 0.17 0.23 0.32 0.35 0.43 0.37 0.17 0.64 0.86 0.71 0.66 1.44 1.56 1.44 2.29 1.43 0.96 0.70 0.77 0.82 0.37 0.25 0.04 0.00 0.01 0.03 0.01 0.00 0.02 0.02 0.08 0.07 0.06 0.05 0.04 0.07 0.09 0.10 0.11
0.00 0.00 0.00 0.00 0.00 0.00 0.00 0.01 0.05 0.08 0.16 0.14 0.11 0.20 0.44 0.64 0.60 0.70 0.78 0.90 0.81 1.06 0.97 1.28 2.08 1.57 1.03 1.12 1.12 1.65 1.98 1.87 1.01 0.42 0.36 0.32 0.22 0.14 0.08 0.08 0.10 0.10 0.15 0.14 0.09 0.16 0.16 0.06 0.03
0.00 0.00 0.00 0.00 0.00 0.00 0.00 0.02 0.07 0.10 0.11 0.09 0.10 0.21 0.49 0.58 0.48 0.44 0.76 1.28 1.83 2.04 1.49 1.75 2.11 1.30 0.70 1.09 1.43 1.50 2.15 3.35 4.17 4.05 2.50 1.31 0.84 0.44 0.39 0.29 0.26 0.26 0.32 0.39 0.42 0.44 0.36 0.03 0.00
0.00 0.00 0.00 0.00 0.00 0.00 0.00 0.02 0.08 0.11 0.11 0.42 0.18 0.11 0.66 0.80 0.31 0.43 1.15 2.28 3.41 4.56 4.04 3.63 3.91 5.06 2.78 2.51 1.70 1.31 1.44 2.50 4.86 5.24 3.84 2.51 1.88 1.68 1.17 0.68 0.51 0.55 0.52 0.42 0.43 0.26 0.18 0.02 0.00
0.00 0.00 0.00 0.00 0.00 0.01 0.03 0.13 0.22 0.37 0.35 0.46 0.35 0.42 0.86 0.47 0.38 0.77 1.61 3.62 5.15 6.63 8.73 9.01 7.66 8.04 7.58 4.81 2.99 1.95 1.38 1.22 1.62 2.34 1.93 1.99 2.27 1.75 1.62 1.44 0.88 0.60 0.43 0.40 0.28 0.12 0.08 0.05 0.02
0.00 0.00 0.00 0.00 0.01 0.00 0.02 0.15 0.35 0.53 0.42 0.20 0.38 0.40 0.95 0.96 0.78 0.90 1.55 2.78 5.21 5.54 7.03 10.68 9.49 7.14 5.90 6.73 5.92 3.53 2.59 1.67 1.44 1.39 1.70 1.31 2.10 1.61 1.23 1.39 1.60 0.78 0.42 0.61 0.47 0.32 0.54 0.21 0.23
0.00 0.00 0.00 0.00 0.01 0.02 0.06 0.15 0.21 0.15 0.09 0.07 0.15 0.46 1.10 0.76 0.53 0.47 0.58 0.86 2.15 2.59 3.35 3.93 4.06 3.28 2.87 3.60 4.49 4.31 2.99 2.49 2.14 1.36 1.46 1.58 1.52 1.35 1.28 1.33 1.50 1.22 0.57 0.47 0.44 0.59 0.48 0.57 0.38
0.00 0.00 0.00 0.00 0.03 0.11 0.16 0.28 0.33 0.20 0.06 0.11 0.26 0.18 0.28 0.46 0.34 0.34 0.61 0.72 1.36 2.28 1.62 1.65 1.26 0.85 0.83 1.26 2.02 2.74 2.51 2.56 2.58 2.05 1.23 1.94 2.05 1.06 1.21 1.48 1.20 0.83 0.52 0.46 0.48 0.44 0.56 0.56 0.63
0.00 0.00 0.00 0.00 0.06 0.33 0.29 0.15 0.03 0.01 0.01 0.20 0.53 0.53 0.32 0.33 0.25 0.20 0.26 0.62 1.09 0.94 0.77 0.49 0.39 0.30 0.25 0.24 0.39 0.73 1.52 2.27 2.29 2.88 1.62 1.47 2.30 1.23 1.19 1.63 1.01 0.80 0.57 0.48 0.46 0.40 0.44 0.47 0.44
0.00 0.00 0.00 0.00 0.00 0.00 0.01 0.01 0.00 0.00 0.19 0.52 0.67 0.50 0.42 0.34 0.24 0.27 0.45 0.40 0.52 0.32 0.21 0.27 0.48 0.48 0.20 0.19 0.17 0.27 0.70 1.50 1.57 2.56 2.18 0.91 1.29 1.53 1.58 2.04 1.24 0.75 0.56 0.48 0.46 0.24 0.19 0.15 0.22
0.00 0.00 0.00 0.00 0.00 0.00 0.00 0.00 0.01 0.04 0.27 0.22 0.26 0.69 0.62 0.49 0.39 0.33 0.29 0.22 0.11 0.15 0.16 0.12 0.17 0.24 0.25 0.25 0.24 0.27 0.53 0.92 0.98 1.31 2.36 1.13 1.00 1.16 1.47 1.53 1.12 0.54 0.40 0.29 0.29 0.15 0.09 0.06 0.14
0.00 0.00 0.00 0.00 0.00 0.00 0.00 0.01 0.02 0.08 0.45 0.51 0.27 0.32 0.45 0.50 0.44 0.51 0.31 0.11 0.09 0.08 0.15 0.19 0.20 0.37 0.46 0.47 0.35 0.27 0.76 0.91 0.84 0.85 1.23 1.16 1.03 0.90 1.33 1.13 1.29 0.67 0.45 0.28 0.27 0.19 0.13 0.07 0.07
0.00 0.00 0.00 0.00 0.00 0.00 0.00 0.03 0.09 0.18 0.77 0.30 0.15 0.08 0.17 0.26 0.28 0.24 0.13 0.10 0.09 0.10 0.19 0.28 0.28 0.44 0.34 0.49 0.56 0.65 0.81 0.94 0.79 0.70 0.88 0.93 1.07 1.04 1.21 1.07 1.02 0.97 0.93 0.38 0.28 0.25 0.15 0.12 0.09
0.00 0.00 0.00 0.00 0.00 0.00 0.01 0.03 0.13 0.21 0.39 0.13 0.05 0.05 0.06 0.11 0.16 0.10 0.11 0.23 0.16 0.22 0.25 0.42 0.65 0.54 0.27 0.24 0.29 0.64 1.06 0.87 0.77 0.77 0.80 0.84 0.83 0.88 0.94 0.96 0.88 0.77 1.18 0.68 0.42 0.45 0.44 0.31 0.16
0.00 0.00 0.00 0.00 0.00 0.00 0.02 0.17 0.29 0.13 0.09 0.07 0.04 0.01 0.02 0.03 0.01 0.00 0.02 0.01 0.03 0.07 0.19 0.43 0.60 0.57 0.50 0.32 0.45 0.47 0.83 1.08 0.90 0.68 0.72 1.01 0.93 0.85 0.73 0.90 0.74 0.91 0.82 0.59 0.47 0.54 0.50 0.48 0.23
0.00 0.00 0.00 0.00 0.00 0.00 0.01 0.03 0.15 0.07 0.09 0.12 0.10 0.04 0.00 0.02 0.01 0.00 0.00 0.01 0.02 0.02 0.19 0.61 0.80 0.77 0.74 0.64 0.64 0.90 0.87 0.92 0.72 0.74 0.66 0.64 0.64 0.85 0.73 0.75 0.91 1.15 1.11 0.61 0.52 0.45 0.57 0.49 0.39
0.00 0.00 0.00 0.00 0.00 0.00 0.00 0.00 0.09 0.05 0.03 0.09 0.15 0.10 0.02 0.01 0.00 0.00 0.00 0.02 0.03 0.03 0.26 0.64 0.84 1.09 1.18 1.10 0.96 0.77 0.73 0.66 0.67 0.60 0.64 0.73 0.76 0.72 0.84 0.76 0.75 1.01 1.30 0.92 0.62 0.60 0.63 0.57 0.51
0.00 0.00 0.00 0.00 0.00 0.00 0.00 0.00 0.00 0.01 0.11 0.10 0.14 0.07 0.01 0.00 0.00 0.00 0.01 0.02 0.04 0.10 0.40 0.69 0.82 1.10 1.07 0.60 0.50 0.53 0.52 0.40 0.55 0.57 0.64 0.81 1.02 1.01 0.91 0.83 0.81 0.93 0.96 0.89 0.87 0.86 0.86 0.77 0.62
0.02 0.02 0.00 0.00 0.00 0.00 0.00 0.00 0.00 0.00 0.00 0.02 0.03 0.03 0.02 0.00 0.00 0.01 0.03 0.06 0.12 0.24 0.52 0.61 0.48 0.33 0.16 0.11 0.21 0.36 0.47 0.48 0.46 0.54 0.71 0.67 0.99 1.00 0.85 0.85 0.84 0.98 1.09 0.98 0.76 0.70 0.69 0.72 0.68
0.01 0.01 0.00 0.00 0.00 0.02 0.02 0.01 0.00 0.00 0.01 0.01 0.01 0.01 0.01 0.01 0.00 0.02 0.06 0.13 0.17 0.15 0.15 0.09 0.06 0.05 0.09 0.12 0.31 0.53 0.86 0.80 0.67 0.54 0.57 0.73 0.91 1.08 0.98 0.88 0.78 0.78 1.15 1.41 1.17 1.01 0.75 0.51 0.55
0.06 0.00 0.00 0.02 0.08 0.10 0.05 0.06 0.00 0.00 0.00 0.00 0.00 0.00 0.01 0.03 0.02 0.03 0.02 0.01 0.00 0.01 0.09 0.07 0.07 0.08 0.12 0.14 0.24 0.41 0.41 0.31 0.23 0.23 0.28 0.41 0.75 1.13 0.93 1.17 1.23 1.15 0.92 1.06 1.42 1.34 1.09 1.04 0.81
0.07 0.00 0.01 0.01 0.02 0.08 0.07 0.12 0.03 0.01 0.01 0.00 0.00 0.01 0.00 0.01 0.00 0.00 0.00 0.00 0.01 0.02 0.07 0.09 0.11 0.11 0.09 0.12 0.19 0.48 0.55 0.52 0.50 0.61 0.77 0.89 1.05 1.37 1.33 1.13 1.56 1.67 1.58 1.23 1.50 1.82 1.96 1.75 1.62
0.02 0.02 0.03 0.05 0.09 0.22 0.04 0.10 0.05 0.03 0.11 0.09 0.14 0.08 0.04 0.04 0.03 0.01 0.02 0.01 0.01 0.04 0.06 0.05 0.13 0.10 0.16 0.21 0.25 0.36 0.49 0.54 0.55 0.56 0.63 0.80 1.03 1.37 1.55 1.75 1.78 2.24 2.22 2.01 1.71 1.66 2.03 2.38 2.26
0.05 0.04 0.14 0.31 0.24 0.12 0.06 0.07 0.03 0.18 0.25 0.35 0.32 0.30 0.30 0.11 0.09 0.06 0.04 0.02 0.01 0.02 0.06 0.14 0.18 0.19 0.21 0.37 0.46 0.47 0.54 0.68 0.45 0.33 0.40 0.49 0.71 0.69 0.81 0.99 1.21 1.45 1.86 1.70 1.72 1.68 1.48 1.46 1.43
0.05 0.05 0.10 0.36 0.22 0.19 0.12 0.11 0.12 0.40 0.31 0.65 0.33 0.59 0.42 0.19 0.18 0.12 0.10 0.08 0.10 0.10 0.06 0.12 0.15 0.27 0.28 0.41 0.56 0.70 0.64 0.76 0.64 0.48 0.58 0.49 0.48 0.52 0.70 0.91 1.13 1.27 1.70 1.91 1.55 1.42 1.64 1.68 1.53
0.08 0.08 0.05 0.20 0.23 0.31 0.12 0.14 0.28 0.28 0.15 0.61 0.41 0.52 0.77 0.28 0.31 0.30 0.26 0.23 0.25 0.23 0.18 0.22 0.25 0.34 0.39 0.42 0.54 0.84 1.03 0.94 0.87 0.82 1.22 1.22 0.79 0.65 0.76 1.23 1.61 1.81 2.21 2.15 2.39 2.04 1.53 1.88 1.80
0.04 0.04 0.10 0.22 0.49 0.40 0.18 0.23 0.43 0.33 0.21 0.44 0.93 0.64 0.84 0.48 0.39 0.42 0.52 0.51 0.36 0.39 0.33 0.30 0.31 0.34 0.37 0.43 0.54 0.75 0.99 1.16 1.04 1.07 1.23 1.55 1.57 1.26 1.22 1.40 1.63 2.03 1.92 2.09 2.04 2.16 1.54 1.13 1.28
0.04 0.07 0.10 0.20 0.21 0.38 0.53 0.65 0.87 0.62 0.43 0.48 0.63 1.16 0.73 0.76 0.52 0.61 0.96 0.95 0.68 0.61 0.52 0.46 0.45 0.47 0.49 0.56 0.54 0.66 1.01 0.99 1.50 1.93 1.89 2.02 2.29 2.20 1.86 1.54 1.66 1.73 1.94 2.12 1.75 1.54 1.45 1.33 1.14
0.05 0.08 0.10 0.30 0.27 0.37 0.71 1.55 1.11 0.73 0.60 0.57 0.68 1.16 1.22 0.89 0.82 0.60 0.56 0.78 1.14 1.06 0.71 0.54 0.49 0.69 1.15 1.41 1.47 1.29 1.66 1.90 1.99 2.34 2.24 1.78 2.47 2.52 2.32 2.31 1.93 2.17 1.89 1.63 1.55 1.38 1.21 1.31 1.27

GFSSGP_prec_precacc_153.txt.gz
Total_Precipitation_Accumulation
0.00 0.00 0.00 0.00 0.00 0.00 0.00 0.00 0.00 0.03 0.09 0.13 0.18 0.22 0.24 0.16 0.47 1.04 0.98 1.23 1.83 1.44 1.03 1.58 1.30 0.62 0.25 0.22 0.19 0.04 0.03 0.02 0.02 0.00 0.00 0.00 0.01 0.00 0.01 0.02 0.10 0.13 0.07 0.06 0.03 0.03 0.04 0.07 0.08
0.00 0.00 0.00 0.00 0.00 0.00 0.00 0.01 0.01 0.03 0.17 0.23 0.32 0.35 0.43 0.37 0.17 0.64 0.86 0.71 0.66 1.44 1.56 1.44 2.29 1.43 0.96 0.70 0.77 0.82 0.37 0.25 0.04 0.00 0.01 0.03 0.01 0.00 0.02 0.02 0.08 0.07 0.06 0.05 0.04 0.07 0.09 0.10 0.11
0.00 0.00 0.00 0.00 0.00 0.00 0.00 0.01 0.05 0.08 0.16 0.14 0.11 0.20 0.44 0.64 0.60 0.71 0.78 0.90 0.81 1.06 0.97 1.28 2.08 1.57 1.03 1.12 1.12 1.65 1.98 1.87 1.01 0.42 0.36 0.32 0.22 0.14 0.08 0.08 0.10 0.10 0.15 0.14 0.09 0.16 0.16 0.06 0.03
0.00 0.00 0.00 0.00 0.00 0.00 0.00 0.02 0.07 0.10 0.11 0.09 0.10 0.21 0.49 0.58 0.49 0.46 0.76 1.28 1.83 2.04 1.49 1.76 2.13 1.31 0.71 1.09 1.43 1.50 2.15 3.35 4.17 4.05 2.50 1.31 0.84 0.44 0.39 0.29 0.26 0.26 0.32 0.39 0.42 0.44 0.36 0.03 0.00
0.00 0.00 0.00 0.00 0.00 0.00 0.00 0.02 0.08 0.11 0.11 0.42 0.18 0.11 0.66 0.80 0.31 0.43 1.15 2.28 3.41 4.56 4.04 3.64 3.93 5.08 2.79 2.52 1.70 1.32 1.44 2.50 4.86 5.24 3.84 2.51 1.88 1.68 1.17 0.68 0.51 0.55 0.52 0.42 0.43 0.26 0.18 0.02 0.00
0.00 0.00 0.00 0.00 0.00 0.01 0.03 0.13 0.22 0.37 0.35 0.46 0.35 0.42 0.86 0.47 0.38 0.77 1.61 3.62 5.15 6.63 8.73 9.01 7.66 8.05 7.59 4.82 3.00 1.96 1.38 1.22 1.62 2.34 1.93 2.00 2.28 1.75 1.62 1.44 0.88 0.60 0.43 0.40 0.28 0.12 0.08 0.05 0.02
0.00 0.00 0.00 0.00 0.01 0.00 0.02 0.15 0.35 0.53 0.42 0.20 0.38 0.40 0.95 0.96 0.78 0.90 1.55 2.78 5.21 5.54 7.03 10.68 9.49 7.14 5.91 6.74 5.94 3.54 2.60 1.71 1.47 1.41 1.70 1.33 2.12 1.62 1.23 1.39 1.60 0.78 0.42 0.61 0.47 0.32 0.54 0.21 0.23
0.00 0.00 0.00 0.00 0.01 0.02 0.06 0.15 0.21 0.15 0.09 0.07 0.15 0.46 1.10 0.76 0.53 0.47 0.58 0.86 2.15 2.59 3.35 3.93 4.06 3.28 2.87 3.60 4.53 4.38 3.02 2.51 2.19 1.43 1.54 1.63 1.53 1.35 1.28 1.33 1.50 1.22 0.57 0.47 0.44 0.59 0.48 0.57 0.38
0.00 0.00 0.00 0.00 0.03 0.11 0.16 0.28 0.33 0.20 0.06 0.11 0.26 0.18 0.28 0.46 0.34 0.34 0.61 0.72 1.36 2.28 1.62 1.65 1.26 0.85 0.83 1.26 2.02 2.77 2.56 2.61 2.59 2.11 1.36 2.05 2.10 1.06 1.21 1.48 1.20 0.83 0.52 0.46 0.48 0.44 0.56 0.56 0.63
0.00 0.00 0.00 0.00 0.06 0.33 0.29 0.15 0.03 0.01 0.01 0.20 0.53 0.53 0.32 0.33 0.25 0.20 0.26 0.62 1.09 0.94 0.77 0.49 0.39 0.30 0.25 0.24 0.39 0.73 1.52 2.30 2.34 2.89 1.65 1.53 2.38 1.35 1.31 1.69 1.04 0.81 0.59 0.48 0.46 0.40 0.44 0.47 0.44
0.00 0.00 0.00 0.00 0.00 0.00 0.01 0.01 0.00 0.00 0.19 0.52 0.67 0.50 0.42 0.34 0.24 0.27 0.45 0.40 0.52 0.32 0.21 0.27 0.48 0.48 0.20 0.19 0.17 0.27 0.70 1.50 1.58 2.58 2.22 0.95 1.32 1.56 1.69 2.07 1.25 0.75 0.57 0.49 0.46 0.24 0.19 0.15 0.22
0.00 0.00 0.00 0.00 0.00 0.00 0.00 0.00 0.01 0.04 0.27 0.22 0.26 0.69 0.62 0.49 0.39 0.33 0.29 0.22 0.11 0.15 0.16 0.12 0.17 0.24 0.25 0.25 0.24 0.27 0.53 0.92 0.98 1.32 2.38 1.16 1.03 1.21 1.50 1.57 1.18 0.55 0.40 0.29 0.29 0.15 0.09 0.06 0.14
0.00 0.00 0.00 0.00 0.00 0.00 0.00 0.01 0.02 0.08 0.45 0.51 0.27 0.32 0.45 0.50 0.44 0.51 0.31 0.11 0.09 0.08 0.15 0.19 0.20 0.37 0.46 0.47 0.35 0.27 0.76 0.91 0.84 0.85 1.23 1.16 1.04 0.93 1.37 1.17 1.41 0.75 0.47 0.29 0.30 0.20 0.13 0.07 0.07
0.00 0.00 0.00 0.00 0.00 0.00 0.00 0.03 0.09 0.18 0.77 0.30 0.15 0.08 0.17 0.26 0.28 0.24 0.13 0.10 0.09 0.10 0.19 0.28 0.28 0.44 0.34 0.49 0.56 0.65 0.81 0.94 0.79 0.70 0.88 0.93 1.07 1.05 1.25 1.12 1.07 0.99 0.97 0.44 0.31 0.31 0.18 0.12 0.09
0.00 0.00 0.00 0.00 0.00 0.00 0.01 0.03 0.13 0.21 0.39 0.13 0.05 0.05 0.06 0.11 0.16 0.10 0.11 0.23 0.16 0.22 0.25 0.42 0.65 0.54 0.27 0.24 0.29 0.64 1.06 0.87 0.77 0.77 0.80 0.84 0.83 0.88 0.94 0.98 0.90 0.79 1.24 0.81 0.51 0.50 0.49 0.33 0.16
0.00 0.00 0.00 0.00 0.00 0.00 0.02 0.17 0.29 0.13 0.09 0.07 0.04 0.01 0.02 0.03 0.01 0.00 0.02 0.01 0.03 0.07 0.19 0.43 0.60 0.57 0.50 0.32 0.45 0.47 0.83 1.08 0.90 0.68 0.72 1.01 0.93 0.85 0.73 0.90 0.75 0.94 0.98 0.80 0.63 0.74 0.70 0.59 0.24
0.00 0.00 0.00 0.00 0.00 0.00 0.01 0.03 0.15 0.07 0.09 0.12 0.10 0.04 0.00 0.02 0.01 0.00 0.00 0.01 0.02 0.02 0.19 0.61 0.80 0.77 0.74 0.64 0.64 0.90 0.87 0.92 0.72 0.74 0.66 0.64 0.64 0.85 0.73 0.75 0.91 1.17 1.27 1.15 1.14 0.99 0.91 0.67 0.48
0.00 0.00 0.00 0.00 0.00 0.00 0.00 0.00 0.09 0.05 0.03 0.09 0.15 0.10 0.02 0.01 0.00 0.00 0.00 0.02 0.03 0.03 0.26 0.64 0.84 1.09 1.18 1.10 0.96 0.77 0.73 0.66 0.67 0.60 0.64 0.73 0.76 0.72 0.84 0.76 0.75 1.02 1.33 1.02 0.93 0.78 0.76 0.66 0.59
0.00 0.00 0.00 0.00 0.00 0.00 0.00 0.00 0.00 0.01 0.11 0.10 0.14 0.07 0.01 0.00 0.00 0.00 0.01 0.02 0.04 0.10 0.40 0.69 0.82 1.10 1.07 0.60 0.50 0.53 0.52 0.40 0.55 0.57 0.64 0.81 1.02 1.01 0.91 0.83 0.81 0.93 0.97 0.93 1.15 1.37 1.54 1.26 0.84
0.02 0.02 0.00 0.00 0.00 0.00 0.00 0.00 0.00 0.00 0.00 0.02 0.03 0.03 0.02 0.00 0.00 0.01 0.03 0.06 0.12 0.24 0.52 0.61 0.48 0.33 0.16 0.11 0.21 0.36 0.47 0.48 0.46 0.54 0.71 0.67 0.99 1.00 0.85 0.86 0.84 0.98 1.09 0.99 0.79 0.86 0.95 0.92 0.80
0.01 0.01 0.00 0.00 0.00 0.02 0.02 0.01 0.00 0.00 0.01 0.01 0.01 0.01 0.01 0.01 0.00 0.02 0.06 0.13 0.17 0.15 0.15 0.09 0.06 0.05 0.09 0.12 0.31 0.53 0.86 0.80 0.67 0.54 0.57 0.73 0.91 1.08 0.98 0.88 0.78 0.78 1.16 1.41 1.18 1.07 1.00 0.84 0.78
0.06 0.00 0.00 0.02 0.08 0.10 0.05 0.06 0.00 0.00 0.00 0.00 0.00 0.00 0.01 0.03 0.02 0.03 0.02 0.01 0.00 0.01 0.09 0.07 0.07 0.08 0.12 0.14 0.24 0.41 0.41 0.31 0.23 0.23 0.28 0.41 0.75 1.13 0.93 1.17 1.24 1.16 0.93 1.07 1.44 1.38 1.17 1.16 1.13
0.07 0.00 0.01 0.01 0.02 0.08 0.07 0.12 0.03 0.01 0.01 0.00 0.00 0.01 0.00 0.01 0.00 0.00 0.00 0.00 0.01 0.02 0.07 0.09 0.11 0.11 0.09 0.12 0.19 0.48 0.55 0.52 0.50 0.61 0.77 0.89 1.05 1.37 1.33 1.13 1.56 1.67 1.58 1.24 1.51 1.84 1.99 1.80 1.73
0.02 0.02 0.03 0.05 0.09 0.22 0.04 0.10 0.05 0.03 0.11 0.09 0.14 0.08 0.04 0.04 0.03 0.01 0.02 0.01 0.01 0.04 0.06 0.05 0.13 0.10 0.16 0.21 0.25 0.36 0.49 0.54 0.55 0.56 0.63 0.80 1.03 1.37 1.55 1.76 1.79 2.24 2.23 2.02 1.72 1.67 2.05 2.40 2.28
0.05 0.04 0.14 0.31 0.24 0.12 0.06 0.07 0.03 0.18 0.25 0.35 0.32 0.30 0.30 0.11 0.09 0.06 0.04 0.02 0.01 0.02 0.06 0.14 0.18 0.19 0.21 0.37 0.46 0.47 0.54 0.68 0.45 0.33 0.41 0.50 0.71 0.69 0.81 0.99 1.21 1.46 1.87 1.70 1.73 1.68 1.49 1.48 1.46
0.05 0.05 0.10 0.36 0.22 0.19 0.12 0.11 0.12 0.40 0.31 0.65 0.33 0.59 0.42 0.19 0.18 0.12 0.10 0.08 0.10 0.10 0.06 0.12 0.15 0.27 0.28 0.41 0.56 0.70 0.64 0.76 0.64 0.48 0.58 0.50 0.49 0.53 0.71 0.91 1.13 1.27 1.70 1.91 1.55 1.42 1.64 1.69 1.55
0.08 0.08 0.05 0.20 0.23 0.31 0.12 0.14 0.28 0.28 0.15 0.61 0.41 0.52 0.77 0.28 0.31 0.30 0.26 0.23 0.25 0.23 0.18 0.22 0.25 0.34 0.39 0.42 0.54 0.84 1.03 0.94 0.87 0.82 1.22 1.22 0.80 0.66 0.76 1.23 1.61 1.81 2.21 2.15 2.39 2.04 1.53 1.88 1.81
0.04 0.04 0.10 0.23 0.50 0.40 0.18 0.23 0.43 0.33 0.21 0.44 0.93 0.64 0.84 0.48 0.39 0.42 0.52 0.51 0.36 0.39 0.33 0.30 0.31 0.34 0.37 0.43 0.54 0.75 0.99 1.16 1.04 1.07 1.23 1.55 1.58 1.26 1.23 1.40 1.63 2.03 1.92 2.09 2.04 2.16 1.54 1.13 1.29
0.04 0.07 0.10 0.20 0.21 0.38 0.53 0.65 0.87 0.62 0.43 0.48 0.63 1.16 0.73 0.76 0.52 0.61 0.96 0.95 0.68 0.61 0.52 0.46 0.45 0.47 0.49 0.56 0.54 0.66 1.01 0.99 1.50 1.93 1.89 2.02 2.29 2.20 1.87 1.54 1.67 1.74 1.94 2.12 1.75 1.54 1.45 1.33 1.14
0.05 0.08 0.10 0.31 0.28 0.37 0.71 1.55 1.11 0.73 0.60 0.57 0.68 1.16 1.22 0.89 0.82 0.60 0.56 0.78 1.14 1.06 0.71 0.54 0.49 0.69 1.15 1.41 1.47 1.29 1.66 1.90 1.99 2.34 2.24 1.78 2.47 2.53 2.32 2.31 1.93 2.17 1.90 1.63 1.55 1.38 1.21 1.31 1.27

GFSSGP_prec_precacc_156.txt.gz
Total_Precipitation_Accumulation
0.00 0.00 0.00 0.00 0.00 0.00 0.00 0.00 0.00 0.03 0.09 0.13 0.18 0.22 0.24 0.16 0.47 1.05 1.05 1.24 1.83 1.45 1.04 1.58 1.30 0.62 0.25 0.22 0.19 0.04 0.03 0.02 0.02 0.00 0.00 0.00 0.01 0.00 0.01 0.02 0.10 0.13 0.07 0.06 0.03 0.03 0.04 0.07 0.08
0.00 0.00 0.00 0.00 0.00 0.00 0.00 0.01 0.01 0.03 0.17 0.23 0.32 0.35 0.43 0.37 0.17 0.66 0.89 0.72 0.67 1.45 1.56 1.45 2.30 1.43 0.96 0.70 0.77 0.82 0.37 0.25 0.04 0.00 0.01 0.03 0.01 0.00 0.02 0.02 0.08 0.07 0.06 0.05 0.04 0.07 0.09 0.10 0.11
0.00 0.00 0.00 0.00 0.00 0.00 0.00 0.01 0.05 0.08 0.16 0.14 0.11 0.20 0.44 0.64 0.60 0.74 0.80 0.91 0.82 1.06 0.98 1.29 2.09 1.57 1.04 1.12 1.12 1.65 1.98 1.87 1.01 0.42 0.36 0.32 0.22 0.14 0.08 0.08 0.10 0.10 0.15 0.14 0.09 0.16 0.16 0.06 0.03
0.00 0.00 0.00 0.00 0.00 0.00 0.00 0.02 0.07 0.10 0.11 0.09 0.10 0.21 0.49 0.58 0.49 0.47 0.76 1.28 1.83 2.04 1.49 1.76 2.13 1.31 0.71 1.10 1.44 1.50 2.15 3.35 4.17 4.05 2.51 1.32 0.84 0.44 0.39 0.29 0.26 0.26 0.32 0.39 0.42 0.44 0.36 0.03 0.00
0.00 0.00 0.00 0.00 0.00 0.00 0.00 0.02 0.08 0.11 0.11 0.42 0.18 0.11 0.66 0.80 0.32 0.43 1.15 2.28 3.42 4.57 4.04 3.64 3.94 5.09 2.81 2.53 1.71 1.32 1.44 2.50 4.86 5.26 3.89 2.55 1.89 1.69 1.17 0.68 0.51 0.55 0.52 0.42 0.43 0.26 0.18 0.02 0.00
0.00 0.00 0.00 0.00 0.00 0.01 0.03 0.13 0.22 0.37 0.35 0.46 0.35 0.42 0.86 0.47 0.38 0.77 1.61 3.62 5.15 6.63 8.73 9.01 7.66 8.06 7.59 4.83 3.01 1.96 1.39 1.22 1.62 2.34 1.98 2.06 2.33 1.77 1.63 1.44 0.88 0.60 0.43 0.40 0.28 0.12 0.08 0.05 0.02
0.00 0.00 0.00 0.00 0.01 0.00 0.02 0.15 0.35 0.53 0.42 0.20 0.38 0.40 0.95 0.96 0.78 0.90 1.55 2.78 5.21 5.54 7.03 10.68 9.49 7.14 5.91 6.75 5.94 3.55 2.60 1.72 1.48 1.43 1.72 1.37 2.17 1.68 1.25 1.39 1.60 0.78 0.42 0.61 0.47 0.32 0.54 0.21 0.23
0.00 0.00 0.00 0.00 0.01 0.02 0.06 0.15 0.21 0.15 0.09 0.07 0.15 0.46 1.10 0.76 0.53 0.47 0.58 0.86 2.15 2.59 3.35 3.93 4.06 3.28 2.87 3.60 4.54 4.40 3.03 2.53 2.20 1.47 1.56 1.65 1.57 1.41 1.31 1.35 1.50 1.22 0.57 0.47 0.44 0.59 0.48 0.57 0.38
0.00 0.00 0.00 0.00 0.03 0.11 0.16 0.28 0.33 0.20 0.06 0.11 0.26 0.18 0.28 0.46 0.34 0.34 0.61 0.72 1.36 2.28 1.62 1.65 1.26 0.85 0.83 1.26 2.02 2.77 2.56 2.63 2.60 2.12 1.37 2.06 2.13 1.14 1.33 1.56 1.24 0.87 0.56 0.47 0.48 0.44 0.56 0.56 0.63
0.00 0.00 0.00 0.00 0.06 0.33 0.29 0.15 0.03 0.01 0.01 0.20 0.53 0.53 0.32 0.33 0.25 0.20 0.26 0.62 1.09 0.94 0.77 0.49 0.39 0.30 0.25 0.24 0.39 0.73 1.52 2.30 2.34 2.89 1.65 1.54 2.40 1.39 1.37 1.75 1.10 0.90 0.64 0.50 0.46 0.40 0.44 0.47 0.44
0.00 0.00 0.00 0.00 0.00 0.00 0.01 0.01 0.00 0.00 0.19 0.52 0.67 0.50 0.42 0.34 0.24 0.27 0.45 0.40 0.52 0.32 0.21 0.27 0.48 0.48 0.20 0.19 0.17 0.27 0.70 1.50 1.58 2.58 2.22 0.95 1.33 1.61 1.75 2.14 1.32 0.83 0.68 0.54 0.48 0.24 0.19 0.15 0.22
0.00 0.00 0.00 0.00 0.00 0.00 0.00 0.00 0.01 0.04 0.27 0.22 0.26 0.69 0.62 0.49 0.39 0.33 0.29 0.22 0.11 0.15 0.16 0.12 0.17 0.24 0.25 0.25 0.24 0.27 0.53 0.92 0.98 1.32 2.38 1.16 1.03 1.21 1.52 1.62 1.24 0.64 0.52 0.39 0.39 0.23 0.13 0.07 0.14
0.00 0.00 0.00 0.00 0.00 0.00 0.00 0.01 0.02 0.08 0.45 0.51 0.27 0.32 0.45 0.50 0.44 0.51 0.31 0.11 0.09 0.08 0.15 0.19 0.20 0.37 0.46 0.47 0.35 0.27 0.76 0.91 0.84 0.85 1.23 1.16 1.04 0.93 1.37 1.17 1.43 0.80 0.56 0.45 0.42 0.26 0.16 0.08 0.08
0.00 0.00 0.00 0.00 0.00 0.00 0.00 0.03 0.09 0.18 0.77 0.30 0.15 0.08 0.17 0.26 0.28 0.24 0.13 0.10 0.09 0.10 0.19 0.28 0.28 0.44 0.34 0.49 0.56 0.65 0.81 0.94 0.79 0.70 0.88 0.93 1.07 1.05 1.25 1.12 1.07 1.00 1.00 0.53 0.48 0.44 0.22 0.16 0.14
0.00 0.00 0.00 0.00 0.00 0.00 0.01 0.03 0.13 0.21 0.39 0.13 0.05 0.05 0.06 0.11 0.16 0.10 0.11 0.23 0.16 0.22 0.25 0.42 0.65 0.54 0.27 0.24 0.29 0.64 1.06 0.87 0.77 0.77 0.80 0.84 0.83 0.88 0.94 0.98 0.90 0.79 1.24 0.83 0.58 0.63 0.62 0.40 0.22
0.00 0.00 0.00 0.00 0.00 0.00 0.02 0.17 0.29 0.13 0.09 0.07 0.04 0.01 0.02 0.03 0.01 0.00 0.02 0.01 0.03 0.07 0.19 0.43 0.60 0.57 0.50 0.32 0.45 0.47 0.83 1.08 0.90 0.68 0.72 1.01 0.93 0.85 0.73 0.90 0.75 0.95 0.98 0.80 0.65 0.81 0.83 0.71 0.33
0.00 0.00 0.00 0.00 0.00 0.00 0.01 0.03 0.15 0.07 0.09 0.12 0.10 0.04 0.00 0.02 0.01 0.00 0.00 0.01 0.02 0.02 0.19 0.61 0.80 0.77 0.74 0.64 0.64 0.90 0.87 0.92 0.72 0.74 0.66 0.64 0.64 0.85 0.73 0.75 0.91 1.17 1.27 1.15 1.15 1.03 0.98 0.75 0.57
0.00 0.00 0.00 0.00 0.00 0.00 0.00 0.00 0.09 0.05 0.03 0.09 0.15 0.10 0.02 0.01 0.00 0.00 0.00 0.02 0.03 0.03 0.26 0.64 0.84 1.09 1.18 1.10 0.96 0.77 0.73 0.66 0.67 0.60 0.64 0.73 0.76 0.72 0.84 0.76 0.75 1.02 1.33 1.02 0.93 0.78 0.80 0.71 0.64
0.00 0.00 0.00 0.00 0.00 0.00 0.00 0.00 0.00 0.01 0.11 0.10 0.14 0.07 0.01 0.00 0.00 0.00 0.01 0.02 0.04 0.10 0.40 0.69 0.82 1.10 1.07 0.60 0.50 0.53 0.52 0.40 0.55 0.57 0.64 0.81 1.02 1.01 0.91 0.83 0.81 0.94 0.97 0.93 1.15 1.38 1.56 1.32 0.88
0.02 0.02 0.00 0.00 0.00 0.00 0.00 0.00 0.00 0.00 0.00 0.02 0.03 0.03 0.02 0.00 0.00 0.01 0.03 0.06 0.12 0.24 0.52 0.61 0.48 0.33 0.16 0.11 0.21 0.36 0.47 0.48 0.46 0.54 0.71 0.67 0.99 1.00 0.85 0.86 0.85 0.98 1.09 0.99 0.79 0.86 0.96 0.96 0.87
0.01 0.01 0.00 0.00 0.00 0.02 0.02 0.01 0.00 0.00 0.01 0.01 0.01 0.01 0.01 0.01 0.00 0.02 0.06 0.13 0.17 0.15 0.15 0.09 0.06 0.05 0.09 0.12 0.31 0.53 0.86 0.80 0.67 0.54 0.57 0.73 0.91 1.08 0.98 0.88 0.78 0.79 1.16 1.42 1.19 1.07 1.01 0.87 0.83
0.06 0.00 0.00 0.02 0.08 0.10 0.05 0.06 0.00 0.00 0.00 0.00 0.00 0.00 0.01 0.03 0.02 0.03 0.02 0.01 0.00 0.01 0.09 0.07 0.07 0.08 0.12 0.14 0.24 0.41 0.41 0.31 0.23 0.23 0.28 0.41 0.75 1.13 0.93 1.17 1.24 1.16 0.93 1.07 1.44 1.38 1.18 1.19 1.16
0.07 0.00 0.01 0.01 0.02 0.08 0.07 0.12 0.03 0.01 0.01 0.00 0.00 0.01 0.00 0.01 0.00 0.00 0.00 0.00 0.01 0.02 0.07 0.09 0.11 0.11 0.09 0.12 0.19 0.48 0.55 0.52 0.50 0.61 0.77 0.89 1.05 1.37 1.33 1.13 1.56 1.67 1.59 1.24 1.51 1.85 2.00 1.81 1.76
0.02 0.02 0.03 0.05 0.09 0.22 0.04 0.10 0.05 0.03 0.11 0.09 0.14 0.08 0.04 0.04 0.03 0.01 0.02 0.01 0.01 0.04 0.06 0.05 0.13 0.10 0.16 0.21 0.25 0.36 0.49 0.54 0.55 0.56 0.64 0.80 1.03 1.37 1.55 1.76 1.79 2.24 2.23 2.02 1.72 1.68 2.05 2.41 2.29
0.05 0.04 0.14 0.31 0.24 0.12 0.06 0.07 0.03 0.18 0.25 0.35 0.32 0.30 0.30 0.11 0.09 0.06 0.04 0.02 0.01 0.02 0.06 0.14 0.18 0.19 0.21 0.37 0.46 0.47 0.54 0.68 0.45 0.33 0.41 0.50 0.71 0.69 0.81 0.99 1.22 1.46 1.87 1.70 1.73 1.68 1.49 1.48 1.47
0.05 0.05 0.10 0.36 0.22 0.19 0.12 0.11 0.12 0.40 0.31 0.65 0.33 0.59 0.42 0.19 0.18 0.12 0.10 0.08 0.10 0.10 0.06 0.12 0.15 0.27 0.28 0.41 0.56 0.70 0.64 0.76 0.64 0.48 0.58 0.50 0.49 0.53 0.71 0.91 1.13 1.27 1.70 1.91 1.55 1.42 1.65 1.69 1.55
0.08 0.08 0.05 0.20 0.23 0.32 0.12 0.14 0.28 0.28 0.15 0.61 0.41 0.52 0.77 0.28 0.31 0.30 0.26 0.23 0.25 0.23 0.18 0.22 0.25 0.34 0.39 0.42 0.54 0.84 1.03 0.94 0.87 0.82 1.22 1.23 0.80 0.66 0.76 1.23 1.61 1.81 2.21 2.15 2.39 2.04 1.53 1.88 1.81
0.04 0.04 0.10 0.23 0.51 0.41 0.18 0.23 0.43 0.33 0.21 0.44 0.93 0.64 0.84 0.48 0.39 0.42 0.52 0.51 0.36 0.39 0.33 0.30 0.31 0.34 0.37 0.43 0.54 0.75 0.99 1.16 1.04 1.07 1.23 1.55 1.58 1.26 1.23 1.40 1.63 2.03 1.92 2.09 2.05 2.16 1.54 1.13 1.29
0.04 0.07 0.10 0.20 0.22 0.39 0.54 0.66 0.87 0.62 0.43 0.48 0.63 1.16 0.73 0.76 0.52 0.61 0.96 0.95 0.68 0.61 0.52 0.46 0.45 0.47 0.49 0.56 0.54 0.66 1.01 0.99 1.50 1.93 1.89 2.02 2.29 2.20 1.87 1.54 1.67 1.74 1.94 2.13 1.75 1.54 1.46 1.33 1.15
0.05 0.08 0.10 0.33 0.31 0.38 0.73 1.56 1.11 0.73 0.60 0.57 0.68 1.16 1.22 0.89 0.82 0.60 0.56 0.78 1.14 1.06 0.71 0.54 0.49 0.69 1.15 1.41 1.47 1.29 1.66 1.90 1.99 2.34 2.24 1.78 2.47 2.53 2.32 2.32 1.93 2.17 1.90 1.63 1.56 1.39 1.21 1.32 1.27

GFSSGP_prec_precacc_159.txt.gz
Total_Precipitation_Accumulation
0.00 0.00 0.00 0.00 0.00 0.00 0.00 0.00 0.00 0.03 0.09 0.13 0.18 0.22 0.24 0.16 0.47 1.09 1.09 1.25 1.87 1.50 1.06 1.58 1.30 0.62 0.25 0.22 0.19 0.04 0.03 0.02 0.02 0.00 0.00 0.00 0.01 0.00 0.01 0.02 0.10 0.13 0.07 0.06 0.03 0.03 0.04 0.07 0.08
0.00 0.00 0.00 0.00 0.00 0.00 0.00 0.01 0.01 0.03 0.17 0.23 0.32 0.35 0.43 0.37 0.17 0.66 0.89 0.72 0.68 1.48 1.58 1.45 2.30 1.43 0.96 0.70 0.77 0.82 0.37 0.25 0.04 0.00 0.03 0.03 0.01 0.00 0.02 0.02 0.08 0.07 0.06 0.05 0.04 0.07 0.09 0.10 0.11
0.00 0.00 0.00 0.00 0.00 0.00 0.00 0.01 0.05 0.08 0.16 0.14 0.11 0.20 0.44 0.64 0.60 0.74 0.80 0.91 0.82 1.06 0.98 1.29 2.09 1.57 1.04 1.12 1.12 1.65 1.98 1.87 1.01 0.42 0.37 0.35 0.25 0.14 0.08 0.08 0.10 0.10 0.15 0.14 0.09 0.16 0.16 0.06 0.03
0.00 0.00 0.00 0.00 0.00 0.00 0.00 0.02 0.07 0.10 0.11 0.09 0.10 0.21 0.49 0.58 0.49 0.47 0.76 1.28 1.83 2.04 1.49 1.76 2.13 1.31 0.71 1.10 1.44 1.50 2.15 3.35 4.17 4.05 2.51 1.32 0.84 0.44 0.39 0.29 0.26 0.26 0.32 0.39 0.42 0.44 0.36 0.03 0.00
0.00 0.00 0.00 0.00 0.00 0.00 0.00 0.02 0.08 0.11 0.11 0.42 0.18 0.11 0.66 0.80 0.32 0.43 1.15 2.28 3.42 4.57 4.04 3.64 3.94 5.09 2.81 2.53 1.73 1.33 1.45 2.50 4.86 5.26 3.89 2.55 1.89 1.69 1.17 0.68 0.51 0.55 0.52 0.42 0.43 0.26 0.18 0.02 0.00
0.00 0.00 0.00 0.00 0.00 0.01 0.03 0.13 0.22 0.37 0.35 0.46 0.35 0.42 0.86 0.47 0.38 0.77 1.61 3.62 5.15 6.63 8.73 9.01 7.66 8.06 7.59 4.83 3.01 1.96 1.39 1.23 1.63 2.35 1.98 2.06 2.33 1.78 1.63 1.44 0.88 0.60 0.43 0.40 0.28 0.12 0.08 0.05 0.02
0.00 0.00 0.00 0.00 0.01 0.00 0.02 0.15 0.35 0.53 0.42 0.20 0.38 0.40 0.95 0.96 0.78 0.90 1.55 2.78 5.21 5.54 7.03 10.68 9.49 7.14 5.91 6.75 5.95 3.55 2.60 1.72 1.48 1.47 1.78 1.41 2.18 1.70 1.27 1.39 1.60 0.78 0.42 0.61 0.47 0.32 0.54 0.21 0.23
0.00 0.00 0.00 0.00 0.01 0.02 0.06 0.15 0.21 0.15 0.09 0.07 0.15 0.46 1.10 0.76 0.53 0.47 0.58 0.86 2.15 2.59 3.35 3.93 4.06 3.28 2.87 3.60 4.54 4.40 3.03 2.53 2.20 1.48 1.61 1.74 1.66 1.47 1.34 1.36 1.50 1.22 0.57 0.47 0.44 0.59 0.48 0.57 0.38
0.00 0.00 0.00 0.00 0.03 0.11 0.16 0.28 0.33 0.20 0.06 0.11 0.26 0.18 0.28 0.46 0.34 0.34 0.61 0.72 1.36 2.28 1.62 1.65 1.26 0.85 0.83 1.26 2.02 2.77 2.56 2.63 2.60 2.12 1.37 2.08 2.20 1.29 1.52 1.71 1.39 0.92 0.57 0.47 0.49 0.45 0.56 0.56 0.63
0.00 0.00 0.00 0.00 0.06 0.33 0.29 0.15 0.03 0.01 0.01 0.20 0.53 0.53 0.32 0.33 0.25 0.20 0.26 0.62 1.09 0.94 0.77 0.49 0.39 0.30 0.25 0.24 0.39 0.73 1.52 2.30 2.34 2.89 1.65 1.54 2.40 1.40 1.46 1.84 1.29 1.08 0.68 0.50 0.47 0.43 0.45 0.47 0.44
0.00 0.00 0.00 0.00 0.00 0.00 0.01 0.01 0.00 0.00 0.19 0.52 0.67 0.50 0.42 0.34 0.24 0.27 0.45 0.40 0.52 0.32 0.21 0.27 0.48 0.48 0.20 0.19 0.17 0.27 0.70 1.50 1.58 2.58 2.22 0.95 1.33 1.61 1.76 2.17 1.38 0.97 0.90 0.70 0.61 0.35 0.24 0.16 0.22
0.00 0.00 0.00 0.00 0.00 0.00 0.00 0.00 0.01 0.04 0.27 0.22 0.26 0.69 0.62 0.49 0.39 0.33 0.29 0.22 0.11 0.15 0.16 0.12 0.17 0.24 0.25 0.25 0.24 0.27 0.53 0.92 0.98 1.32 2.38 1.16 1.03 1.21 1.52 1.62 1.24 0.66 0.59 0.56 0.59 0.42 0.31 0.21 0.21
0.00 0.00 0.00 0.00 0.00 0.00 0.00 0.01 0.02 0.08 0.45 0.51 0.27 0.32 0.45 0.50 0.44 0.51 0.31 0.11 0.09 0.08 0.15 0.19 0.20 0.37 0.46 0.47 0.35 0.27 0.76 0.91 0.84 0.85 1.23 1.16 1.04 0.93 1.37 1.17 1.43 0.80 0.56 0.47 0.50 0.40 0.33 0.29 0.25
0.00 0.00 0.00 0.00 0.00 0.00 0.00 0.03 0.09 0.18 0.77 0.30 0.15 0.08 0.17 0.26 0.28 0.24 0.13 0.10 0.09 0.10 0.19 0.28 0.28 0.44 0.34 0.49 0.56 0.65 0.81 0.94 0.79 0.70 0.88 0.93 1.07 1.05 1.25 1.12 1.07 1.00 1.00 0.53 0.49 0.46 0.27 0.30 0.34
0.00 0.00 0.00 0.00 0.00 0.00 0.01 0.03 0.13 0.21 0.39 0.13 0.05 0.05 0.06 0.11 0.16 0.10 0.11 0.23 0.16 0.22 0.25 0.42 0.65 0.54 0.27 0.24 0.29 0.64 1.06 0.87 0.77 0.77 0.80 0.84 0.83 0.88 0.94 0.98 0.90 0.79 1.24 0.83 0.58 0.63 0.62 0.45 0.31
0.00 0.00 0.00 0.00 0.00 0.00 0.02 0.17 0.29 0.13 0.09 0.07 0.04 0.01 0.02 0.03 0.01 0.00 0.02 0.01 0.03 0.07 0.19 0.43 0.60 0.57 0.50 0.32 0.45 0.47 0.83 1.08 0.90 0.68 0.72 1.01 0.93 0.85 0.73 0.90 0.75 0.95 0.98 0.80 0.65 0.81 0.84 0.72 0.36
0.00 0.00 0.00 0.00 0.00 0.00 0.01 0.03 0.15 0.07 0.09 0.12 0.10 0.04 0.00 0.02 0.01 0.00 0.00 0.01 0.02 0.02 0.19 0.61 0.80 0.77 0.74 0.64 0.64 0.90 0.87 0.92 0.72 0.74 0.66 0.64 0.64 0.85 0.73 0.75 0.91 1.17 1.27 1.15 1.15 1.03 0.99 0.76 0.59
0.00 0.00 0.00 0.00 0.00 0.00 0.00 0.00 0.09 0.05 0.03 0.09 0.15 0.10 0.02 0.01 0.00 0.00 0.00 0.02 0.03 0.03 0.26 0.64 0.84 1.09 1.18 1.10 0.96 0.77 0.73 0.66 0.67 0.60 0.64 0.73 0.76 0.72 0.84 0.76 0.75 1.02 1.33 1.02 0.93 0.78 0.80 0.71 0.64
0.00 0.00 0.00 0.00 0.00 0.00 0.00 0.00 0.00 0.01 0.11 0.10 0.14 0.07 0.01 0.00 0.00 0.00 0.01 0.02 0.04 0.10 0.40 0.69 0.82 1.10 1.07 0.60 0.50 0.53 0.52 0.40 0.55 0.57 0.64 0.81 1.02 1.01 0.91 0.83 0.81 0.94 0.97 0.94 1.15 1.38 1.56 1.32 0.88
0.02 0.02 0.00 0.00 0.00 0.00 0.00 0.00 0.00 0.00 0.00 0.02 0.03 0.03 0.02 0.00 0.00 0.01 0.03 0.06 0.12 0.24 0.52 0.61 0.48 0.33 0.16 0.11 0.21 0.36 0.47 0.48 0.46 0.54 0.71 0.67 0.99 1.00 0.85 0.86 0.85 0.99 1.09 0.99 0.79 0.87 0.97 0.97 0.88
0.01 0.01 0.00 0.00 0.00 0.02 0.02 0.01 0.00 0.00 0.01 0.01 0.01 0.01 0.01 0.01 0.00 0.02 0.06 0.13 0.17 0.15 0.15 0.09 0.06 0.05 0.09 0.12 0.31 0.53 0.86 0.80 0.67 0.54 0.57 0.73 0.91 1.08 0.98 0.88 0.78 0.79 1.17 1.42 1.19 1.07 1.01 0.87 0.84
0.06 0.00 0.00 0.02 0.08 0.10 0.05 0.06 0.00 0.00 0.00 0.00 0.00 0.00 0.01 0.03 0.02 0.03 0.02 0.01 0.00 0.01 0.09 0.07 0.07 0.08 0.12 0.14 0.24 0.41 0.41 0.31 0.23 0.23 0.28 0.41 0.75 1.13 0.93 1.17 1.24 1.16 0.93 1.08 1.44 1.39 1.18 1.19 1.16
0.07 0.00 0.01 0.01 0.02 0.08 0.07 0.12 0.03 0.01 0.01 0.00 0.00 0.01 0.00 0.01 0.00 0.00 0.00 0.00 0.01 0.02 0.07 0.09 0.11 0.11 0.09 0.12 0.19 0.48 0.55 0.52 0.50 0.61 0.77 0.89 1.05 1.37 1.33 1.13 1.56 1.67 1.59 1.25 1.52 1.85 2.00 1.81 1.76
0.02 0.02 0.03 0.05 0.09 0.22 0.04 0.10 0.05 0.03 0.11 0.09 0.14 0.08 0.04 0.04 0.03 0.01 0.02 0.01 0.01 0.04 0.06 0.05 0.13 0.10 0.16 0.21 0.25 0.36 0.49 0.54 0.55 0.56 0.64 0.80 1.03 1.37 1.55 1.76 1.79 2.24 2.23 2.02 1.72 1.68 2.05 2.41 2.29
0.05 0.04 0.14 0.31 0.24 0.12 0.06 0.07 0.03 0.18 0.25 0.35 0.32 0.30 0.30 0.11 0.09 0.06 0.04 0.02 0.01 0.02 0.06 0.14 0.18 0.19 0.21 0.37 0.46 0.47 0.54 0.68 0.45 0.33 0.41 0.50 0.71 0.69 0.81 0.99 1.22 1.46 1.87 1.70 1.73 1.68 1.49 1.48 1.47
0.05 0.05 0.10 0.36 0.22 0.19 0.12 0.11 0.12 0.40 0.31 0.65 0.33 0.59 0.42 0.19 0.18 0.12 0.10 0.08 0.10 0.10 0.06 0.12 0.15 0.27 0.28 0.41 0.56 0.70 0.64 0.76 0.64 0.48 0.58 0.50 0.49 0.53 0.71 0.91 1.13 1.27 1.70 1.91 1.55 1.42 1.65 1.70 1.56
0.08 0.08 0.05 0.20 0.23 0.32 0.12 0.14 0.28 0.28 0.15 0.61 0.41 0.52 0.77 0.28 0.31 0.30 0.26 0.23 0.25 0.23 0.18 0.22 0.25 0.34 0.39 0.42 0.54 0.84 1.03 0.94 0.87 0.82 1.22 1.23 0.80 0.66 0.76 1.23 1.61 1.81 2.21 2.15 2.39 2.04 1.54 1.89 1.81
0.04 0.04 0.10 0.23 0.52 0.42 0.18 0.23 0.43 0.33 0.21 0.44 0.93 0.64 0.84 0.48 0.39 0.42 0.52 0.51 0.36 0.39 0.33 0.30 0.31 0.34 0.37 0.43 0.54 0.75 0.99 1.16 1.04 1.07 1.23 1.55 1.58 1.26 1.23 1.40 1.63 2.03 1.92 2.09 2.05 2.17 1.54 1.14 1.29
0.04 0.07 0.10 0.20 0.23 0.41 0.56 0.66 0.87 0.62 0.43 0.48 0.63 1.16 0.73 0.76 0.52 0.61 0.97 0.95 0.68 0.61 0.52 0.46 0.45 0.47 0.49 0.56 0.54 0.66 1.01 0.99 1.50 1.93 1.89 2.02 2.29 2.20 1.87 1.54 1.67 1.74 1.94 2.13 1.76 1.54 1.46 1.34 1.15
0.05 0.08 0.10 0.34 0.32 0.41 0.77 1.59 1.11 0.73 0.60 0.57 0.68 1.16 1.22 0.89 0.82 0.60 0.56 0.78 1.14 1.06 0.71 0.54 0.49 0.69 1.15 1.41 1.47 1.29 1.66 1.90 1.99 2.34 2.24 1.78 2.47 2.53 2.32 2.32 1.93 2.17 1.90 1.63 1.56 1.39 1.21 1.32 1.28